<?xml version='1.0' encoding='UTF-8'?><gpx version="1.1" creator="JPX - https://github.com/jenetics/jpx" xmlns="http://www.topografix.com/GPX/1/1"><trk><trkseg><trkpt lat="43.0850089" lon="12.5072797"><ele>201.0</ele><time>2026-05-03T08:27:18.343Z</time></trkpt><trkpt lat="43.085091" lon="12.507319"><ele>201.0</ele><time>2026-05-03T08:27:19.342Z</time></trkpt><trkpt lat="43.0851759" lon="12.5073579"><ele>201.0</ele><time>2026-05-03T08:27:20.344Z</time></trkpt><trkpt lat="43.0852612" lon="12.5073971"><ele>201.0</ele><time>2026-05-03T08:27:21.341Z</time></trkpt><trkpt lat="43.0853487" lon="12.507437"><ele>201.0</ele><time>2026-05-03T08:27:22.342Z</time></trkpt><trkpt lat="43.0854351" lon="12.5074779"><ele>201.0</ele><time>2026-05-03T08:27:23.343Z</time></trkpt><trkpt lat="43.0855244" lon="12.5075233"><ele>201.0</ele><time>2026-05-03T08:27:24.342Z</time></trkpt><trkpt lat="43.0856097" lon="12.5075633"><ele>201.0</ele><time>2026-05-03T08:27:25.342Z</time></trkpt><trkpt lat="43.0856862" lon="12.5076024"><ele>201.0</ele><time>2026-05-03T08:27:26.343Z</time></trkpt><trkpt lat="43.0857611" lon="12.5076393"><ele>201.0</ele><time>2026-05-03T08:27:27.342Z</time></trkpt><trkpt lat="43.0858342" lon="12.5076757"><ele>201.0</ele><time>2026-05-03T08:27:28.342Z</time></trkpt><trkpt lat="43.0859075" lon="12.5077158"><ele>201.0</ele><time>2026-05-03T08:27:29.342Z</time></trkpt><trkpt lat="43.0859843" lon="12.5077515"><ele>201.0</ele><time>2026-05-03T08:27:30.342Z</time></trkpt><trkpt lat="43.0860613" lon="12.5077913"><ele>201.0</ele><time>2026-05-03T08:27:31.342Z</time></trkpt><trkpt lat="43.086139" lon="12.5078341"><ele>201.0</ele><time>2026-05-03T08:27:32.343Z</time></trkpt><trkpt lat="43.0862146" lon="12.5078788"><ele>201.0</ele><time>2026-05-03T08:27:33.342Z</time></trkpt><trkpt lat="43.0862851" lon="12.5079193"><ele>201.0</ele><time>2026-05-03T08:27:34.342Z</time></trkpt><trkpt lat="43.0863435" lon="12.507955"><ele>200.5</ele><time>2026-05-03T08:27:35.343Z</time></trkpt><trkpt lat="43.0864301" lon="12.508023"><ele>200.0</ele><time>2026-05-03T08:27:37.342Z</time></trkpt><trkpt lat="43.0864771" lon="12.5081115"><ele>199.5</ele><time>2026-05-03T08:27:39.342Z</time></trkpt><trkpt lat="43.0864609" lon="12.50825"><ele>199.0</ele><time>2026-05-03T08:27:41.343Z</time></trkpt><trkpt lat="43.0864407" lon="12.508338"><ele>198.5</ele><time>2026-05-03T08:27:42.343Z</time></trkpt><trkpt lat="43.0864021" lon="12.5084316"><ele>198.0</ele><time>2026-05-03T08:27:43.342Z</time></trkpt><trkpt lat="43.0863657" lon="12.5085171"><ele>198.0</ele><time>2026-05-03T08:27:44.342Z</time></trkpt><trkpt lat="43.086342" lon="12.508607"><ele>198.0</ele><time>2026-05-03T08:27:45.343Z</time></trkpt><trkpt lat="43.0863142" lon="12.5087062"><ele>198.0</ele><time>2026-05-03T08:27:46.342Z</time></trkpt><trkpt lat="43.0862902" lon="12.5088054"><ele>198.0</ele><time>2026-05-03T08:27:47.342Z</time></trkpt><trkpt lat="43.0862577" lon="12.5089101"><ele>198.0</ele><time>2026-05-03T08:27:48.342Z</time></trkpt><trkpt lat="43.0862279" lon="12.5090203"><ele>198.0</ele><time>2026-05-03T08:27:49.342Z</time></trkpt><trkpt lat="43.0861982" lon="12.5091333"><ele>197.8</ele><time>2026-05-03T08:27:50.342Z</time></trkpt><trkpt lat="43.0861683" lon="12.5092417"><ele>197.60000000000002</ele><time>2026-05-03T08:27:51.342Z</time></trkpt><trkpt lat="43.0861396" lon="12.5093567"><ele>197.39999999999998</ele><time>2026-05-03T08:27:52.342Z</time></trkpt><trkpt lat="43.0861108" lon="12.5094745"><ele>197.2</ele><time>2026-05-03T08:27:53.342Z</time></trkpt><trkpt lat="43.0860795" lon="12.5095991"><ele>197.0</ele><time>2026-05-03T08:27:54.342Z</time></trkpt><trkpt lat="43.0860477" lon="12.5097224"><ele>197.39999999999998</ele><time>2026-05-03T08:27:55.342Z</time></trkpt><trkpt lat="43.0860187" lon="12.5098412"><ele>197.79999999999998</ele><time>2026-05-03T08:27:56.342Z</time></trkpt><trkpt lat="43.0859893" lon="12.5099594"><ele>198.2</ele><time>2026-05-03T08:27:57.342Z</time></trkpt><trkpt lat="43.0859535" lon="12.51008"><ele>198.6</ele><time>2026-05-03T08:27:58.342Z</time></trkpt><trkpt lat="43.0859223" lon="12.5101948"><ele>199.0</ele><time>2026-05-03T08:27:59.342Z</time></trkpt><trkpt lat="43.0858955" lon="12.510323"><ele>199.0</ele><time>2026-05-03T08:28:00.342Z</time></trkpt><trkpt lat="43.085863" lon="12.5104554"><ele>199.0</ele><time>2026-05-03T08:28:01.342Z</time></trkpt><trkpt lat="43.0858235" lon="12.5105871"><ele>199.0</ele><time>2026-05-03T08:28:02.342Z</time></trkpt><trkpt lat="43.0857909" lon="12.5107292"><ele>199.0</ele><time>2026-05-03T08:28:03.342Z</time></trkpt><trkpt lat="43.0857554" lon="12.5108641"><ele>199.0</ele><time>2026-05-03T08:28:04.342Z</time></trkpt><trkpt lat="43.0857242" lon="12.5110032"><ele>199.0</ele><time>2026-05-03T08:28:05.342Z</time></trkpt><trkpt lat="43.0856852" lon="12.5111485"><ele>199.0</ele><time>2026-05-03T08:28:06.342Z</time></trkpt><trkpt lat="43.0856461" lon="12.511302"><ele>199.0</ele><time>2026-05-03T08:28:07.342Z</time></trkpt><trkpt lat="43.0856026" lon="12.5114563"><ele>199.0</ele><time>2026-05-03T08:28:08.342Z</time></trkpt><trkpt lat="43.0855637" lon="12.5116086"><ele>199.25</ele><time>2026-05-03T08:28:09.342Z</time></trkpt><trkpt lat="43.0855157" lon="12.511767"><ele>199.5</ele><time>2026-05-03T08:28:10.342Z</time></trkpt><trkpt lat="43.0854745" lon="12.5119332"><ele>199.75</ele><time>2026-05-03T08:28:11.342Z</time></trkpt><trkpt lat="43.085429" lon="12.5120976"><ele>200.0</ele><time>2026-05-03T08:28:12.342Z</time></trkpt><trkpt lat="43.085394" lon="12.512257"><ele>200.5</ele><time>2026-05-03T08:28:13.343Z</time></trkpt><trkpt lat="43.0853543" lon="12.5124133"><ele>201.0</ele><time>2026-05-03T08:28:14.342Z</time></trkpt><trkpt lat="43.085318" lon="12.5125691"><ele>201.5</ele><time>2026-05-03T08:28:15.342Z</time></trkpt><trkpt lat="43.0852937" lon="12.5127373"><ele>202.0</ele><time>2026-05-03T08:28:16.342Z</time></trkpt><trkpt lat="43.0852714" lon="12.5129011"><ele>202.0</ele><time>2026-05-03T08:28:17.342Z</time></trkpt><trkpt lat="43.0853133" lon="12.5130487"><ele>202.0</ele><time>2026-05-03T08:28:18.342Z</time></trkpt><trkpt lat="43.0853709" lon="12.5131875"><ele>202.0</ele><time>2026-05-03T08:28:19.342Z</time></trkpt><trkpt lat="43.0854489" lon="12.5133175"><ele>202.0</ele><time>2026-05-03T08:28:20.342Z</time></trkpt><trkpt lat="43.0855306" lon="12.5134293"><ele>202.0</ele><time>2026-05-03T08:28:21.342Z</time></trkpt><trkpt lat="43.0856052" lon="12.5135655"><ele>202.0</ele><time>2026-05-03T08:28:22.343Z</time></trkpt><trkpt lat="43.0856646" lon="12.5137204"><ele>202.0</ele><time>2026-05-03T08:28:23.342Z</time></trkpt><trkpt lat="43.0856881" lon="12.5138773"><ele>202.0</ele><time>2026-05-03T08:28:24.343Z</time></trkpt><trkpt lat="43.0856887" lon="12.5140451"><ele>202.0</ele><time>2026-05-03T08:28:25.342Z</time></trkpt><trkpt lat="43.0856587" lon="12.5142084"><ele>202.0</ele><time>2026-05-03T08:28:26.342Z</time></trkpt><trkpt lat="43.0856318" lon="12.5143694"><ele>202.0</ele><time>2026-05-03T08:28:27.342Z</time></trkpt><trkpt lat="43.0855937" lon="12.5145371"><ele>202.0</ele><time>2026-05-03T08:28:28.342Z</time></trkpt><trkpt lat="43.0855624" lon="12.5147023"><ele>201.0</ele><time>2026-05-03T08:28:29.343Z</time></trkpt><trkpt lat="43.0855306" lon="12.5148836"><ele>200.0</ele><time>2026-05-03T08:28:30.343Z</time></trkpt><trkpt lat="43.0854916" lon="12.5150651"><ele>199.0</ele><time>2026-05-03T08:28:31.342Z</time></trkpt><trkpt lat="43.0854568" lon="12.5152437"><ele>198.0</ele><time>2026-05-03T08:28:32.342Z</time></trkpt><trkpt lat="43.0854185" lon="12.5154334"><ele>198.0</ele><time>2026-05-03T08:28:33.342Z</time></trkpt><trkpt lat="43.0853811" lon="12.5156263"><ele>198.0</ele><time>2026-05-03T08:28:34.342Z</time></trkpt><trkpt lat="43.0853413" lon="12.515826"><ele>198.0</ele><time>2026-05-03T08:28:35.342Z</time></trkpt><trkpt lat="43.0853002" lon="12.5160305"><ele>198.0</ele><time>2026-05-03T08:28:36.342Z</time></trkpt><trkpt lat="43.0852556" lon="12.5162323"><ele>198.0</ele><time>2026-05-03T08:28:37.342Z</time></trkpt><trkpt lat="43.0852134" lon="12.5164343"><ele>198.0</ele><time>2026-05-03T08:28:38.342Z</time></trkpt><trkpt lat="43.0851776" lon="12.5166328"><ele>198.33333333333331</ele><time>2026-05-03T08:28:39.342Z</time></trkpt><trkpt lat="43.0851736" lon="12.5168382"><ele>198.66666666666666</ele><time>2026-05-03T08:28:40.342Z</time></trkpt><trkpt lat="43.0851877" lon="12.517046"><ele>199.0</ele><time>2026-05-03T08:28:41.342Z</time></trkpt><trkpt lat="43.0852252" lon="12.5172442"><ele>199.66666666666666</ele><time>2026-05-03T08:28:42.342Z</time></trkpt><trkpt lat="43.0852846" lon="12.5174305"><ele>200.33333333333331</ele><time>2026-05-03T08:28:43.342Z</time></trkpt><trkpt lat="43.0853609" lon="12.5176121"><ele>201.0</ele><time>2026-05-03T08:28:44.342Z</time></trkpt><trkpt lat="43.0854683" lon="12.5177535"><ele>201.0</ele><time>2026-05-03T08:28:45.342Z</time></trkpt><trkpt lat="43.0855932" lon="12.5178733"><ele>201.0</ele><time>2026-05-03T08:28:46.342Z</time></trkpt><trkpt lat="43.0857278" lon="12.5179703"><ele>201.0</ele><time>2026-05-03T08:28:47.342Z</time></trkpt><trkpt lat="43.0858704" lon="12.5180492"><ele>201.33333333333331</ele><time>2026-05-03T08:28:48.343Z</time></trkpt><trkpt lat="43.0860128" lon="12.5181131"><ele>201.66666666666666</ele><time>2026-05-03T08:28:49.342Z</time></trkpt><trkpt lat="43.0861627" lon="12.5181808"><ele>202.0</ele><time>2026-05-03T08:28:50.342Z</time></trkpt><trkpt lat="43.08632" lon="12.518249"><ele>202.0</ele><time>2026-05-03T08:28:51.342Z</time></trkpt><trkpt lat="43.0864829" lon="12.5183255"><ele>202.0</ele><time>2026-05-03T08:28:52.342Z</time></trkpt><trkpt lat="43.0866429" lon="12.5183928"><ele>202.0</ele><time>2026-05-03T08:28:53.342Z</time></trkpt><trkpt lat="43.0868034" lon="12.5184678"><ele>202.33333333333331</ele><time>2026-05-03T08:28:54.342Z</time></trkpt><trkpt lat="43.0869577" lon="12.5185337"><ele>202.66666666666669</ele><time>2026-05-03T08:28:55.342Z</time></trkpt><trkpt lat="43.087117" lon="12.5185976"><ele>203.0</ele><time>2026-05-03T08:28:56.343Z</time></trkpt><trkpt lat="43.0872745" lon="12.5186616"><ele>202.33333333333334</ele><time>2026-05-03T08:28:57.342Z</time></trkpt><trkpt lat="43.0874279" lon="12.51873"><ele>201.66666666666669</ele><time>2026-05-03T08:28:58.343Z</time></trkpt><trkpt lat="43.0875856" lon="12.5188011"><ele>201.0</ele><time>2026-05-03T08:28:59.342Z</time></trkpt><trkpt lat="43.0877441" lon="12.5188727"><ele>200.66666666666669</ele><time>2026-05-03T08:29:00.342Z</time></trkpt><trkpt lat="43.0879026" lon="12.5189436"><ele>200.33333333333334</ele><time>2026-05-03T08:29:01.342Z</time></trkpt><trkpt lat="43.0880734" lon="12.5190074"><ele>200.0</ele><time>2026-05-03T08:29:02.342Z</time></trkpt><trkpt lat="43.0882412" lon="12.5190761"><ele>200.33333333333334</ele><time>2026-05-03T08:29:03.342Z</time></trkpt><trkpt lat="43.0884045" lon="12.5191505"><ele>200.66666666666669</ele><time>2026-05-03T08:29:04.342Z</time></trkpt><trkpt lat="43.0885646" lon="12.519223"><ele>201.0</ele><time>2026-05-03T08:29:05.342Z</time></trkpt><trkpt lat="43.0887314" lon="12.5192885"><ele>201.0</ele><time>2026-05-03T08:29:06.342Z</time></trkpt><trkpt lat="43.0889003" lon="12.5193461"><ele>201.0</ele><time>2026-05-03T08:29:07.342Z</time></trkpt><trkpt lat="43.0890718" lon="12.5193886"><ele>201.0</ele><time>2026-05-03T08:29:08.342Z</time></trkpt><trkpt lat="43.089257" lon="12.5194181"><ele>201.33333333333331</ele><time>2026-05-03T08:29:09.342Z</time></trkpt><trkpt lat="43.0894369" lon="12.5194553"><ele>201.66666666666666</ele><time>2026-05-03T08:29:10.342Z</time></trkpt><trkpt lat="43.0896121" lon="12.5194801"><ele>202.0</ele><time>2026-05-03T08:29:11.342Z</time></trkpt><trkpt lat="43.0897825" lon="12.5195192"><ele>202.0</ele><time>2026-05-03T08:29:12.342Z</time></trkpt><trkpt lat="43.0899712" lon="12.5195596"><ele>202.0</ele><time>2026-05-03T08:29:13.342Z</time></trkpt><trkpt lat="43.0901518" lon="12.5195905"><ele>202.0</ele><time>2026-05-03T08:29:14.342Z</time></trkpt><trkpt lat="43.0903274" lon="12.5196278"><ele>202.0</ele><time>2026-05-03T08:29:15.343Z</time></trkpt><trkpt lat="43.0905101" lon="12.5196516"><ele>202.0</ele><time>2026-05-03T08:29:16.342Z</time></trkpt><trkpt lat="43.0906918" lon="12.5196815"><ele>202.0</ele><time>2026-05-03T08:29:17.342Z</time></trkpt><trkpt lat="43.090873" lon="12.5197103"><ele>201.33333333333331</ele><time>2026-05-03T08:29:18.342Z</time></trkpt><trkpt lat="43.0910486" lon="12.5197453"><ele>200.66666666666669</ele><time>2026-05-03T08:29:19.342Z</time></trkpt><trkpt lat="43.0912364" lon="12.5197861"><ele>200.0</ele><time>2026-05-03T08:29:20.342Z</time></trkpt><trkpt lat="43.0914172" lon="12.5198097"><ele>201.0</ele><time>2026-05-03T08:29:21.342Z</time></trkpt><trkpt lat="43.0916043" lon="12.5198458"><ele>202.0</ele><time>2026-05-03T08:29:22.342Z</time></trkpt><trkpt lat="43.0917847" lon="12.5198833"><ele>203.0</ele><time>2026-05-03T08:29:23.342Z</time></trkpt><trkpt lat="43.0919659" lon="12.519918"><ele>203.0</ele><time>2026-05-03T08:29:24.342Z</time></trkpt><trkpt lat="43.0921469" lon="12.5199525"><ele>203.0</ele><time>2026-05-03T08:29:25.342Z</time></trkpt><trkpt lat="43.0923268" lon="12.5199867"><ele>203.0</ele><time>2026-05-03T08:29:26.342Z</time></trkpt><trkpt lat="43.0925058" lon="12.5200297"><ele>203.33333333333334</ele><time>2026-05-03T08:29:27.342Z</time></trkpt><trkpt lat="43.0926779" lon="12.5200737"><ele>203.66666666666669</ele><time>2026-05-03T08:29:28.342Z</time></trkpt><trkpt lat="43.0928546" lon="12.5201148"><ele>204.0</ele><time>2026-05-03T08:29:29.342Z</time></trkpt><trkpt lat="43.09303" lon="12.5201611"><ele>204.0</ele><time>2026-05-03T08:29:30.342Z</time></trkpt><trkpt lat="43.0932123" lon="12.5202033"><ele>204.0</ele><time>2026-05-03T08:29:31.342Z</time></trkpt><trkpt lat="43.093387" lon="12.5202432"><ele>204.0</ele><time>2026-05-03T08:29:32.342Z</time></trkpt><trkpt lat="43.0935589" lon="12.5202926"><ele>203.33333333333331</ele><time>2026-05-03T08:29:33.343Z</time></trkpt><trkpt lat="43.0937339" lon="12.5203453"><ele>202.66666666666666</ele><time>2026-05-03T08:29:34.342Z</time></trkpt><trkpt lat="43.0939033" lon="12.5204005"><ele>202.0</ele><time>2026-05-03T08:29:35.342Z</time></trkpt><trkpt lat="43.0940726" lon="12.5204544"><ele>201.0</ele><time>2026-05-03T08:29:36.342Z</time></trkpt><trkpt lat="43.0942433" lon="12.5205189"><ele>200.0</ele><time>2026-05-03T08:29:37.343Z</time></trkpt><trkpt lat="43.094409" lon="12.520575"><ele>199.0</ele><time>2026-05-03T08:29:38.342Z</time></trkpt><trkpt lat="43.0945812" lon="12.5206217"><ele>199.0</ele><time>2026-05-03T08:29:39.342Z</time></trkpt><trkpt lat="43.0947455" lon="12.5206679"><ele>199.0</ele><time>2026-05-03T08:29:40.342Z</time></trkpt><trkpt lat="43.0949244" lon="12.5207245"><ele>199.0</ele><time>2026-05-03T08:29:41.342Z</time></trkpt><trkpt lat="43.0951044" lon="12.5207741"><ele>200.33333333333331</ele><time>2026-05-03T08:29:42.343Z</time></trkpt><trkpt lat="43.0952728" lon="12.5208315"><ele>201.66666666666669</ele><time>2026-05-03T08:29:43.342Z</time></trkpt><trkpt lat="43.0954348" lon="12.5208879"><ele>203.0</ele><time>2026-05-03T08:29:44.343Z</time></trkpt><trkpt lat="43.0956011" lon="12.5209333"><ele>204.0</ele><time>2026-05-03T08:29:45.342Z</time></trkpt><trkpt lat="43.0957657" lon="12.5209847"><ele>205.0</ele><time>2026-05-03T08:29:46.342Z</time></trkpt><trkpt lat="43.0959364" lon="12.5210404"><ele>206.0</ele><time>2026-05-03T08:29:47.342Z</time></trkpt><trkpt lat="43.0961048" lon="12.5210825"><ele>206.0</ele><time>2026-05-03T08:29:48.343Z</time></trkpt><trkpt lat="43.0962816" lon="12.5211325"><ele>206.0</ele><time>2026-05-03T08:29:49.342Z</time></trkpt><trkpt lat="43.0964514" lon="12.5211897"><ele>206.0</ele><time>2026-05-03T08:29:50.342Z</time></trkpt><trkpt lat="43.0966318" lon="12.5212338"><ele>205.66666666666669</ele><time>2026-05-03T08:29:51.342Z</time></trkpt><trkpt lat="43.0968065" lon="12.5212874"><ele>205.33333333333331</ele><time>2026-05-03T08:29:52.342Z</time></trkpt><trkpt lat="43.0969776" lon="12.5213439"><ele>205.0</ele><time>2026-05-03T08:29:53.342Z</time></trkpt><trkpt lat="43.0971531" lon="12.5214004"><ele>205.0</ele><time>2026-05-03T08:29:54.342Z</time></trkpt><trkpt lat="43.0973266" lon="12.5214575"><ele>205.0</ele><time>2026-05-03T08:29:55.342Z</time></trkpt><trkpt lat="43.0975088" lon="12.5215034"><ele>205.0</ele><time>2026-05-03T08:29:56.342Z</time></trkpt><trkpt lat="43.0976807" lon="12.521554"><ele>204.66666666666666</ele><time>2026-05-03T08:29:57.342Z</time></trkpt><trkpt lat="43.097855" lon="12.5216073"><ele>204.33333333333331</ele><time>2026-05-03T08:29:58.342Z</time></trkpt><trkpt lat="43.0980281" lon="12.5216608"><ele>204.0</ele><time>2026-05-03T08:29:59.342Z</time></trkpt><trkpt lat="43.0982061" lon="12.5217027"><ele>204.0</ele><time>2026-05-03T08:30:00.342Z</time></trkpt><trkpt lat="43.0983836" lon="12.5217289"><ele>204.0</ele><time>2026-05-03T08:30:01.342Z</time></trkpt><trkpt lat="43.0985644" lon="12.5217246"><ele>204.0</ele><time>2026-05-03T08:30:02.342Z</time></trkpt><trkpt lat="43.098739" lon="12.5216999"><ele>204.0</ele><time>2026-05-03T08:30:03.342Z</time></trkpt><trkpt lat="43.0989101" lon="12.5216544"><ele>204.0</ele><time>2026-05-03T08:30:04.342Z</time></trkpt><trkpt lat="43.0990792" lon="12.5216028"><ele>204.0</ele><time>2026-05-03T08:30:05.342Z</time></trkpt><trkpt lat="43.0992436" lon="12.5215533"><ele>204.75</ele><time>2026-05-03T08:30:06.342Z</time></trkpt><trkpt lat="43.0993978" lon="12.5215095"><ele>205.5</ele><time>2026-05-03T08:30:07.343Z</time></trkpt><trkpt lat="43.0995451" lon="12.521486"><ele>206.25</ele><time>2026-05-03T08:30:08.342Z</time></trkpt><trkpt lat="43.0996839" lon="12.5215049"><ele>207.0</ele><time>2026-05-03T08:30:09.342Z</time></trkpt><trkpt lat="43.0998189" lon="12.521543"><ele>206.8</ele><time>2026-05-03T08:30:10.342Z</time></trkpt><trkpt lat="43.0999205" lon="12.5216078"><ele>206.6</ele><time>2026-05-03T08:30:11.342Z</time></trkpt><trkpt lat="43.1000248" lon="12.5216676"><ele>206.4</ele><time>2026-05-03T08:30:12.342Z</time></trkpt><trkpt lat="43.1001032" lon="12.5217473"><ele>206.20000000000002</ele><time>2026-05-03T08:30:13.342Z</time></trkpt><trkpt lat="43.1001658" lon="12.521839"><ele>206.0</ele><time>2026-05-03T08:30:14.342Z</time></trkpt><trkpt lat="43.1002299" lon="12.5219092"><ele>206.00000000000003</ele><time>2026-05-03T08:30:15.342Z</time></trkpt><trkpt lat="43.1002972" lon="12.5219644"><ele>206.0</ele><time>2026-05-03T08:30:16.342Z</time></trkpt><trkpt lat="43.1003808" lon="12.521965"><ele>206.0</ele><time>2026-05-03T08:30:17.342Z</time></trkpt><trkpt lat="43.1004509" lon="12.5219198"><ele>206.0</ele><time>2026-05-03T08:30:18.342Z</time></trkpt><trkpt lat="43.1005206" lon="12.5218338"><ele>206.00000000000003</ele><time>2026-05-03T08:30:19.342Z</time></trkpt><trkpt lat="43.1005839" lon="12.5217404"><ele>206.0</ele><time>2026-05-03T08:30:20.342Z</time></trkpt><trkpt lat="43.1006673" lon="12.5216472"><ele>205.75</ele><time>2026-05-03T08:30:21.342Z</time></trkpt><trkpt lat="43.1007566" lon="12.521548"><ele>205.5</ele><time>2026-05-03T08:30:22.342Z</time></trkpt><trkpt lat="43.1008668" lon="12.5214662"><ele>205.25</ele><time>2026-05-03T08:30:23.343Z</time></trkpt><trkpt lat="43.1009911" lon="12.5213939"><ele>205.0</ele><time>2026-05-03T08:30:24.342Z</time></trkpt><trkpt lat="43.1011237" lon="12.5213255"><ele>205.0</ele><time>2026-05-03T08:30:25.342Z</time></trkpt><trkpt lat="43.1012689" lon="12.5212524"><ele>205.0</ele><time>2026-05-03T08:30:26.342Z</time></trkpt><trkpt lat="43.1014152" lon="12.5211869"><ele>205.0</ele><time>2026-05-03T08:30:27.342Z</time></trkpt><trkpt lat="43.1015746" lon="12.5211464"><ele>205.66666666666666</ele><time>2026-05-03T08:30:28.342Z</time></trkpt><trkpt lat="43.1017372" lon="12.5211186"><ele>206.33333333333331</ele><time>2026-05-03T08:30:29.343Z</time></trkpt><trkpt lat="43.1019053" lon="12.5211119"><ele>207.0</ele><time>2026-05-03T08:30:30.342Z</time></trkpt><trkpt lat="43.1020751" lon="12.5211047"><ele>207.0</ele><time>2026-05-03T08:30:31.343Z</time></trkpt><trkpt lat="43.1022483" lon="12.5210967"><ele>207.0</ele><time>2026-05-03T08:30:32.342Z</time></trkpt><trkpt lat="43.1024217" lon="12.5210902"><ele>207.0</ele><time>2026-05-03T08:30:33.342Z</time></trkpt><trkpt lat="43.1025951" lon="12.5210945"><ele>206.66666666666669</ele><time>2026-05-03T08:30:34.342Z</time></trkpt><trkpt lat="43.1027705" lon="12.5211025"><ele>206.33333333333334</ele><time>2026-05-03T08:30:35.342Z</time></trkpt><trkpt lat="43.1029462" lon="12.5211099"><ele>206.0</ele><time>2026-05-03T08:30:36.342Z</time></trkpt><trkpt lat="43.103123" lon="12.5211065"><ele>205.66666666666669</ele><time>2026-05-03T08:30:37.343Z</time></trkpt><trkpt lat="43.1033088" lon="12.52112"><ele>205.33333333333331</ele><time>2026-05-03T08:30:38.342Z</time></trkpt><trkpt lat="43.1034997" lon="12.521118"><ele>205.0</ele><time>2026-05-03T08:30:39.342Z</time></trkpt><trkpt lat="43.1036849" lon="12.5211177"><ele>205.0</ele><time>2026-05-03T08:30:40.342Z</time></trkpt><trkpt lat="43.1038775" lon="12.5211208"><ele>205.0</ele><time>2026-05-03T08:30:41.343Z</time></trkpt><trkpt lat="43.1040598" lon="12.5211147"><ele>205.0</ele><time>2026-05-03T08:30:42.342Z</time></trkpt><trkpt lat="43.1042545" lon="12.5211271"><ele>205.66666666666666</ele><time>2026-05-03T08:30:43.342Z</time></trkpt><trkpt lat="43.1044482" lon="12.5211376"><ele>206.33333333333331</ele><time>2026-05-03T08:30:44.342Z</time></trkpt><trkpt lat="43.1046447" lon="12.5211421"><ele>207.0</ele><time>2026-05-03T08:30:45.342Z</time></trkpt><trkpt lat="43.1048429" lon="12.521142"><ele>207.33333333333331</ele><time>2026-05-03T08:30:46.342Z</time></trkpt><trkpt lat="43.1050426" lon="12.5211416"><ele>207.66666666666666</ele><time>2026-05-03T08:30:47.342Z</time></trkpt><trkpt lat="43.1052497" lon="12.5211362"><ele>208.0</ele><time>2026-05-03T08:30:48.342Z</time></trkpt><trkpt lat="43.1054494" lon="12.5211358"><ele>208.0</ele><time>2026-05-03T08:30:49.342Z</time></trkpt><trkpt lat="43.1056563" lon="12.5211344"><ele>208.0</ele><time>2026-05-03T08:30:50.342Z</time></trkpt><trkpt lat="43.1058675" lon="12.5211421"><ele>208.0</ele><time>2026-05-03T08:30:51.342Z</time></trkpt><trkpt lat="43.1060708" lon="12.5211491"><ele>208.33333333333331</ele><time>2026-05-03T08:30:52.342Z</time></trkpt><trkpt lat="43.1062756" lon="12.5211614"><ele>208.66666666666669</ele><time>2026-05-03T08:30:53.342Z</time></trkpt><trkpt lat="43.1064819" lon="12.5211879"><ele>209.0</ele><time>2026-05-03T08:30:54.342Z</time></trkpt><trkpt lat="43.106685" lon="12.521229"><ele>209.0</ele><time>2026-05-03T08:30:55.342Z</time></trkpt><trkpt lat="43.106884" lon="12.5212869"><ele>209.0</ele><time>2026-05-03T08:30:56.342Z</time></trkpt><trkpt lat="43.1070857" lon="12.5213698"><ele>209.0</ele><time>2026-05-03T08:30:57.342Z</time></trkpt><trkpt lat="43.1072811" lon="12.5214631"><ele>209.0</ele><time>2026-05-03T08:30:58.342Z</time></trkpt><trkpt lat="43.1074825" lon="12.5215703"><ele>209.0</ele><time>2026-05-03T08:30:59.342Z</time></trkpt><trkpt lat="43.1076768" lon="12.5216875"><ele>209.0</ele><time>2026-05-03T08:31:00.342Z</time></trkpt><trkpt lat="43.107859" lon="12.5218205"><ele>209.0</ele><time>2026-05-03T08:31:01.342Z</time></trkpt><trkpt lat="43.1080394" lon="12.5219628"><ele>209.0</ele><time>2026-05-03T08:31:02.342Z</time></trkpt><trkpt lat="43.1082096" lon="12.5221072"><ele>209.0</ele><time>2026-05-03T08:31:03.342Z</time></trkpt><trkpt lat="43.1083876" lon="12.5222554"><ele>210.0</ele><time>2026-05-03T08:31:04.343Z</time></trkpt><trkpt lat="43.1085637" lon="12.5223961"><ele>211.0</ele><time>2026-05-03T08:31:05.342Z</time></trkpt><trkpt lat="43.1087452" lon="12.5225407"><ele>212.0</ele><time>2026-05-03T08:31:06.342Z</time></trkpt><trkpt lat="43.1089311" lon="12.5226768"><ele>211.66666666666669</ele><time>2026-05-03T08:31:07.342Z</time></trkpt><trkpt lat="43.1091175" lon="12.5228191"><ele>211.33333333333331</ele><time>2026-05-03T08:31:08.342Z</time></trkpt><trkpt lat="43.1093012" lon="12.5229607"><ele>211.0</ele><time>2026-05-03T08:31:09.342Z</time></trkpt><trkpt lat="43.1094848" lon="12.5231072"><ele>211.0</ele><time>2026-05-03T08:31:10.342Z</time></trkpt><trkpt lat="43.1096625" lon="12.5232465"><ele>211.0</ele><time>2026-05-03T08:31:11.342Z</time></trkpt><trkpt lat="43.1098441" lon="12.5233932"><ele>211.0</ele><time>2026-05-03T08:31:12.343Z</time></trkpt><trkpt lat="43.1100309" lon="12.523535"><ele>210.66666666666666</ele><time>2026-05-03T08:31:13.342Z</time></trkpt><trkpt lat="43.1102154" lon="12.523683"><ele>210.33333333333331</ele><time>2026-05-03T08:31:14.342Z</time></trkpt><trkpt lat="43.1103909" lon="12.5238315"><ele>210.0</ele><time>2026-05-03T08:31:15.343Z</time></trkpt><trkpt lat="43.1105693" lon="12.5239793"><ele>209.66666666666669</ele><time>2026-05-03T08:31:16.342Z</time></trkpt><trkpt lat="43.1107309" lon="12.524148"><ele>209.33333333333334</ele><time>2026-05-03T08:31:17.342Z</time></trkpt><trkpt lat="43.1108983" lon="12.5243203"><ele>209.0</ele><time>2026-05-03T08:31:18.342Z</time></trkpt><trkpt lat="43.1110519" lon="12.5245005"><ele>210.0</ele><time>2026-05-03T08:31:19.342Z</time></trkpt><trkpt lat="43.1112067" lon="12.5246769"><ele>211.0</ele><time>2026-05-03T08:31:20.342Z</time></trkpt><trkpt lat="43.111353" lon="12.5248546"><ele>212.0</ele><time>2026-05-03T08:31:21.342Z</time></trkpt><trkpt lat="43.1114878" lon="12.5250207"><ele>211.66666666666669</ele><time>2026-05-03T08:31:22.343Z</time></trkpt><trkpt lat="43.1116218" lon="12.5251655"><ele>211.33333333333331</ele><time>2026-05-03T08:31:23.342Z</time></trkpt><trkpt lat="43.1117534" lon="12.5252716"><ele>211.0</ele><time>2026-05-03T08:31:24.343Z</time></trkpt><trkpt lat="43.11189" lon="12.5253538"><ele>211.0</ele><time>2026-05-03T08:31:25.343Z</time></trkpt><trkpt lat="43.112011" lon="12.5254089"><ele>211.0</ele><time>2026-05-03T08:31:26.342Z</time></trkpt><trkpt lat="43.1121251" lon="12.5254562"><ele>211.0</ele><time>2026-05-03T08:31:27.342Z</time></trkpt><trkpt lat="43.1122194" lon="12.5254934"><ele>211.0</ele><time>2026-05-03T08:31:28.343Z</time></trkpt><trkpt lat="43.1123042" lon="12.5255502"><ele>211.0</ele><time>2026-05-03T08:31:29.342Z</time></trkpt><trkpt lat="43.1123716" lon="12.5256201"><ele>211.20000000000002</ele><time>2026-05-03T08:31:30.342Z</time></trkpt><trkpt lat="43.1124375" lon="12.5257144"><ele>211.4</ele><time>2026-05-03T08:31:31.342Z</time></trkpt><trkpt lat="43.1124913" lon="12.5258011"><ele>211.6</ele><time>2026-05-03T08:31:32.342Z</time></trkpt><trkpt lat="43.1125524" lon="12.5259017"><ele>211.8</ele><time>2026-05-03T08:31:33.342Z</time></trkpt><trkpt lat="43.1125898" lon="12.5260383"><ele>212.0</ele><time>2026-05-03T08:31:34.342Z</time></trkpt><trkpt lat="43.1126123" lon="12.5261963"><ele>212.5</ele><time>2026-05-03T08:31:35.343Z</time></trkpt><trkpt lat="43.1126126" lon="12.5263818"><ele>213.0</ele><time>2026-05-03T08:31:36.342Z</time></trkpt><trkpt lat="43.1126124" lon="12.5265806"><ele>213.5</ele><time>2026-05-03T08:31:37.342Z</time></trkpt><trkpt lat="43.112619" lon="12.5267882"><ele>214.0</ele><time>2026-05-03T08:31:38.342Z</time></trkpt><trkpt lat="43.1126155" lon="12.5270034"><ele>213.66666666666666</ele><time>2026-05-03T08:31:39.342Z</time></trkpt><trkpt lat="43.112612" lon="12.5272052"><ele>213.33333333333331</ele><time>2026-05-03T08:31:40.342Z</time></trkpt><trkpt lat="43.1126079" lon="12.5274089"><ele>213.0</ele><time>2026-05-03T08:31:41.342Z</time></trkpt><trkpt lat="43.1125974" lon="12.5276189"><ele>213.0</ele><time>2026-05-03T08:31:42.342Z</time></trkpt><trkpt lat="43.1125796" lon="12.5278366"><ele>213.0</ele><time>2026-05-03T08:31:43.342Z</time></trkpt><trkpt lat="43.1125773" lon="12.5280483"><ele>213.0</ele><time>2026-05-03T08:31:44.343Z</time></trkpt><trkpt lat="43.1125734" lon="12.5282714"><ele>212.66666666666669</ele><time>2026-05-03T08:31:45.342Z</time></trkpt><trkpt lat="43.1125745" lon="12.5285062"><ele>212.33333333333334</ele><time>2026-05-03T08:31:46.342Z</time></trkpt><trkpt lat="43.1125708" lon="12.5287399"><ele>212.0</ele><time>2026-05-03T08:31:47.343Z</time></trkpt><trkpt lat="43.1125719" lon="12.5289684"><ele>212.66666666666669</ele><time>2026-05-03T08:31:48.342Z</time></trkpt><trkpt lat="43.1125712" lon="12.5292116"><ele>213.33333333333331</ele><time>2026-05-03T08:31:49.342Z</time></trkpt><trkpt lat="43.1125711" lon="12.5294476"><ele>214.0</ele><time>2026-05-03T08:31:50.342Z</time></trkpt><trkpt lat="43.1125629" lon="12.5296916"><ele>214.0</ele><time>2026-05-03T08:31:51.342Z</time></trkpt><trkpt lat="43.1125566" lon="12.5299302"><ele>214.0</ele><time>2026-05-03T08:31:52.342Z</time></trkpt><trkpt lat="43.112551" lon="12.5301741"><ele>214.0</ele><time>2026-05-03T08:31:53.342Z</time></trkpt><trkpt lat="43.1125435" lon="12.5304149"><ele>213.66666666666666</ele><time>2026-05-03T08:31:54.342Z</time></trkpt><trkpt lat="43.1125475" lon="12.5306521"><ele>213.33333333333331</ele><time>2026-05-03T08:31:55.342Z</time></trkpt><trkpt lat="43.1125451" lon="12.5308916"><ele>213.0</ele><time>2026-05-03T08:31:56.343Z</time></trkpt><trkpt lat="43.1125437" lon="12.5311341"><ele>213.33333333333331</ele><time>2026-05-03T08:31:57.342Z</time></trkpt><trkpt lat="43.1125463" lon="12.5313752"><ele>213.66666666666666</ele><time>2026-05-03T08:31:58.342Z</time></trkpt><trkpt lat="43.1125404" lon="12.5316182"><ele>214.0</ele><time>2026-05-03T08:31:59.342Z</time></trkpt><trkpt lat="43.1125364" lon="12.5318585"><ele>213.66666666666666</ele><time>2026-05-03T08:32:00.342Z</time></trkpt><trkpt lat="43.1125283" lon="12.532106"><ele>213.33333333333331</ele><time>2026-05-03T08:32:01.343Z</time></trkpt><trkpt lat="43.1125223" lon="12.5323466"><ele>213.0</ele><time>2026-05-03T08:32:02.342Z</time></trkpt><trkpt lat="43.1125261" lon="12.5325858"><ele>213.0</ele><time>2026-05-03T08:32:03.343Z</time></trkpt><trkpt lat="43.1125204" lon="12.5328239"><ele>213.0</ele><time>2026-05-03T08:32:04.343Z</time></trkpt><trkpt lat="43.1125139" lon="12.5330645"><ele>213.0</ele><time>2026-05-03T08:32:05.342Z</time></trkpt><trkpt lat="43.1125167" lon="12.5332973"><ele>213.25</ele><time>2026-05-03T08:32:06.342Z</time></trkpt><trkpt lat="43.1125168" lon="12.5335157"><ele>213.5</ele><time>2026-05-03T08:32:07.342Z</time></trkpt><trkpt lat="43.1125136" lon="12.5337051"><ele>213.75</ele><time>2026-05-03T08:32:08.342Z</time></trkpt><trkpt lat="43.1125067" lon="12.5338937"><ele>214.0</ele><time>2026-05-03T08:32:09.342Z</time></trkpt><trkpt lat="43.1125097" lon="12.5340652"><ele>214.39999999999998</ele><time>2026-05-03T08:32:10.342Z</time></trkpt><trkpt lat="43.1125068" lon="12.5342217"><ele>214.79999999999998</ele><time>2026-05-03T08:32:11.342Z</time></trkpt><trkpt lat="43.1125018" lon="12.5343748"><ele>215.20000000000002</ele><time>2026-05-03T08:32:12.342Z</time></trkpt><trkpt lat="43.1124849" lon="12.5345119"><ele>215.60000000000002</ele><time>2026-05-03T08:32:13.342Z</time></trkpt><trkpt lat="43.1124779" lon="12.5346349"><ele>216.0</ele><time>2026-05-03T08:32:14.343Z</time></trkpt><trkpt lat="43.1124746" lon="12.5347345"><ele>216.0</ele><time>2026-05-03T08:32:15.342Z</time></trkpt><trkpt lat="43.1124915" lon="12.534819"><ele>216.0</ele><time>2026-05-03T08:32:16.342Z</time></trkpt><trkpt lat="43.1125166" lon="12.5349087"><ele>216.0</ele><time>2026-05-03T08:32:18.343Z</time></trkpt><trkpt lat="43.1125833" lon="12.5349271"><ele>216.0</ele><time>2026-05-03T08:32:34.342Z</time></trkpt><trkpt lat="43.1126732" lon="12.5349308"><ele>216.0</ele><time>2026-05-03T08:32:36.342Z</time></trkpt><trkpt lat="43.1127433" lon="12.5349167"><ele>216.0</ele><time>2026-05-03T08:32:37.342Z</time></trkpt><trkpt lat="43.1128158" lon="12.5348954"><ele>216.0</ele><time>2026-05-03T08:32:38.342Z</time></trkpt><trkpt lat="43.1129008" lon="12.5348657"><ele>216.0</ele><time>2026-05-03T08:32:39.342Z</time></trkpt><trkpt lat="43.1129906" lon="12.5348427"><ele>216.00000000000003</ele><time>2026-05-03T08:32:40.342Z</time></trkpt><trkpt lat="43.1130878" lon="12.5348209"><ele>216.00000000000003</ele><time>2026-05-03T08:32:41.343Z</time></trkpt><trkpt lat="43.11321" lon="12.5348244"><ele>216.0</ele><time>2026-05-03T08:32:42.342Z</time></trkpt><trkpt lat="43.1133357" lon="12.5348589"><ele>216.0</ele><time>2026-05-03T08:32:43.342Z</time></trkpt><trkpt lat="43.1134806" lon="12.5348935"><ele>216.25</ele><time>2026-05-03T08:32:44.342Z</time></trkpt><trkpt lat="43.1136123" lon="12.5349567"><ele>216.5</ele><time>2026-05-03T08:32:45.342Z</time></trkpt><trkpt lat="43.1137438" lon="12.5350218"><ele>216.75</ele><time>2026-05-03T08:32:46.342Z</time></trkpt><trkpt lat="43.1138855" lon="12.535079"><ele>217.0</ele><time>2026-05-03T08:32:47.342Z</time></trkpt><trkpt lat="43.114026" lon="12.5351449"><ele>217.33333333333331</ele><time>2026-05-03T08:32:48.342Z</time></trkpt><trkpt lat="43.1141666" lon="12.5352134"><ele>217.66666666666669</ele><time>2026-05-03T08:32:49.343Z</time></trkpt><trkpt lat="43.1143157" lon="12.535286"><ele>218.0</ele><time>2026-05-03T08:32:50.342Z</time></trkpt><trkpt lat="43.1144684" lon="12.5353527"><ele>217.66666666666669</ele><time>2026-05-03T08:32:51.343Z</time></trkpt><trkpt lat="43.1146236" lon="12.5354164"><ele>217.33333333333331</ele><time>2026-05-03T08:32:52.342Z</time></trkpt><trkpt lat="43.1147749" lon="12.5354824"><ele>217.0</ele><time>2026-05-03T08:32:53.342Z</time></trkpt><trkpt lat="43.1149332" lon="12.5355454"><ele>217.0</ele><time>2026-05-03T08:32:54.342Z</time></trkpt><trkpt lat="43.1151032" lon="12.535599"><ele>217.0</ele><time>2026-05-03T08:32:55.343Z</time></trkpt><trkpt lat="43.1152732" lon="12.5356448"><ele>217.0</ele><time>2026-05-03T08:32:56.342Z</time></trkpt><trkpt lat="43.1154357" lon="12.5356782"><ele>217.0</ele><time>2026-05-03T08:32:57.342Z</time></trkpt><trkpt lat="43.1156002" lon="12.535705"><ele>217.0</ele><time>2026-05-03T08:32:58.343Z</time></trkpt><trkpt lat="43.1157692" lon="12.5357291"><ele>217.0</ele><time>2026-05-03T08:32:59.342Z</time></trkpt><trkpt lat="43.1159391" lon="12.5357672"><ele>217.66666666666666</ele><time>2026-05-03T08:33:00.342Z</time></trkpt><trkpt lat="43.1161029" lon="12.5357979"><ele>218.33333333333331</ele><time>2026-05-03T08:33:01.342Z</time></trkpt><trkpt lat="43.1162627" lon="12.5358309"><ele>219.0</ele><time>2026-05-03T08:33:02.342Z</time></trkpt><trkpt lat="43.1164258" lon="12.535862"><ele>218.33333333333331</ele><time>2026-05-03T08:33:03.342Z</time></trkpt><trkpt lat="43.1165834" lon="12.5358944"><ele>217.66666666666666</ele><time>2026-05-03T08:33:04.342Z</time></trkpt><trkpt lat="43.1167478" lon="12.5359233"><ele>217.0</ele><time>2026-05-03T08:33:05.342Z</time></trkpt><trkpt lat="43.1169146" lon="12.5359411"><ele>217.0</ele><time>2026-05-03T08:33:06.342Z</time></trkpt><trkpt lat="43.1170872" lon="12.5359584"><ele>217.0</ele><time>2026-05-03T08:33:07.342Z</time></trkpt><trkpt lat="43.1172499" lon="12.5359555"><ele>217.0</ele><time>2026-05-03T08:33:08.342Z</time></trkpt><trkpt lat="43.1174161" lon="12.5359527"><ele>217.0</ele><time>2026-05-03T08:33:09.342Z</time></trkpt><trkpt lat="43.1175869" lon="12.5359532"><ele>217.0</ele><time>2026-05-03T08:33:10.342Z</time></trkpt><trkpt lat="43.1177639" lon="12.5359467"><ele>217.0</ele><time>2026-05-03T08:33:11.343Z</time></trkpt><trkpt lat="43.1179296" lon="12.5359259"><ele>217.0</ele><time>2026-05-03T08:33:12.342Z</time></trkpt><trkpt lat="43.1181031" lon="12.5359127"><ele>217.0</ele><time>2026-05-03T08:33:13.342Z</time></trkpt><trkpt lat="43.1182745" lon="12.5359108"><ele>217.0</ele><time>2026-05-03T08:33:14.342Z</time></trkpt><trkpt lat="43.1184487" lon="12.5358937"><ele>217.33333333333331</ele><time>2026-05-03T08:33:15.343Z</time></trkpt><trkpt lat="43.11862" lon="12.5358827"><ele>217.66666666666669</ele><time>2026-05-03T08:33:16.342Z</time></trkpt><trkpt lat="43.1187903" lon="12.5358905"><ele>218.0</ele><time>2026-05-03T08:33:17.342Z</time></trkpt><trkpt lat="43.1189579" lon="12.5359052"><ele>218.0</ele><time>2026-05-03T08:33:18.342Z</time></trkpt><trkpt lat="43.1191325" lon="12.5359352"><ele>218.0</ele><time>2026-05-03T08:33:19.343Z</time></trkpt><trkpt lat="43.1193041" lon="12.5359635"><ele>218.0</ele><time>2026-05-03T08:33:20.342Z</time></trkpt><trkpt lat="43.1194832" lon="12.5359946"><ele>218.0</ele><time>2026-05-03T08:33:21.342Z</time></trkpt><trkpt lat="43.1196578" lon="12.5360397"><ele>218.0</ele><time>2026-05-03T08:33:22.342Z</time></trkpt><trkpt lat="43.1198261" lon="12.5360775"><ele>218.0</ele><time>2026-05-03T08:33:23.342Z</time></trkpt><trkpt lat="43.1200013" lon="12.5361246"><ele>218.33333333333334</ele><time>2026-05-03T08:33:24.342Z</time></trkpt><trkpt lat="43.1201727" lon="12.5361685"><ele>218.66666666666669</ele><time>2026-05-03T08:33:25.342Z</time></trkpt><trkpt lat="43.1203404" lon="12.5362143"><ele>219.0</ele><time>2026-05-03T08:33:26.342Z</time></trkpt><trkpt lat="43.1205052" lon="12.536254"><ele>219.0</ele><time>2026-05-03T08:33:27.342Z</time></trkpt><trkpt lat="43.120676" lon="12.5363093"><ele>219.0</ele><time>2026-05-03T08:33:28.342Z</time></trkpt><trkpt lat="43.1208487" lon="12.5363578"><ele>219.0</ele><time>2026-05-03T08:33:29.342Z</time></trkpt><trkpt lat="43.121009" lon="12.5363974"><ele>219.0</ele><time>2026-05-03T08:33:30.342Z</time></trkpt><trkpt lat="43.1211554" lon="12.5364136"><ele>219.0</ele><time>2026-05-03T08:33:31.342Z</time></trkpt><trkpt lat="43.1213105" lon="12.5364091"><ele>219.0</ele><time>2026-05-03T08:33:32.342Z</time></trkpt><trkpt lat="43.1214717" lon="12.5363677"><ele>218.5</ele><time>2026-05-03T08:33:33.342Z</time></trkpt><trkpt lat="43.1216138" lon="12.5363078"><ele>218.0</ele><time>2026-05-03T08:33:34.342Z</time></trkpt><trkpt lat="43.1217461" lon="12.5362305"><ele>217.5</ele><time>2026-05-03T08:33:35.342Z</time></trkpt><trkpt lat="43.1218927" lon="12.536166"><ele>217.0</ele><time>2026-05-03T08:33:36.342Z</time></trkpt><trkpt lat="43.1220188" lon="12.5360865"><ele>217.0</ele><time>2026-05-03T08:33:37.342Z</time></trkpt><trkpt lat="43.1221432" lon="12.5360164"><ele>217.0</ele><time>2026-05-03T08:33:38.342Z</time></trkpt><trkpt lat="43.1222556" lon="12.5359436"><ele>217.0</ele><time>2026-05-03T08:33:39.342Z</time></trkpt><trkpt lat="43.1223817" lon="12.5358873"><ele>217.0</ele><time>2026-05-03T08:33:40.342Z</time></trkpt><trkpt lat="43.1225126" lon="12.535827"><ele>217.0</ele><time>2026-05-03T08:33:41.342Z</time></trkpt><trkpt lat="43.1226444" lon="12.5357576"><ele>217.0</ele><time>2026-05-03T08:33:42.342Z</time></trkpt><trkpt lat="43.1227819" lon="12.5356865"><ele>217.0</ele><time>2026-05-03T08:33:43.342Z</time></trkpt><trkpt lat="43.1229184" lon="12.5356129"><ele>217.0</ele><time>2026-05-03T08:33:44.342Z</time></trkpt><trkpt lat="43.1230561" lon="12.5355352"><ele>217.0</ele><time>2026-05-03T08:33:45.342Z</time></trkpt><trkpt lat="43.1231916" lon="12.5354527"><ele>217.0</ele><time>2026-05-03T08:33:46.343Z</time></trkpt><trkpt lat="43.123321" lon="12.5353771"><ele>217.0</ele><time>2026-05-03T08:33:47.342Z</time></trkpt><trkpt lat="43.1234508" lon="12.535329"><ele>217.0</ele><time>2026-05-03T08:33:48.342Z</time></trkpt><trkpt lat="43.1236103" lon="12.5353606"><ele>217.25</ele><time>2026-05-03T08:33:49.342Z</time></trkpt><trkpt lat="43.1237501" lon="12.5353838"><ele>217.5</ele><time>2026-05-03T08:33:50.342Z</time></trkpt><trkpt lat="43.1238918" lon="12.5354053"><ele>217.75</ele><time>2026-05-03T08:33:51.342Z</time></trkpt><trkpt lat="43.1240368" lon="12.5354272"><ele>218.0</ele><time>2026-05-03T08:33:52.342Z</time></trkpt><trkpt lat="43.1241936" lon="12.5353845"><ele>218.33333333333334</ele><time>2026-05-03T08:33:53.342Z</time></trkpt><trkpt lat="43.1243444" lon="12.535355"><ele>218.66666666666669</ele><time>2026-05-03T08:33:54.342Z</time></trkpt><trkpt lat="43.1244964" lon="12.5353299"><ele>219.0</ele><time>2026-05-03T08:33:55.342Z</time></trkpt><trkpt lat="43.1246502" lon="12.5352917"><ele>219.0</ele><time>2026-05-03T08:33:56.342Z</time></trkpt><trkpt lat="43.1248051" lon="12.5352563"><ele>219.0</ele><time>2026-05-03T08:33:57.342Z</time></trkpt><trkpt lat="43.1249675" lon="12.5352139"><ele>219.0</ele><time>2026-05-03T08:33:58.342Z</time></trkpt><trkpt lat="43.125128" lon="12.5351722"><ele>219.33333333333331</ele><time>2026-05-03T08:33:59.342Z</time></trkpt><trkpt lat="43.1252822" lon="12.5351274"><ele>219.66666666666666</ele><time>2026-05-03T08:34:00.342Z</time></trkpt><trkpt lat="43.1254333" lon="12.5350768"><ele>220.0</ele><time>2026-05-03T08:34:01.342Z</time></trkpt><trkpt lat="43.1255861" lon="12.5350322"><ele>220.0</ele><time>2026-05-03T08:34:02.343Z</time></trkpt><trkpt lat="43.1257434" lon="12.5349986"><ele>220.0</ele><time>2026-05-03T08:34:03.342Z</time></trkpt><trkpt lat="43.1258947" lon="12.5349505"><ele>220.0</ele><time>2026-05-03T08:34:04.342Z</time></trkpt><trkpt lat="43.1260591" lon="12.5349058"><ele>220.0</ele><time>2026-05-03T08:34:05.342Z</time></trkpt><trkpt lat="43.1262293" lon="12.5348516"><ele>220.0</ele><time>2026-05-03T08:34:06.342Z</time></trkpt><trkpt lat="43.1263992" lon="12.5348041"><ele>220.0</ele><time>2026-05-03T08:34:07.342Z</time></trkpt><trkpt lat="43.126564" lon="12.534754"><ele>219.33333333333331</ele><time>2026-05-03T08:34:08.342Z</time></trkpt><trkpt lat="43.1267235" lon="12.5347169"><ele>218.66666666666669</ele><time>2026-05-03T08:34:09.342Z</time></trkpt><trkpt lat="43.1268757" lon="12.5346801"><ele>218.0</ele><time>2026-05-03T08:34:10.343Z</time></trkpt><trkpt lat="43.1270323" lon="12.5346332"><ele>218.0</ele><time>2026-05-03T08:34:11.342Z</time></trkpt><trkpt lat="43.1271863" lon="12.5345793"><ele>218.0</ele><time>2026-05-03T08:34:12.342Z</time></trkpt><trkpt lat="43.1273467" lon="12.5345299"><ele>218.0</ele><time>2026-05-03T08:34:13.342Z</time></trkpt><trkpt lat="43.127506" lon="12.5344678"><ele>217.66666666666669</ele><time>2026-05-03T08:34:14.342Z</time></trkpt><trkpt lat="43.1276729" lon="12.5344231"><ele>217.33333333333331</ele><time>2026-05-03T08:34:15.342Z</time></trkpt><trkpt lat="43.1278425" lon="12.5343754"><ele>217.0</ele><time>2026-05-03T08:34:16.342Z</time></trkpt><trkpt lat="43.1280167" lon="12.5343362"><ele>217.0</ele><time>2026-05-03T08:34:17.342Z</time></trkpt><trkpt lat="43.128186" lon="12.5342975"><ele>217.0</ele><time>2026-05-03T08:34:18.342Z</time></trkpt><trkpt lat="43.1283544" lon="12.5342588"><ele>217.0</ele><time>2026-05-03T08:34:19.342Z</time></trkpt><trkpt lat="43.1285244" lon="12.5342246"><ele>218.0</ele><time>2026-05-03T08:34:20.342Z</time></trkpt><trkpt lat="43.1286904" lon="12.5341864"><ele>219.0</ele><time>2026-05-03T08:34:21.342Z</time></trkpt><trkpt lat="43.1288581" lon="12.5341504"><ele>220.0</ele><time>2026-05-03T08:34:22.342Z</time></trkpt><trkpt lat="43.1290289" lon="12.5341426"><ele>219.33333333333331</ele><time>2026-05-03T08:34:23.342Z</time></trkpt><trkpt lat="43.1291953" lon="12.5341603"><ele>218.66666666666669</ele><time>2026-05-03T08:34:24.343Z</time></trkpt><trkpt lat="43.1293598" lon="12.5342055"><ele>218.0</ele><time>2026-05-03T08:34:25.342Z</time></trkpt><trkpt lat="43.1295234" lon="12.5342587"><ele>218.0</ele><time>2026-05-03T08:34:26.342Z</time></trkpt><trkpt lat="43.1296818" lon="12.5342931"><ele>218.0</ele><time>2026-05-03T08:34:27.342Z</time></trkpt><trkpt lat="43.1298257" lon="12.5342938"><ele>218.0</ele><time>2026-05-03T08:34:28.342Z</time></trkpt><trkpt lat="43.1299794" lon="12.5342805"><ele>218.0</ele><time>2026-05-03T08:34:29.342Z</time></trkpt><trkpt lat="43.1301223" lon="12.5342146"><ele>218.0</ele><time>2026-05-03T08:34:30.342Z</time></trkpt><trkpt lat="43.1302566" lon="12.5341236"><ele>218.0</ele><time>2026-05-03T08:34:31.343Z</time></trkpt><trkpt lat="43.1303839" lon="12.5339909"><ele>218.0</ele><time>2026-05-03T08:34:32.342Z</time></trkpt><trkpt lat="43.1304995" lon="12.5338317"><ele>218.0</ele><time>2026-05-03T08:34:33.342Z</time></trkpt><trkpt lat="43.130593" lon="12.5336556"><ele>218.0</ele><time>2026-05-03T08:34:34.342Z</time></trkpt><trkpt lat="43.1306646" lon="12.5334526"><ele>218.33333333333334</ele><time>2026-05-03T08:34:35.342Z</time></trkpt><trkpt lat="43.1307174" lon="12.5332455"><ele>218.66666666666669</ele><time>2026-05-03T08:34:36.342Z</time></trkpt><trkpt lat="43.1307781" lon="12.5330418"><ele>219.0</ele><time>2026-05-03T08:34:37.342Z</time></trkpt><trkpt lat="43.1308535" lon="12.5328495"><ele>219.66666666666669</ele><time>2026-05-03T08:34:38.342Z</time></trkpt><trkpt lat="43.1309449" lon="12.5326727"><ele>220.33333333333334</ele><time>2026-05-03T08:34:39.343Z</time></trkpt><trkpt lat="43.1310706" lon="12.5325286"><ele>221.0</ele><time>2026-05-03T08:34:40.342Z</time></trkpt><trkpt lat="43.1311936" lon="12.5323848"><ele>221.0</ele><time>2026-05-03T08:34:41.342Z</time></trkpt><trkpt lat="43.1313337" lon="12.5322458"><ele>221.0</ele><time>2026-05-03T08:34:42.342Z</time></trkpt><trkpt lat="43.1314771" lon="12.5321065"><ele>221.0</ele><time>2026-05-03T08:34:43.342Z</time></trkpt><trkpt lat="43.1316239" lon="12.5319581"><ele>221.0</ele><time>2026-05-03T08:34:44.343Z</time></trkpt><trkpt lat="43.1317685" lon="12.5318125"><ele>221.0</ele><time>2026-05-03T08:34:45.342Z</time></trkpt><trkpt lat="43.1319122" lon="12.5316711"><ele>221.0</ele><time>2026-05-03T08:34:46.342Z</time></trkpt><trkpt lat="43.132048" lon="12.531519"><ele>221.0</ele><time>2026-05-03T08:34:47.342Z</time></trkpt><trkpt lat="43.132202" lon="12.5313798"><ele>221.0</ele><time>2026-05-03T08:34:48.342Z</time></trkpt><trkpt lat="43.1323571" lon="12.5312446"><ele>221.0</ele><time>2026-05-03T08:34:49.342Z</time></trkpt><trkpt lat="43.1325163" lon="12.5310997"><ele>221.33333333333334</ele><time>2026-05-03T08:34:50.342Z</time></trkpt><trkpt lat="43.132661" lon="12.5309551"><ele>221.66666666666669</ele><time>2026-05-03T08:34:51.342Z</time></trkpt><trkpt lat="43.1328195" lon="12.5308007"><ele>222.0</ele><time>2026-05-03T08:34:52.342Z</time></trkpt><trkpt lat="43.1329655" lon="12.5306429"><ele>222.0</ele><time>2026-05-03T08:34:53.343Z</time></trkpt><trkpt lat="43.1331133" lon="12.5304917"><ele>222.0</ele><time>2026-05-03T08:34:54.343Z</time></trkpt><trkpt lat="43.1332631" lon="12.5303307"><ele>222.0</ele><time>2026-05-03T08:34:55.342Z</time></trkpt><trkpt lat="43.1334144" lon="12.5301756"><ele>222.0</ele><time>2026-05-03T08:34:56.343Z</time></trkpt><trkpt lat="43.1335645" lon="12.5300087"><ele>222.0</ele><time>2026-05-03T08:34:57.342Z</time></trkpt><trkpt lat="43.1337135" lon="12.5298415"><ele>222.0</ele><time>2026-05-03T08:34:58.343Z</time></trkpt><trkpt lat="43.133864" lon="12.5296745"><ele>222.33333333333331</ele><time>2026-05-03T08:34:59.342Z</time></trkpt><trkpt lat="43.1340128" lon="12.5295189"><ele>222.66666666666666</ele><time>2026-05-03T08:35:00.342Z</time></trkpt><trkpt lat="43.1341577" lon="12.5293592"><ele>223.0</ele><time>2026-05-03T08:35:01.342Z</time></trkpt><trkpt lat="43.1343137" lon="12.5292084"><ele>223.66666666666666</ele><time>2026-05-03T08:35:02.342Z</time></trkpt><trkpt lat="43.1344566" lon="12.5290422"><ele>224.33333333333331</ele><time>2026-05-03T08:35:03.343Z</time></trkpt><trkpt lat="43.1345922" lon="12.5288803"><ele>225.0</ele><time>2026-05-03T08:35:04.342Z</time></trkpt><trkpt lat="43.1347216" lon="12.5287181"><ele>225.0</ele><time>2026-05-03T08:35:05.343Z</time></trkpt><trkpt lat="43.1348547" lon="12.5285709"><ele>225.0</ele><time>2026-05-03T08:35:06.342Z</time></trkpt><trkpt lat="43.1349842" lon="12.5284307"><ele>225.0</ele><time>2026-05-03T08:35:07.343Z</time></trkpt><trkpt lat="43.1351005" lon="12.5282897"><ele>225.0</ele><time>2026-05-03T08:35:08.342Z</time></trkpt><trkpt lat="43.135215" lon="12.528161"><ele>225.0</ele><time>2026-05-03T08:35:09.342Z</time></trkpt><trkpt lat="43.1353248" lon="12.5280387"><ele>225.0</ele><time>2026-05-03T08:35:10.342Z</time></trkpt><trkpt lat="43.1354459" lon="12.5279469"><ele>225.0</ele><time>2026-05-03T08:35:11.342Z</time></trkpt><trkpt lat="43.1355621" lon="12.5278501"><ele>225.0</ele><time>2026-05-03T08:35:12.342Z</time></trkpt><trkpt lat="43.135668" lon="12.5277504"><ele>225.0</ele><time>2026-05-03T08:35:13.342Z</time></trkpt><trkpt lat="43.1357682" lon="12.5276381"><ele>225.0</ele><time>2026-05-03T08:35:14.342Z</time></trkpt><trkpt lat="43.1358714" lon="12.5275274"><ele>225.0</ele><time>2026-05-03T08:35:15.342Z</time></trkpt><trkpt lat="43.1359772" lon="12.5274151"><ele>225.75</ele><time>2026-05-03T08:35:16.342Z</time></trkpt><trkpt lat="43.1360807" lon="12.5272922"><ele>226.5</ele><time>2026-05-03T08:35:17.342Z</time></trkpt><trkpt lat="43.1361937" lon="12.5271824"><ele>227.25</ele><time>2026-05-03T08:35:18.342Z</time></trkpt><trkpt lat="43.1362997" lon="12.5270633"><ele>228.0</ele><time>2026-05-03T08:35:19.342Z</time></trkpt><trkpt lat="43.136396" lon="12.5269442"><ele>228.0</ele><time>2026-05-03T08:35:20.342Z</time></trkpt><trkpt lat="43.13649" lon="12.526827"><ele>228.0</ele><time>2026-05-03T08:35:21.342Z</time></trkpt><trkpt lat="43.1365595" lon="12.5266744"><ele>228.0</ele><time>2026-05-03T08:35:22.343Z</time></trkpt><trkpt lat="43.1366293" lon="12.526515"><ele>228.0</ele><time>2026-05-03T08:35:23.342Z</time></trkpt><trkpt lat="43.1366619" lon="12.5263364"><ele>228.75</ele><time>2026-05-03T08:35:24.342Z</time></trkpt><trkpt lat="43.1366883" lon="12.5261555"><ele>229.5</ele><time>2026-05-03T08:35:25.342Z</time></trkpt><trkpt lat="43.1367054" lon="12.5259708"><ele>230.25</ele><time>2026-05-03T08:35:26.342Z</time></trkpt><trkpt lat="43.1367296" lon="12.5257988"><ele>231.0</ele><time>2026-05-03T08:35:27.342Z</time></trkpt><trkpt lat="43.1367663" lon="12.5256348"><ele>231.0</ele><time>2026-05-03T08:35:28.343Z</time></trkpt><trkpt lat="43.1368293" lon="12.525488"><ele>231.0</ele><time>2026-05-03T08:35:29.342Z</time></trkpt><trkpt lat="43.1369003" lon="12.5253487"><ele>231.0</ele><time>2026-05-03T08:35:30.342Z</time></trkpt><trkpt lat="43.1369822" lon="12.5252164"><ele>231.0</ele><time>2026-05-03T08:35:31.342Z</time></trkpt><trkpt lat="43.1370769" lon="12.5251408"><ele>231.16666666666666</ele><time>2026-05-03T08:35:32.343Z</time></trkpt><trkpt lat="43.13717" lon="12.5250877"><ele>231.33333333333331</ele><time>2026-05-03T08:35:33.343Z</time></trkpt><trkpt lat="43.1372516" lon="12.5250497"><ele>231.5</ele><time>2026-05-03T08:35:34.342Z</time></trkpt><trkpt lat="43.1373147" lon="12.5250236"><ele>231.66666666666666</ele><time>2026-05-03T08:35:35.342Z</time></trkpt><trkpt lat="43.1373976" lon="12.5250271"><ele>231.83333333333331</ele><time>2026-05-03T08:35:37.342Z</time></trkpt><trkpt lat="43.1374888" lon="12.524957"><ele>232.0</ele><time>2026-05-03T08:35:44.342Z</time></trkpt><trkpt lat="43.1375054" lon="12.5248559"><ele>232.39999999999998</ele><time>2026-05-03T08:35:45.342Z</time></trkpt><trkpt lat="43.1375128" lon="12.5247545"><ele>232.79999999999998</ele><time>2026-05-03T08:35:46.342Z</time></trkpt><trkpt lat="43.1375161" lon="12.5246336"><ele>233.2</ele><time>2026-05-03T08:35:47.342Z</time></trkpt><trkpt lat="43.1375217" lon="12.5245031"><ele>233.6</ele><time>2026-05-03T08:35:48.343Z</time></trkpt><trkpt lat="43.137534" lon="12.5243506"><ele>234.0</ele><time>2026-05-03T08:35:49.343Z</time></trkpt><trkpt lat="43.1375326" lon="12.5241739"><ele>234.5</ele><time>2026-05-03T08:35:50.343Z</time></trkpt><trkpt lat="43.1375317" lon="12.5239902"><ele>235.0</ele><time>2026-05-03T08:35:51.343Z</time></trkpt><trkpt lat="43.1375349" lon="12.5238081"><ele>235.5</ele><time>2026-05-03T08:35:52.342Z</time></trkpt><trkpt lat="43.1375401" lon="12.5236308"><ele>236.0</ele><time>2026-05-03T08:35:53.342Z</time></trkpt><trkpt lat="43.1375488" lon="12.5234415"><ele>236.0</ele><time>2026-05-03T08:35:54.342Z</time></trkpt><trkpt lat="43.1375481" lon="12.5232377"><ele>236.0</ele><time>2026-05-03T08:35:55.342Z</time></trkpt><trkpt lat="43.1375488" lon="12.5230276"><ele>236.0</ele><time>2026-05-03T08:35:56.342Z</time></trkpt><trkpt lat="43.137551" lon="12.5228114"><ele>237.33333333333334</ele><time>2026-05-03T08:35:57.343Z</time></trkpt><trkpt lat="43.1375582" lon="12.5225763"><ele>238.66666666666669</ele><time>2026-05-03T08:35:58.343Z</time></trkpt><trkpt lat="43.1375595" lon="12.5223458"><ele>240.0</ele><time>2026-05-03T08:35:59.342Z</time></trkpt><trkpt lat="43.1375622" lon="12.5221266"><ele>240.0</ele><time>2026-05-03T08:36:00.343Z</time></trkpt><trkpt lat="43.1375629" lon="12.5219101"><ele>240.0</ele><time>2026-05-03T08:36:01.342Z</time></trkpt><trkpt lat="43.1375691" lon="12.5216966"><ele>240.0</ele><time>2026-05-03T08:36:02.342Z</time></trkpt><trkpt lat="43.1375672" lon="12.5214756"><ele>240.0</ele><time>2026-05-03T08:36:03.342Z</time></trkpt><trkpt lat="43.1375745" lon="12.5212585"><ele>240.0</ele><time>2026-05-03T08:36:04.342Z</time></trkpt><trkpt lat="43.1375712" lon="12.52103"><ele>240.0</ele><time>2026-05-03T08:36:05.342Z</time></trkpt><trkpt lat="43.1375635" lon="12.5208048"><ele>240.66666666666669</ele><time>2026-05-03T08:36:06.342Z</time></trkpt><trkpt lat="43.1375501" lon="12.5205863"><ele>241.33333333333334</ele><time>2026-05-03T08:36:07.342Z</time></trkpt><trkpt lat="43.1375212" lon="12.5203714"><ele>242.0</ele><time>2026-05-03T08:36:08.342Z</time></trkpt><trkpt lat="43.1374791" lon="12.5201577"><ele>242.0</ele><time>2026-05-03T08:36:09.342Z</time></trkpt><trkpt lat="43.1374148" lon="12.5199568"><ele>242.0</ele><time>2026-05-03T08:36:10.343Z</time></trkpt><trkpt lat="43.1373386" lon="12.5197628"><ele>242.0</ele><time>2026-05-03T08:36:11.342Z</time></trkpt><trkpt lat="43.1372557" lon="12.5195776"><ele>244.33333333333334</ele><time>2026-05-03T08:36:12.342Z</time></trkpt><trkpt lat="43.137166" lon="12.5194012"><ele>246.66666666666669</ele><time>2026-05-03T08:36:13.342Z</time></trkpt><trkpt lat="43.1370751" lon="12.519226"><ele>249.0</ele><time>2026-05-03T08:36:14.342Z</time></trkpt><trkpt lat="43.1370212" lon="12.5190394"><ele>249.0</ele><time>2026-05-03T08:36:15.342Z</time></trkpt><trkpt lat="43.1369742" lon="12.5188557"><ele>249.0</ele><time>2026-05-03T08:36:16.342Z</time></trkpt><trkpt lat="43.1369473" lon="12.5186617"><ele>249.0</ele><time>2026-05-03T08:36:17.342Z</time></trkpt><trkpt lat="43.1369562" lon="12.5184556"><ele>249.0</ele><time>2026-05-03T08:36:18.343Z</time></trkpt><trkpt lat="43.1369578" lon="12.5182331"><ele>250.66666666666669</ele><time>2026-05-03T08:36:19.342Z</time></trkpt><trkpt lat="43.1369453" lon="12.5180203"><ele>252.33333333333334</ele><time>2026-05-03T08:36:20.342Z</time></trkpt><trkpt lat="43.1369098" lon="12.5178025"><ele>254.0</ele><time>2026-05-03T08:36:21.342Z</time></trkpt><trkpt lat="43.1368619" lon="12.5175726"><ele>255.0</ele><time>2026-05-03T08:36:22.342Z</time></trkpt><trkpt lat="43.1368112" lon="12.5173447"><ele>256.0</ele><time>2026-05-03T08:36:23.342Z</time></trkpt><trkpt lat="43.1367572" lon="12.5171171"><ele>257.0</ele><time>2026-05-03T08:36:24.343Z</time></trkpt><trkpt lat="43.1367113" lon="12.5169105"><ele>257.0</ele><time>2026-05-03T08:36:25.342Z</time></trkpt><trkpt lat="43.1366616" lon="12.516723"><ele>257.0</ele><time>2026-05-03T08:36:26.342Z</time></trkpt><trkpt lat="43.1366251" lon="12.5165608"><ele>257.0</ele><time>2026-05-03T08:36:27.343Z</time></trkpt><trkpt lat="43.1366001" lon="12.5164259"><ele>257.0</ele><time>2026-05-03T08:36:28.342Z</time></trkpt><trkpt lat="43.1365978" lon="12.5163122"><ele>257.5</ele><time>2026-05-03T08:36:29.342Z</time></trkpt><trkpt lat="43.1366222" lon="12.5162207"><ele>258.0</ele><time>2026-05-03T08:36:30.342Z</time></trkpt><trkpt lat="43.1366636" lon="12.516146"><ele>258.5</ele><time>2026-05-03T08:36:31.342Z</time></trkpt><trkpt lat="43.1367219" lon="12.5160765"><ele>259.0</ele><time>2026-05-03T08:36:32.342Z</time></trkpt><trkpt lat="43.1367991" lon="12.5160088"><ele>259.5</ele><time>2026-05-03T08:36:33.342Z</time></trkpt><trkpt lat="43.1368851" lon="12.5159322"><ele>260.0</ele><time>2026-05-03T08:36:34.343Z</time></trkpt><trkpt lat="43.1369742" lon="12.515852"><ele>260.0</ele><time>2026-05-03T08:36:35.342Z</time></trkpt><trkpt lat="43.1370709" lon="12.5157758"><ele>260.0</ele><time>2026-05-03T08:36:36.342Z</time></trkpt><trkpt lat="43.1371717" lon="12.5156911"><ele>260.0</ele><time>2026-05-03T08:36:37.342Z</time></trkpt><trkpt lat="43.1372766" lon="12.5156017"><ele>260.0</ele><time>2026-05-03T08:36:38.343Z</time></trkpt><trkpt lat="43.1373897" lon="12.515514"><ele>259.5</ele><time>2026-05-03T08:36:39.342Z</time></trkpt><trkpt lat="43.1375128" lon="12.515411"><ele>259.0</ele><time>2026-05-03T08:36:40.342Z</time></trkpt><trkpt lat="43.1376376" lon="12.5153039"><ele>258.5</ele><time>2026-05-03T08:36:41.342Z</time></trkpt><trkpt lat="43.1377694" lon="12.5151976"><ele>258.0</ele><time>2026-05-03T08:36:42.342Z</time></trkpt><trkpt lat="43.1378929" lon="12.5150847"><ele>258.0</ele><time>2026-05-03T08:36:43.342Z</time></trkpt><trkpt lat="43.1380139" lon="12.5149458"><ele>258.0</ele><time>2026-05-03T08:36:44.342Z</time></trkpt><trkpt lat="43.1381264" lon="12.5147905"><ele>258.0</ele><time>2026-05-03T08:36:45.342Z</time></trkpt><trkpt lat="43.1382408" lon="12.5146257"><ele>256.3333333333333</ele><time>2026-05-03T08:36:46.342Z</time></trkpt><trkpt lat="43.1383546" lon="12.5144408"><ele>254.66666666666666</ele><time>2026-05-03T08:36:47.342Z</time></trkpt><trkpt lat="43.1384624" lon="12.5142587"><ele>253.0</ele><time>2026-05-03T08:36:48.342Z</time></trkpt><trkpt lat="43.1385716" lon="12.5140786"><ele>253.0</ele><time>2026-05-03T08:36:49.342Z</time></trkpt><trkpt lat="43.1386925" lon="12.5139034"><ele>253.0</ele><time>2026-05-03T08:36:50.343Z</time></trkpt><trkpt lat="43.1388097" lon="12.5137473"><ele>253.0</ele><time>2026-05-03T08:36:51.342Z</time></trkpt><trkpt lat="43.1389254" lon="12.5135972"><ele>253.0</ele><time>2026-05-03T08:36:52.342Z</time></trkpt><trkpt lat="43.1390354" lon="12.5134328"><ele>253.0</ele><time>2026-05-03T08:36:53.342Z</time></trkpt><trkpt lat="43.1391533" lon="12.5132768"><ele>253.0</ele><time>2026-05-03T08:36:54.343Z</time></trkpt><trkpt lat="43.1392701" lon="12.5131244"><ele>252.33333333333331</ele><time>2026-05-03T08:36:55.342Z</time></trkpt><trkpt lat="43.1393963" lon="12.5129835"><ele>251.66666666666669</ele><time>2026-05-03T08:36:56.342Z</time></trkpt><trkpt lat="43.1395218" lon="12.5128348"><ele>251.0</ele><time>2026-05-03T08:36:57.342Z</time></trkpt><trkpt lat="43.1396484" lon="12.5126791"><ele>250.33333333333334</ele><time>2026-05-03T08:36:58.342Z</time></trkpt><trkpt lat="43.1397726" lon="12.512526"><ele>249.66666666666669</ele><time>2026-05-03T08:36:59.342Z</time></trkpt><trkpt lat="43.1398952" lon="12.5123671"><ele>249.0</ele><time>2026-05-03T08:37:00.343Z</time></trkpt><trkpt lat="43.1400187" lon="12.5122038"><ele>249.0</ele><time>2026-05-03T08:37:01.342Z</time></trkpt><trkpt lat="43.1401387" lon="12.5120538"><ele>249.0</ele><time>2026-05-03T08:37:02.342Z</time></trkpt><trkpt lat="43.1402593" lon="12.5118928"><ele>249.0</ele><time>2026-05-03T08:37:03.342Z</time></trkpt><trkpt lat="43.1403785" lon="12.5117253"><ele>249.0</ele><time>2026-05-03T08:37:04.342Z</time></trkpt><trkpt lat="43.1404972" lon="12.5115588"><ele>249.0</ele><time>2026-05-03T08:37:05.342Z</time></trkpt><trkpt lat="43.1406197" lon="12.5113871"><ele>249.0</ele><time>2026-05-03T08:37:06.342Z</time></trkpt><trkpt lat="43.140741" lon="12.5112103"><ele>248.33333333333331</ele><time>2026-05-03T08:37:07.342Z</time></trkpt><trkpt lat="43.1408611" lon="12.5110261"><ele>247.66666666666666</ele><time>2026-05-03T08:37:08.342Z</time></trkpt><trkpt lat="43.140979" lon="12.5108328"><ele>247.0</ele><time>2026-05-03T08:37:09.343Z</time></trkpt><trkpt lat="43.1410856" lon="12.5106348"><ele>247.0</ele><time>2026-05-03T08:37:10.343Z</time></trkpt><trkpt lat="43.1411828" lon="12.5104304"><ele>247.0</ele><time>2026-05-03T08:37:11.342Z</time></trkpt><trkpt lat="43.1412771" lon="12.5102314"><ele>247.0</ele><time>2026-05-03T08:37:12.342Z</time></trkpt><trkpt lat="43.1413619" lon="12.5100317"><ele>246.33333333333331</ele><time>2026-05-03T08:37:13.342Z</time></trkpt><trkpt lat="43.1414555" lon="12.5098376"><ele>245.66666666666669</ele><time>2026-05-03T08:37:14.342Z</time></trkpt><trkpt lat="43.1415336" lon="12.5096613"><ele>245.0</ele><time>2026-05-03T08:37:15.342Z</time></trkpt><trkpt lat="43.1416161" lon="12.5094982"><ele>244.5</ele><time>2026-05-03T08:37:16.342Z</time></trkpt><trkpt lat="43.141696" lon="12.5093523"><ele>244.0</ele><time>2026-05-03T08:37:17.342Z</time></trkpt><trkpt lat="43.1417926" lon="12.5092646"><ele>243.5</ele><time>2026-05-03T08:37:18.342Z</time></trkpt><trkpt lat="43.1419034" lon="12.5091995"><ele>243.0</ele><time>2026-05-03T08:37:19.342Z</time></trkpt><trkpt lat="43.142013" lon="12.5091748"><ele>243.0</ele><time>2026-05-03T08:37:20.342Z</time></trkpt><trkpt lat="43.1421243" lon="12.5091903"><ele>243.0</ele><time>2026-05-03T08:37:21.342Z</time></trkpt><trkpt lat="43.1422397" lon="12.5092203"><ele>243.0</ele><time>2026-05-03T08:37:22.342Z</time></trkpt><trkpt lat="43.1423596" lon="12.509262"><ele>243.0</ele><time>2026-05-03T08:37:23.343Z</time></trkpt><trkpt lat="43.1424758" lon="12.5093"><ele>244.25</ele><time>2026-05-03T08:37:24.342Z</time></trkpt><trkpt lat="43.1426011" lon="12.5093453"><ele>245.5</ele><time>2026-05-03T08:37:25.342Z</time></trkpt><trkpt lat="43.1427335" lon="12.5093997"><ele>246.75</ele><time>2026-05-03T08:37:26.342Z</time></trkpt><trkpt lat="43.1428765" lon="12.5094532"><ele>248.0</ele><time>2026-05-03T08:37:27.342Z</time></trkpt><trkpt lat="43.1430167" lon="12.5095108"><ele>248.0</ele><time>2026-05-03T08:37:28.342Z</time></trkpt><trkpt lat="43.1431627" lon="12.5095679"><ele>248.0</ele><time>2026-05-03T08:37:29.342Z</time></trkpt><trkpt lat="43.1433127" lon="12.5096296"><ele>248.0</ele><time>2026-05-03T08:37:30.342Z</time></trkpt><trkpt lat="43.1434658" lon="12.5096876"><ele>249.0</ele><time>2026-05-03T08:37:31.342Z</time></trkpt><trkpt lat="43.1436256" lon="12.5097436"><ele>250.0</ele><time>2026-05-03T08:37:32.343Z</time></trkpt><trkpt lat="43.1437905" lon="12.5097981"><ele>251.0</ele><time>2026-05-03T08:37:33.343Z</time></trkpt><trkpt lat="43.1439503" lon="12.5098616"><ele>252.66666666666669</ele><time>2026-05-03T08:37:34.342Z</time></trkpt><trkpt lat="43.1441159" lon="12.509923"><ele>254.33333333333331</ele><time>2026-05-03T08:37:35.342Z</time></trkpt><trkpt lat="43.1442896" lon="12.5099778"><ele>256.0</ele><time>2026-05-03T08:37:36.342Z</time></trkpt><trkpt lat="43.1444624" lon="12.5100455"><ele>256.0</ele><time>2026-05-03T08:37:37.342Z</time></trkpt><trkpt lat="43.1446373" lon="12.5101101"><ele>256.0</ele><time>2026-05-03T08:37:38.342Z</time></trkpt><trkpt lat="43.1448158" lon="12.5101678"><ele>256.0</ele><time>2026-05-03T08:37:39.342Z</time></trkpt><trkpt lat="43.1449915" lon="12.5102261"><ele>258.66666666666663</ele><time>2026-05-03T08:37:40.342Z</time></trkpt><trkpt lat="43.1451622" lon="12.5102832"><ele>261.3333333333333</ele><time>2026-05-03T08:37:41.342Z</time></trkpt><trkpt lat="43.1453302" lon="12.510339"><ele>264.0</ele><time>2026-05-03T08:37:42.342Z</time></trkpt><trkpt lat="43.1454972" lon="12.5103888"><ele>264.0</ele><time>2026-05-03T08:37:43.342Z</time></trkpt><trkpt lat="43.1456545" lon="12.5104478"><ele>264.0</ele><time>2026-05-03T08:37:44.342Z</time></trkpt><trkpt lat="43.1458123" lon="12.510499"><ele>264.0</ele><time>2026-05-03T08:37:45.342Z</time></trkpt><trkpt lat="43.145964" lon="12.5105544"><ele>264.0</ele><time>2026-05-03T08:37:46.342Z</time></trkpt><trkpt lat="43.1461106" lon="12.5106031"><ele>264.0</ele><time>2026-05-03T08:37:47.343Z</time></trkpt><trkpt lat="43.1462617" lon="12.5106539"><ele>264.0</ele><time>2026-05-03T08:37:48.342Z</time></trkpt><trkpt lat="43.1463918" lon="12.5107042"><ele>264.0</ele><time>2026-05-03T08:37:49.342Z</time></trkpt><trkpt lat="43.1465346" lon="12.5107382"><ele>263.75</ele><time>2026-05-03T08:37:50.342Z</time></trkpt><trkpt lat="43.1466672" lon="12.5107806"><ele>263.5</ele><time>2026-05-03T08:37:51.342Z</time></trkpt><trkpt lat="43.1467943" lon="12.5108208"><ele>263.25</ele><time>2026-05-03T08:37:52.342Z</time></trkpt><trkpt lat="43.1469166" lon="12.5108596"><ele>263.0</ele><time>2026-05-03T08:37:53.342Z</time></trkpt><trkpt lat="43.1470352" lon="12.5109019"><ele>263.0</ele><time>2026-05-03T08:37:54.342Z</time></trkpt><trkpt lat="43.1471588" lon="12.5109578"><ele>263.0</ele><time>2026-05-03T08:37:55.342Z</time></trkpt><trkpt lat="43.1472864" lon="12.5110052"><ele>263.0</ele><time>2026-05-03T08:37:56.342Z</time></trkpt><trkpt lat="43.147419" lon="12.5110597"><ele>263.0</ele><time>2026-05-03T08:37:57.342Z</time></trkpt><trkpt lat="43.1475568" lon="12.5111109"><ele>262.0</ele><time>2026-05-03T08:37:58.342Z</time></trkpt><trkpt lat="43.1476945" lon="12.5111556"><ele>261.0</ele><time>2026-05-03T08:37:59.343Z</time></trkpt><trkpt lat="43.1478384" lon="12.5111979"><ele>260.0</ele><time>2026-05-03T08:38:00.343Z</time></trkpt><trkpt lat="43.1479866" lon="12.511238"><ele>259.0</ele><time>2026-05-03T08:38:01.342Z</time></trkpt><trkpt lat="43.1481298" lon="12.5112476"><ele>259.66666666666663</ele><time>2026-05-03T08:38:02.342Z</time></trkpt><trkpt lat="43.1482847" lon="12.5112429"><ele>260.3333333333333</ele><time>2026-05-03T08:38:03.342Z</time></trkpt><trkpt lat="43.1484313" lon="12.5112292"><ele>261.0</ele><time>2026-05-03T08:38:04.342Z</time></trkpt><trkpt lat="43.148591" lon="12.5112118"><ele>259.0</ele><time>2026-05-03T08:38:05.342Z</time></trkpt><trkpt lat="43.148754" lon="12.5111727"><ele>257.0</ele><time>2026-05-03T08:38:06.342Z</time></trkpt><trkpt lat="43.1489201" lon="12.511129"><ele>255.0</ele><time>2026-05-03T08:38:07.343Z</time></trkpt><trkpt lat="43.1490826" lon="12.5110962"><ele>255.0</ele><time>2026-05-03T08:38:08.342Z</time></trkpt><trkpt lat="43.1492397" lon="12.5110723"><ele>255.0</ele><time>2026-05-03T08:38:09.342Z</time></trkpt><trkpt lat="43.1493967" lon="12.5110641"><ele>255.0</ele><time>2026-05-03T08:38:10.342Z</time></trkpt><trkpt lat="43.1495497" lon="12.5110803"><ele>255.0</ele><time>2026-05-03T08:38:11.342Z</time></trkpt><trkpt lat="43.1497087" lon="12.5111123"><ele>255.0</ele><time>2026-05-03T08:38:12.342Z</time></trkpt><trkpt lat="43.1498672" lon="12.5111444"><ele>255.0</ele><time>2026-05-03T08:38:13.342Z</time></trkpt><trkpt lat="43.1500334" lon="12.5112009"><ele>257.6666666666667</ele><time>2026-05-03T08:38:14.342Z</time></trkpt><trkpt lat="43.1502129" lon="12.511249"><ele>260.33333333333337</ele><time>2026-05-03T08:38:15.343Z</time></trkpt><trkpt lat="43.1503908" lon="12.5113064"><ele>263.0</ele><time>2026-05-03T08:38:16.343Z</time></trkpt><trkpt lat="43.1505704" lon="12.5113657"><ele>262.33333333333337</ele><time>2026-05-03T08:38:17.342Z</time></trkpt><trkpt lat="43.1507481" lon="12.5114356"><ele>261.6666666666667</ele><time>2026-05-03T08:38:18.342Z</time></trkpt><trkpt lat="43.1509319" lon="12.5114968"><ele>261.0</ele><time>2026-05-03T08:38:19.342Z</time></trkpt><trkpt lat="43.1511172" lon="12.5115562"><ele>261.0</ele><time>2026-05-03T08:38:20.342Z</time></trkpt><trkpt lat="43.1512983" lon="12.5116123"><ele>261.0</ele><time>2026-05-03T08:38:21.342Z</time></trkpt><trkpt lat="43.1514761" lon="12.5116603"><ele>261.0</ele><time>2026-05-03T08:38:22.342Z</time></trkpt><trkpt lat="43.1516544" lon="12.5116969"><ele>261.0</ele><time>2026-05-03T08:38:23.342Z</time></trkpt><trkpt lat="43.1518404" lon="12.5117337"><ele>261.0</ele><time>2026-05-03T08:38:24.342Z</time></trkpt><trkpt lat="43.1520224" lon="12.5117691"><ele>261.0</ele><time>2026-05-03T08:38:25.342Z</time></trkpt><trkpt lat="43.1522103" lon="12.5118089"><ele>262.0</ele><time>2026-05-03T08:38:26.342Z</time></trkpt><trkpt lat="43.1524" lon="12.5118488"><ele>263.0</ele><time>2026-05-03T08:38:27.342Z</time></trkpt><trkpt lat="43.1525928" lon="12.5118815"><ele>264.0</ele><time>2026-05-03T08:38:28.342Z</time></trkpt><trkpt lat="43.1527795" lon="12.5119167"><ele>264.0</ele><time>2026-05-03T08:38:29.342Z</time></trkpt><trkpt lat="43.1529661" lon="12.5119523"><ele>264.0</ele><time>2026-05-03T08:38:30.342Z</time></trkpt><trkpt lat="43.1531534" lon="12.5119954"><ele>264.0</ele><time>2026-05-03T08:38:31.342Z</time></trkpt><trkpt lat="43.1533405" lon="12.5120417"><ele>265.3333333333333</ele><time>2026-05-03T08:38:32.342Z</time></trkpt><trkpt lat="43.1535286" lon="12.5120871"><ele>266.66666666666663</ele><time>2026-05-03T08:38:33.342Z</time></trkpt><trkpt lat="43.1537122" lon="12.5121242"><ele>268.0</ele><time>2026-05-03T08:38:34.342Z</time></trkpt><trkpt lat="43.153895" lon="12.5121587"><ele>268.3333333333333</ele><time>2026-05-03T08:38:35.342Z</time></trkpt><trkpt lat="43.154074" lon="12.5121938"><ele>268.6666666666667</ele><time>2026-05-03T08:38:36.342Z</time></trkpt><trkpt lat="43.1542489" lon="12.5122315"><ele>269.0</ele><time>2026-05-03T08:38:37.342Z</time></trkpt><trkpt lat="43.1544149" lon="12.5122655"><ele>269.0</ele><time>2026-05-03T08:38:38.342Z</time></trkpt><trkpt lat="43.1545733" lon="12.5123123"><ele>269.0</ele><time>2026-05-03T08:38:39.342Z</time></trkpt><trkpt lat="43.1547261" lon="12.5123765"><ele>269.0</ele><time>2026-05-03T08:38:40.343Z</time></trkpt><trkpt lat="43.1548723" lon="12.5124695"><ele>270.33333333333337</ele><time>2026-05-03T08:38:41.342Z</time></trkpt><trkpt lat="43.1550132" lon="12.5125901"><ele>271.6666666666667</ele><time>2026-05-03T08:38:42.342Z</time></trkpt><trkpt lat="43.1551413" lon="12.5127335"><ele>273.0</ele><time>2026-05-03T08:38:43.342Z</time></trkpt><trkpt lat="43.1552447" lon="12.5128885"><ele>273.25</ele><time>2026-05-03T08:38:44.342Z</time></trkpt><trkpt lat="43.1553405" lon="12.5130471"><ele>273.5</ele><time>2026-05-03T08:38:45.342Z</time></trkpt><trkpt lat="43.1554306" lon="12.5131936"><ele>273.75</ele><time>2026-05-03T08:38:46.343Z</time></trkpt><trkpt lat="43.1555142" lon="12.5133357"><ele>274.0</ele><time>2026-05-03T08:38:47.342Z</time></trkpt><trkpt lat="43.1555956" lon="12.5134625"><ele>274.0</ele><time>2026-05-03T08:38:48.342Z</time></trkpt><trkpt lat="43.1556737" lon="12.5135708"><ele>274.0</ele><time>2026-05-03T08:38:49.342Z</time></trkpt><trkpt lat="43.1557572" lon="12.5136531"><ele>274.0</ele><time>2026-05-03T08:38:50.342Z</time></trkpt><trkpt lat="43.1558436" lon="12.5137184"><ele>274.0</ele><time>2026-05-03T08:38:51.342Z</time></trkpt><trkpt lat="43.1559591" lon="12.5137439"><ele>274.0</ele><time>2026-05-03T08:38:52.342Z</time></trkpt><trkpt lat="43.1560793" lon="12.5137392"><ele>274.5</ele><time>2026-05-03T08:38:53.342Z</time></trkpt><trkpt lat="43.1562081" lon="12.5137291"><ele>275.0</ele><time>2026-05-03T08:38:54.342Z</time></trkpt><trkpt lat="43.1563474" lon="12.5137304"><ele>275.5</ele><time>2026-05-03T08:38:55.342Z</time></trkpt><trkpt lat="43.1564782" lon="12.5137403"><ele>276.0</ele><time>2026-05-03T08:38:56.342Z</time></trkpt><trkpt lat="43.1566168" lon="12.5137972"><ele>276.0</ele><time>2026-05-03T08:38:57.342Z</time></trkpt><trkpt lat="43.1567486" lon="12.5138863"><ele>276.0</ele><time>2026-05-03T08:38:58.342Z</time></trkpt><trkpt lat="43.1568803" lon="12.5140006"><ele>276.0</ele><time>2026-05-03T08:38:59.342Z</time></trkpt><trkpt lat="43.1570153" lon="12.5141259"><ele>276.0</ele><time>2026-05-03T08:39:00.342Z</time></trkpt><trkpt lat="43.1571497" lon="12.5142582"><ele>276.0</ele><time>2026-05-03T08:39:01.342Z</time></trkpt><trkpt lat="43.1572924" lon="12.5143895"><ele>276.0</ele><time>2026-05-03T08:39:02.342Z</time></trkpt><trkpt lat="43.1574266" lon="12.5145105"><ele>276.6666666666667</ele><time>2026-05-03T08:39:03.342Z</time></trkpt><trkpt lat="43.1575694" lon="12.5146269"><ele>277.33333333333337</ele><time>2026-05-03T08:39:04.342Z</time></trkpt><trkpt lat="43.1577247" lon="12.514735"><ele>278.0</ele><time>2026-05-03T08:39:05.342Z</time></trkpt><trkpt lat="43.1578797" lon="12.5148517"><ele>278.0</ele><time>2026-05-03T08:39:06.342Z</time></trkpt><trkpt lat="43.158041" lon="12.514971"><ele>278.0</ele><time>2026-05-03T08:39:07.342Z</time></trkpt><trkpt lat="43.1582059" lon="12.5150997"><ele>278.0</ele><time>2026-05-03T08:39:08.342Z</time></trkpt><trkpt lat="43.1583747" lon="12.5152329"><ele>278.0</ele><time>2026-05-03T08:39:09.342Z</time></trkpt><trkpt lat="43.1585429" lon="12.5153688"><ele>278.0</ele><time>2026-05-03T08:39:10.343Z</time></trkpt><trkpt lat="43.1587234" lon="12.5155112"><ele>278.0</ele><time>2026-05-03T08:39:11.342Z</time></trkpt><trkpt lat="43.1588935" lon="12.5156441"><ele>279.6666666666667</ele><time>2026-05-03T08:39:12.342Z</time></trkpt><trkpt lat="43.1590635" lon="12.5157811"><ele>281.3333333333333</ele><time>2026-05-03T08:39:13.342Z</time></trkpt><trkpt lat="43.1592259" lon="12.5159158"><ele>283.0</ele><time>2026-05-03T08:39:14.342Z</time></trkpt><trkpt lat="43.1593996" lon="12.5160511"><ele>283.0</ele><time>2026-05-03T08:39:15.342Z</time></trkpt><trkpt lat="43.1595708" lon="12.5161881"><ele>283.0</ele><time>2026-05-03T08:39:16.343Z</time></trkpt><trkpt lat="43.1597402" lon="12.5163255"><ele>283.0</ele><time>2026-05-03T08:39:17.342Z</time></trkpt><trkpt lat="43.1599218" lon="12.5164665"><ele>283.3333333333333</ele><time>2026-05-03T08:39:18.342Z</time></trkpt><trkpt lat="43.1600955" lon="12.5166064"><ele>283.6666666666667</ele><time>2026-05-03T08:39:19.342Z</time></trkpt><trkpt lat="43.1602666" lon="12.5167443"><ele>284.0</ele><time>2026-05-03T08:39:20.342Z</time></trkpt><trkpt lat="43.1604405" lon="12.516883"><ele>284.0</ele><time>2026-05-03T08:39:21.342Z</time></trkpt><trkpt lat="43.1606139" lon="12.5170289"><ele>284.0</ele><time>2026-05-03T08:39:22.343Z</time></trkpt><trkpt lat="43.160786" lon="12.5171607"><ele>284.0</ele><time>2026-05-03T08:39:23.342Z</time></trkpt><trkpt lat="43.1609535" lon="12.5173052"><ele>285.0</ele><time>2026-05-03T08:39:24.343Z</time></trkpt><trkpt lat="43.1611208" lon="12.5174347"><ele>286.0</ele><time>2026-05-03T08:39:25.343Z</time></trkpt><trkpt lat="43.1612859" lon="12.5175616"><ele>287.0</ele><time>2026-05-03T08:39:26.342Z</time></trkpt><trkpt lat="43.1614538" lon="12.5176962"><ele>288.0</ele><time>2026-05-03T08:39:27.342Z</time></trkpt><trkpt lat="43.1616181" lon="12.5178159"><ele>289.0</ele><time>2026-05-03T08:39:28.342Z</time></trkpt><trkpt lat="43.1617904" lon="12.5179249"><ele>290.0</ele><time>2026-05-03T08:39:29.342Z</time></trkpt><trkpt lat="43.1619645" lon="12.5180079"><ele>290.0</ele><time>2026-05-03T08:39:30.342Z</time></trkpt><trkpt lat="43.1621476" lon="12.5180534"><ele>290.0</ele><time>2026-05-03T08:39:31.342Z</time></trkpt><trkpt lat="43.1623375" lon="12.5180934"><ele>290.0</ele><time>2026-05-03T08:39:32.342Z</time></trkpt><trkpt lat="43.1625312" lon="12.5181309"><ele>291.33333333333337</ele><time>2026-05-03T08:39:33.342Z</time></trkpt><trkpt lat="43.1627329" lon="12.5181666"><ele>292.6666666666667</ele><time>2026-05-03T08:39:34.342Z</time></trkpt><trkpt lat="43.1629331" lon="12.5181943"><ele>294.0</ele><time>2026-05-03T08:39:35.342Z</time></trkpt><trkpt lat="43.1631318" lon="12.5182336"><ele>294.3333333333333</ele><time>2026-05-03T08:39:36.343Z</time></trkpt><trkpt lat="43.1633411" lon="12.5182643"><ele>294.66666666666663</ele><time>2026-05-03T08:39:37.342Z</time></trkpt><trkpt lat="43.1635514" lon="12.5183019"><ele>295.0</ele><time>2026-05-03T08:39:38.343Z</time></trkpt><trkpt lat="43.1637559" lon="12.5183388"><ele>295.0</ele><time>2026-05-03T08:39:39.343Z</time></trkpt><trkpt lat="43.1639598" lon="12.5183778"><ele>295.0</ele><time>2026-05-03T08:39:40.342Z</time></trkpt><trkpt lat="43.1641663" lon="12.5184121"><ele>295.0</ele><time>2026-05-03T08:39:41.342Z</time></trkpt><trkpt lat="43.1643725" lon="12.5184421"><ele>296.0</ele><time>2026-05-03T08:39:42.342Z</time></trkpt><trkpt lat="43.1645755" lon="12.5184755"><ele>297.0</ele><time>2026-05-03T08:39:43.343Z</time></trkpt><trkpt lat="43.1647743" lon="12.5185089"><ele>298.0</ele><time>2026-05-03T08:39:44.342Z</time></trkpt><trkpt lat="43.1649673" lon="12.5185458"><ele>298.66666666666663</ele><time>2026-05-03T08:39:45.342Z</time></trkpt><trkpt lat="43.1651502" lon="12.5185818"><ele>299.3333333333333</ele><time>2026-05-03T08:39:46.342Z</time></trkpt><trkpt lat="43.1653112" lon="12.5186111"><ele>300.0</ele><time>2026-05-03T08:39:47.342Z</time></trkpt><trkpt lat="43.1654637" lon="12.518643"><ele>300.0</ele><time>2026-05-03T08:39:48.342Z</time></trkpt><trkpt lat="43.1656169" lon="12.5186873"><ele>300.0</ele><time>2026-05-03T08:39:49.342Z</time></trkpt><trkpt lat="43.1657752" lon="12.518747"><ele>300.0</ele><time>2026-05-03T08:39:50.342Z</time></trkpt><trkpt lat="43.1659416" lon="12.5188015"><ele>300.3333333333333</ele><time>2026-05-03T08:39:51.342Z</time></trkpt><trkpt lat="43.1661025" lon="12.5188698"><ele>300.66666666666663</ele><time>2026-05-03T08:39:52.342Z</time></trkpt><trkpt lat="43.1662691" lon="12.5189358"><ele>301.0</ele><time>2026-05-03T08:39:53.343Z</time></trkpt><trkpt lat="43.16644" lon="12.5190073"><ele>300.66666666666663</ele><time>2026-05-03T08:39:54.342Z</time></trkpt><trkpt lat="43.1666126" lon="12.5190667"><ele>300.3333333333333</ele><time>2026-05-03T08:39:55.342Z</time></trkpt><trkpt lat="43.1667819" lon="12.5191236"><ele>300.0</ele><time>2026-05-03T08:39:56.342Z</time></trkpt><trkpt lat="43.1669481" lon="12.5191548"><ele>300.0</ele><time>2026-05-03T08:39:57.342Z</time></trkpt><trkpt lat="43.1671311" lon="12.519159"><ele>300.0</ele><time>2026-05-03T08:39:58.342Z</time></trkpt><trkpt lat="43.1673022" lon="12.5191157"><ele>300.0</ele><time>2026-05-03T08:39:59.342Z</time></trkpt><trkpt lat="43.1674716" lon="12.5190431"><ele>298.6666666666667</ele><time>2026-05-03T08:40:00.342Z</time></trkpt><trkpt lat="43.1676398" lon="12.5189225"><ele>297.33333333333337</ele><time>2026-05-03T08:40:01.342Z</time></trkpt><trkpt lat="43.1678006" lon="12.5188037"><ele>296.0</ele><time>2026-05-03T08:40:02.342Z</time></trkpt><trkpt lat="43.167964" lon="12.5186691"><ele>294.0</ele><time>2026-05-03T08:40:03.342Z</time></trkpt><trkpt lat="43.168133" lon="12.5185313"><ele>292.0</ele><time>2026-05-03T08:40:04.342Z</time></trkpt><trkpt lat="43.1683008" lon="12.5184026"><ele>290.0</ele><time>2026-05-03T08:40:05.342Z</time></trkpt><trkpt lat="43.1684719" lon="12.5182672"><ele>290.0</ele><time>2026-05-03T08:40:06.342Z</time></trkpt><trkpt lat="43.1686362" lon="12.5181317"><ele>290.0</ele><time>2026-05-03T08:40:07.343Z</time></trkpt><trkpt lat="43.1688049" lon="12.5179991"><ele>290.0</ele><time>2026-05-03T08:40:08.342Z</time></trkpt><trkpt lat="43.1689803" lon="12.5178794"><ele>288.6666666666667</ele><time>2026-05-03T08:40:09.342Z</time></trkpt><trkpt lat="43.1691448" lon="12.517743"><ele>287.3333333333333</ele><time>2026-05-03T08:40:10.342Z</time></trkpt><trkpt lat="43.1693063" lon="12.5176092"><ele>286.0</ele><time>2026-05-03T08:40:11.342Z</time></trkpt><trkpt lat="43.169479" lon="12.517474"><ele>286.0</ele><time>2026-05-03T08:40:12.343Z</time></trkpt><trkpt lat="43.1696419" lon="12.5173438"><ele>286.0</ele><time>2026-05-03T08:40:13.342Z</time></trkpt><trkpt lat="43.1698097" lon="12.5172037"><ele>286.0</ele><time>2026-05-03T08:40:14.342Z</time></trkpt><trkpt lat="43.1699711" lon="12.5170614"><ele>285.66666666666663</ele><time>2026-05-03T08:40:15.342Z</time></trkpt><trkpt lat="43.1701371" lon="12.5169206"><ele>285.3333333333333</ele><time>2026-05-03T08:40:16.343Z</time></trkpt><trkpt lat="43.1702984" lon="12.5167904"><ele>285.0</ele><time>2026-05-03T08:40:17.342Z</time></trkpt><trkpt lat="43.1704589" lon="12.5166601"><ele>285.0</ele><time>2026-05-03T08:40:18.342Z</time></trkpt><trkpt lat="43.170623" lon="12.516538"><ele>285.0</ele><time>2026-05-03T08:40:19.342Z</time></trkpt><trkpt lat="43.1707801" lon="12.5164032"><ele>285.0</ele><time>2026-05-03T08:40:20.342Z</time></trkpt><trkpt lat="43.1709378" lon="12.5162785"><ele>285.3333333333333</ele><time>2026-05-03T08:40:21.342Z</time></trkpt><trkpt lat="43.1711061" lon="12.5161567"><ele>285.66666666666663</ele><time>2026-05-03T08:40:22.342Z</time></trkpt><trkpt lat="43.1712626" lon="12.5160273"><ele>286.0</ele><time>2026-05-03T08:40:23.343Z</time></trkpt><trkpt lat="43.1714191" lon="12.5158987"><ele>286.3333333333333</ele><time>2026-05-03T08:40:24.342Z</time></trkpt><trkpt lat="43.1715782" lon="12.5157723"><ele>286.6666666666667</ele><time>2026-05-03T08:40:25.342Z</time></trkpt><trkpt lat="43.1717391" lon="12.5156439"><ele>287.0</ele><time>2026-05-03T08:40:26.343Z</time></trkpt><trkpt lat="43.1718912" lon="12.5155167"><ele>287.33333333333337</ele><time>2026-05-03T08:40:27.342Z</time></trkpt><trkpt lat="43.1720623" lon="12.515379"><ele>287.6666666666667</ele><time>2026-05-03T08:40:28.342Z</time></trkpt><trkpt lat="43.172222" lon="12.5152611"><ele>288.0</ele><time>2026-05-03T08:40:29.342Z</time></trkpt><trkpt lat="43.1723991" lon="12.5151295"><ele>288.6666666666667</ele><time>2026-05-03T08:40:30.342Z</time></trkpt><trkpt lat="43.1725619" lon="12.5149971"><ele>289.33333333333337</ele><time>2026-05-03T08:40:31.342Z</time></trkpt><trkpt lat="43.1727295" lon="12.514875"><ele>290.0</ele><time>2026-05-03T08:40:32.342Z</time></trkpt><trkpt lat="43.1728871" lon="12.5147494"><ele>290.0</ele><time>2026-05-03T08:40:33.342Z</time></trkpt><trkpt lat="43.173044" lon="12.5146243"><ele>290.0</ele><time>2026-05-03T08:40:34.342Z</time></trkpt><trkpt lat="43.1731896" lon="12.5145005"><ele>290.0</ele><time>2026-05-03T08:40:35.342Z</time></trkpt><trkpt lat="43.1733342" lon="12.5143795"><ele>289.6666666666667</ele><time>2026-05-03T08:40:36.343Z</time></trkpt><trkpt lat="43.1734803" lon="12.5142555"><ele>289.3333333333333</ele><time>2026-05-03T08:40:37.342Z</time></trkpt><trkpt lat="43.1736258" lon="12.5141367"><ele>289.0</ele><time>2026-05-03T08:40:38.342Z</time></trkpt><trkpt lat="43.1737506" lon="12.5140001"><ele>289.0</ele><time>2026-05-03T08:40:39.343Z</time></trkpt><trkpt lat="43.1738832" lon="12.5138442"><ele>289.0</ele><time>2026-05-03T08:40:40.342Z</time></trkpt><trkpt lat="43.1740055" lon="12.513682"><ele>289.0</ele><time>2026-05-03T08:40:41.342Z</time></trkpt><trkpt lat="43.1741229" lon="12.5135091"><ele>289.3333333333333</ele><time>2026-05-03T08:40:42.342Z</time></trkpt><trkpt lat="43.1742386" lon="12.5133326"><ele>289.6666666666667</ele><time>2026-05-03T08:40:43.343Z</time></trkpt><trkpt lat="43.1743484" lon="12.5131479"><ele>290.0</ele><time>2026-05-03T08:40:44.342Z</time></trkpt><trkpt lat="43.1744592" lon="12.5129612"><ele>289.0</ele><time>2026-05-03T08:40:45.342Z</time></trkpt><trkpt lat="43.1745709" lon="12.5127698"><ele>288.0</ele><time>2026-05-03T08:40:46.342Z</time></trkpt><trkpt lat="43.1746824" lon="12.5125811"><ele>287.0</ele><time>2026-05-03T08:40:47.342Z</time></trkpt><trkpt lat="43.17479" lon="12.512384"><ele>287.33333333333337</ele><time>2026-05-03T08:40:48.342Z</time></trkpt><trkpt lat="43.1748997" lon="12.5121885"><ele>287.6666666666667</ele><time>2026-05-03T08:40:49.342Z</time></trkpt><trkpt lat="43.175012" lon="12.5119964"><ele>288.0</ele><time>2026-05-03T08:40:50.342Z</time></trkpt><trkpt lat="43.1751115" lon="12.5117964"><ele>288.0</ele><time>2026-05-03T08:40:51.342Z</time></trkpt><trkpt lat="43.1752215" lon="12.511607"><ele>288.0</ele><time>2026-05-03T08:40:52.342Z</time></trkpt><trkpt lat="43.1753249" lon="12.5114227"><ele>288.0</ele><time>2026-05-03T08:40:53.342Z</time></trkpt><trkpt lat="43.1754228" lon="12.5112523"><ele>288.0</ele><time>2026-05-03T08:40:54.342Z</time></trkpt><trkpt lat="43.1755129" lon="12.5110911"><ele>288.0</ele><time>2026-05-03T08:40:55.342Z</time></trkpt><trkpt lat="43.1756102" lon="12.510923"><ele>288.0</ele><time>2026-05-03T08:40:56.342Z</time></trkpt><trkpt lat="43.1757031" lon="12.5107571"><ele>288.3333333333333</ele><time>2026-05-03T08:40:57.342Z</time></trkpt><trkpt lat="43.1757952" lon="12.5105848"><ele>288.66666666666663</ele><time>2026-05-03T08:40:58.342Z</time></trkpt><trkpt lat="43.175887" lon="12.5104161"><ele>289.0</ele><time>2026-05-03T08:40:59.342Z</time></trkpt><trkpt lat="43.1759831" lon="12.5102426"><ele>289.0</ele><time>2026-05-03T08:41:00.342Z</time></trkpt><trkpt lat="43.1760773" lon="12.5100806"><ele>289.0</ele><time>2026-05-03T08:41:01.342Z</time></trkpt><trkpt lat="43.1761687" lon="12.5099209"><ele>289.0</ele><time>2026-05-03T08:41:02.342Z</time></trkpt><trkpt lat="43.1762532" lon="12.5097702"><ele>289.0</ele><time>2026-05-03T08:41:03.342Z</time></trkpt><trkpt lat="43.1763317" lon="12.5096273"><ele>289.0</ele><time>2026-05-03T08:41:04.342Z</time></trkpt><trkpt lat="43.1764102" lon="12.5094876"><ele>289.0</ele><time>2026-05-03T08:41:05.342Z</time></trkpt><trkpt lat="43.1764882" lon="12.5093444"><ele>289.0</ele><time>2026-05-03T08:41:06.342Z</time></trkpt><trkpt lat="43.1765756" lon="12.5091981"><ele>289.0</ele><time>2026-05-03T08:41:07.342Z</time></trkpt><trkpt lat="43.1766647" lon="12.5090461"><ele>289.0</ele><time>2026-05-03T08:41:08.342Z</time></trkpt><trkpt lat="43.1767462" lon="12.508897"><ele>289.0</ele><time>2026-05-03T08:41:09.342Z</time></trkpt><trkpt lat="43.1768323" lon="12.508736"><ele>289.0</ele><time>2026-05-03T08:41:10.342Z</time></trkpt><trkpt lat="43.1769214" lon="12.5085734"><ele>289.0</ele><time>2026-05-03T08:41:11.342Z</time></trkpt><trkpt lat="43.1770082" lon="12.5084164"><ele>289.0</ele><time>2026-05-03T08:41:12.342Z</time></trkpt><trkpt lat="43.1770916" lon="12.5082591"><ele>289.0</ele><time>2026-05-03T08:41:13.342Z</time></trkpt><trkpt lat="43.1771704" lon="12.5081142"><ele>289.0</ele><time>2026-05-03T08:41:14.342Z</time></trkpt><trkpt lat="43.1772448" lon="12.5079831"><ele>289.0</ele><time>2026-05-03T08:41:15.342Z</time></trkpt><trkpt lat="43.1773199" lon="12.5078566"><ele>289.5</ele><time>2026-05-03T08:41:16.342Z</time></trkpt><trkpt lat="43.1773855" lon="12.5077549"><ele>290.0</ele><time>2026-05-03T08:41:17.342Z</time></trkpt><trkpt lat="43.1774421" lon="12.5076616"><ele>290.5</ele><time>2026-05-03T08:41:18.342Z</time></trkpt><trkpt lat="43.1774933" lon="12.5075833"><ele>291.0</ele><time>2026-05-03T08:41:19.342Z</time></trkpt><trkpt lat="43.1775322" lon="12.5075087"><ele>291.5</ele><time>2026-05-03T08:41:20.342Z</time></trkpt><trkpt lat="43.1775873" lon="12.5074032"><ele>292.0</ele><time>2026-05-03T08:41:22.342Z</time></trkpt><trkpt lat="43.1776409" lon="12.5073001"><ele>292.0</ele><time>2026-05-03T08:41:25.342Z</time></trkpt><trkpt lat="43.1777017" lon="12.5071996"><ele>292.0</ele><time>2026-05-03T08:41:27.342Z</time></trkpt><trkpt lat="43.1777723" lon="12.5070547"><ele>292.0</ele><time>2026-05-03T08:41:29.342Z</time></trkpt><trkpt lat="43.1778266" lon="12.5069696"><ele>292.0</ele><time>2026-05-03T08:41:30.342Z</time></trkpt><trkpt lat="43.1778809" lon="12.5068876"><ele>292.0</ele><time>2026-05-03T08:41:31.342Z</time></trkpt><trkpt lat="43.177925" lon="12.5068042"><ele>292.16666666666663</ele><time>2026-05-03T08:41:32.342Z</time></trkpt><trkpt lat="43.1779727" lon="12.5067265"><ele>292.3333333333333</ele><time>2026-05-03T08:41:33.342Z</time></trkpt><trkpt lat="43.1780204" lon="12.5066479"><ele>292.5</ele><time>2026-05-03T08:41:34.342Z</time></trkpt><trkpt lat="43.1780616" lon="12.5065629"><ele>292.6666666666667</ele><time>2026-05-03T08:41:35.343Z</time></trkpt><trkpt lat="43.1781142" lon="12.5064744"><ele>292.83333333333337</ele><time>2026-05-03T08:41:36.343Z</time></trkpt><trkpt lat="43.1781672" lon="12.5063775"><ele>293.0</ele><time>2026-05-03T08:41:37.342Z</time></trkpt><trkpt lat="43.1782287" lon="12.5062698"><ele>294.2</ele><time>2026-05-03T08:41:38.342Z</time></trkpt><trkpt lat="43.1782977" lon="12.5061539"><ele>295.4</ele><time>2026-05-03T08:41:39.343Z</time></trkpt><trkpt lat="43.1783608" lon="12.5060508"><ele>296.59999999999997</ele><time>2026-05-03T08:41:40.342Z</time></trkpt><trkpt lat="43.1784272" lon="12.505952"><ele>297.8</ele><time>2026-05-03T08:41:41.342Z</time></trkpt><trkpt lat="43.1784915" lon="12.5058497"><ele>299.0</ele><time>2026-05-03T08:41:42.342Z</time></trkpt><trkpt lat="43.1785578" lon="12.5057483"><ele>299.0</ele><time>2026-05-03T08:41:43.342Z</time></trkpt><trkpt lat="43.1786135" lon="12.5056564"><ele>299.0</ele><time>2026-05-03T08:41:44.342Z</time></trkpt><trkpt lat="43.178657" lon="12.5055748"><ele>299.0</ele><time>2026-05-03T08:41:45.342Z</time></trkpt><trkpt lat="43.1787044" lon="12.505446"><ele>299.0</ele><time>2026-05-03T08:41:47.342Z</time></trkpt><trkpt lat="43.1787463" lon="12.5053375"><ele>299.0</ele><time>2026-05-03T08:41:49.342Z</time></trkpt><trkpt lat="43.1788154" lon="12.5051828"><ele>299.4</ele><time>2026-05-03T08:41:51.342Z</time></trkpt><trkpt lat="43.1788691" lon="12.5050875"><ele>299.79999999999995</ele><time>2026-05-03T08:41:52.342Z</time></trkpt><trkpt lat="43.1789219" lon="12.5049923"><ele>300.20000000000005</ele><time>2026-05-03T08:41:53.342Z</time></trkpt><trkpt lat="43.1789802" lon="12.5048945"><ele>300.6</ele><time>2026-05-03T08:41:54.343Z</time></trkpt><trkpt lat="43.1790509" lon="12.5047806"><ele>301.0</ele><time>2026-05-03T08:41:55.343Z</time></trkpt><trkpt lat="43.1791147" lon="12.504657"><ele>301.25</ele><time>2026-05-03T08:41:56.342Z</time></trkpt><trkpt lat="43.179188" lon="12.5045203"><ele>301.5</ele><time>2026-05-03T08:41:57.342Z</time></trkpt><trkpt lat="43.1792693" lon="12.5043828"><ele>301.75</ele><time>2026-05-03T08:41:58.342Z</time></trkpt><trkpt lat="43.1793486" lon="12.5042376"><ele>302.0</ele><time>2026-05-03T08:41:59.342Z</time></trkpt><trkpt lat="43.1794296" lon="12.5040952"><ele>302.0</ele><time>2026-05-03T08:42:00.343Z</time></trkpt><trkpt lat="43.1795184" lon="12.5039524"><ele>302.0</ele><time>2026-05-03T08:42:01.342Z</time></trkpt><trkpt lat="43.1795987" lon="12.5038051"><ele>302.0</ele><time>2026-05-03T08:42:02.342Z</time></trkpt><trkpt lat="43.17969" lon="12.5036579"><ele>302.0</ele><time>2026-05-03T08:42:03.342Z</time></trkpt><trkpt lat="43.1797787" lon="12.5035142"><ele>302.75</ele><time>2026-05-03T08:42:04.342Z</time></trkpt><trkpt lat="43.1798832" lon="12.5033802"><ele>303.5</ele><time>2026-05-03T08:42:05.342Z</time></trkpt><trkpt lat="43.1800007" lon="12.5032554"><ele>304.25</ele><time>2026-05-03T08:42:06.342Z</time></trkpt><trkpt lat="43.1801237" lon="12.5031422"><ele>305.0</ele><time>2026-05-03T08:42:07.342Z</time></trkpt><trkpt lat="43.1802543" lon="12.5030481"><ele>305.0</ele><time>2026-05-03T08:42:08.342Z</time></trkpt><trkpt lat="43.1803891" lon="12.5029573"><ele>305.0</ele><time>2026-05-03T08:42:09.342Z</time></trkpt><trkpt lat="43.1805261" lon="12.5028703"><ele>305.0</ele><time>2026-05-03T08:42:10.342Z</time></trkpt><trkpt lat="43.1806736" lon="12.5027982"><ele>308.0</ele><time>2026-05-03T08:42:11.342Z</time></trkpt><trkpt lat="43.1808237" lon="12.5027229"><ele>311.0</ele><time>2026-05-03T08:42:12.342Z</time></trkpt><trkpt lat="43.1809745" lon="12.5026528"><ele>314.0</ele><time>2026-05-03T08:42:13.342Z</time></trkpt><trkpt lat="43.1811225" lon="12.5025705"><ele>314.0</ele><time>2026-05-03T08:42:14.342Z</time></trkpt><trkpt lat="43.1812789" lon="12.5024927"><ele>314.0</ele><time>2026-05-03T08:42:15.342Z</time></trkpt><trkpt lat="43.1814301" lon="12.5024226"><ele>314.0</ele><time>2026-05-03T08:42:16.342Z</time></trkpt><trkpt lat="43.1815778" lon="12.5023586"><ele>316.0</ele><time>2026-05-03T08:42:17.342Z</time></trkpt><trkpt lat="43.181729" lon="12.5022956"><ele>318.0</ele><time>2026-05-03T08:42:18.342Z</time></trkpt><trkpt lat="43.1818788" lon="12.5022536"><ele>320.0</ele><time>2026-05-03T08:42:19.342Z</time></trkpt><trkpt lat="43.182029" lon="12.502233"><ele>320.0</ele><time>2026-05-03T08:42:20.342Z</time></trkpt><trkpt lat="43.1821529" lon="12.5022263"><ele>320.0</ele><time>2026-05-03T08:42:21.342Z</time></trkpt><trkpt lat="43.182256" lon="12.5022341"><ele>320.0</ele><time>2026-05-03T08:42:22.342Z</time></trkpt><trkpt lat="43.1823348" lon="12.5022226"><ele>320.0</ele><time>2026-05-03T08:42:23.342Z</time></trkpt><trkpt lat="43.1824144" lon="12.5021142"><ele>320.0</ele><time>2026-05-03T08:42:25.342Z</time></trkpt><trkpt lat="43.1824289" lon="12.5020265"><ele>321.0</ele><time>2026-05-03T08:42:26.342Z</time></trkpt><trkpt lat="43.1824543" lon="12.5019241"><ele>322.0</ele><time>2026-05-03T08:42:27.342Z</time></trkpt><trkpt lat="43.1824986" lon="12.5018154"><ele>323.0</ele><time>2026-05-03T08:42:28.342Z</time></trkpt><trkpt lat="43.1825696" lon="12.5017181"><ele>324.0</ele><time>2026-05-03T08:42:29.342Z</time></trkpt><trkpt lat="43.1826473" lon="12.5016216"><ele>325.0</ele><time>2026-05-03T08:42:30.343Z</time></trkpt><trkpt lat="43.1827466" lon="12.501518"><ele>325.0</ele><time>2026-05-03T08:42:31.342Z</time></trkpt><trkpt lat="43.1828362" lon="12.5014192"><ele>325.0</ele><time>2026-05-03T08:42:32.342Z</time></trkpt><trkpt lat="43.1829338" lon="12.501329"><ele>325.0</ele><time>2026-05-03T08:42:33.342Z</time></trkpt><trkpt lat="43.1830341" lon="12.5012433"><ele>325.0</ele><time>2026-05-03T08:42:34.342Z</time></trkpt><trkpt lat="43.1831326" lon="12.5011505"><ele>326.25</ele><time>2026-05-03T08:42:35.342Z</time></trkpt><trkpt lat="43.1832256" lon="12.5010543"><ele>327.5</ele><time>2026-05-03T08:42:36.343Z</time></trkpt><trkpt lat="43.1833301" lon="12.500961"><ele>328.75</ele><time>2026-05-03T08:42:37.342Z</time></trkpt><trkpt lat="43.1834227" lon="12.5008332"><ele>330.0</ele><time>2026-05-03T08:42:38.342Z</time></trkpt><trkpt lat="43.1835322" lon="12.5007067"><ele>330.0</ele><time>2026-05-03T08:42:39.342Z</time></trkpt><trkpt lat="43.1836403" lon="12.5005748"><ele>330.0</ele><time>2026-05-03T08:42:40.342Z</time></trkpt><trkpt lat="43.1837527" lon="12.5004458"><ele>330.0</ele><time>2026-05-03T08:42:41.342Z</time></trkpt><trkpt lat="43.1838694" lon="12.5003095"><ele>330.0</ele><time>2026-05-03T08:42:42.342Z</time></trkpt><trkpt lat="43.1839881" lon="12.5001584"><ele>327.3333333333333</ele><time>2026-05-03T08:42:43.342Z</time></trkpt><trkpt lat="43.1841117" lon="12.5000033"><ele>324.66666666666663</ele><time>2026-05-03T08:42:44.342Z</time></trkpt><trkpt lat="43.1842386" lon="12.4998464"><ele>322.0</ele><time>2026-05-03T08:42:45.343Z</time></trkpt><trkpt lat="43.1843758" lon="12.4996875"><ele>320.66666666666663</ele><time>2026-05-03T08:42:46.342Z</time></trkpt><trkpt lat="43.1845116" lon="12.4995223"><ele>319.3333333333333</ele><time>2026-05-03T08:42:47.342Z</time></trkpt><trkpt lat="43.1846496" lon="12.4993632"><ele>318.0</ele><time>2026-05-03T08:42:48.342Z</time></trkpt><trkpt lat="43.1847816" lon="12.4991818"><ele>318.0</ele><time>2026-05-03T08:42:49.342Z</time></trkpt><trkpt lat="43.1849211" lon="12.4990159"><ele>318.0</ele><time>2026-05-03T08:42:50.342Z</time></trkpt><trkpt lat="43.1850565" lon="12.4988423"><ele>318.0</ele><time>2026-05-03T08:42:51.342Z</time></trkpt><trkpt lat="43.185178" lon="12.4986907"><ele>318.0</ele><time>2026-05-03T08:42:52.342Z</time></trkpt><trkpt lat="43.1852732" lon="12.4985577"><ele>318.0</ele><time>2026-05-03T08:42:53.342Z</time></trkpt><trkpt lat="43.185364" lon="12.498425"><ele>318.0</ele><time>2026-05-03T08:42:54.343Z</time></trkpt><trkpt lat="43.1854144" lon="12.4982571"><ele>318.0</ele><time>2026-05-03T08:42:55.342Z</time></trkpt><trkpt lat="43.1854274" lon="12.4980816"><ele>317.5</ele><time>2026-05-03T08:42:56.342Z</time></trkpt><trkpt lat="43.1853929" lon="12.4978839"><ele>317.0</ele><time>2026-05-03T08:42:57.343Z</time></trkpt><trkpt lat="43.185359" lon="12.497675"><ele>316.5</ele><time>2026-05-03T08:42:58.342Z</time></trkpt><trkpt lat="43.1853252" lon="12.4974825"><ele>316.0</ele><time>2026-05-03T08:42:59.342Z</time></trkpt><trkpt lat="43.1852804" lon="12.4972947"><ele>316.0</ele><time>2026-05-03T08:43:00.342Z</time></trkpt><trkpt lat="43.1852475" lon="12.497114"><ele>316.0</ele><time>2026-05-03T08:43:01.342Z</time></trkpt><trkpt lat="43.1852198" lon="12.4969425"><ele>316.0</ele><time>2026-05-03T08:43:02.342Z</time></trkpt><trkpt lat="43.1852102" lon="12.4967586"><ele>316.0</ele><time>2026-05-03T08:43:03.342Z</time></trkpt><trkpt lat="43.1852326" lon="12.4965616"><ele>315.75</ele><time>2026-05-03T08:43:04.342Z</time></trkpt><trkpt lat="43.1852606" lon="12.4963913"><ele>315.5</ele><time>2026-05-03T08:43:05.342Z</time></trkpt><trkpt lat="43.1853103" lon="12.4962434"><ele>315.25</ele><time>2026-05-03T08:43:06.342Z</time></trkpt><trkpt lat="43.1853997" lon="12.4961217"><ele>315.0</ele><time>2026-05-03T08:43:07.342Z</time></trkpt><trkpt lat="43.1854997" lon="12.4960487"><ele>315.0</ele><time>2026-05-03T08:43:08.342Z</time></trkpt><trkpt lat="43.1856049" lon="12.4960087"><ele>315.0</ele><time>2026-05-03T08:43:09.342Z</time></trkpt><trkpt lat="43.1857249" lon="12.4959976"><ele>315.0</ele><time>2026-05-03T08:43:10.342Z</time></trkpt><trkpt lat="43.1858449" lon="12.495989"><ele>315.0</ele><time>2026-05-03T08:43:11.342Z</time></trkpt><trkpt lat="43.1859661" lon="12.4959657"><ele>315.0</ele><time>2026-05-03T08:43:12.342Z</time></trkpt><trkpt lat="43.1860872" lon="12.4959532"><ele>315.0</ele><time>2026-05-03T08:43:13.342Z</time></trkpt><trkpt lat="43.1862037" lon="12.4959234"><ele>315.0</ele><time>2026-05-03T08:43:14.342Z</time></trkpt><trkpt lat="43.1862961" lon="12.495864"><ele>315.0</ele><time>2026-05-03T08:43:15.342Z</time></trkpt><trkpt lat="43.1863853" lon="12.4957824"><ele>315.0</ele><time>2026-05-03T08:43:16.342Z</time></trkpt><trkpt lat="43.1864586" lon="12.4956769"><ele>315.0</ele><time>2026-05-03T08:43:17.343Z</time></trkpt><trkpt lat="43.186501" lon="12.4955566"><ele>315.0</ele><time>2026-05-03T08:43:18.342Z</time></trkpt><trkpt lat="43.1865067" lon="12.4954032"><ele>315.0</ele><time>2026-05-03T08:43:19.342Z</time></trkpt><trkpt lat="43.186502" lon="12.4952448"><ele>315.0</ele><time>2026-05-03T08:43:20.342Z</time></trkpt><trkpt lat="43.1864805" lon="12.4950737"><ele>315.0</ele><time>2026-05-03T08:43:21.342Z</time></trkpt><trkpt lat="43.1864495" lon="12.4948897"><ele>315.0</ele><time>2026-05-03T08:43:22.343Z</time></trkpt><trkpt lat="43.1864195" lon="12.4947088"><ele>315.0</ele><time>2026-05-03T08:43:23.342Z</time></trkpt><trkpt lat="43.1863969" lon="12.4945348"><ele>315.0</ele><time>2026-05-03T08:43:24.342Z</time></trkpt><trkpt lat="43.1863786" lon="12.4943587"><ele>316.0</ele><time>2026-05-03T08:43:25.342Z</time></trkpt><trkpt lat="43.1863743" lon="12.4941864"><ele>317.0</ele><time>2026-05-03T08:43:26.342Z</time></trkpt><trkpt lat="43.1863963" lon="12.4940309"><ele>318.0</ele><time>2026-05-03T08:43:27.342Z</time></trkpt><trkpt lat="43.1864185" lon="12.4938697"><ele>319.0</ele><time>2026-05-03T08:43:28.342Z</time></trkpt><trkpt lat="43.1864751" lon="12.493722"><ele>319.0</ele><time>2026-05-03T08:43:29.342Z</time></trkpt><trkpt lat="43.1865587" lon="12.4935907"><ele>319.0</ele><time>2026-05-03T08:43:30.342Z</time></trkpt><trkpt lat="43.1866442" lon="12.4934649"><ele>319.0</ele><time>2026-05-03T08:43:31.342Z</time></trkpt><trkpt lat="43.1867315" lon="12.4933456"><ele>319.0</ele><time>2026-05-03T08:43:32.342Z</time></trkpt><trkpt lat="43.1868115" lon="12.4932473"><ele>319.0</ele><time>2026-05-03T08:43:33.342Z</time></trkpt><trkpt lat="43.1868762" lon="12.4931612"><ele>319.0</ele><time>2026-05-03T08:43:34.342Z</time></trkpt><trkpt lat="43.1869321" lon="12.4930686"><ele>319.0</ele><time>2026-05-03T08:43:35.342Z</time></trkpt><trkpt lat="43.1869856" lon="12.4929797"><ele>319.0</ele><time>2026-05-03T08:43:36.342Z</time></trkpt><trkpt lat="43.1870154" lon="12.4928762"><ele>319.0</ele><time>2026-05-03T08:43:37.342Z</time></trkpt><trkpt lat="43.1870113" lon="12.4927695"><ele>319.0</ele><time>2026-05-03T08:43:38.342Z</time></trkpt><trkpt lat="43.1869571" lon="12.4926702"><ele>317.59999999999997</ele><time>2026-05-03T08:43:39.342Z</time></trkpt><trkpt lat="43.1868881" lon="12.4925715"><ele>316.2</ele><time>2026-05-03T08:43:40.343Z</time></trkpt><trkpt lat="43.1868167" lon="12.4924745"><ele>314.79999999999995</ele><time>2026-05-03T08:43:41.342Z</time></trkpt><trkpt lat="43.1867238" lon="12.4923984"><ele>313.4</ele><time>2026-05-03T08:43:42.342Z</time></trkpt><trkpt lat="43.1866271" lon="12.4923271"><ele>312.0</ele><time>2026-05-03T08:43:43.342Z</time></trkpt><trkpt lat="43.1865224" lon="12.4922636"><ele>312.25</ele><time>2026-05-03T08:43:44.342Z</time></trkpt><trkpt lat="43.1864171" lon="12.4921906"><ele>312.5</ele><time>2026-05-03T08:43:45.342Z</time></trkpt><trkpt lat="43.186302" lon="12.4921155"><ele>312.75</ele><time>2026-05-03T08:43:46.342Z</time></trkpt><trkpt lat="43.186187" lon="12.4920439"><ele>313.0</ele><time>2026-05-03T08:43:47.342Z</time></trkpt><trkpt lat="43.186073" lon="12.4919575"><ele>313.25</ele><time>2026-05-03T08:43:48.342Z</time></trkpt><trkpt lat="43.185959" lon="12.4918826"><ele>313.5</ele><time>2026-05-03T08:43:49.342Z</time></trkpt><trkpt lat="43.185845" lon="12.4918068"><ele>313.75</ele><time>2026-05-03T08:43:50.342Z</time></trkpt><trkpt lat="43.1857503" lon="12.491725"><ele>314.0</ele><time>2026-05-03T08:43:51.342Z</time></trkpt><trkpt lat="43.1856733" lon="12.4916316"><ele>314.0</ele><time>2026-05-03T08:43:52.343Z</time></trkpt><trkpt lat="43.1856208" lon="12.4915297"><ele>314.0</ele><time>2026-05-03T08:43:53.342Z</time></trkpt><trkpt lat="43.1856091" lon="12.4914172"><ele>314.0</ele><time>2026-05-03T08:43:54.342Z</time></trkpt><trkpt lat="43.1856216" lon="12.4913092"><ele>314.0</ele><time>2026-05-03T08:43:55.342Z</time></trkpt><trkpt lat="43.1856645" lon="12.4912179"><ele>314.0</ele><time>2026-05-03T08:43:56.342Z</time></trkpt><trkpt lat="43.1857428" lon="12.4911722"><ele>314.0</ele><time>2026-05-03T08:43:57.342Z</time></trkpt><trkpt lat="43.1858241" lon="12.4911591"><ele>312.8</ele><time>2026-05-03T08:43:58.342Z</time></trkpt><trkpt lat="43.1859144" lon="12.491189"><ele>311.59999999999997</ele><time>2026-05-03T08:43:59.342Z</time></trkpt><trkpt lat="43.1860067" lon="12.4912534"><ele>310.4</ele><time>2026-05-03T08:44:00.342Z</time></trkpt><trkpt lat="43.1861089" lon="12.4913288"><ele>309.2</ele><time>2026-05-03T08:44:01.342Z</time></trkpt><trkpt lat="43.186214" lon="12.4913997"><ele>308.0</ele><time>2026-05-03T08:44:02.342Z</time></trkpt><trkpt lat="43.1863227" lon="12.4914729"><ele>308.0</ele><time>2026-05-03T08:44:03.342Z</time></trkpt><trkpt lat="43.1864305" lon="12.4915317"><ele>308.0</ele><time>2026-05-03T08:44:04.343Z</time></trkpt><trkpt lat="43.1865332" lon="12.4915604"><ele>308.0</ele><time>2026-05-03T08:44:05.342Z</time></trkpt><trkpt lat="43.1866282" lon="12.4915533"><ele>308.0</ele><time>2026-05-03T08:44:06.342Z</time></trkpt><trkpt lat="43.186705" lon="12.4915079"><ele>308.0</ele><time>2026-05-03T08:44:07.343Z</time></trkpt><trkpt lat="43.1867558" lon="12.4914106"><ele>307.2</ele><time>2026-05-03T08:44:08.342Z</time></trkpt><trkpt lat="43.186781" lon="12.4912958"><ele>306.4</ele><time>2026-05-03T08:44:09.342Z</time></trkpt><trkpt lat="43.1867874" lon="12.4911652"><ele>305.59999999999997</ele><time>2026-05-03T08:44:10.342Z</time></trkpt><trkpt lat="43.1867699" lon="12.4910228"><ele>304.8</ele><time>2026-05-03T08:44:11.342Z</time></trkpt><trkpt lat="43.1867538" lon="12.4908724"><ele>304.0</ele><time>2026-05-03T08:44:12.342Z</time></trkpt><trkpt lat="43.1867333" lon="12.4906975"><ele>302.0</ele><time>2026-05-03T08:44:13.342Z</time></trkpt><trkpt lat="43.1867183" lon="12.4905071"><ele>300.0</ele><time>2026-05-03T08:44:14.342Z</time></trkpt><trkpt lat="43.1866893" lon="12.4902998"><ele>298.0</ele><time>2026-05-03T08:44:15.342Z</time></trkpt><trkpt lat="43.1866583" lon="12.4900926"><ele>296.0</ele><time>2026-05-03T08:44:16.342Z</time></trkpt><trkpt lat="43.1866319" lon="12.4898872"><ele>295.0</ele><time>2026-05-03T08:44:17.342Z</time></trkpt><trkpt lat="43.186611" lon="12.4896971"><ele>294.0</ele><time>2026-05-03T08:44:18.342Z</time></trkpt><trkpt lat="43.1865844" lon="12.4895079"><ele>293.0</ele><time>2026-05-03T08:44:19.343Z</time></trkpt><trkpt lat="43.1865575" lon="12.4893244"><ele>292.0</ele><time>2026-05-03T08:44:20.342Z</time></trkpt><trkpt lat="43.1865274" lon="12.4891391"><ele>292.25</ele><time>2026-05-03T08:44:21.342Z</time></trkpt><trkpt lat="43.1865054" lon="12.4889569"><ele>292.5</ele><time>2026-05-03T08:44:22.342Z</time></trkpt><trkpt lat="43.1864876" lon="12.4887754"><ele>292.75</ele><time>2026-05-03T08:44:23.342Z</time></trkpt><trkpt lat="43.1864675" lon="12.4886037"><ele>293.0</ele><time>2026-05-03T08:44:24.343Z</time></trkpt><trkpt lat="43.1864506" lon="12.4884312"><ele>293.0</ele><time>2026-05-03T08:44:25.342Z</time></trkpt><trkpt lat="43.1864315" lon="12.4882575"><ele>293.0</ele><time>2026-05-03T08:44:26.342Z</time></trkpt><trkpt lat="43.1864136" lon="12.4880955"><ele>293.0</ele><time>2026-05-03T08:44:27.342Z</time></trkpt><trkpt lat="43.1864042" lon="12.4879262"><ele>293.0</ele><time>2026-05-03T08:44:28.342Z</time></trkpt><trkpt lat="43.1863905" lon="12.4877653"><ele>293.25</ele><time>2026-05-03T08:44:29.342Z</time></trkpt><trkpt lat="43.1863804" lon="12.4875916"><ele>293.5</ele><time>2026-05-03T08:44:30.342Z</time></trkpt><trkpt lat="43.1863682" lon="12.4874179"><ele>293.75</ele><time>2026-05-03T08:44:31.342Z</time></trkpt><trkpt lat="43.1863588" lon="12.4872372"><ele>294.0</ele><time>2026-05-03T08:44:32.343Z</time></trkpt><trkpt lat="43.1863464" lon="12.4870513"><ele>294.25</ele><time>2026-05-03T08:44:33.343Z</time></trkpt><trkpt lat="43.186346" lon="12.4868749"><ele>294.5</ele><time>2026-05-03T08:44:34.342Z</time></trkpt><trkpt lat="43.1863618" lon="12.4866974"><ele>294.75</ele><time>2026-05-03T08:44:35.342Z</time></trkpt><trkpt lat="43.1863968" lon="12.4865225"><ele>295.0</ele><time>2026-05-03T08:44:36.342Z</time></trkpt><trkpt lat="43.1864513" lon="12.4863532"><ele>290.5</ele><time>2026-05-03T08:44:37.342Z</time></trkpt><trkpt lat="43.1865113" lon="12.4861777"><ele>286.0</ele><time>2026-05-03T08:44:38.343Z</time></trkpt><trkpt lat="43.1865627" lon="12.4860047"><ele>281.5</ele><time>2026-05-03T08:44:39.342Z</time></trkpt><trkpt lat="43.1865944" lon="12.485842"><ele>277.0</ele><time>2026-05-03T08:44:40.342Z</time></trkpt><trkpt lat="43.1866185" lon="12.4856967"><ele>277.0</ele><time>2026-05-03T08:44:41.343Z</time></trkpt><trkpt lat="43.1866341" lon="12.4855698"><ele>277.0</ele><time>2026-05-03T08:44:42.342Z</time></trkpt><trkpt lat="43.1866413" lon="12.4854571"><ele>277.0</ele><time>2026-05-03T08:44:43.342Z</time></trkpt><trkpt lat="43.1866478" lon="12.4853505"><ele>277.0</ele><time>2026-05-03T08:44:44.342Z</time></trkpt><trkpt lat="43.1866538" lon="12.4852439"><ele>277.0</ele><time>2026-05-03T08:44:45.342Z</time></trkpt><trkpt lat="43.1866594" lon="12.4851418"><ele>277.0</ele><time>2026-05-03T08:44:46.342Z</time></trkpt><trkpt lat="43.1866686" lon="12.4850439"><ele>277.0</ele><time>2026-05-03T08:44:47.342Z</time></trkpt><trkpt lat="43.1866793" lon="12.4849433"><ele>277.0</ele><time>2026-05-03T08:44:48.342Z</time></trkpt><trkpt lat="43.1866963" lon="12.4847744"><ele>277.0</ele><time>2026-05-03T08:44:50.342Z</time></trkpt><trkpt lat="43.1867239" lon="12.4846159"><ele>277.0</ele><time>2026-05-03T08:44:52.342Z</time></trkpt><trkpt lat="43.1867333" lon="12.4845293"><ele>277.0</ele><time>2026-05-03T08:44:53.342Z</time></trkpt><trkpt lat="43.1867392" lon="12.4844354"><ele>277.6</ele><time>2026-05-03T08:44:54.343Z</time></trkpt><trkpt lat="43.1867467" lon="12.4843369"><ele>278.2</ele><time>2026-05-03T08:44:55.342Z</time></trkpt><trkpt lat="43.1867524" lon="12.4842272"><ele>278.8</ele><time>2026-05-03T08:44:56.342Z</time></trkpt><trkpt lat="43.186764" lon="12.4841044"><ele>279.4</ele><time>2026-05-03T08:44:57.342Z</time></trkpt><trkpt lat="43.1867756" lon="12.4839637"><ele>280.0</ele><time>2026-05-03T08:44:58.342Z</time></trkpt><trkpt lat="43.1867893" lon="12.4838128"><ele>280.2</ele><time>2026-05-03T08:44:59.342Z</time></trkpt><trkpt lat="43.1868071" lon="12.4836668"><ele>280.4</ele><time>2026-05-03T08:45:00.342Z</time></trkpt><trkpt lat="43.1868257" lon="12.4835167"><ele>280.6</ele><time>2026-05-03T08:45:01.342Z</time></trkpt><trkpt lat="43.1868488" lon="12.4833768"><ele>280.8</ele><time>2026-05-03T08:45:02.342Z</time></trkpt><trkpt lat="43.1868795" lon="12.4832276"><ele>281.0</ele><time>2026-05-03T08:45:03.342Z</time></trkpt><trkpt lat="43.1869197" lon="12.4830828"><ele>281.25</ele><time>2026-05-03T08:45:04.342Z</time></trkpt><trkpt lat="43.1869663" lon="12.4829262"><ele>281.5</ele><time>2026-05-03T08:45:05.342Z</time></trkpt><trkpt lat="43.1870185" lon="12.4827646"><ele>281.75</ele><time>2026-05-03T08:45:06.342Z</time></trkpt><trkpt lat="43.1870839" lon="12.4826077"><ele>282.0</ele><time>2026-05-03T08:45:07.342Z</time></trkpt><trkpt lat="43.1871494" lon="12.4824587"><ele>282.0</ele><time>2026-05-03T08:45:08.342Z</time></trkpt><trkpt lat="43.1871971" lon="12.4823151"><ele>282.0</ele><time>2026-05-03T08:45:09.343Z</time></trkpt><trkpt lat="43.1872448" lon="12.4821754"><ele>282.0</ele><time>2026-05-03T08:45:10.343Z</time></trkpt><trkpt lat="43.1872887" lon="12.4820421"><ele>282.0</ele><time>2026-05-03T08:45:11.342Z</time></trkpt><trkpt lat="43.18733" lon="12.4819131"><ele>282.0</ele><time>2026-05-03T08:45:12.342Z</time></trkpt><trkpt lat="43.1873872" lon="12.4817971"><ele>279.8</ele><time>2026-05-03T08:45:13.343Z</time></trkpt><trkpt lat="43.187432" lon="12.4816693"><ele>277.6</ele><time>2026-05-03T08:45:14.342Z</time></trkpt><trkpt lat="43.1874822" lon="12.4815374"><ele>275.40000000000003</ele><time>2026-05-03T08:45:15.342Z</time></trkpt><trkpt lat="43.1875194" lon="12.4814029"><ele>273.2</ele><time>2026-05-03T08:45:16.342Z</time></trkpt><trkpt lat="43.1875595" lon="12.4812541"><ele>271.0</ele><time>2026-05-03T08:45:17.342Z</time></trkpt><trkpt lat="43.1876045" lon="12.4811017"><ele>270.0</ele><time>2026-05-03T08:45:18.343Z</time></trkpt><trkpt lat="43.1876408" lon="12.4809257"><ele>269.0</ele><time>2026-05-03T08:45:19.342Z</time></trkpt><trkpt lat="43.1876832" lon="12.4807475"><ele>268.0</ele><time>2026-05-03T08:45:20.342Z</time></trkpt><trkpt lat="43.1877244" lon="12.4805762"><ele>267.0</ele><time>2026-05-03T08:45:21.342Z</time></trkpt><trkpt lat="43.1877515" lon="12.4803974"><ele>266.5</ele><time>2026-05-03T08:45:22.342Z</time></trkpt><trkpt lat="43.187777" lon="12.4802256"><ele>266.0</ele><time>2026-05-03T08:45:23.342Z</time></trkpt><trkpt lat="43.1878102" lon="12.4800509"><ele>265.5</ele><time>2026-05-03T08:45:24.342Z</time></trkpt><trkpt lat="43.1878323" lon="12.4798632"><ele>265.0</ele><time>2026-05-03T08:45:25.342Z</time></trkpt><trkpt lat="43.1878632" lon="12.4796682"><ele>264.3333333333333</ele><time>2026-05-03T08:45:26.342Z</time></trkpt><trkpt lat="43.1878938" lon="12.4794737"><ele>263.6666666666667</ele><time>2026-05-03T08:45:27.342Z</time></trkpt><trkpt lat="43.1879193" lon="12.4792673"><ele>263.0</ele><time>2026-05-03T08:45:28.342Z</time></trkpt><trkpt lat="43.1879465" lon="12.4790583"><ele>263.0</ele><time>2026-05-03T08:45:29.343Z</time></trkpt><trkpt lat="43.1879849" lon="12.4788511"><ele>263.0</ele><time>2026-05-03T08:45:30.342Z</time></trkpt><trkpt lat="43.1880193" lon="12.4786284"><ele>263.0</ele><time>2026-05-03T08:45:31.342Z</time></trkpt><trkpt lat="43.1880476" lon="12.4784082"><ele>262.6666666666667</ele><time>2026-05-03T08:45:32.342Z</time></trkpt><trkpt lat="43.1880774" lon="12.4781868"><ele>262.3333333333333</ele><time>2026-05-03T08:45:33.342Z</time></trkpt><trkpt lat="43.1881074" lon="12.4779677"><ele>262.0</ele><time>2026-05-03T08:45:34.342Z</time></trkpt><trkpt lat="43.1881362" lon="12.4777559"><ele>262.0</ele><time>2026-05-03T08:45:35.342Z</time></trkpt><trkpt lat="43.1881647" lon="12.4775601"><ele>262.0</ele><time>2026-05-03T08:45:36.342Z</time></trkpt><trkpt lat="43.1881858" lon="12.4773717"><ele>262.0</ele><time>2026-05-03T08:45:37.342Z</time></trkpt><trkpt lat="43.188206" lon="12.4772102"><ele>262.0</ele><time>2026-05-03T08:45:38.342Z</time></trkpt><trkpt lat="43.1882404" lon="12.4770732"><ele>261.5</ele><time>2026-05-03T08:45:39.343Z</time></trkpt><trkpt lat="43.1882561" lon="12.4769445"><ele>261.0</ele><time>2026-05-03T08:45:40.342Z</time></trkpt><trkpt lat="43.1882626" lon="12.4768326"><ele>260.5</ele><time>2026-05-03T08:45:41.342Z</time></trkpt><trkpt lat="43.1882705" lon="12.4767298"><ele>260.0</ele><time>2026-05-03T08:45:42.342Z</time></trkpt><trkpt lat="43.1882661" lon="12.4766268"><ele>259.5</ele><time>2026-05-03T08:45:43.343Z</time></trkpt><trkpt lat="43.1882623" lon="12.4765389"><ele>259.0</ele><time>2026-05-03T08:45:44.342Z</time></trkpt><trkpt lat="43.1882453" lon="12.4764557"><ele>259.0</ele><time>2026-05-03T08:45:45.342Z</time></trkpt><trkpt lat="43.1881914" lon="12.4763052"><ele>259.0</ele><time>2026-05-03T08:45:47.342Z</time></trkpt><trkpt lat="43.1881608" lon="12.4762286"><ele>259.0</ele><time>2026-05-03T08:45:48.342Z</time></trkpt><trkpt lat="43.1881285" lon="12.4761489"><ele>259.0</ele><time>2026-05-03T08:45:49.342Z</time></trkpt><trkpt lat="43.1880864" lon="12.476077"><ele>259.0</ele><time>2026-05-03T08:45:50.343Z</time></trkpt><trkpt lat="43.1880341" lon="12.4759872"><ele>259.0</ele><time>2026-05-03T08:45:51.342Z</time></trkpt><trkpt lat="43.1879613" lon="12.4759084"><ele>258.8</ele><time>2026-05-03T08:45:52.342Z</time></trkpt><trkpt lat="43.1878767" lon="12.4758279"><ele>258.59999999999997</ele><time>2026-05-03T08:45:53.342Z</time></trkpt><trkpt lat="43.1877899" lon="12.4757353"><ele>258.4</ele><time>2026-05-03T08:45:54.342Z</time></trkpt><trkpt lat="43.1877127" lon="12.475625"><ele>258.2</ele><time>2026-05-03T08:45:55.343Z</time></trkpt><trkpt lat="43.1876479" lon="12.475506"><ele>258.0</ele><time>2026-05-03T08:45:56.342Z</time></trkpt><trkpt lat="43.1875932" lon="12.4753791"><ele>258.0</ele><time>2026-05-03T08:45:57.342Z</time></trkpt><trkpt lat="43.1875339" lon="12.4752426"><ele>258.0</ele><time>2026-05-03T08:45:58.342Z</time></trkpt><trkpt lat="43.1874776" lon="12.4750974"><ele>258.0</ele><time>2026-05-03T08:45:59.342Z</time></trkpt><trkpt lat="43.1874111" lon="12.4749423"><ele>258.0</ele><time>2026-05-03T08:46:00.342Z</time></trkpt><trkpt lat="43.1873429" lon="12.4747795"><ele>256.5</ele><time>2026-05-03T08:46:01.342Z</time></trkpt><trkpt lat="43.1872683" lon="12.4746032"><ele>255.0</ele><time>2026-05-03T08:46:02.343Z</time></trkpt><trkpt lat="43.1872083" lon="12.4744273"><ele>253.5</ele><time>2026-05-03T08:46:03.342Z</time></trkpt><trkpt lat="43.1871337" lon="12.4742554"><ele>252.0</ele><time>2026-05-03T08:46:04.342Z</time></trkpt><trkpt lat="43.1870595" lon="12.4740797"><ele>252.0</ele><time>2026-05-03T08:46:05.342Z</time></trkpt><trkpt lat="43.1869886" lon="12.473892"><ele>252.0</ele><time>2026-05-03T08:46:06.343Z</time></trkpt><trkpt lat="43.1869104" lon="12.4736997"><ele>252.0</ele><time>2026-05-03T08:46:07.342Z</time></trkpt><trkpt lat="43.1868263" lon="12.4734932"><ele>252.66666666666669</ele><time>2026-05-03T08:46:08.343Z</time></trkpt><trkpt lat="43.186743" lon="12.4732982"><ele>253.33333333333334</ele><time>2026-05-03T08:46:09.342Z</time></trkpt><trkpt lat="43.1866621" lon="12.4731029"><ele>254.0</ele><time>2026-05-03T08:46:10.342Z</time></trkpt><trkpt lat="43.1865814" lon="12.4728965"><ele>252.66666666666669</ele><time>2026-05-03T08:46:11.342Z</time></trkpt><trkpt lat="43.186504" lon="12.4726777"><ele>251.33333333333331</ele><time>2026-05-03T08:46:12.342Z</time></trkpt><trkpt lat="43.1864381" lon="12.4724646"><ele>250.0</ele><time>2026-05-03T08:46:13.342Z</time></trkpt><trkpt lat="43.1863663" lon="12.4722619"><ele>249.33333333333331</ele><time>2026-05-03T08:46:14.342Z</time></trkpt><trkpt lat="43.1863012" lon="12.4720465"><ele>248.66666666666669</ele><time>2026-05-03T08:46:15.342Z</time></trkpt><trkpt lat="43.1862382" lon="12.4718355"><ele>248.0</ele><time>2026-05-03T08:46:16.342Z</time></trkpt><trkpt lat="43.1861763" lon="12.4716141"><ele>248.0</ele><time>2026-05-03T08:46:17.342Z</time></trkpt><trkpt lat="43.1861126" lon="12.4713916"><ele>248.0</ele><time>2026-05-03T08:46:18.342Z</time></trkpt><trkpt lat="43.1860444" lon="12.4711683"><ele>248.0</ele><time>2026-05-03T08:46:19.342Z</time></trkpt><trkpt lat="43.1859766" lon="12.4709338"><ele>249.0</ele><time>2026-05-03T08:46:20.342Z</time></trkpt><trkpt lat="43.1859067" lon="12.4707032"><ele>250.0</ele><time>2026-05-03T08:46:21.342Z</time></trkpt><trkpt lat="43.1858407" lon="12.4704765"><ele>251.0</ele><time>2026-05-03T08:46:22.342Z</time></trkpt><trkpt lat="43.1857709" lon="12.4702476"><ele>251.66666666666669</ele><time>2026-05-03T08:46:23.342Z</time></trkpt><trkpt lat="43.1856954" lon="12.4700154"><ele>252.33333333333331</ele><time>2026-05-03T08:46:24.342Z</time></trkpt><trkpt lat="43.1856183" lon="12.4697896"><ele>253.0</ele><time>2026-05-03T08:46:25.342Z</time></trkpt><trkpt lat="43.1855504" lon="12.4695635"><ele>251.66666666666666</ele><time>2026-05-03T08:46:26.342Z</time></trkpt><trkpt lat="43.1854531" lon="12.4693588"><ele>250.33333333333331</ele><time>2026-05-03T08:46:27.342Z</time></trkpt><trkpt lat="43.1853389" lon="12.4691518"><ele>249.0</ele><time>2026-05-03T08:46:28.342Z</time></trkpt><trkpt lat="43.1852221" lon="12.4689663"><ele>249.33333333333331</ele><time>2026-05-03T08:46:29.342Z</time></trkpt><trkpt lat="43.1851003" lon="12.4687658"><ele>249.66666666666666</ele><time>2026-05-03T08:46:30.342Z</time></trkpt><trkpt lat="43.1849773" lon="12.4685648"><ele>250.0</ele><time>2026-05-03T08:46:31.342Z</time></trkpt><trkpt lat="43.1848564" lon="12.46836"><ele>247.66666666666666</ele><time>2026-05-03T08:46:32.342Z</time></trkpt><trkpt lat="43.1847369" lon="12.4681563"><ele>245.33333333333331</ele><time>2026-05-03T08:46:33.342Z</time></trkpt><trkpt lat="43.1846126" lon="12.4679494"><ele>243.0</ele><time>2026-05-03T08:46:34.342Z</time></trkpt><trkpt lat="43.1844931" lon="12.4677454"><ele>243.0</ele><time>2026-05-03T08:46:35.342Z</time></trkpt><trkpt lat="43.1843759" lon="12.4675353"><ele>243.0</ele><time>2026-05-03T08:46:36.342Z</time></trkpt><trkpt lat="43.1842566" lon="12.4673328"><ele>243.0</ele><time>2026-05-03T08:46:37.342Z</time></trkpt><trkpt lat="43.1841364" lon="12.467137"><ele>242.0</ele><time>2026-05-03T08:46:38.342Z</time></trkpt><trkpt lat="43.1840172" lon="12.4669322"><ele>241.0</ele><time>2026-05-03T08:46:39.342Z</time></trkpt><trkpt lat="43.1838902" lon="12.4667436"><ele>240.0</ele><time>2026-05-03T08:46:40.342Z</time></trkpt><trkpt lat="43.1837675" lon="12.4665542"><ele>240.0</ele><time>2026-05-03T08:46:41.342Z</time></trkpt><trkpt lat="43.1836373" lon="12.4663786"><ele>240.0</ele><time>2026-05-03T08:46:42.342Z</time></trkpt><trkpt lat="43.1835164" lon="12.466219"><ele>240.0</ele><time>2026-05-03T08:46:43.342Z</time></trkpt><trkpt lat="43.1833881" lon="12.4660562"><ele>239.66666666666669</ele><time>2026-05-03T08:46:44.342Z</time></trkpt><trkpt lat="43.1832777" lon="12.4658823"><ele>239.33333333333334</ele><time>2026-05-03T08:46:45.342Z</time></trkpt><trkpt lat="43.1831694" lon="12.4657275"><ele>239.0</ele><time>2026-05-03T08:46:46.342Z</time></trkpt><trkpt lat="43.1830554" lon="12.4655846"><ele>239.75</ele><time>2026-05-03T08:46:47.342Z</time></trkpt><trkpt lat="43.1829515" lon="12.4654367"><ele>240.5</ele><time>2026-05-03T08:46:48.342Z</time></trkpt><trkpt lat="43.1828495" lon="12.4652976"><ele>241.25</ele><time>2026-05-03T08:46:49.342Z</time></trkpt><trkpt lat="43.1827511" lon="12.4651646"><ele>242.0</ele><time>2026-05-03T08:46:50.342Z</time></trkpt><trkpt lat="43.1826576" lon="12.4650484"><ele>242.0</ele><time>2026-05-03T08:46:51.342Z</time></trkpt><trkpt lat="43.1825642" lon="12.4649262"><ele>242.0</ele><time>2026-05-03T08:46:52.342Z</time></trkpt><trkpt lat="43.1824789" lon="12.4648087"><ele>242.0</ele><time>2026-05-03T08:46:53.342Z</time></trkpt><trkpt lat="43.1823973" lon="12.464697"><ele>242.0</ele><time>2026-05-03T08:46:54.342Z</time></trkpt><trkpt lat="43.1823239" lon="12.4645924"><ele>241.00000000000003</ele><time>2026-05-03T08:46:55.342Z</time></trkpt><trkpt lat="43.1822591" lon="12.4644928"><ele>240.0</ele><time>2026-05-03T08:46:56.342Z</time></trkpt><trkpt lat="43.1821994" lon="12.4644078"><ele>239.0</ele><time>2026-05-03T08:46:57.342Z</time></trkpt><trkpt lat="43.1821438" lon="12.4643241"><ele>238.0</ele><time>2026-05-03T08:46:58.342Z</time></trkpt><trkpt lat="43.1820858" lon="12.4642481"><ele>237.00000000000003</ele><time>2026-05-03T08:46:59.342Z</time></trkpt><trkpt lat="43.1820442" lon="12.464173"><ele>236.0</ele><time>2026-05-03T08:47:00.342Z</time></trkpt><trkpt lat="43.1819973" lon="12.4641034"><ele>236.00000000000003</ele><time>2026-05-03T08:47:01.342Z</time></trkpt><trkpt lat="43.1819518" lon="12.4640253"><ele>236.0</ele><time>2026-05-03T08:47:02.342Z</time></trkpt><trkpt lat="43.1819052" lon="12.4639614"><ele>236.0</ele><time>2026-05-03T08:47:03.343Z</time></trkpt><trkpt lat="43.1818538" lon="12.4638784"><ele>236.0</ele><time>2026-05-03T08:47:04.342Z</time></trkpt><trkpt lat="43.1818056" lon="12.4637884"><ele>236.00000000000003</ele><time>2026-05-03T08:47:05.342Z</time></trkpt><trkpt lat="43.1817547" lon="12.4637069"><ele>236.0</ele><time>2026-05-03T08:47:06.342Z</time></trkpt><trkpt lat="43.1816975" lon="12.4636165"><ele>236.0</ele><time>2026-05-03T08:47:07.342Z</time></trkpt><trkpt lat="43.1816348" lon="12.4635097"><ele>236.00000000000003</ele><time>2026-05-03T08:47:08.342Z</time></trkpt><trkpt lat="43.1815804" lon="12.4633865"><ele>236.00000000000003</ele><time>2026-05-03T08:47:09.342Z</time></trkpt><trkpt lat="43.1815235" lon="12.4632565"><ele>236.0</ele><time>2026-05-03T08:47:10.342Z</time></trkpt><trkpt lat="43.1814628" lon="12.4631184"><ele>236.0</ele><time>2026-05-03T08:47:11.342Z</time></trkpt><trkpt lat="43.1813948" lon="12.4629717"><ele>235.0</ele><time>2026-05-03T08:47:12.342Z</time></trkpt><trkpt lat="43.1813267" lon="12.462828"><ele>234.0</ele><time>2026-05-03T08:47:13.342Z</time></trkpt><trkpt lat="43.1812551" lon="12.4626724"><ele>233.0</ele><time>2026-05-03T08:47:14.342Z</time></trkpt><trkpt lat="43.1811794" lon="12.4625056"><ele>232.0</ele><time>2026-05-03T08:47:15.342Z</time></trkpt><trkpt lat="43.1811028" lon="12.4623338"><ele>232.0</ele><time>2026-05-03T08:47:16.342Z</time></trkpt><trkpt lat="43.1810243" lon="12.4621589"><ele>232.0</ele><time>2026-05-03T08:47:17.342Z</time></trkpt><trkpt lat="43.1809459" lon="12.4619822"><ele>232.0</ele><time>2026-05-03T08:47:18.342Z</time></trkpt><trkpt lat="43.1808651" lon="12.4618051"><ele>232.25</ele><time>2026-05-03T08:47:19.343Z</time></trkpt><trkpt lat="43.1807863" lon="12.4616292"><ele>232.5</ele><time>2026-05-03T08:47:20.342Z</time></trkpt><trkpt lat="43.1807085" lon="12.4614575"><ele>232.75</ele><time>2026-05-03T08:47:21.343Z</time></trkpt><trkpt lat="43.1806255" lon="12.4612848"><ele>233.0</ele><time>2026-05-03T08:47:22.342Z</time></trkpt><trkpt lat="43.1805419" lon="12.4611046"><ele>232.33333333333334</ele><time>2026-05-03T08:47:23.342Z</time></trkpt><trkpt lat="43.1804575" lon="12.4609203"><ele>231.66666666666669</ele><time>2026-05-03T08:47:24.342Z</time></trkpt><trkpt lat="43.1803692" lon="12.4607331"><ele>231.0</ele><time>2026-05-03T08:47:25.342Z</time></trkpt><trkpt lat="43.1802783" lon="12.4605388"><ele>231.33333333333331</ele><time>2026-05-03T08:47:26.342Z</time></trkpt><trkpt lat="43.1801846" lon="12.4603401"><ele>231.66666666666666</ele><time>2026-05-03T08:47:27.342Z</time></trkpt><trkpt lat="43.1800926" lon="12.4601385"><ele>232.0</ele><time>2026-05-03T08:47:28.343Z</time></trkpt><trkpt lat="43.1799965" lon="12.4599302"><ele>232.0</ele><time>2026-05-03T08:47:29.342Z</time></trkpt><trkpt lat="43.1799014" lon="12.4597224"><ele>232.0</ele><time>2026-05-03T08:47:30.342Z</time></trkpt><trkpt lat="43.1798098" lon="12.4595119"><ele>232.0</ele><time>2026-05-03T08:47:31.342Z</time></trkpt><trkpt lat="43.1797179" lon="12.4593018"><ele>231.66666666666666</ele><time>2026-05-03T08:47:32.342Z</time></trkpt><trkpt lat="43.1796342" lon="12.4591038"><ele>231.33333333333331</ele><time>2026-05-03T08:47:33.343Z</time></trkpt><trkpt lat="43.1795494" lon="12.4589273"><ele>231.0</ele><time>2026-05-03T08:47:34.342Z</time></trkpt><trkpt lat="43.1794817" lon="12.4587752"><ele>231.0</ele><time>2026-05-03T08:47:35.342Z</time></trkpt><trkpt lat="43.1794231" lon="12.4586432"><ele>231.00000000000003</ele><time>2026-05-03T08:47:36.342Z</time></trkpt><trkpt lat="43.1793819" lon="12.4585372"><ele>231.00000000000003</ele><time>2026-05-03T08:47:37.343Z</time></trkpt><trkpt lat="43.1793578" lon="12.4584311"><ele>231.0</ele><time>2026-05-03T08:47:39.342Z</time></trkpt><trkpt lat="43.179404" lon="12.4583586"><ele>231.0</ele><time>2026-05-03T08:47:42.342Z</time></trkpt><trkpt lat="43.1795073" lon="12.4583001"><ele>231.0</ele><time>2026-05-03T08:47:44.342Z</time></trkpt><trkpt lat="43.1795823" lon="12.458256"><ele>231.0</ele><time>2026-05-03T08:47:45.342Z</time></trkpt><trkpt lat="43.1796496" lon="12.4582198"><ele>231.0</ele><time>2026-05-03T08:47:46.342Z</time></trkpt><trkpt lat="43.1797194" lon="12.4581834"><ele>231.0</ele><time>2026-05-03T08:47:47.342Z</time></trkpt><trkpt lat="43.1797992" lon="12.4581463"><ele>231.0</ele><time>2026-05-03T08:47:48.342Z</time></trkpt><trkpt lat="43.1798877" lon="12.4580966"><ele>231.0</ele><time>2026-05-03T08:47:49.343Z</time></trkpt><trkpt lat="43.1799885" lon="12.4580347"><ele>231.25</ele><time>2026-05-03T08:47:50.342Z</time></trkpt><trkpt lat="43.1801026" lon="12.457978"><ele>231.5</ele><time>2026-05-03T08:47:51.342Z</time></trkpt><trkpt lat="43.1802183" lon="12.4579096"><ele>231.75</ele><time>2026-05-03T08:47:52.342Z</time></trkpt><trkpt lat="43.1803271" lon="12.457842"><ele>232.0</ele><time>2026-05-03T08:47:53.342Z</time></trkpt><trkpt lat="43.1804431" lon="12.4577729"><ele>233.0</ele><time>2026-05-03T08:47:54.342Z</time></trkpt><trkpt lat="43.1805617" lon="12.4576975"><ele>234.0</ele><time>2026-05-03T08:47:55.342Z</time></trkpt><trkpt lat="43.1806892" lon="12.457625"><ele>235.0</ele><time>2026-05-03T08:47:56.342Z</time></trkpt><trkpt lat="43.1808277" lon="12.4575457"><ele>236.0</ele><time>2026-05-03T08:47:57.342Z</time></trkpt><trkpt lat="43.1809643" lon="12.4574655"><ele>236.66666666666669</ele><time>2026-05-03T08:47:58.343Z</time></trkpt><trkpt lat="43.1811088" lon="12.4573843"><ele>237.33333333333331</ele><time>2026-05-03T08:47:59.343Z</time></trkpt><trkpt lat="43.1812528" lon="12.4573068"><ele>238.0</ele><time>2026-05-03T08:48:00.342Z</time></trkpt><trkpt lat="43.1814079" lon="12.4572321"><ele>236.66666666666666</ele><time>2026-05-03T08:48:01.342Z</time></trkpt><trkpt lat="43.181561" lon="12.4571515"><ele>235.33333333333331</ele><time>2026-05-03T08:48:02.342Z</time></trkpt><trkpt lat="43.1817175" lon="12.45706"><ele>234.0</ele><time>2026-05-03T08:48:03.342Z</time></trkpt><trkpt lat="43.1818804" lon="12.4569718"><ele>233.0</ele><time>2026-05-03T08:48:04.342Z</time></trkpt><trkpt lat="43.1820424" lon="12.4568666"><ele>232.0</ele><time>2026-05-03T08:48:05.342Z</time></trkpt><trkpt lat="43.182201" lon="12.4567359"><ele>231.0</ele><time>2026-05-03T08:48:06.343Z</time></trkpt><trkpt lat="43.1823578" lon="12.456598"><ele>230.33333333333331</ele><time>2026-05-03T08:48:07.343Z</time></trkpt><trkpt lat="43.1825097" lon="12.4564587"><ele>229.66666666666666</ele><time>2026-05-03T08:48:08.342Z</time></trkpt><trkpt lat="43.1826584" lon="12.456316"><ele>229.0</ele><time>2026-05-03T08:48:09.343Z</time></trkpt><trkpt lat="43.1828088" lon="12.4561734"><ele>228.66666666666666</ele><time>2026-05-03T08:48:10.343Z</time></trkpt><trkpt lat="43.1829635" lon="12.456025"><ele>228.33333333333331</ele><time>2026-05-03T08:48:11.342Z</time></trkpt><trkpt lat="43.1831208" lon="12.4558715"><ele>228.0</ele><time>2026-05-03T08:48:12.342Z</time></trkpt><trkpt lat="43.1832761" lon="12.45571"><ele>228.0</ele><time>2026-05-03T08:48:13.343Z</time></trkpt><trkpt lat="43.183422" lon="12.4555367"><ele>228.0</ele><time>2026-05-03T08:48:14.342Z</time></trkpt><trkpt lat="43.1835623" lon="12.4553542"><ele>228.0</ele><time>2026-05-03T08:48:15.343Z</time></trkpt><trkpt lat="43.1837006" lon="12.455166"><ele>228.33333333333331</ele><time>2026-05-03T08:48:16.342Z</time></trkpt><trkpt lat="43.1838344" lon="12.4549623"><ele>228.66666666666666</ele><time>2026-05-03T08:48:17.342Z</time></trkpt><trkpt lat="43.1839627" lon="12.4547547"><ele>229.0</ele><time>2026-05-03T08:48:18.342Z</time></trkpt><trkpt lat="43.1840859" lon="12.4545533"><ele>229.0</ele><time>2026-05-03T08:48:19.342Z</time></trkpt><trkpt lat="43.1842051" lon="12.45435"><ele>229.0</ele><time>2026-05-03T08:48:20.342Z</time></trkpt><trkpt lat="43.1843241" lon="12.4541533"><ele>229.0</ele><time>2026-05-03T08:48:21.342Z</time></trkpt><trkpt lat="43.1844418" lon="12.4539639"><ele>229.0</ele><time>2026-05-03T08:48:22.342Z</time></trkpt><trkpt lat="43.1845559" lon="12.4537834"><ele>229.0</ele><time>2026-05-03T08:48:23.342Z</time></trkpt><trkpt lat="43.184665" lon="12.4535989"><ele>229.0</ele><time>2026-05-03T08:48:24.342Z</time></trkpt><trkpt lat="43.184774" lon="12.4534233"><ele>229.66666666666666</ele><time>2026-05-03T08:48:25.342Z</time></trkpt><trkpt lat="43.1848722" lon="12.4532519"><ele>230.33333333333331</ele><time>2026-05-03T08:48:26.342Z</time></trkpt><trkpt lat="43.1849714" lon="12.4530991"><ele>231.0</ele><time>2026-05-03T08:48:27.342Z</time></trkpt><trkpt lat="43.1850762" lon="12.4529455"><ele>231.0</ele><time>2026-05-03T08:48:28.342Z</time></trkpt><trkpt lat="43.1851996" lon="12.4528184"><ele>231.0</ele><time>2026-05-03T08:48:29.342Z</time></trkpt><trkpt lat="43.1853322" lon="12.4527071"><ele>231.0</ele><time>2026-05-03T08:48:30.342Z</time></trkpt><trkpt lat="43.1854703" lon="12.4526155"><ele>231.0</ele><time>2026-05-03T08:48:31.342Z</time></trkpt><trkpt lat="43.1856188" lon="12.4525276"><ele>231.0</ele><time>2026-05-03T08:48:32.343Z</time></trkpt><trkpt lat="43.1857691" lon="12.4524525"><ele>231.0</ele><time>2026-05-03T08:48:33.342Z</time></trkpt><trkpt lat="43.185917" lon="12.4523701"><ele>232.33333333333331</ele><time>2026-05-03T08:48:34.342Z</time></trkpt><trkpt lat="43.1860655" lon="12.4522986"><ele>233.66666666666666</ele><time>2026-05-03T08:48:35.342Z</time></trkpt><trkpt lat="43.1862032" lon="12.4522077"><ele>235.0</ele><time>2026-05-03T08:48:36.342Z</time></trkpt><trkpt lat="43.1863426" lon="12.4521295"><ele>235.0</ele><time>2026-05-03T08:48:37.342Z</time></trkpt><trkpt lat="43.1864871" lon="12.4520505"><ele>235.0</ele><time>2026-05-03T08:48:38.342Z</time></trkpt><trkpt lat="43.1866241" lon="12.4519672"><ele>235.0</ele><time>2026-05-03T08:48:39.343Z</time></trkpt><trkpt lat="43.186749" lon="12.4518968"><ele>235.0</ele><time>2026-05-03T08:48:40.342Z</time></trkpt><trkpt lat="43.1868697" lon="12.4518368"><ele>235.75</ele><time>2026-05-03T08:48:41.342Z</time></trkpt><trkpt lat="43.1869808" lon="12.4517753"><ele>236.5</ele><time>2026-05-03T08:48:42.342Z</time></trkpt><trkpt lat="43.1870854" lon="12.4517024"><ele>237.25</ele><time>2026-05-03T08:48:43.342Z</time></trkpt><trkpt lat="43.1871967" lon="12.4516405"><ele>238.0</ele><time>2026-05-03T08:48:44.343Z</time></trkpt><trkpt lat="43.1873046" lon="12.4515759"><ele>238.8</ele><time>2026-05-03T08:48:45.342Z</time></trkpt><trkpt lat="43.1874033" lon="12.4515087"><ele>239.60000000000002</ele><time>2026-05-03T08:48:46.342Z</time></trkpt><trkpt lat="43.1874866" lon="12.4514264"><ele>240.39999999999998</ele><time>2026-05-03T08:48:47.342Z</time></trkpt><trkpt lat="43.1875651" lon="12.4513329"><ele>241.2</ele><time>2026-05-03T08:48:48.342Z</time></trkpt><trkpt lat="43.1876372" lon="12.4512226"><ele>242.0</ele><time>2026-05-03T08:48:49.342Z</time></trkpt><trkpt lat="43.1877048" lon="12.4511081"><ele>242.0</ele><time>2026-05-03T08:48:50.342Z</time></trkpt><trkpt lat="43.1877806" lon="12.4509694"><ele>242.0</ele><time>2026-05-03T08:48:51.343Z</time></trkpt><trkpt lat="43.1878558" lon="12.4508303"><ele>242.0</ele><time>2026-05-03T08:48:52.342Z</time></trkpt><trkpt lat="43.1879359" lon="12.4506913"><ele>242.0</ele><time>2026-05-03T08:48:53.342Z</time></trkpt><trkpt lat="43.1880195" lon="12.4505445"><ele>242.0</ele><time>2026-05-03T08:48:54.342Z</time></trkpt><trkpt lat="43.1881077" lon="12.4503941"><ele>242.0</ele><time>2026-05-03T08:48:55.342Z</time></trkpt><trkpt lat="43.1881982" lon="12.4502345"><ele>242.0</ele><time>2026-05-03T08:48:56.342Z</time></trkpt><trkpt lat="43.1883028" lon="12.4500738"><ele>242.0</ele><time>2026-05-03T08:48:57.342Z</time></trkpt><trkpt lat="43.188393" lon="12.4499101"><ele>242.0</ele><time>2026-05-03T08:48:58.342Z</time></trkpt><trkpt lat="43.1884828" lon="12.4497458"><ele>242.0</ele><time>2026-05-03T08:48:59.342Z</time></trkpt><trkpt lat="43.1885701" lon="12.4495789"><ele>242.0</ele><time>2026-05-03T08:49:00.342Z</time></trkpt><trkpt lat="43.188658" lon="12.4494017"><ele>241.33333333333334</ele><time>2026-05-03T08:49:01.342Z</time></trkpt><trkpt lat="43.1887363" lon="12.4492094"><ele>240.66666666666669</ele><time>2026-05-03T08:49:02.342Z</time></trkpt><trkpt lat="43.1888111" lon="12.4490125"><ele>240.0</ele><time>2026-05-03T08:49:03.342Z</time></trkpt><trkpt lat="43.1888845" lon="12.4488132"><ele>239.66666666666669</ele><time>2026-05-03T08:49:04.342Z</time></trkpt><trkpt lat="43.1889538" lon="12.4486007"><ele>239.33333333333334</ele><time>2026-05-03T08:49:05.342Z</time></trkpt><trkpt lat="43.1890158" lon="12.4483743"><ele>239.0</ele><time>2026-05-03T08:49:06.342Z</time></trkpt><trkpt lat="43.1890846" lon="12.4481476"><ele>239.33333333333334</ele><time>2026-05-03T08:49:07.342Z</time></trkpt><trkpt lat="43.1891509" lon="12.4479276"><ele>239.66666666666669</ele><time>2026-05-03T08:49:08.342Z</time></trkpt><trkpt lat="43.1892095" lon="12.4477019"><ele>240.0</ele><time>2026-05-03T08:49:09.342Z</time></trkpt><trkpt lat="43.1892649" lon="12.4474798"><ele>240.0</ele><time>2026-05-03T08:49:10.342Z</time></trkpt><trkpt lat="43.1893215" lon="12.4472605"><ele>240.0</ele><time>2026-05-03T08:49:11.342Z</time></trkpt><trkpt lat="43.189379" lon="12.4470348"><ele>240.0</ele><time>2026-05-03T08:49:12.342Z</time></trkpt><trkpt lat="43.189437" lon="12.4468137"><ele>239.0</ele><time>2026-05-03T08:49:13.342Z</time></trkpt><trkpt lat="43.1894943" lon="12.4465842"><ele>238.0</ele><time>2026-05-03T08:49:14.342Z</time></trkpt><trkpt lat="43.189538" lon="12.4463535"><ele>237.0</ele><time>2026-05-03T08:49:15.342Z</time></trkpt><trkpt lat="43.1895731" lon="12.4461155"><ele>236.33333333333331</ele><time>2026-05-03T08:49:16.342Z</time></trkpt><trkpt lat="43.1896114" lon="12.4458791"><ele>235.66666666666666</ele><time>2026-05-03T08:49:17.342Z</time></trkpt><trkpt lat="43.1896519" lon="12.4456401"><ele>235.0</ele><time>2026-05-03T08:49:18.342Z</time></trkpt><trkpt lat="43.1896977" lon="12.4454002"><ele>234.33333333333331</ele><time>2026-05-03T08:49:19.342Z</time></trkpt><trkpt lat="43.1897448" lon="12.4451607"><ele>233.66666666666669</ele><time>2026-05-03T08:49:20.342Z</time></trkpt><trkpt lat="43.1897907" lon="12.4449267"><ele>233.0</ele><time>2026-05-03T08:49:21.342Z</time></trkpt><trkpt lat="43.1898226" lon="12.4446874"><ele>234.0</ele><time>2026-05-03T08:49:22.342Z</time></trkpt><trkpt lat="43.1898714" lon="12.4444514"><ele>235.0</ele><time>2026-05-03T08:49:23.342Z</time></trkpt><trkpt lat="43.1899113" lon="12.4442144"><ele>236.0</ele><time>2026-05-03T08:49:24.342Z</time></trkpt><trkpt lat="43.1899502" lon="12.4439721"><ele>235.66666666666669</ele><time>2026-05-03T08:49:25.342Z</time></trkpt><trkpt lat="43.1899895" lon="12.443728"><ele>235.33333333333331</ele><time>2026-05-03T08:49:26.343Z</time></trkpt><trkpt lat="43.1900365" lon="12.4434874"><ele>235.0</ele><time>2026-05-03T08:49:27.343Z</time></trkpt><trkpt lat="43.1900764" lon="12.443244"><ele>235.0</ele><time>2026-05-03T08:49:28.342Z</time></trkpt><trkpt lat="43.1901077" lon="12.4429931"><ele>235.0</ele><time>2026-05-03T08:49:29.342Z</time></trkpt><trkpt lat="43.1901277" lon="12.4427365"><ele>235.0</ele><time>2026-05-03T08:49:30.343Z</time></trkpt><trkpt lat="43.1901466" lon="12.442486"><ele>234.33333333333331</ele><time>2026-05-03T08:49:31.342Z</time></trkpt><trkpt lat="43.1901704" lon="12.4422396"><ele>233.66666666666669</ele><time>2026-05-03T08:49:32.342Z</time></trkpt><trkpt lat="43.1902074" lon="12.4419893"><ele>233.0</ele><time>2026-05-03T08:49:33.342Z</time></trkpt><trkpt lat="43.1902649" lon="12.4417475"><ele>232.66666666666669</ele><time>2026-05-03T08:49:34.342Z</time></trkpt><trkpt lat="43.1903276" lon="12.4414984"><ele>232.33333333333331</ele><time>2026-05-03T08:49:35.342Z</time></trkpt><trkpt lat="43.1903906" lon="12.4412609"><ele>232.0</ele><time>2026-05-03T08:49:36.342Z</time></trkpt><trkpt lat="43.190455" lon="12.4410151"><ele>232.0</ele><time>2026-05-03T08:49:37.342Z</time></trkpt><trkpt lat="43.1905327" lon="12.4407634"><ele>232.0</ele><time>2026-05-03T08:49:38.342Z</time></trkpt><trkpt lat="43.1906144" lon="12.440519"><ele>232.0</ele><time>2026-05-03T08:49:39.342Z</time></trkpt><trkpt lat="43.1907067" lon="12.4402674"><ele>232.33333333333331</ele><time>2026-05-03T08:49:40.342Z</time></trkpt><trkpt lat="43.1907976" lon="12.4400332"><ele>232.66666666666669</ele><time>2026-05-03T08:49:41.342Z</time></trkpt><trkpt lat="43.1908903" lon="12.4397928"><ele>233.0</ele><time>2026-05-03T08:49:42.342Z</time></trkpt><trkpt lat="43.1909889" lon="12.4395664"><ele>233.0</ele><time>2026-05-03T08:49:43.343Z</time></trkpt><trkpt lat="43.1910872" lon="12.4393225"><ele>233.0</ele><time>2026-05-03T08:49:44.342Z</time></trkpt><trkpt lat="43.191182" lon="12.4390925"><ele>233.0</ele><time>2026-05-03T08:49:45.342Z</time></trkpt><trkpt lat="43.1912752" lon="12.4388607"><ele>233.33333333333334</ele><time>2026-05-03T08:49:46.342Z</time></trkpt><trkpt lat="43.1913677" lon="12.4386197"><ele>233.66666666666669</ele><time>2026-05-03T08:49:47.342Z</time></trkpt><trkpt lat="43.1914583" lon="12.4383893"><ele>234.0</ele><time>2026-05-03T08:49:48.343Z</time></trkpt><trkpt lat="43.1915519" lon="12.4381528"><ele>235.33333333333331</ele><time>2026-05-03T08:49:49.343Z</time></trkpt><trkpt lat="43.191649" lon="12.4379158"><ele>236.66666666666666</ele><time>2026-05-03T08:49:50.343Z</time></trkpt><trkpt lat="43.1917391" lon="12.4376847"><ele>238.0</ele><time>2026-05-03T08:49:51.342Z</time></trkpt><trkpt lat="43.191833" lon="12.4374437"><ele>238.0</ele><time>2026-05-03T08:49:52.342Z</time></trkpt><trkpt lat="43.1919242" lon="12.4372038"><ele>238.0</ele><time>2026-05-03T08:49:53.342Z</time></trkpt><trkpt lat="43.1920049" lon="12.4369483"><ele>238.0</ele><time>2026-05-03T08:49:54.342Z</time></trkpt><trkpt lat="43.1920855" lon="12.436697"><ele>236.66666666666666</ele><time>2026-05-03T08:49:55.342Z</time></trkpt><trkpt lat="43.1921565" lon="12.4364479"><ele>235.33333333333331</ele><time>2026-05-03T08:49:56.343Z</time></trkpt><trkpt lat="43.1922224" lon="12.4361943"><ele>234.0</ele><time>2026-05-03T08:49:57.342Z</time></trkpt><trkpt lat="43.1922922" lon="12.4359521"><ele>234.33333333333331</ele><time>2026-05-03T08:49:58.342Z</time></trkpt><trkpt lat="43.19236" lon="12.4357009"><ele>234.66666666666666</ele><time>2026-05-03T08:49:59.342Z</time></trkpt><trkpt lat="43.1924482" lon="12.4354633"><ele>235.0</ele><time>2026-05-03T08:50:00.342Z</time></trkpt><trkpt lat="43.1925213" lon="12.4352056"><ele>234.0</ele><time>2026-05-03T08:50:01.342Z</time></trkpt><trkpt lat="43.1925989" lon="12.43496"><ele>233.0</ele><time>2026-05-03T08:50:02.343Z</time></trkpt><trkpt lat="43.1926654" lon="12.4347105"><ele>232.0</ele><time>2026-05-03T08:50:03.342Z</time></trkpt><trkpt lat="43.1927285" lon="12.4344792"><ele>232.0</ele><time>2026-05-03T08:50:04.342Z</time></trkpt><trkpt lat="43.1927887" lon="12.4342523"><ele>232.0</ele><time>2026-05-03T08:50:05.343Z</time></trkpt><trkpt lat="43.1928597" lon="12.4340407"><ele>232.0</ele><time>2026-05-03T08:50:06.342Z</time></trkpt><trkpt lat="43.1929391" lon="12.4338294"><ele>232.66666666666666</ele><time>2026-05-03T08:50:07.342Z</time></trkpt><trkpt lat="43.1930502" lon="12.4336547"><ele>233.33333333333331</ele><time>2026-05-03T08:50:08.342Z</time></trkpt><trkpt lat="43.1931884" lon="12.4335122"><ele>234.0</ele><time>2026-05-03T08:50:09.343Z</time></trkpt><trkpt lat="43.1933225" lon="12.4333705"><ele>234.0</ele><time>2026-05-03T08:50:10.342Z</time></trkpt><trkpt lat="43.1934775" lon="12.4332543"><ele>234.0</ele><time>2026-05-03T08:50:11.343Z</time></trkpt><trkpt lat="43.1936367" lon="12.4331428"><ele>234.0</ele><time>2026-05-03T08:50:12.342Z</time></trkpt><trkpt lat="43.1938034" lon="12.4330356"><ele>234.33333333333331</ele><time>2026-05-03T08:50:13.342Z</time></trkpt><trkpt lat="43.1939755" lon="12.4329284"><ele>234.66666666666666</ele><time>2026-05-03T08:50:14.342Z</time></trkpt><trkpt lat="43.1941477" lon="12.4328344"><ele>235.0</ele><time>2026-05-03T08:50:15.342Z</time></trkpt><trkpt lat="43.1943242" lon="12.4327181"><ele>235.0</ele><time>2026-05-03T08:50:16.342Z</time></trkpt><trkpt lat="43.1944924" lon="12.4325972"><ele>235.0</ele><time>2026-05-03T08:50:17.342Z</time></trkpt><trkpt lat="43.1946653" lon="12.4324836"><ele>235.0</ele><time>2026-05-03T08:50:18.343Z</time></trkpt><trkpt lat="43.194837" lon="12.4323631"><ele>235.0</ele><time>2026-05-03T08:50:19.342Z</time></trkpt><trkpt lat="43.1950052" lon="12.432246"><ele>235.0</ele><time>2026-05-03T08:50:20.342Z</time></trkpt><trkpt lat="43.1951663" lon="12.4321232"><ele>235.0</ele><time>2026-05-03T08:50:21.343Z</time></trkpt><trkpt lat="43.1953144" lon="12.4319827"><ele>235.0</ele><time>2026-05-03T08:50:22.342Z</time></trkpt><trkpt lat="43.1954635" lon="12.4318443"><ele>235.0</ele><time>2026-05-03T08:50:23.342Z</time></trkpt><trkpt lat="43.1955984" lon="12.4317143"><ele>235.0</ele><time>2026-05-03T08:50:24.342Z</time></trkpt><trkpt lat="43.1957309" lon="12.4315868"><ele>235.0</ele><time>2026-05-03T08:50:25.342Z</time></trkpt><trkpt lat="43.1958619" lon="12.4314671"><ele>235.0</ele><time>2026-05-03T08:50:26.343Z</time></trkpt><trkpt lat="43.1959887" lon="12.431352"><ele>235.0</ele><time>2026-05-03T08:50:27.342Z</time></trkpt><trkpt lat="43.1961323" lon="12.431215"><ele>235.0</ele><time>2026-05-03T08:50:28.342Z</time></trkpt><trkpt lat="43.196261" lon="12.4310845"><ele>235.0</ele><time>2026-05-03T08:50:29.342Z</time></trkpt><trkpt lat="43.196397" lon="12.4309344"><ele>235.0</ele><time>2026-05-03T08:50:30.342Z</time></trkpt><trkpt lat="43.1965265" lon="12.4307765"><ele>234.66666666666666</ele><time>2026-05-03T08:50:31.342Z</time></trkpt><trkpt lat="43.1966675" lon="12.430615"><ele>234.33333333333331</ele><time>2026-05-03T08:50:32.342Z</time></trkpt><trkpt lat="43.1968129" lon="12.4304524"><ele>234.0</ele><time>2026-05-03T08:50:33.342Z</time></trkpt><trkpt lat="43.1969607" lon="12.430289"><ele>233.0</ele><time>2026-05-03T08:50:34.342Z</time></trkpt><trkpt lat="43.1971058" lon="12.4301225"><ele>232.0</ele><time>2026-05-03T08:50:35.343Z</time></trkpt><trkpt lat="43.1972547" lon="12.4299543"><ele>231.0</ele><time>2026-05-03T08:50:36.342Z</time></trkpt><trkpt lat="43.1974011" lon="12.4297889"><ele>229.33333333333331</ele><time>2026-05-03T08:50:37.342Z</time></trkpt><trkpt lat="43.1975354" lon="12.4296262"><ele>227.66666666666666</ele><time>2026-05-03T08:50:38.343Z</time></trkpt><trkpt lat="43.1976737" lon="12.4294756"><ele>226.0</ele><time>2026-05-03T08:50:39.343Z</time></trkpt><trkpt lat="43.1978086" lon="12.4293191"><ele>226.0</ele><time>2026-05-03T08:50:40.342Z</time></trkpt><trkpt lat="43.1979462" lon="12.4291662"><ele>226.0</ele><time>2026-05-03T08:50:41.343Z</time></trkpt><trkpt lat="43.1980778" lon="12.4290209"><ele>226.0</ele><time>2026-05-03T08:50:42.342Z</time></trkpt><trkpt lat="43.1981981" lon="12.428893"><ele>225.75</ele><time>2026-05-03T08:50:43.342Z</time></trkpt><trkpt lat="43.1983163" lon="12.428761"><ele>225.5</ele><time>2026-05-03T08:50:44.343Z</time></trkpt><trkpt lat="43.1984255" lon="12.4286509"><ele>225.25</ele><time>2026-05-03T08:50:45.342Z</time></trkpt><trkpt lat="43.198535" lon="12.428562"><ele>225.0</ele><time>2026-05-03T08:50:46.342Z</time></trkpt><trkpt lat="43.1986396" lon="12.4284821"><ele>225.0</ele><time>2026-05-03T08:50:47.343Z</time></trkpt><trkpt lat="43.1987429" lon="12.4284163"><ele>225.0</ele><time>2026-05-03T08:50:48.342Z</time></trkpt><trkpt lat="43.1988393" lon="12.4283639"><ele>225.0</ele><time>2026-05-03T08:50:49.342Z</time></trkpt><trkpt lat="43.19893" lon="12.4283186"><ele>225.0</ele><time>2026-05-03T08:50:50.342Z</time></trkpt><trkpt lat="43.1990203" lon="12.4282786"><ele>225.0</ele><time>2026-05-03T08:50:51.342Z</time></trkpt><trkpt lat="43.1991021" lon="12.4282442"><ele>225.5</ele><time>2026-05-03T08:50:52.342Z</time></trkpt><trkpt lat="43.1991814" lon="12.4282183"><ele>226.0</ele><time>2026-05-03T08:50:53.342Z</time></trkpt><trkpt lat="43.199256" lon="12.428203"><ele>226.5</ele><time>2026-05-03T08:50:54.342Z</time></trkpt><trkpt lat="43.1993343" lon="12.4281863"><ele>227.0</ele><time>2026-05-03T08:50:55.342Z</time></trkpt><trkpt lat="43.1994234" lon="12.4281788"><ele>227.5</ele><time>2026-05-03T08:50:56.342Z</time></trkpt><trkpt lat="43.199516" lon="12.4281674"><ele>228.0</ele><time>2026-05-03T08:50:57.342Z</time></trkpt><trkpt lat="43.199615" lon="12.4281673"><ele>228.0</ele><time>2026-05-03T08:50:58.342Z</time></trkpt><trkpt lat="43.1997225" lon="12.4281653"><ele>228.0</ele><time>2026-05-03T08:50:59.342Z</time></trkpt><trkpt lat="43.1998394" lon="12.4281654"><ele>228.0</ele><time>2026-05-03T08:51:00.342Z</time></trkpt><trkpt lat="43.1999562" lon="12.4281685"><ele>228.0</ele><time>2026-05-03T08:51:01.342Z</time></trkpt><trkpt lat="43.2000767" lon="12.428174"><ele>228.0</ele><time>2026-05-03T08:51:02.342Z</time></trkpt><trkpt lat="43.2002045" lon="12.428183"><ele>228.0</ele><time>2026-05-03T08:51:03.342Z</time></trkpt><trkpt lat="43.2003342" lon="12.4281724"><ele>228.0</ele><time>2026-05-03T08:51:04.343Z</time></trkpt><trkpt lat="43.2004651" lon="12.4281349"><ele>228.0</ele><time>2026-05-03T08:51:05.342Z</time></trkpt><trkpt lat="43.2005916" lon="12.4280763"><ele>227.0</ele><time>2026-05-03T08:51:06.342Z</time></trkpt><trkpt lat="43.2007241" lon="12.4279896"><ele>226.0</ele><time>2026-05-03T08:51:07.342Z</time></trkpt><trkpt lat="43.200863" lon="12.4278923"><ele>225.0</ele><time>2026-05-03T08:51:08.342Z</time></trkpt><trkpt lat="43.2010001" lon="12.4277905"><ele>224.66666666666669</ele><time>2026-05-03T08:51:09.342Z</time></trkpt><trkpt lat="43.2011388" lon="12.4276875"><ele>224.33333333333334</ele><time>2026-05-03T08:51:10.342Z</time></trkpt><trkpt lat="43.2012757" lon="12.4275732"><ele>224.0</ele><time>2026-05-03T08:51:11.342Z</time></trkpt><trkpt lat="43.2014145" lon="12.4274665"><ele>224.33333333333334</ele><time>2026-05-03T08:51:12.342Z</time></trkpt><trkpt lat="43.2015538" lon="12.4273562"><ele>224.66666666666669</ele><time>2026-05-03T08:51:13.342Z</time></trkpt><trkpt lat="43.2016982" lon="12.4272489"><ele>225.0</ele><time>2026-05-03T08:51:14.342Z</time></trkpt><trkpt lat="43.2018353" lon="12.4271433"><ele>225.0</ele><time>2026-05-03T08:51:15.342Z</time></trkpt><trkpt lat="43.2019793" lon="12.427025"><ele>225.0</ele><time>2026-05-03T08:51:16.342Z</time></trkpt><trkpt lat="43.2021192" lon="12.4269043"><ele>225.0</ele><time>2026-05-03T08:51:17.342Z</time></trkpt><trkpt lat="43.2022548" lon="12.426791"><ele>225.75</ele><time>2026-05-03T08:51:18.342Z</time></trkpt><trkpt lat="43.2023772" lon="12.4266796"><ele>226.5</ele><time>2026-05-03T08:51:19.342Z</time></trkpt><trkpt lat="43.2024888" lon="12.4265659"><ele>227.25</ele><time>2026-05-03T08:51:20.342Z</time></trkpt><trkpt lat="43.2025848" lon="12.4264306"><ele>228.0</ele><time>2026-05-03T08:51:21.343Z</time></trkpt><trkpt lat="43.202684" lon="12.4263204"><ele>227.25</ele><time>2026-05-03T08:51:22.342Z</time></trkpt><trkpt lat="43.2027684" lon="12.4261914"><ele>226.5</ele><time>2026-05-03T08:51:23.342Z</time></trkpt><trkpt lat="43.202859" lon="12.4260707"><ele>225.75</ele><time>2026-05-03T08:51:24.343Z</time></trkpt><trkpt lat="43.2029527" lon="12.4259518"><ele>225.0</ele><time>2026-05-03T08:51:25.342Z</time></trkpt><trkpt lat="43.2030536" lon="12.4258258"><ele>225.0</ele><time>2026-05-03T08:51:26.342Z</time></trkpt><trkpt lat="43.2031547" lon="12.4256939"><ele>225.0</ele><time>2026-05-03T08:51:27.343Z</time></trkpt><trkpt lat="43.2032595" lon="12.4255632"><ele>225.0</ele><time>2026-05-03T08:51:28.342Z</time></trkpt><trkpt lat="43.2033695" lon="12.4254266"><ele>225.0</ele><time>2026-05-03T08:51:29.342Z</time></trkpt><trkpt lat="43.2034831" lon="12.4252848"><ele>225.0</ele><time>2026-05-03T08:51:30.342Z</time></trkpt><trkpt lat="43.2035931" lon="12.4251255"><ele>225.0</ele><time>2026-05-03T08:51:31.342Z</time></trkpt><trkpt lat="43.2037131" lon="12.4249642"><ele>225.0</ele><time>2026-05-03T08:51:32.342Z</time></trkpt><trkpt lat="43.2038333" lon="12.4248083"><ele>225.0</ele><time>2026-05-03T08:51:33.342Z</time></trkpt><trkpt lat="43.2039618" lon="12.4246463"><ele>225.0</ele><time>2026-05-03T08:51:34.342Z</time></trkpt><trkpt lat="43.2040939" lon="12.4244899"><ele>225.0</ele><time>2026-05-03T08:51:35.343Z</time></trkpt><trkpt lat="43.2042321" lon="12.4243339"><ele>225.33333333333331</ele><time>2026-05-03T08:51:36.343Z</time></trkpt><trkpt lat="43.2043718" lon="12.4241836"><ele>225.66666666666666</ele><time>2026-05-03T08:51:37.343Z</time></trkpt><trkpt lat="43.2045103" lon="12.4240374"><ele>226.0</ele><time>2026-05-03T08:51:38.342Z</time></trkpt><trkpt lat="43.204667" lon="12.4239116"><ele>224.33333333333331</ele><time>2026-05-03T08:51:39.342Z</time></trkpt><trkpt lat="43.2048165" lon="12.4237847"><ele>222.66666666666669</ele><time>2026-05-03T08:51:40.342Z</time></trkpt><trkpt lat="43.2049817" lon="12.42368"><ele>221.0</ele><time>2026-05-03T08:51:41.342Z</time></trkpt><trkpt lat="43.2051544" lon="12.4235953"><ele>221.0</ele><time>2026-05-03T08:51:42.342Z</time></trkpt><trkpt lat="43.2053231" lon="12.4235067"><ele>221.0</ele><time>2026-05-03T08:51:43.343Z</time></trkpt><trkpt lat="43.205496" lon="12.4234395"><ele>221.0</ele><time>2026-05-03T08:51:44.342Z</time></trkpt><trkpt lat="43.2056716" lon="12.4233659"><ele>221.66666666666669</ele><time>2026-05-03T08:51:45.342Z</time></trkpt><trkpt lat="43.205845" lon="12.4232868"><ele>222.33333333333331</ele><time>2026-05-03T08:51:46.342Z</time></trkpt><trkpt lat="43.2060255" lon="12.4232025"><ele>223.0</ele><time>2026-05-03T08:51:47.342Z</time></trkpt><trkpt lat="43.2062002" lon="12.4231115"><ele>223.0</ele><time>2026-05-03T08:51:48.342Z</time></trkpt><trkpt lat="43.2063746" lon="12.4230033"><ele>223.0</ele><time>2026-05-03T08:51:49.342Z</time></trkpt><trkpt lat="43.2065516" lon="12.4228829"><ele>223.0</ele><time>2026-05-03T08:51:50.342Z</time></trkpt><trkpt lat="43.2067268" lon="12.4227614"><ele>223.0</ele><time>2026-05-03T08:51:51.342Z</time></trkpt><trkpt lat="43.2069054" lon="12.4226316"><ele>223.0</ele><time>2026-05-03T08:51:52.342Z</time></trkpt><trkpt lat="43.2070836" lon="12.4225049"><ele>223.0</ele><time>2026-05-03T08:51:53.342Z</time></trkpt><trkpt lat="43.2072575" lon="12.422371"><ele>223.33333333333331</ele><time>2026-05-03T08:51:54.342Z</time></trkpt><trkpt lat="43.2074339" lon="12.4222358"><ele>223.66666666666669</ele><time>2026-05-03T08:51:55.342Z</time></trkpt><trkpt lat="43.2076127" lon="12.4221034"><ele>224.0</ele><time>2026-05-03T08:51:56.342Z</time></trkpt><trkpt lat="43.2077899" lon="12.4219698"><ele>224.66666666666669</ele><time>2026-05-03T08:51:57.343Z</time></trkpt><trkpt lat="43.2079641" lon="12.4218415"><ele>225.33333333333331</ele><time>2026-05-03T08:51:58.342Z</time></trkpt><trkpt lat="43.2081456" lon="12.4217058"><ele>226.0</ele><time>2026-05-03T08:51:59.342Z</time></trkpt><trkpt lat="43.2083219" lon="12.4215744"><ele>226.0</ele><time>2026-05-03T08:52:00.342Z</time></trkpt><trkpt lat="43.2084986" lon="12.4214543"><ele>226.0</ele><time>2026-05-03T08:52:01.342Z</time></trkpt><trkpt lat="43.2086793" lon="12.4213266"><ele>226.0</ele><time>2026-05-03T08:52:02.342Z</time></trkpt><trkpt lat="43.2088615" lon="12.4212114"><ele>224.66666666666666</ele><time>2026-05-03T08:52:03.342Z</time></trkpt><trkpt lat="43.2090497" lon="12.4211105"><ele>223.33333333333331</ele><time>2026-05-03T08:52:04.342Z</time></trkpt><trkpt lat="43.2092379" lon="12.4210203"><ele>222.0</ele><time>2026-05-03T08:52:05.342Z</time></trkpt><trkpt lat="43.2094358" lon="12.4209418"><ele>222.0</ele><time>2026-05-03T08:52:06.342Z</time></trkpt><trkpt lat="43.2096334" lon="12.4208669"><ele>222.0</ele><time>2026-05-03T08:52:07.342Z</time></trkpt><trkpt lat="43.2098291" lon="12.4207923"><ele>222.0</ele><time>2026-05-03T08:52:08.342Z</time></trkpt><trkpt lat="43.2100133" lon="12.420728"><ele>221.66666666666669</ele><time>2026-05-03T08:52:09.342Z</time></trkpt><trkpt lat="43.2101749" lon="12.4206604"><ele>221.33333333333334</ele><time>2026-05-03T08:52:10.342Z</time></trkpt><trkpt lat="43.2103294" lon="12.4206047"><ele>221.0</ele><time>2026-05-03T08:52:11.342Z</time></trkpt><trkpt lat="43.2104722" lon="12.4205467"><ele>221.0</ele><time>2026-05-03T08:52:12.343Z</time></trkpt><trkpt lat="43.2106087" lon="12.4204949"><ele>221.0</ele><time>2026-05-03T08:52:13.342Z</time></trkpt><trkpt lat="43.2107331" lon="12.4204458"><ele>221.0</ele><time>2026-05-03T08:52:14.343Z</time></trkpt><trkpt lat="43.2108595" lon="12.4203985"><ele>221.0</ele><time>2026-05-03T08:52:15.343Z</time></trkpt><trkpt lat="43.2109899" lon="12.4203551"><ele>220.75</ele><time>2026-05-03T08:52:16.342Z</time></trkpt><trkpt lat="43.2111219" lon="12.4203096"><ele>220.5</ele><time>2026-05-03T08:52:17.342Z</time></trkpt><trkpt lat="43.2112667" lon="12.4202794"><ele>220.25</ele><time>2026-05-03T08:52:18.342Z</time></trkpt><trkpt lat="43.2114143" lon="12.420242"><ele>220.0</ele><time>2026-05-03T08:52:19.342Z</time></trkpt><trkpt lat="43.2115709" lon="12.4202119"><ele>219.66666666666666</ele><time>2026-05-03T08:52:20.342Z</time></trkpt><trkpt lat="43.2117372" lon="12.4201759"><ele>219.33333333333331</ele><time>2026-05-03T08:52:21.342Z</time></trkpt><trkpt lat="43.2119041" lon="12.4201446"><ele>219.0</ele><time>2026-05-03T08:52:22.342Z</time></trkpt><trkpt lat="43.2120738" lon="12.4201034"><ele>219.0</ele><time>2026-05-03T08:52:23.342Z</time></trkpt><trkpt lat="43.212248" lon="12.4200675"><ele>219.0</ele><time>2026-05-03T08:52:24.342Z</time></trkpt><trkpt lat="43.2124238" lon="12.420032"><ele>219.0</ele><time>2026-05-03T08:52:25.342Z</time></trkpt><trkpt lat="43.2126049" lon="12.4199894"><ele>219.66666666666669</ele><time>2026-05-03T08:52:26.342Z</time></trkpt><trkpt lat="43.2127834" lon="12.4199567"><ele>220.33333333333334</ele><time>2026-05-03T08:52:27.342Z</time></trkpt><trkpt lat="43.2129672" lon="12.4199247"><ele>221.0</ele><time>2026-05-03T08:52:28.343Z</time></trkpt><trkpt lat="43.2131438" lon="12.4198913"><ele>220.33333333333334</ele><time>2026-05-03T08:52:29.342Z</time></trkpt><trkpt lat="43.2133213" lon="12.4198515"><ele>219.66666666666669</ele><time>2026-05-03T08:52:30.343Z</time></trkpt><trkpt lat="43.2134967" lon="12.4197996"><ele>219.0</ele><time>2026-05-03T08:52:31.342Z</time></trkpt><trkpt lat="43.2136551" lon="12.4197266"><ele>218.66666666666669</ele><time>2026-05-03T08:52:32.342Z</time></trkpt><trkpt lat="43.2138135" lon="12.419643"><ele>218.33333333333334</ele><time>2026-05-03T08:52:33.342Z</time></trkpt><trkpt lat="43.213964" lon="12.4195467"><ele>218.0</ele><time>2026-05-03T08:52:34.342Z</time></trkpt><trkpt lat="43.2141133" lon="12.4194392"><ele>218.0</ele><time>2026-05-03T08:52:35.342Z</time></trkpt><trkpt lat="43.214257" lon="12.4193067"><ele>218.0</ele><time>2026-05-03T08:52:36.342Z</time></trkpt><trkpt lat="43.2143927" lon="12.4191482"><ele>218.0</ele><time>2026-05-03T08:52:37.343Z</time></trkpt><trkpt lat="43.214519" lon="12.4189854"><ele>218.0</ele><time>2026-05-03T08:52:38.343Z</time></trkpt><trkpt lat="43.2146381" lon="12.4188015"><ele>218.0</ele><time>2026-05-03T08:52:39.342Z</time></trkpt><trkpt lat="43.2147483" lon="12.418602"><ele>218.0</ele><time>2026-05-03T08:52:40.342Z</time></trkpt><trkpt lat="43.2148524" lon="12.4183906"><ele>218.66666666666669</ele><time>2026-05-03T08:52:41.342Z</time></trkpt><trkpt lat="43.2149615" lon="12.4181803"><ele>219.33333333333331</ele><time>2026-05-03T08:52:42.342Z</time></trkpt><trkpt lat="43.2150686" lon="12.4179881"><ele>220.0</ele><time>2026-05-03T08:52:43.342Z</time></trkpt><trkpt lat="43.2151777" lon="12.4178051"><ele>220.0</ele><time>2026-05-03T08:52:44.343Z</time></trkpt><trkpt lat="43.2152902" lon="12.4176563"><ele>220.0</ele><time>2026-05-03T08:52:45.342Z</time></trkpt><trkpt lat="43.2154123" lon="12.4175069"><ele>220.0</ele><time>2026-05-03T08:52:46.342Z</time></trkpt><trkpt lat="43.2155439" lon="12.4173708"><ele>220.66666666666666</ele><time>2026-05-03T08:52:47.342Z</time></trkpt><trkpt lat="43.2156906" lon="12.4172456"><ele>221.33333333333331</ele><time>2026-05-03T08:52:48.342Z</time></trkpt><trkpt lat="43.2158318" lon="12.4171229"><ele>222.0</ele><time>2026-05-03T08:52:49.342Z</time></trkpt><trkpt lat="43.2159917" lon="12.4170133"><ele>222.0</ele><time>2026-05-03T08:52:50.342Z</time></trkpt><trkpt lat="43.2161389" lon="12.4168923"><ele>222.0</ele><time>2026-05-03T08:52:51.342Z</time></trkpt><trkpt lat="43.216281" lon="12.4167786"><ele>222.0</ele><time>2026-05-03T08:52:52.342Z</time></trkpt><trkpt lat="43.216418" lon="12.4166637"><ele>222.25</ele><time>2026-05-03T08:52:53.342Z</time></trkpt><trkpt lat="43.2165467" lon="12.4165565"><ele>222.5</ele><time>2026-05-03T08:52:54.342Z</time></trkpt><trkpt lat="43.2166695" lon="12.4164547"><ele>222.75</ele><time>2026-05-03T08:52:55.342Z</time></trkpt><trkpt lat="43.2167926" lon="12.4163578"><ele>223.0</ele><time>2026-05-03T08:52:56.342Z</time></trkpt><trkpt lat="43.216891" lon="12.4162741"><ele>223.25</ele><time>2026-05-03T08:52:57.342Z</time></trkpt><trkpt lat="43.2169952" lon="12.4161812"><ele>223.5</ele><time>2026-05-03T08:52:58.342Z</time></trkpt><trkpt lat="43.2170876" lon="12.4161042"><ele>223.75</ele><time>2026-05-03T08:52:59.342Z</time></trkpt><trkpt lat="43.21718" lon="12.4160195"><ele>224.0</ele><time>2026-05-03T08:53:00.342Z</time></trkpt><trkpt lat="43.217277" lon="12.415956"><ele>224.2</ele><time>2026-05-03T08:53:01.342Z</time></trkpt><trkpt lat="43.2173756" lon="12.4158764"><ele>224.39999999999998</ele><time>2026-05-03T08:53:02.342Z</time></trkpt><trkpt lat="43.217472" lon="12.4157906"><ele>224.6</ele><time>2026-05-03T08:53:03.343Z</time></trkpt><trkpt lat="43.2175636" lon="12.4157147"><ele>224.8</ele><time>2026-05-03T08:53:04.342Z</time></trkpt><trkpt lat="43.2176603" lon="12.4156486"><ele>225.0</ele><time>2026-05-03T08:53:05.342Z</time></trkpt><trkpt lat="43.2177644" lon="12.4155674"><ele>225.25</ele><time>2026-05-03T08:53:06.342Z</time></trkpt><trkpt lat="43.2178754" lon="12.4154785"><ele>225.5</ele><time>2026-05-03T08:53:07.342Z</time></trkpt><trkpt lat="43.2179902" lon="12.4153878"><ele>225.75</ele><time>2026-05-03T08:53:08.342Z</time></trkpt><trkpt lat="43.2181077" lon="12.4152886"><ele>226.0</ele><time>2026-05-03T08:53:09.342Z</time></trkpt><trkpt lat="43.2182453" lon="12.4151784"><ele>226.0</ele><time>2026-05-03T08:53:10.342Z</time></trkpt><trkpt lat="43.2183857" lon="12.4150569"><ele>226.0</ele><time>2026-05-03T08:53:11.342Z</time></trkpt><trkpt lat="43.2185308" lon="12.4149441"><ele>226.0</ele><time>2026-05-03T08:53:12.342Z</time></trkpt><trkpt lat="43.2186794" lon="12.4148142"><ele>226.0</ele><time>2026-05-03T08:53:13.343Z</time></trkpt><trkpt lat="43.2188285" lon="12.4146872"><ele>226.0</ele><time>2026-05-03T08:53:14.342Z</time></trkpt><trkpt lat="43.2189753" lon="12.4145641"><ele>226.0</ele><time>2026-05-03T08:53:15.343Z</time></trkpt><trkpt lat="43.2191282" lon="12.4144433"><ele>226.33333333333331</ele><time>2026-05-03T08:53:16.342Z</time></trkpt><trkpt lat="43.2192788" lon="12.4143235"><ele>226.66666666666669</ele><time>2026-05-03T08:53:17.342Z</time></trkpt><trkpt lat="43.2194354" lon="12.4142007"><ele>227.0</ele><time>2026-05-03T08:53:18.342Z</time></trkpt><trkpt lat="43.2195895" lon="12.4140851"><ele>227.0</ele><time>2026-05-03T08:53:19.342Z</time></trkpt><trkpt lat="43.2197364" lon="12.4139664"><ele>227.0</ele><time>2026-05-03T08:53:20.343Z</time></trkpt><trkpt lat="43.219889" lon="12.4138439"><ele>227.0</ele><time>2026-05-03T08:53:21.342Z</time></trkpt><trkpt lat="43.2200386" lon="12.4137219"><ele>228.33333333333334</ele><time>2026-05-03T08:53:22.342Z</time></trkpt><trkpt lat="43.2201876" lon="12.4136048"><ele>229.66666666666669</ele><time>2026-05-03T08:53:23.342Z</time></trkpt><trkpt lat="43.2203336" lon="12.4134877"><ele>231.0</ele><time>2026-05-03T08:53:24.342Z</time></trkpt><trkpt lat="43.2204821" lon="12.4133727"><ele>231.0</ele><time>2026-05-03T08:53:25.342Z</time></trkpt><trkpt lat="43.2206257" lon="12.4132594"><ele>231.0</ele><time>2026-05-03T08:53:26.342Z</time></trkpt><trkpt lat="43.2207748" lon="12.4131526"><ele>231.0</ele><time>2026-05-03T08:53:27.342Z</time></trkpt><trkpt lat="43.2209272" lon="12.4130654"><ele>230.66666666666669</ele><time>2026-05-03T08:53:28.342Z</time></trkpt><trkpt lat="43.2210784" lon="12.4129946"><ele>230.33333333333334</ele><time>2026-05-03T08:53:29.342Z</time></trkpt><trkpt lat="43.2212345" lon="12.4129501"><ele>230.0</ele><time>2026-05-03T08:53:30.342Z</time></trkpt><trkpt lat="43.2213966" lon="12.4129263"><ele>231.0</ele><time>2026-05-03T08:53:31.342Z</time></trkpt><trkpt lat="43.2215618" lon="12.4129098"><ele>232.0</ele><time>2026-05-03T08:53:32.342Z</time></trkpt><trkpt lat="43.2217214" lon="12.4129194"><ele>233.0</ele><time>2026-05-03T08:53:33.342Z</time></trkpt><trkpt lat="43.2218799" lon="12.4129311"><ele>233.0</ele><time>2026-05-03T08:53:34.342Z</time></trkpt><trkpt lat="43.2220419" lon="12.4129399"><ele>233.0</ele><time>2026-05-03T08:53:35.342Z</time></trkpt><trkpt lat="43.2222147" lon="12.4129639"><ele>233.0</ele><time>2026-05-03T08:53:36.342Z</time></trkpt><trkpt lat="43.2223891" lon="12.4129861"><ele>232.33333333333334</ele><time>2026-05-03T08:53:37.342Z</time></trkpt><trkpt lat="43.2225674" lon="12.4129967"><ele>231.66666666666669</ele><time>2026-05-03T08:53:38.343Z</time></trkpt><trkpt lat="43.2227471" lon="12.4130211"><ele>231.0</ele><time>2026-05-03T08:53:39.342Z</time></trkpt><trkpt lat="43.2229298" lon="12.4130354"><ele>231.0</ele><time>2026-05-03T08:53:40.343Z</time></trkpt><trkpt lat="43.2231039" lon="12.4130624"><ele>231.0</ele><time>2026-05-03T08:53:41.342Z</time></trkpt><trkpt lat="43.2232838" lon="12.4130905"><ele>231.0</ele><time>2026-05-03T08:53:42.342Z</time></trkpt><trkpt lat="43.2234537" lon="12.4131114"><ele>231.33333333333331</ele><time>2026-05-03T08:53:43.342Z</time></trkpt><trkpt lat="43.22362" lon="12.4131283"><ele>231.66666666666666</ele><time>2026-05-03T08:53:44.342Z</time></trkpt><trkpt lat="43.2237873" lon="12.4131208"><ele>232.0</ele><time>2026-05-03T08:53:45.342Z</time></trkpt><trkpt lat="43.2239642" lon="12.4130968"><ele>231.66666666666666</ele><time>2026-05-03T08:53:46.342Z</time></trkpt><trkpt lat="43.2241478" lon="12.4130523"><ele>231.33333333333331</ele><time>2026-05-03T08:53:47.342Z</time></trkpt><trkpt lat="43.224321" lon="12.4130021"><ele>231.0</ele><time>2026-05-03T08:53:48.342Z</time></trkpt><trkpt lat="43.2245039" lon="12.4129427"><ele>231.0</ele><time>2026-05-03T08:53:49.342Z</time></trkpt><trkpt lat="43.224682" lon="12.4128725"><ele>231.0</ele><time>2026-05-03T08:53:50.343Z</time></trkpt><trkpt lat="43.2248537" lon="12.412811"><ele>231.0</ele><time>2026-05-03T08:53:51.342Z</time></trkpt><trkpt lat="43.2250166" lon="12.412745"><ele>232.0</ele><time>2026-05-03T08:53:52.342Z</time></trkpt><trkpt lat="43.2251718" lon="12.4126765"><ele>233.0</ele><time>2026-05-03T08:53:53.342Z</time></trkpt><trkpt lat="43.2253309" lon="12.4126174"><ele>234.0</ele><time>2026-05-03T08:53:54.342Z</time></trkpt><trkpt lat="43.2254897" lon="12.4125536"><ele>234.33333333333331</ele><time>2026-05-03T08:53:55.342Z</time></trkpt><trkpt lat="43.2256502" lon="12.4125012"><ele>234.66666666666666</ele><time>2026-05-03T08:53:56.342Z</time></trkpt><trkpt lat="43.2258087" lon="12.4124336"><ele>235.0</ele><time>2026-05-03T08:53:57.342Z</time></trkpt><trkpt lat="43.2259702" lon="12.4123706"><ele>235.0</ele><time>2026-05-03T08:53:58.342Z</time></trkpt><trkpt lat="43.2261295" lon="12.4123116"><ele>235.0</ele><time>2026-05-03T08:53:59.342Z</time></trkpt><trkpt lat="43.2262896" lon="12.4122501"><ele>235.0</ele><time>2026-05-03T08:54:00.343Z</time></trkpt><trkpt lat="43.2264532" lon="12.4121841"><ele>233.33333333333331</ele><time>2026-05-03T08:54:01.342Z</time></trkpt><trkpt lat="43.226619" lon="12.4121178"><ele>231.66666666666669</ele><time>2026-05-03T08:54:02.342Z</time></trkpt><trkpt lat="43.2267879" lon="12.4120535"><ele>230.0</ele><time>2026-05-03T08:54:03.342Z</time></trkpt><trkpt lat="43.2269575" lon="12.4120028"><ele>230.0</ele><time>2026-05-03T08:54:04.342Z</time></trkpt><trkpt lat="43.2271186" lon="12.4119665"><ele>230.0</ele><time>2026-05-03T08:54:05.342Z</time></trkpt><trkpt lat="43.227283" lon="12.4119444"><ele>230.0</ele><time>2026-05-03T08:54:06.342Z</time></trkpt><trkpt lat="43.2274428" lon="12.411958"><ele>229.33333333333334</ele><time>2026-05-03T08:54:07.342Z</time></trkpt><trkpt lat="43.2276081" lon="12.4119832"><ele>228.66666666666669</ele><time>2026-05-03T08:54:08.342Z</time></trkpt><trkpt lat="43.2277724" lon="12.412014"><ele>228.0</ele><time>2026-05-03T08:54:09.342Z</time></trkpt><trkpt lat="43.2279399" lon="12.412042"><ele>228.0</ele><time>2026-05-03T08:54:10.342Z</time></trkpt><trkpt lat="43.2281103" lon="12.4120653"><ele>228.0</ele><time>2026-05-03T08:54:11.342Z</time></trkpt><trkpt lat="43.2282859" lon="12.4120615"><ele>228.0</ele><time>2026-05-03T08:54:12.342Z</time></trkpt><trkpt lat="43.2284516" lon="12.4120476"><ele>228.0</ele><time>2026-05-03T08:54:13.342Z</time></trkpt><trkpt lat="43.2286271" lon="12.4120126"><ele>228.0</ele><time>2026-05-03T08:54:14.342Z</time></trkpt><trkpt lat="43.2287869" lon="12.4119548"><ele>228.0</ele><time>2026-05-03T08:54:15.342Z</time></trkpt><trkpt lat="43.2289548" lon="12.4118783"><ele>228.0</ele><time>2026-05-03T08:54:16.342Z</time></trkpt><trkpt lat="43.2291234" lon="12.4117911"><ele>228.0</ele><time>2026-05-03T08:54:17.342Z</time></trkpt><trkpt lat="43.2292918" lon="12.411713"><ele>228.0</ele><time>2026-05-03T08:54:18.342Z</time></trkpt><trkpt lat="43.2294537" lon="12.4116346"><ele>228.0</ele><time>2026-05-03T08:54:19.343Z</time></trkpt><trkpt lat="43.229614" lon="12.411556"><ele>228.0</ele><time>2026-05-03T08:54:20.343Z</time></trkpt><trkpt lat="43.229767" lon="12.4114818"><ele>228.0</ele><time>2026-05-03T08:54:21.342Z</time></trkpt><trkpt lat="43.2299149" lon="12.4114084"><ele>228.25</ele><time>2026-05-03T08:54:22.342Z</time></trkpt><trkpt lat="43.2300553" lon="12.411335"><ele>228.5</ele><time>2026-05-03T08:54:23.342Z</time></trkpt><trkpt lat="43.2301846" lon="12.4112661"><ele>228.75</ele><time>2026-05-03T08:54:24.342Z</time></trkpt><trkpt lat="43.2303039" lon="12.4111746"><ele>229.0</ele><time>2026-05-03T08:54:25.342Z</time></trkpt><trkpt lat="43.2304249" lon="12.4110717"><ele>229.0</ele><time>2026-05-03T08:54:26.342Z</time></trkpt><trkpt lat="43.2305349" lon="12.4109665"><ele>229.0</ele><time>2026-05-03T08:54:27.342Z</time></trkpt><trkpt lat="43.2306454" lon="12.4108616"><ele>229.0</ele><time>2026-05-03T08:54:28.342Z</time></trkpt><trkpt lat="43.2307629" lon="12.4107535"><ele>229.0</ele><time>2026-05-03T08:54:29.342Z</time></trkpt><trkpt lat="43.230874" lon="12.4106406"><ele>229.25</ele><time>2026-05-03T08:54:30.342Z</time></trkpt><trkpt lat="43.2309884" lon="12.4105206"><ele>229.5</ele><time>2026-05-03T08:54:31.342Z</time></trkpt><trkpt lat="43.2310957" lon="12.4103942"><ele>229.75</ele><time>2026-05-03T08:54:32.342Z</time></trkpt><trkpt lat="43.2312069" lon="12.4102784"><ele>230.0</ele><time>2026-05-03T08:54:33.342Z</time></trkpt><trkpt lat="43.2313181" lon="12.4101643"><ele>229.5</ele><time>2026-05-03T08:54:34.343Z</time></trkpt><trkpt lat="43.2314365" lon="12.4100471"><ele>229.0</ele><time>2026-05-03T08:54:35.342Z</time></trkpt><trkpt lat="43.2315554" lon="12.4099343"><ele>228.5</ele><time>2026-05-03T08:54:36.342Z</time></trkpt><trkpt lat="43.2316776" lon="12.4098173"><ele>228.0</ele><time>2026-05-03T08:54:37.342Z</time></trkpt><trkpt lat="43.2318146" lon="12.4097156"><ele>227.66666666666669</ele><time>2026-05-03T08:54:38.342Z</time></trkpt><trkpt lat="43.2319529" lon="12.4096135"><ele>227.33333333333334</ele><time>2026-05-03T08:54:39.342Z</time></trkpt><trkpt lat="43.2320967" lon="12.4095122"><ele>227.0</ele><time>2026-05-03T08:54:40.342Z</time></trkpt><trkpt lat="43.232248" lon="12.4094244"><ele>227.33333333333334</ele><time>2026-05-03T08:54:41.343Z</time></trkpt><trkpt lat="43.2324031" lon="12.4093368"><ele>227.66666666666669</ele><time>2026-05-03T08:54:42.342Z</time></trkpt><trkpt lat="43.2325645" lon="12.4092497"><ele>228.0</ele><time>2026-05-03T08:54:43.342Z</time></trkpt><trkpt lat="43.2327383" lon="12.4091599"><ele>228.0</ele><time>2026-05-03T08:54:44.342Z</time></trkpt><trkpt lat="43.2329102" lon="12.4090661"><ele>228.0</ele><time>2026-05-03T08:54:45.342Z</time></trkpt><trkpt lat="43.2330797" lon="12.4089769"><ele>228.0</ele><time>2026-05-03T08:54:46.342Z</time></trkpt><trkpt lat="43.2332505" lon="12.4088882"><ele>228.33333333333331</ele><time>2026-05-03T08:54:47.342Z</time></trkpt><trkpt lat="43.2334133" lon="12.4088095"><ele>228.66666666666666</ele><time>2026-05-03T08:54:48.342Z</time></trkpt><trkpt lat="43.2335726" lon="12.4087247"><ele>229.0</ele><time>2026-05-03T08:54:49.342Z</time></trkpt><trkpt lat="43.2337292" lon="12.4086451"><ele>229.0</ele><time>2026-05-03T08:54:50.343Z</time></trkpt><trkpt lat="43.2338807" lon="12.40856"><ele>229.0</ele><time>2026-05-03T08:54:51.342Z</time></trkpt><trkpt lat="43.2340316" lon="12.4084731"><ele>229.0</ele><time>2026-05-03T08:54:52.342Z</time></trkpt><trkpt lat="43.2341857" lon="12.4083826"><ele>229.0</ele><time>2026-05-03T08:54:53.342Z</time></trkpt><trkpt lat="43.2343453" lon="12.4083115"><ele>229.0</ele><time>2026-05-03T08:54:54.342Z</time></trkpt><trkpt lat="43.2345131" lon="12.4082614"><ele>229.0</ele><time>2026-05-03T08:54:55.342Z</time></trkpt><trkpt lat="43.2346892" lon="12.4082023"><ele>230.0</ele><time>2026-05-03T08:54:56.342Z</time></trkpt><trkpt lat="43.2348721" lon="12.4081583"><ele>231.0</ele><time>2026-05-03T08:54:57.342Z</time></trkpt><trkpt lat="43.2350569" lon="12.40811"><ele>232.0</ele><time>2026-05-03T08:54:58.342Z</time></trkpt><trkpt lat="43.2352386" lon="12.408055"><ele>232.0</ele><time>2026-05-03T08:54:59.342Z</time></trkpt><trkpt lat="43.2354246" lon="12.4080099"><ele>232.0</ele><time>2026-05-03T08:55:00.342Z</time></trkpt><trkpt lat="43.2356136" lon="12.4079512"><ele>232.0</ele><time>2026-05-03T08:55:01.342Z</time></trkpt><trkpt lat="43.235798" lon="12.4078895"><ele>231.66666666666666</ele><time>2026-05-03T08:55:02.342Z</time></trkpt><trkpt lat="43.2359829" lon="12.4078349"><ele>231.33333333333331</ele><time>2026-05-03T08:55:03.342Z</time></trkpt><trkpt lat="43.236165" lon="12.4077761"><ele>231.0</ele><time>2026-05-03T08:55:04.343Z</time></trkpt><trkpt lat="43.2363508" lon="12.4077224"><ele>231.33333333333331</ele><time>2026-05-03T08:55:05.342Z</time></trkpt><trkpt lat="43.236534" lon="12.4076635"><ele>231.66666666666666</ele><time>2026-05-03T08:55:06.342Z</time></trkpt><trkpt lat="43.2367128" lon="12.4076034"><ele>232.0</ele><time>2026-05-03T08:55:07.342Z</time></trkpt><trkpt lat="43.2368915" lon="12.4075426"><ele>232.0</ele><time>2026-05-03T08:55:08.342Z</time></trkpt><trkpt lat="43.2370651" lon="12.4074624"><ele>232.0</ele><time>2026-05-03T08:55:09.342Z</time></trkpt><trkpt lat="43.2372314" lon="12.4073646"><ele>232.0</ele><time>2026-05-03T08:55:10.342Z</time></trkpt><trkpt lat="43.2373968" lon="12.4072506"><ele>233.0</ele><time>2026-05-03T08:55:11.342Z</time></trkpt><trkpt lat="43.237559" lon="12.4071338"><ele>234.0</ele><time>2026-05-03T08:55:12.342Z</time></trkpt><trkpt lat="43.237723" lon="12.4070105"><ele>235.0</ele><time>2026-05-03T08:55:13.343Z</time></trkpt><trkpt lat="43.2378953" lon="12.4068928"><ele>235.0</ele><time>2026-05-03T08:55:14.342Z</time></trkpt><trkpt lat="43.238075" lon="12.4067739"><ele>235.0</ele><time>2026-05-03T08:55:15.342Z</time></trkpt><trkpt lat="43.238249" lon="12.4066483"><ele>235.0</ele><time>2026-05-03T08:55:16.342Z</time></trkpt><trkpt lat="43.2384291" lon="12.4065224"><ele>234.33333333333331</ele><time>2026-05-03T08:55:17.342Z</time></trkpt><trkpt lat="43.2386012" lon="12.406394"><ele>233.66666666666669</ele><time>2026-05-03T08:55:18.342Z</time></trkpt><trkpt lat="43.238776" lon="12.4062695"><ele>233.0</ele><time>2026-05-03T08:55:19.342Z</time></trkpt><trkpt lat="43.2389497" lon="12.4061653"><ele>233.33333333333334</ele><time>2026-05-03T08:55:20.342Z</time></trkpt><trkpt lat="43.2391171" lon="12.4060704"><ele>233.66666666666669</ele><time>2026-05-03T08:55:21.342Z</time></trkpt><trkpt lat="43.2392838" lon="12.4059999"><ele>234.0</ele><time>2026-05-03T08:55:22.342Z</time></trkpt><trkpt lat="43.239453" lon="12.4059466"><ele>234.0</ele><time>2026-05-03T08:55:23.342Z</time></trkpt><trkpt lat="43.239622" lon="12.4059124"><ele>234.0</ele><time>2026-05-03T08:55:24.342Z</time></trkpt><trkpt lat="43.2397992" lon="12.4058958"><ele>234.0</ele><time>2026-05-03T08:55:25.342Z</time></trkpt><trkpt lat="43.2399843" lon="12.4059003"><ele>233.66666666666669</ele><time>2026-05-03T08:55:26.342Z</time></trkpt><trkpt lat="43.2401676" lon="12.405922"><ele>233.33333333333334</ele><time>2026-05-03T08:55:27.342Z</time></trkpt><trkpt lat="43.2403502" lon="12.4059673"><ele>233.0</ele><time>2026-05-03T08:55:28.342Z</time></trkpt><trkpt lat="43.2405416" lon="12.4060151"><ele>233.0</ele><time>2026-05-03T08:55:29.342Z</time></trkpt><trkpt lat="43.2407322" lon="12.4060845"><ele>233.0</ele><time>2026-05-03T08:55:30.342Z</time></trkpt><trkpt lat="43.2409256" lon="12.4061612"><ele>233.0</ele><time>2026-05-03T08:55:31.342Z</time></trkpt><trkpt lat="43.2411146" lon="12.4062333"><ele>233.0</ele><time>2026-05-03T08:55:32.342Z</time></trkpt><trkpt lat="43.2413054" lon="12.4062922"><ele>233.0</ele><time>2026-05-03T08:55:33.342Z</time></trkpt><trkpt lat="43.2414804" lon="12.4063507"><ele>233.0</ele><time>2026-05-03T08:55:34.343Z</time></trkpt><trkpt lat="43.2416495" lon="12.4063937"><ele>233.0</ele><time>2026-05-03T08:55:35.342Z</time></trkpt><trkpt lat="43.2418202" lon="12.4063977"><ele>233.0</ele><time>2026-05-03T08:55:36.342Z</time></trkpt><trkpt lat="43.241999" lon="12.4063634"><ele>233.0</ele><time>2026-05-03T08:55:37.342Z</time></trkpt><trkpt lat="43.2421653" lon="12.4062783"><ele>233.33333333333334</ele><time>2026-05-03T08:55:38.343Z</time></trkpt><trkpt lat="43.2423416" lon="12.4061887"><ele>233.66666666666669</ele><time>2026-05-03T08:55:39.342Z</time></trkpt><trkpt lat="43.2425116" lon="12.4060839"><ele>234.0</ele><time>2026-05-03T08:55:40.342Z</time></trkpt><trkpt lat="43.2426861" lon="12.4059747"><ele>234.0</ele><time>2026-05-03T08:55:41.342Z</time></trkpt><trkpt lat="43.2428628" lon="12.4058712"><ele>234.0</ele><time>2026-05-03T08:55:42.342Z</time></trkpt><trkpt lat="43.2430485" lon="12.4057632"><ele>234.0</ele><time>2026-05-03T08:55:43.342Z</time></trkpt><trkpt lat="43.2432184" lon="12.4056668"><ele>235.0</ele><time>2026-05-03T08:55:44.342Z</time></trkpt><trkpt lat="43.2433782" lon="12.4055527"><ele>236.0</ele><time>2026-05-03T08:55:45.342Z</time></trkpt><trkpt lat="43.243552" lon="12.4054485"><ele>237.0</ele><time>2026-05-03T08:55:46.342Z</time></trkpt><trkpt lat="43.2437249" lon="12.4053424"><ele>237.0</ele><time>2026-05-03T08:55:47.342Z</time></trkpt><trkpt lat="43.2438941" lon="12.4052328"><ele>237.0</ele><time>2026-05-03T08:55:48.342Z</time></trkpt><trkpt lat="43.2440728" lon="12.4051308"><ele>237.0</ele><time>2026-05-03T08:55:49.342Z</time></trkpt><trkpt lat="43.2442365" lon="12.4050106"><ele>237.33333333333331</ele><time>2026-05-03T08:55:50.342Z</time></trkpt><trkpt lat="43.2444017" lon="12.404884"><ele>237.66666666666666</ele><time>2026-05-03T08:55:51.342Z</time></trkpt><trkpt lat="43.2445659" lon="12.4047431"><ele>238.0</ele><time>2026-05-03T08:55:52.342Z</time></trkpt><trkpt lat="43.2447234" lon="12.4045847"><ele>237.66666666666666</ele><time>2026-05-03T08:55:53.342Z</time></trkpt><trkpt lat="43.2448764" lon="12.4044062"><ele>237.33333333333331</ele><time>2026-05-03T08:55:54.343Z</time></trkpt><trkpt lat="43.2450239" lon="12.4042095"><ele>237.0</ele><time>2026-05-03T08:55:55.343Z</time></trkpt><trkpt lat="43.245169" lon="12.4040042"><ele>235.66666666666669</ele><time>2026-05-03T08:55:56.342Z</time></trkpt><trkpt lat="43.2453084" lon="12.4037893"><ele>234.33333333333334</ele><time>2026-05-03T08:55:57.342Z</time></trkpt><trkpt lat="43.2454314" lon="12.4035631"><ele>233.0</ele><time>2026-05-03T08:55:58.342Z</time></trkpt><trkpt lat="43.245548" lon="12.4033266"><ele>233.0</ele><time>2026-05-03T08:55:59.342Z</time></trkpt><trkpt lat="43.2456512" lon="12.4030961"><ele>233.0</ele><time>2026-05-03T08:56:00.342Z</time></trkpt><trkpt lat="43.2457404" lon="12.4028728"><ele>233.0</ele><time>2026-05-03T08:56:01.342Z</time></trkpt><trkpt lat="43.2458263" lon="12.4026601"><ele>233.0</ele><time>2026-05-03T08:56:02.342Z</time></trkpt><trkpt lat="43.2459149" lon="12.4024523"><ele>233.0</ele><time>2026-05-03T08:56:03.342Z</time></trkpt><trkpt lat="43.2460126" lon="12.402279"><ele>233.0</ele><time>2026-05-03T08:56:04.342Z</time></trkpt><trkpt lat="43.2461321" lon="12.4021447"><ele>233.0</ele><time>2026-05-03T08:56:05.342Z</time></trkpt><trkpt lat="43.2462709" lon="12.4020476"><ele>233.0</ele><time>2026-05-03T08:56:06.342Z</time></trkpt><trkpt lat="43.2464128" lon="12.4019678"><ele>233.0</ele><time>2026-05-03T08:56:07.342Z</time></trkpt><trkpt lat="43.2465642" lon="12.401916"><ele>233.0</ele><time>2026-05-03T08:56:08.342Z</time></trkpt><trkpt lat="43.2467308" lon="12.40191"><ele>233.0</ele><time>2026-05-03T08:56:09.342Z</time></trkpt><trkpt lat="43.2468956" lon="12.4018856"><ele>233.0</ele><time>2026-05-03T08:56:10.342Z</time></trkpt><trkpt lat="43.2470675" lon="12.4018612"><ele>233.0</ele><time>2026-05-03T08:56:11.342Z</time></trkpt><trkpt lat="43.2472402" lon="12.4018417"><ele>233.0</ele><time>2026-05-03T08:56:12.343Z</time></trkpt><trkpt lat="43.2474233" lon="12.4018337"><ele>233.0</ele><time>2026-05-03T08:56:13.342Z</time></trkpt><trkpt lat="43.2476074" lon="12.4018119"><ele>233.0</ele><time>2026-05-03T08:56:14.342Z</time></trkpt><trkpt lat="43.2478023" lon="12.4018053"><ele>233.0</ele><time>2026-05-03T08:56:15.342Z</time></trkpt><trkpt lat="43.2480034" lon="12.4017822"><ele>233.0</ele><time>2026-05-03T08:56:16.342Z</time></trkpt><trkpt lat="43.2482062" lon="12.4017529"><ele>234.0</ele><time>2026-05-03T08:56:17.342Z</time></trkpt><trkpt lat="43.2484097" lon="12.4017385"><ele>235.0</ele><time>2026-05-03T08:56:18.342Z</time></trkpt><trkpt lat="43.2486113" lon="12.4017061"><ele>236.0</ele><time>2026-05-03T08:56:19.343Z</time></trkpt><trkpt lat="43.2488201" lon="12.4016794"><ele>236.33333333333334</ele><time>2026-05-03T08:56:20.343Z</time></trkpt><trkpt lat="43.2490246" lon="12.4016527"><ele>236.66666666666669</ele><time>2026-05-03T08:56:21.343Z</time></trkpt><trkpt lat="43.2492259" lon="12.4016355"><ele>237.0</ele><time>2026-05-03T08:56:22.343Z</time></trkpt><trkpt lat="43.2494291" lon="12.4016056"><ele>237.0</ele><time>2026-05-03T08:56:23.342Z</time></trkpt><trkpt lat="43.2496284" lon="12.4015848"><ele>237.0</ele><time>2026-05-03T08:56:24.342Z</time></trkpt><trkpt lat="43.2498133" lon="12.4015677"><ele>237.0</ele><time>2026-05-03T08:56:25.342Z</time></trkpt><trkpt lat="43.2499976" lon="12.40155"><ele>237.0</ele><time>2026-05-03T08:56:26.342Z</time></trkpt><trkpt lat="43.2501731" lon="12.4015393"><ele>237.0</ele><time>2026-05-03T08:56:27.342Z</time></trkpt><trkpt lat="43.2503478" lon="12.4015269"><ele>237.0</ele><time>2026-05-03T08:56:28.342Z</time></trkpt><trkpt lat="43.250499" lon="12.4014917"><ele>236.66666666666669</ele><time>2026-05-03T08:56:29.342Z</time></trkpt><trkpt lat="43.2506538" lon="12.4014524"><ele>236.33333333333334</ele><time>2026-05-03T08:56:30.342Z</time></trkpt><trkpt lat="43.2508094" lon="12.4013861"><ele>236.0</ele><time>2026-05-03T08:56:31.342Z</time></trkpt><trkpt lat="43.2509595" lon="12.4013086"><ele>236.66666666666669</ele><time>2026-05-03T08:56:32.342Z</time></trkpt><trkpt lat="43.2511147" lon="12.4012176"><ele>237.33333333333331</ele><time>2026-05-03T08:56:33.342Z</time></trkpt><trkpt lat="43.2512767" lon="12.4011319"><ele>238.0</ele><time>2026-05-03T08:56:34.343Z</time></trkpt><trkpt lat="43.2514472" lon="12.4010541"><ele>237.66666666666666</ele><time>2026-05-03T08:56:35.342Z</time></trkpt><trkpt lat="43.2516178" lon="12.4009527"><ele>237.33333333333331</ele><time>2026-05-03T08:56:36.342Z</time></trkpt><trkpt lat="43.2517918" lon="12.4008601"><ele>237.0</ele><time>2026-05-03T08:56:37.342Z</time></trkpt><trkpt lat="43.2519668" lon="12.400762"><ele>237.0</ele><time>2026-05-03T08:56:38.342Z</time></trkpt><trkpt lat="43.2521336" lon="12.400675"><ele>237.0</ele><time>2026-05-03T08:56:39.343Z</time></trkpt><trkpt lat="43.2523024" lon="12.40058"><ele>237.0</ele><time>2026-05-03T08:56:40.342Z</time></trkpt><trkpt lat="43.2524718" lon="12.4004854"><ele>237.33333333333331</ele><time>2026-05-03T08:56:41.343Z</time></trkpt><trkpt lat="43.2526487" lon="12.4004095"><ele>237.66666666666666</ele><time>2026-05-03T08:56:42.343Z</time></trkpt><trkpt lat="43.252823" lon="12.4003151"><ele>238.0</ele><time>2026-05-03T08:56:43.343Z</time></trkpt><trkpt lat="43.2529958" lon="12.4002226"><ele>239.0</ele><time>2026-05-03T08:56:44.342Z</time></trkpt><trkpt lat="43.2531724" lon="12.4001317"><ele>240.0</ele><time>2026-05-03T08:56:45.343Z</time></trkpt><trkpt lat="43.2533469" lon="12.4000361"><ele>241.0</ele><time>2026-05-03T08:56:46.342Z</time></trkpt><trkpt lat="43.2535209" lon="12.3999557"><ele>241.0</ele><time>2026-05-03T08:56:47.343Z</time></trkpt><trkpt lat="43.2536895" lon="12.3998636"><ele>241.0</ele><time>2026-05-03T08:56:48.342Z</time></trkpt><trkpt lat="43.2538516" lon="12.3997696"><ele>241.0</ele><time>2026-05-03T08:56:49.342Z</time></trkpt><trkpt lat="43.2540099" lon="12.3996834"><ele>240.66666666666666</ele><time>2026-05-03T08:56:50.342Z</time></trkpt><trkpt lat="43.2541582" lon="12.3995913"><ele>240.33333333333331</ele><time>2026-05-03T08:56:51.342Z</time></trkpt><trkpt lat="43.2542942" lon="12.399512"><ele>240.0</ele><time>2026-05-03T08:56:52.342Z</time></trkpt><trkpt lat="43.254435" lon="12.3994326"><ele>240.0</ele><time>2026-05-03T08:56:53.342Z</time></trkpt><trkpt lat="43.2545762" lon="12.3993533"><ele>240.0</ele><time>2026-05-03T08:56:54.342Z</time></trkpt><trkpt lat="43.2547133" lon="12.3992813"><ele>240.0</ele><time>2026-05-03T08:56:55.342Z</time></trkpt><trkpt lat="43.2548443" lon="12.3992069"><ele>240.0</ele><time>2026-05-03T08:56:56.342Z</time></trkpt><trkpt lat="43.2549759" lon="12.3991328"><ele>240.0</ele><time>2026-05-03T08:56:57.342Z</time></trkpt><trkpt lat="43.2551115" lon="12.3990725"><ele>240.0</ele><time>2026-05-03T08:56:58.342Z</time></trkpt><trkpt lat="43.2552376" lon="12.3989977"><ele>240.0</ele><time>2026-05-03T08:56:59.342Z</time></trkpt><trkpt lat="43.2553608" lon="12.3989153"><ele>240.0</ele><time>2026-05-03T08:57:00.342Z</time></trkpt><trkpt lat="43.2554794" lon="12.3988172"><ele>240.0</ele><time>2026-05-03T08:57:01.342Z</time></trkpt><trkpt lat="43.2555845" lon="12.3987193"><ele>240.0</ele><time>2026-05-03T08:57:02.342Z</time></trkpt><trkpt lat="43.2557009" lon="12.398619"><ele>240.0</ele><time>2026-05-03T08:57:03.342Z</time></trkpt><trkpt lat="43.255806" lon="12.3985169"><ele>240.0</ele><time>2026-05-03T08:57:04.343Z</time></trkpt><trkpt lat="43.2559258" lon="12.3984032"><ele>241.33333333333331</ele><time>2026-05-03T08:57:05.342Z</time></trkpt><trkpt lat="43.2560534" lon="12.3982869"><ele>242.66666666666666</ele><time>2026-05-03T08:57:06.343Z</time></trkpt><trkpt lat="43.2561837" lon="12.3981681"><ele>244.0</ele><time>2026-05-03T08:57:07.342Z</time></trkpt><trkpt lat="43.2563217" lon="12.3980424"><ele>243.66666666666666</ele><time>2026-05-03T08:57:08.342Z</time></trkpt><trkpt lat="43.2564599" lon="12.3979113"><ele>243.33333333333331</ele><time>2026-05-03T08:57:09.342Z</time></trkpt><trkpt lat="43.2566027" lon="12.3977852"><ele>243.0</ele><time>2026-05-03T08:57:10.342Z</time></trkpt><trkpt lat="43.2567462" lon="12.3976526"><ele>243.0</ele><time>2026-05-03T08:57:11.342Z</time></trkpt><trkpt lat="43.2568949" lon="12.3975139"><ele>243.0</ele><time>2026-05-03T08:57:12.342Z</time></trkpt><trkpt lat="43.2570497" lon="12.3973809"><ele>243.0</ele><time>2026-05-03T08:57:13.342Z</time></trkpt><trkpt lat="43.2572061" lon="12.3972725"><ele>242.66666666666669</ele><time>2026-05-03T08:57:14.342Z</time></trkpt><trkpt lat="43.2573697" lon="12.3971634"><ele>242.33333333333334</ele><time>2026-05-03T08:57:15.342Z</time></trkpt><trkpt lat="43.257532" lon="12.397057"><ele>242.0</ele><time>2026-05-03T08:57:16.342Z</time></trkpt><trkpt lat="43.2577028" lon="12.3969582"><ele>242.0</ele><time>2026-05-03T08:57:17.342Z</time></trkpt><trkpt lat="43.2578786" lon="12.3968679"><ele>242.0</ele><time>2026-05-03T08:57:18.342Z</time></trkpt><trkpt lat="43.2580568" lon="12.3967854"><ele>242.0</ele><time>2026-05-03T08:57:19.342Z</time></trkpt><trkpt lat="43.2582374" lon="12.3967046"><ele>242.33333333333334</ele><time>2026-05-03T08:57:20.342Z</time></trkpt><trkpt lat="43.2584181" lon="12.3966234"><ele>242.66666666666669</ele><time>2026-05-03T08:57:21.343Z</time></trkpt><trkpt lat="43.2585972" lon="12.3965496"><ele>243.0</ele><time>2026-05-03T08:57:22.343Z</time></trkpt><trkpt lat="43.2587751" lon="12.396468"><ele>242.66666666666669</ele><time>2026-05-03T08:57:23.343Z</time></trkpt><trkpt lat="43.2589535" lon="12.3963894"><ele>242.33333333333334</ele><time>2026-05-03T08:57:24.342Z</time></trkpt><trkpt lat="43.259127" lon="12.3963146"><ele>242.0</ele><time>2026-05-03T08:57:25.342Z</time></trkpt><trkpt lat="43.2592966" lon="12.3962459"><ele>242.0</ele><time>2026-05-03T08:57:26.342Z</time></trkpt><trkpt lat="43.2594665" lon="12.396179"><ele>242.0</ele><time>2026-05-03T08:57:27.342Z</time></trkpt><trkpt lat="43.2596299" lon="12.3961077"><ele>242.0</ele><time>2026-05-03T08:57:28.342Z</time></trkpt><trkpt lat="43.2597892" lon="12.3960285"><ele>242.33333333333334</ele><time>2026-05-03T08:57:29.342Z</time></trkpt><trkpt lat="43.2599554" lon="12.395963"><ele>242.66666666666669</ele><time>2026-05-03T08:57:30.342Z</time></trkpt><trkpt lat="43.2601211" lon="12.3958868"><ele>243.0</ele><time>2026-05-03T08:57:31.342Z</time></trkpt><trkpt lat="43.2602914" lon="12.3958196"><ele>243.0</ele><time>2026-05-03T08:57:32.343Z</time></trkpt><trkpt lat="43.2604536" lon="12.3957504"><ele>243.0</ele><time>2026-05-03T08:57:33.343Z</time></trkpt><trkpt lat="43.2606132" lon="12.3956832"><ele>243.0</ele><time>2026-05-03T08:57:34.342Z</time></trkpt><trkpt lat="43.260772" lon="12.3956153"><ele>241.33333333333331</ele><time>2026-05-03T08:57:35.342Z</time></trkpt><trkpt lat="43.2609377" lon="12.395549"><ele>239.66666666666666</ele><time>2026-05-03T08:57:36.343Z</time></trkpt><trkpt lat="43.2611001" lon="12.3954692"><ele>238.0</ele><time>2026-05-03T08:57:37.342Z</time></trkpt><trkpt lat="43.2612706" lon="12.3953939"><ele>238.0</ele><time>2026-05-03T08:57:38.342Z</time></trkpt><trkpt lat="43.261437" lon="12.3953141"><ele>238.0</ele><time>2026-05-03T08:57:39.342Z</time></trkpt><trkpt lat="43.2616092" lon="12.3952381"><ele>238.0</ele><time>2026-05-03T08:57:40.342Z</time></trkpt><trkpt lat="43.2617827" lon="12.3951453"><ele>238.66666666666666</ele><time>2026-05-03T08:57:41.343Z</time></trkpt><trkpt lat="43.2619616" lon="12.3950736"><ele>239.33333333333331</ele><time>2026-05-03T08:57:42.342Z</time></trkpt><trkpt lat="43.262127" lon="12.3949989"><ele>240.0</ele><time>2026-05-03T08:57:43.342Z</time></trkpt><trkpt lat="43.2622903" lon="12.3949222"><ele>240.0</ele><time>2026-05-03T08:57:44.342Z</time></trkpt><trkpt lat="43.262444" lon="12.3948197"><ele>240.0</ele><time>2026-05-03T08:57:45.343Z</time></trkpt><trkpt lat="43.2625865" lon="12.3946666"><ele>240.0</ele><time>2026-05-03T08:57:46.342Z</time></trkpt><trkpt lat="43.2627083" lon="12.3944951"><ele>241.0</ele><time>2026-05-03T08:57:47.342Z</time></trkpt><trkpt lat="43.2628233" lon="12.3943124"><ele>242.0</ele><time>2026-05-03T08:57:48.343Z</time></trkpt><trkpt lat="43.2629381" lon="12.3941142"><ele>243.0</ele><time>2026-05-03T08:57:49.342Z</time></trkpt><trkpt lat="43.2630588" lon="12.3939183"><ele>245.0</ele><time>2026-05-03T08:57:50.343Z</time></trkpt><trkpt lat="43.263176" lon="12.3937137"><ele>247.0</ele><time>2026-05-03T08:57:51.342Z</time></trkpt><trkpt lat="43.2632966" lon="12.39351"><ele>249.0</ele><time>2026-05-03T08:57:52.342Z</time></trkpt><trkpt lat="43.2634139" lon="12.393306"><ele>249.0</ele><time>2026-05-03T08:57:53.342Z</time></trkpt><trkpt lat="43.263532" lon="12.3930993"><ele>249.0</ele><time>2026-05-03T08:57:54.342Z</time></trkpt><trkpt lat="43.2636473" lon="12.3928911"><ele>249.0</ele><time>2026-05-03T08:57:55.342Z</time></trkpt><trkpt lat="43.263768" lon="12.392689"><ele>249.0</ele><time>2026-05-03T08:57:56.342Z</time></trkpt><trkpt lat="43.2638921" lon="12.3924892"><ele>249.0</ele><time>2026-05-03T08:57:57.342Z</time></trkpt><trkpt lat="43.2640179" lon="12.3922893"><ele>249.0</ele><time>2026-05-03T08:57:58.342Z</time></trkpt><trkpt lat="43.264144" lon="12.3920916"><ele>249.0</ele><time>2026-05-03T08:57:59.342Z</time></trkpt><trkpt lat="43.2642754" lon="12.3918941"><ele>249.0</ele><time>2026-05-03T08:58:00.343Z</time></trkpt><trkpt lat="43.264405" lon="12.3917002"><ele>249.0</ele><time>2026-05-03T08:58:01.342Z</time></trkpt><trkpt lat="43.2645383" lon="12.3915054"><ele>249.33333333333331</ele><time>2026-05-03T08:58:02.342Z</time></trkpt><trkpt lat="43.2646692" lon="12.391307"><ele>249.66666666666666</ele><time>2026-05-03T08:58:03.342Z</time></trkpt><trkpt lat="43.2647965" lon="12.391114"><ele>250.0</ele><time>2026-05-03T08:58:04.342Z</time></trkpt><trkpt lat="43.264923" lon="12.3909308"><ele>250.0</ele><time>2026-05-03T08:58:05.342Z</time></trkpt><trkpt lat="43.2650394" lon="12.3907526"><ele>250.0</ele><time>2026-05-03T08:58:06.342Z</time></trkpt><trkpt lat="43.2651537" lon="12.3905834"><ele>250.0</ele><time>2026-05-03T08:58:07.342Z</time></trkpt><trkpt lat="43.2652637" lon="12.390417"><ele>249.0</ele><time>2026-05-03T08:58:08.342Z</time></trkpt><trkpt lat="43.2653705" lon="12.3902506"><ele>248.0</ele><time>2026-05-03T08:58:09.342Z</time></trkpt><trkpt lat="43.2654808" lon="12.3900871"><ele>247.0</ele><time>2026-05-03T08:58:10.342Z</time></trkpt><trkpt lat="43.265591" lon="12.3899177"><ele>247.66666666666666</ele><time>2026-05-03T08:58:11.343Z</time></trkpt><trkpt lat="43.2657043" lon="12.3897481"><ele>248.33333333333331</ele><time>2026-05-03T08:58:12.342Z</time></trkpt><trkpt lat="43.2658182" lon="12.3895831"><ele>249.0</ele><time>2026-05-03T08:58:13.342Z</time></trkpt><trkpt lat="43.2659384" lon="12.3894256"><ele>249.0</ele><time>2026-05-03T08:58:14.342Z</time></trkpt><trkpt lat="43.2660646" lon="12.3892723"><ele>249.0</ele><time>2026-05-03T08:58:15.342Z</time></trkpt><trkpt lat="43.2661977" lon="12.3891174"><ele>249.0</ele><time>2026-05-03T08:58:16.342Z</time></trkpt><trkpt lat="43.2663377" lon="12.3889655"><ele>249.0</ele><time>2026-05-03T08:58:17.342Z</time></trkpt><trkpt lat="43.2664765" lon="12.3888172"><ele>249.0</ele><time>2026-05-03T08:58:18.342Z</time></trkpt><trkpt lat="43.266624" lon="12.3886668"><ele>249.0</ele><time>2026-05-03T08:58:19.342Z</time></trkpt><trkpt lat="43.2667649" lon="12.3885089"><ele>249.0</ele><time>2026-05-03T08:58:20.342Z</time></trkpt><trkpt lat="43.2669114" lon="12.3883523"><ele>249.0</ele><time>2026-05-03T08:58:21.342Z</time></trkpt><trkpt lat="43.2670654" lon="12.3881957"><ele>249.0</ele><time>2026-05-03T08:58:22.343Z</time></trkpt><trkpt lat="43.2672203" lon="12.3880385"><ele>249.0</ele><time>2026-05-03T08:58:23.342Z</time></trkpt><trkpt lat="43.2673741" lon="12.3878777"><ele>249.0</ele><time>2026-05-03T08:58:24.342Z</time></trkpt><trkpt lat="43.2675277" lon="12.3877114"><ele>249.0</ele><time>2026-05-03T08:58:25.342Z</time></trkpt><trkpt lat="43.267677" lon="12.3875525"><ele>249.0</ele><time>2026-05-03T08:58:26.342Z</time></trkpt><trkpt lat="43.267827" lon="12.387391"><ele>249.0</ele><time>2026-05-03T08:58:27.342Z</time></trkpt><trkpt lat="43.2679713" lon="12.3872306"><ele>249.0</ele><time>2026-05-03T08:58:28.342Z</time></trkpt><trkpt lat="43.2681102" lon="12.3870602"><ele>249.33333333333331</ele><time>2026-05-03T08:58:29.342Z</time></trkpt><trkpt lat="43.2682437" lon="12.3868892"><ele>249.66666666666666</ele><time>2026-05-03T08:58:30.342Z</time></trkpt><trkpt lat="43.268379" lon="12.3867132"><ele>250.0</ele><time>2026-05-03T08:58:31.342Z</time></trkpt><trkpt lat="43.2685101" lon="12.3865365"><ele>250.0</ele><time>2026-05-03T08:58:32.342Z</time></trkpt><trkpt lat="43.2686406" lon="12.3863544"><ele>250.0</ele><time>2026-05-03T08:58:33.342Z</time></trkpt><trkpt lat="43.2687741" lon="12.386189"><ele>250.0</ele><time>2026-05-03T08:58:34.343Z</time></trkpt><trkpt lat="43.2689067" lon="12.3860096"><ele>250.33333333333331</ele><time>2026-05-03T08:58:35.342Z</time></trkpt><trkpt lat="43.269039" lon="12.3858253"><ele>250.66666666666669</ele><time>2026-05-03T08:58:36.342Z</time></trkpt><trkpt lat="43.2691664" lon="12.3856381"><ele>251.0</ele><time>2026-05-03T08:58:37.343Z</time></trkpt><trkpt lat="43.2692977" lon="12.3854543"><ele>249.33333333333334</ele><time>2026-05-03T08:58:38.342Z</time></trkpt><trkpt lat="43.2694344" lon="12.3852688"><ele>247.66666666666669</ele><time>2026-05-03T08:58:39.342Z</time></trkpt><trkpt lat="43.2695639" lon="12.3850882"><ele>246.0</ele><time>2026-05-03T08:58:40.342Z</time></trkpt><trkpt lat="43.2696988" lon="12.3849108"><ele>245.66666666666669</ele><time>2026-05-03T08:58:41.342Z</time></trkpt><trkpt lat="43.2698308" lon="12.3847288"><ele>245.33333333333334</ele><time>2026-05-03T08:58:42.342Z</time></trkpt><trkpt lat="43.2699636" lon="12.3845403"><ele>245.0</ele><time>2026-05-03T08:58:43.342Z</time></trkpt><trkpt lat="43.2700939" lon="12.3843444"><ele>245.0</ele><time>2026-05-03T08:58:44.342Z</time></trkpt><trkpt lat="43.2702254" lon="12.3841655"><ele>245.0</ele><time>2026-05-03T08:58:45.342Z</time></trkpt><trkpt lat="43.2703511" lon="12.3839845"><ele>245.0</ele><time>2026-05-03T08:58:46.343Z</time></trkpt><trkpt lat="43.2704735" lon="12.3838195"><ele>244.66666666666669</ele><time>2026-05-03T08:58:47.342Z</time></trkpt><trkpt lat="43.2705977" lon="12.3836646"><ele>244.33333333333331</ele><time>2026-05-03T08:58:48.342Z</time></trkpt><trkpt lat="43.2707329" lon="12.3835316"><ele>244.0</ele><time>2026-05-03T08:58:49.342Z</time></trkpt><trkpt lat="43.2708783" lon="12.3834121"><ele>244.0</ele><time>2026-05-03T08:58:50.342Z</time></trkpt><trkpt lat="43.2710303" lon="12.383309"><ele>244.0</ele><time>2026-05-03T08:58:51.343Z</time></trkpt><trkpt lat="43.2711956" lon="12.3832316"><ele>244.0</ele><time>2026-05-03T08:58:52.342Z</time></trkpt><trkpt lat="43.2713569" lon="12.383159"><ele>242.66666666666666</ele><time>2026-05-03T08:58:53.342Z</time></trkpt><trkpt lat="43.2715227" lon="12.3830876"><ele>241.33333333333331</ele><time>2026-05-03T08:58:54.342Z</time></trkpt><trkpt lat="43.2716957" lon="12.38302"><ele>240.0</ele><time>2026-05-03T08:58:55.342Z</time></trkpt><trkpt lat="43.2718699" lon="12.382944"><ele>240.0</ele><time>2026-05-03T08:58:56.342Z</time></trkpt><trkpt lat="43.2720463" lon="12.3828697"><ele>240.0</ele><time>2026-05-03T08:58:57.342Z</time></trkpt><trkpt lat="43.2722228" lon="12.3827787"><ele>240.0</ele><time>2026-05-03T08:58:58.342Z</time></trkpt><trkpt lat="43.2724007" lon="12.3827009"><ele>241.66666666666669</ele><time>2026-05-03T08:58:59.343Z</time></trkpt><trkpt lat="43.2725813" lon="12.38261"><ele>243.33333333333334</ele><time>2026-05-03T08:59:00.342Z</time></trkpt><trkpt lat="43.2727648" lon="12.3825194"><ele>245.0</ele><time>2026-05-03T08:59:01.342Z</time></trkpt><trkpt lat="43.2729544" lon="12.3824254"><ele>244.0</ele><time>2026-05-03T08:59:02.342Z</time></trkpt><trkpt lat="43.2731353" lon="12.3823417"><ele>243.0</ele><time>2026-05-03T08:59:03.342Z</time></trkpt><trkpt lat="43.273303" lon="12.3822537"><ele>242.0</ele><time>2026-05-03T08:59:04.342Z</time></trkpt><trkpt lat="43.2734528" lon="12.3821547"><ele>242.0</ele><time>2026-05-03T08:59:05.342Z</time></trkpt><trkpt lat="43.2736046" lon="12.3820626"><ele>242.0</ele><time>2026-05-03T08:59:06.343Z</time></trkpt><trkpt lat="43.2737439" lon="12.3819579"><ele>242.0</ele><time>2026-05-03T08:59:07.343Z</time></trkpt><trkpt lat="43.2738846" lon="12.3818476"><ele>244.66666666666669</ele><time>2026-05-03T08:59:08.343Z</time></trkpt><trkpt lat="43.2740261" lon="12.381738"><ele>247.33333333333331</ele><time>2026-05-03T08:59:09.343Z</time></trkpt><trkpt lat="43.2741786" lon="12.3816358"><ele>250.0</ele><time>2026-05-03T08:59:10.342Z</time></trkpt><trkpt lat="43.2743332" lon="12.3815399"><ele>250.0</ele><time>2026-05-03T08:59:11.343Z</time></trkpt><trkpt lat="43.2744975" lon="12.3814469"><ele>250.0</ele><time>2026-05-03T08:59:12.343Z</time></trkpt><trkpt lat="43.274663" lon="12.3813595"><ele>250.0</ele><time>2026-05-03T08:59:13.342Z</time></trkpt><trkpt lat="43.2748244" lon="12.3812826"><ele>248.0</ele><time>2026-05-03T08:59:14.342Z</time></trkpt><trkpt lat="43.2750012" lon="12.3812158"><ele>246.0</ele><time>2026-05-03T08:59:15.342Z</time></trkpt><trkpt lat="43.2751808" lon="12.3811797"><ele>244.0</ele><time>2026-05-03T08:59:16.342Z</time></trkpt><trkpt lat="43.2753629" lon="12.3811705"><ele>244.0</ele><time>2026-05-03T08:59:17.342Z</time></trkpt><trkpt lat="43.2755447" lon="12.3811662"><ele>244.0</ele><time>2026-05-03T08:59:18.342Z</time></trkpt><trkpt lat="43.275724" lon="12.3811732"><ele>244.0</ele><time>2026-05-03T08:59:19.342Z</time></trkpt><trkpt lat="43.2759115" lon="12.3811982"><ele>243.66666666666666</ele><time>2026-05-03T08:59:20.342Z</time></trkpt><trkpt lat="43.2760956" lon="12.3812409"><ele>243.33333333333331</ele><time>2026-05-03T08:59:21.342Z</time></trkpt><trkpt lat="43.2762749" lon="12.3812819"><ele>243.0</ele><time>2026-05-03T08:59:22.342Z</time></trkpt><trkpt lat="43.2764543" lon="12.3813305"><ele>246.66666666666669</ele><time>2026-05-03T08:59:23.343Z</time></trkpt><trkpt lat="43.2766297" lon="12.3813808"><ele>250.33333333333334</ele><time>2026-05-03T08:59:24.343Z</time></trkpt><trkpt lat="43.2768069" lon="12.3814192"><ele>254.0</ele><time>2026-05-03T08:59:25.342Z</time></trkpt><trkpt lat="43.2769865" lon="12.3814456"><ele>254.0</ele><time>2026-05-03T08:59:26.342Z</time></trkpt><trkpt lat="43.2771572" lon="12.3814387"><ele>254.0</ele><time>2026-05-03T08:59:27.342Z</time></trkpt><trkpt lat="43.2773362" lon="12.3813988"><ele>254.0</ele><time>2026-05-03T08:59:28.342Z</time></trkpt><trkpt lat="43.2775199" lon="12.3813318"><ele>250.0</ele><time>2026-05-03T08:59:29.343Z</time></trkpt><trkpt lat="43.2777037" lon="12.3812584"><ele>246.0</ele><time>2026-05-03T08:59:30.342Z</time></trkpt><trkpt lat="43.2778905" lon="12.381194"><ele>242.0</ele><time>2026-05-03T08:59:31.342Z</time></trkpt><trkpt lat="43.2780762" lon="12.3811273"><ele>243.0</ele><time>2026-05-03T08:59:32.343Z</time></trkpt><trkpt lat="43.2782682" lon="12.3810463"><ele>244.0</ele><time>2026-05-03T08:59:33.342Z</time></trkpt><trkpt lat="43.2784648" lon="12.3809608"><ele>245.0</ele><time>2026-05-03T08:59:34.343Z</time></trkpt><trkpt lat="43.2786576" lon="12.3808855"><ele>245.0</ele><time>2026-05-03T08:59:35.342Z</time></trkpt><trkpt lat="43.278858" lon="12.3808076"><ele>245.0</ele><time>2026-05-03T08:59:36.342Z</time></trkpt><trkpt lat="43.2790488" lon="12.3807377"><ele>245.0</ele><time>2026-05-03T08:59:37.342Z</time></trkpt><trkpt lat="43.2792404" lon="12.380657"><ele>245.33333333333334</ele><time>2026-05-03T08:59:38.342Z</time></trkpt><trkpt lat="43.2794199" lon="12.3805802"><ele>245.66666666666669</ele><time>2026-05-03T08:59:39.342Z</time></trkpt><trkpt lat="43.2795885" lon="12.3805036"><ele>246.0</ele><time>2026-05-03T08:59:40.342Z</time></trkpt><trkpt lat="43.2797506" lon="12.3804215"><ele>247.0</ele><time>2026-05-03T08:59:41.342Z</time></trkpt><trkpt lat="43.2799032" lon="12.3803141"><ele>248.0</ele><time>2026-05-03T08:59:42.343Z</time></trkpt><trkpt lat="43.2800467" lon="12.3801751"><ele>249.0</ele><time>2026-05-03T08:59:43.343Z</time></trkpt><trkpt lat="43.2801773" lon="12.3799993"><ele>249.0</ele><time>2026-05-03T08:59:44.342Z</time></trkpt><trkpt lat="43.2803044" lon="12.3798143"><ele>249.0</ele><time>2026-05-03T08:59:45.342Z</time></trkpt><trkpt lat="43.2804234" lon="12.3796273"><ele>249.0</ele><time>2026-05-03T08:59:46.342Z</time></trkpt><trkpt lat="43.2805432" lon="12.3794456"><ele>248.33333333333331</ele><time>2026-05-03T08:59:47.342Z</time></trkpt><trkpt lat="43.2806626" lon="12.3792678"><ele>247.66666666666666</ele><time>2026-05-03T08:59:48.342Z</time></trkpt><trkpt lat="43.2807879" lon="12.3791042"><ele>247.0</ele><time>2026-05-03T08:59:49.342Z</time></trkpt><trkpt lat="43.2809105" lon="12.3789457"><ele>244.66666666666666</ele><time>2026-05-03T08:59:50.342Z</time></trkpt><trkpt lat="43.2810567" lon="12.3788029"><ele>242.33333333333331</ele><time>2026-05-03T08:59:51.342Z</time></trkpt><trkpt lat="43.2812206" lon="12.3786788"><ele>240.0</ele><time>2026-05-03T08:59:52.342Z</time></trkpt><trkpt lat="43.2813912" lon="12.3785535"><ele>241.0</ele><time>2026-05-03T08:59:53.342Z</time></trkpt><trkpt lat="43.2815637" lon="12.378435"><ele>242.0</ele><time>2026-05-03T08:59:54.342Z</time></trkpt><trkpt lat="43.2817402" lon="12.3783188"><ele>243.0</ele><time>2026-05-03T08:59:55.342Z</time></trkpt><trkpt lat="43.2819149" lon="12.3781801"><ele>243.0</ele><time>2026-05-03T08:59:56.342Z</time></trkpt><trkpt lat="43.2820994" lon="12.3780566"><ele>243.0</ele><time>2026-05-03T08:59:57.342Z</time></trkpt><trkpt lat="43.2822717" lon="12.3779327"><ele>243.0</ele><time>2026-05-03T08:59:58.342Z</time></trkpt><trkpt lat="43.2824293" lon="12.3778109"><ele>242.33333333333331</ele><time>2026-05-03T08:59:59.342Z</time></trkpt><trkpt lat="43.2825638" lon="12.3776555"><ele>241.66666666666666</ele><time>2026-05-03T09:00:00.342Z</time></trkpt><trkpt lat="43.2826847" lon="12.3774822"><ele>241.0</ele><time>2026-05-03T09:00:01.342Z</time></trkpt><trkpt lat="43.2827963" lon="12.3772662"><ele>240.0</ele><time>2026-05-03T09:00:02.342Z</time></trkpt><trkpt lat="43.2828846" lon="12.377031"><ele>239.0</ele><time>2026-05-03T09:00:03.342Z</time></trkpt><trkpt lat="43.2829762" lon="12.3767929"><ele>238.0</ele><time>2026-05-03T09:00:04.342Z</time></trkpt><trkpt lat="43.2830727" lon="12.3765496"><ele>239.0</ele><time>2026-05-03T09:00:05.342Z</time></trkpt><trkpt lat="43.2831689" lon="12.3762906"><ele>240.0</ele><time>2026-05-03T09:00:06.342Z</time></trkpt><trkpt lat="43.2832659" lon="12.3760402"><ele>241.0</ele><time>2026-05-03T09:00:07.342Z</time></trkpt><trkpt lat="43.2833611" lon="12.3757865"><ele>241.0</ele><time>2026-05-03T09:00:08.342Z</time></trkpt><trkpt lat="43.2834531" lon="12.3755425"><ele>241.0</ele><time>2026-05-03T09:00:09.342Z</time></trkpt><trkpt lat="43.2835423" lon="12.3753017"><ele>241.0</ele><time>2026-05-03T09:00:10.342Z</time></trkpt><trkpt lat="43.2836273" lon="12.3750679"><ele>241.33333333333331</ele><time>2026-05-03T09:00:11.342Z</time></trkpt><trkpt lat="43.2837128" lon="12.3748456"><ele>241.66666666666669</ele><time>2026-05-03T09:00:12.342Z</time></trkpt><trkpt lat="43.2837952" lon="12.3746257"><ele>242.0</ele><time>2026-05-03T09:00:13.342Z</time></trkpt><trkpt lat="43.2838851" lon="12.3743963"><ele>242.0</ele><time>2026-05-03T09:00:14.342Z</time></trkpt><trkpt lat="43.2839659" lon="12.374161"><ele>242.0</ele><time>2026-05-03T09:00:15.342Z</time></trkpt><trkpt lat="43.2840602" lon="12.3739226"><ele>242.0</ele><time>2026-05-03T09:00:16.342Z</time></trkpt><trkpt lat="43.2841521" lon="12.3736908"><ele>242.0</ele><time>2026-05-03T09:00:17.342Z</time></trkpt><trkpt lat="43.284246" lon="12.3734591"><ele>242.0</ele><time>2026-05-03T09:00:18.342Z</time></trkpt><trkpt lat="43.2843338" lon="12.3732185"><ele>242.0</ele><time>2026-05-03T09:00:19.343Z</time></trkpt><trkpt lat="43.2844231" lon="12.3730005"><ele>242.0</ele><time>2026-05-03T09:00:20.342Z</time></trkpt><trkpt lat="43.2845116" lon="12.3727931"><ele>242.0</ele><time>2026-05-03T09:00:21.342Z</time></trkpt><trkpt lat="43.2846129" lon="12.3726035"><ele>242.0</ele><time>2026-05-03T09:00:22.342Z</time></trkpt><trkpt lat="43.284721" lon="12.3724197"><ele>242.0</ele><time>2026-05-03T09:00:23.342Z</time></trkpt><trkpt lat="43.2848499" lon="12.3722498"><ele>242.0</ele><time>2026-05-03T09:00:24.342Z</time></trkpt><trkpt lat="43.2849858" lon="12.3720987"><ele>242.0</ele><time>2026-05-03T09:00:25.342Z</time></trkpt><trkpt lat="43.285144" lon="12.3719696"><ele>241.66666666666669</ele><time>2026-05-03T09:00:26.342Z</time></trkpt><trkpt lat="43.2853027" lon="12.3718406"><ele>241.33333333333331</ele><time>2026-05-03T09:00:27.342Z</time></trkpt><trkpt lat="43.2854679" lon="12.3717146"><ele>241.0</ele><time>2026-05-03T09:00:28.342Z</time></trkpt><trkpt lat="43.2856305" lon="12.3715851"><ele>240.33333333333331</ele><time>2026-05-03T09:00:29.342Z</time></trkpt><trkpt lat="43.2857909" lon="12.3714584"><ele>239.66666666666669</ele><time>2026-05-03T09:00:30.342Z</time></trkpt><trkpt lat="43.2859384" lon="12.3713408"><ele>239.0</ele><time>2026-05-03T09:00:31.342Z</time></trkpt><trkpt lat="43.2860825" lon="12.3712285"><ele>239.0</ele><time>2026-05-03T09:00:32.342Z</time></trkpt><trkpt lat="43.2862095" lon="12.3711309"><ele>239.0</ele><time>2026-05-03T09:00:33.342Z</time></trkpt><trkpt lat="43.2863218" lon="12.371046"><ele>239.0</ele><time>2026-05-03T09:00:34.342Z</time></trkpt><trkpt lat="43.2864335" lon="12.3709786"><ele>239.0</ele><time>2026-05-03T09:00:35.343Z</time></trkpt><trkpt lat="43.2865529" lon="12.370925"><ele>239.25</ele><time>2026-05-03T09:00:36.342Z</time></trkpt><trkpt lat="43.2866697" lon="12.3708882"><ele>239.5</ele><time>2026-05-03T09:00:37.342Z</time></trkpt><trkpt lat="43.2867884" lon="12.3708689"><ele>239.75</ele><time>2026-05-03T09:00:38.342Z</time></trkpt><trkpt lat="43.2869072" lon="12.370875"><ele>240.0</ele><time>2026-05-03T09:00:39.343Z</time></trkpt><trkpt lat="43.287038" lon="12.3709071"><ele>240.0</ele><time>2026-05-03T09:00:40.342Z</time></trkpt><trkpt lat="43.2871705" lon="12.3709637"><ele>240.0</ele><time>2026-05-03T09:00:41.342Z</time></trkpt><trkpt lat="43.2872954" lon="12.3710243"><ele>240.0</ele><time>2026-05-03T09:00:42.342Z</time></trkpt><trkpt lat="43.287433" lon="12.3710977"><ele>240.0</ele><time>2026-05-03T09:00:43.342Z</time></trkpt><trkpt lat="43.2875604" lon="12.3711795"><ele>239.66666666666669</ele><time>2026-05-03T09:00:44.342Z</time></trkpt><trkpt lat="43.2876912" lon="12.3712743"><ele>239.33333333333334</ele><time>2026-05-03T09:00:45.342Z</time></trkpt><trkpt lat="43.2878264" lon="12.3713758"><ele>239.0</ele><time>2026-05-03T09:00:46.342Z</time></trkpt><trkpt lat="43.2879602" lon="12.3714687"><ele>240.33333333333334</ele><time>2026-05-03T09:00:47.343Z</time></trkpt><trkpt lat="43.2880967" lon="12.3715598"><ele>241.66666666666669</ele><time>2026-05-03T09:00:48.342Z</time></trkpt><trkpt lat="43.2882331" lon="12.37165"><ele>243.0</ele><time>2026-05-03T09:00:49.342Z</time></trkpt><trkpt lat="43.2883664" lon="12.3717404"><ele>243.0</ele><time>2026-05-03T09:00:50.342Z</time></trkpt><trkpt lat="43.288503" lon="12.3718326"><ele>243.0</ele><time>2026-05-03T09:00:51.342Z</time></trkpt><trkpt lat="43.2886436" lon="12.3719419"><ele>243.0</ele><time>2026-05-03T09:00:52.342Z</time></trkpt><trkpt lat="43.2887764" lon="12.3720275"><ele>243.0</ele><time>2026-05-03T09:00:53.342Z</time></trkpt><trkpt lat="43.2889207" lon="12.3721275"><ele>243.0</ele><time>2026-05-03T09:00:54.343Z</time></trkpt><trkpt lat="43.2890555" lon="12.3722181"><ele>243.0</ele><time>2026-05-03T09:00:55.342Z</time></trkpt><trkpt lat="43.289192" lon="12.3723035"><ele>241.33333333333331</ele><time>2026-05-03T09:00:56.342Z</time></trkpt><trkpt lat="43.2893381" lon="12.3724013"><ele>239.66666666666666</ele><time>2026-05-03T09:00:57.342Z</time></trkpt><trkpt lat="43.2894941" lon="12.3724972"><ele>238.0</ele><time>2026-05-03T09:00:58.342Z</time></trkpt><trkpt lat="43.2896507" lon="12.3726072"><ele>238.33333333333331</ele><time>2026-05-03T09:00:59.342Z</time></trkpt><trkpt lat="43.2898196" lon="12.3726925"><ele>238.66666666666669</ele><time>2026-05-03T09:01:00.342Z</time></trkpt><trkpt lat="43.289963" lon="12.3727807"><ele>239.0</ele><time>2026-05-03T09:01:01.342Z</time></trkpt><trkpt lat="43.2901086" lon="12.3728669"><ele>239.0</ele><time>2026-05-03T09:01:02.343Z</time></trkpt><trkpt lat="43.2902521" lon="12.372958"><ele>239.0</ele><time>2026-05-03T09:01:03.342Z</time></trkpt><trkpt lat="43.2903951" lon="12.3730441"><ele>239.0</ele><time>2026-05-03T09:01:04.342Z</time></trkpt><trkpt lat="43.2905434" lon="12.3731432"><ele>239.66666666666669</ele><time>2026-05-03T09:01:05.342Z</time></trkpt><trkpt lat="43.2906898" lon="12.3732435"><ele>240.33333333333331</ele><time>2026-05-03T09:01:06.342Z</time></trkpt><trkpt lat="43.2908389" lon="12.3733473"><ele>241.0</ele><time>2026-05-03T09:01:07.342Z</time></trkpt><trkpt lat="43.2909812" lon="12.3734511"><ele>241.0</ele><time>2026-05-03T09:01:08.342Z</time></trkpt><trkpt lat="43.2911215" lon="12.3735636"><ele>241.0</ele><time>2026-05-03T09:01:09.343Z</time></trkpt><trkpt lat="43.2912613" lon="12.3736692"><ele>241.0</ele><time>2026-05-03T09:01:10.342Z</time></trkpt><trkpt lat="43.2913939" lon="12.3737885"><ele>240.66666666666666</ele><time>2026-05-03T09:01:11.342Z</time></trkpt><trkpt lat="43.2915251" lon="12.3739182"><ele>240.33333333333331</ele><time>2026-05-03T09:01:12.342Z</time></trkpt><trkpt lat="43.2916617" lon="12.3740444"><ele>240.0</ele><time>2026-05-03T09:01:13.342Z</time></trkpt><trkpt lat="43.2917976" lon="12.3741753"><ele>240.0</ele><time>2026-05-03T09:01:14.342Z</time></trkpt><trkpt lat="43.2919314" lon="12.3743172"><ele>240.0</ele><time>2026-05-03T09:01:15.342Z</time></trkpt><trkpt lat="43.2920673" lon="12.3744575"><ele>240.0</ele><time>2026-05-03T09:01:16.343Z</time></trkpt><trkpt lat="43.2922041" lon="12.3745982"><ele>239.33333333333331</ele><time>2026-05-03T09:01:17.342Z</time></trkpt><trkpt lat="43.29234" lon="12.374739"><ele>238.66666666666666</ele><time>2026-05-03T09:01:18.342Z</time></trkpt><trkpt lat="43.292477" lon="12.3748873"><ele>238.0</ele><time>2026-05-03T09:01:19.342Z</time></trkpt><trkpt lat="43.2926145" lon="12.3750312"><ele>238.0</ele><time>2026-05-03T09:01:20.343Z</time></trkpt><trkpt lat="43.2927496" lon="12.3751758"><ele>238.0</ele><time>2026-05-03T09:01:21.342Z</time></trkpt><trkpt lat="43.2928829" lon="12.3753286"><ele>238.0</ele><time>2026-05-03T09:01:22.342Z</time></trkpt><trkpt lat="43.2930185" lon="12.3754767"><ele>239.0</ele><time>2026-05-03T09:01:23.343Z</time></trkpt><trkpt lat="43.2931526" lon="12.3756269"><ele>240.0</ele><time>2026-05-03T09:01:24.342Z</time></trkpt><trkpt lat="43.2932902" lon="12.3757736"><ele>241.0</ele><time>2026-05-03T09:01:25.343Z</time></trkpt><trkpt lat="43.2934322" lon="12.3759179"><ele>241.0</ele><time>2026-05-03T09:01:26.342Z</time></trkpt><trkpt lat="43.2935742" lon="12.3760666"><ele>241.0</ele><time>2026-05-03T09:01:27.342Z</time></trkpt><trkpt lat="43.2937159" lon="12.3762196"><ele>241.0</ele><time>2026-05-03T09:01:28.342Z</time></trkpt><trkpt lat="43.2938594" lon="12.3763652"><ele>240.66666666666666</ele><time>2026-05-03T09:01:29.342Z</time></trkpt><trkpt lat="43.2940038" lon="12.3765162"><ele>240.33333333333331</ele><time>2026-05-03T09:01:30.342Z</time></trkpt><trkpt lat="43.2941567" lon="12.3766627"><ele>240.0</ele><time>2026-05-03T09:01:31.342Z</time></trkpt><trkpt lat="43.2943075" lon="12.3768063"><ele>240.0</ele><time>2026-05-03T09:01:32.342Z</time></trkpt><trkpt lat="43.2944621" lon="12.3769522"><ele>240.0</ele><time>2026-05-03T09:01:33.342Z</time></trkpt><trkpt lat="43.294614" lon="12.377094"><ele>240.0</ele><time>2026-05-03T09:01:34.342Z</time></trkpt><trkpt lat="43.2947655" lon="12.3772458"><ele>242.33333333333331</ele><time>2026-05-03T09:01:35.342Z</time></trkpt><trkpt lat="43.2949125" lon="12.3774003"><ele>244.66666666666666</ele><time>2026-05-03T09:01:36.342Z</time></trkpt><trkpt lat="43.2950588" lon="12.3775581"><ele>247.0</ele><time>2026-05-03T09:01:37.342Z</time></trkpt><trkpt lat="43.2952052" lon="12.3777085"><ele>247.0</ele><time>2026-05-03T09:01:38.342Z</time></trkpt><trkpt lat="43.2953614" lon="12.3778637"><ele>247.0</ele><time>2026-05-03T09:01:39.342Z</time></trkpt><trkpt lat="43.2955101" lon="12.3780128"><ele>247.0</ele><time>2026-05-03T09:01:40.342Z</time></trkpt><trkpt lat="43.2956709" lon="12.3781641"><ele>246.0</ele><time>2026-05-03T09:01:41.342Z</time></trkpt><trkpt lat="43.2958158" lon="12.378314"><ele>245.0</ele><time>2026-05-03T09:01:42.342Z</time></trkpt><trkpt lat="43.2959495" lon="12.3784554"><ele>244.0</ele><time>2026-05-03T09:01:43.342Z</time></trkpt><trkpt lat="43.2960684" lon="12.3785788"><ele>244.0</ele><time>2026-05-03T09:01:44.342Z</time></trkpt><trkpt lat="43.2961736" lon="12.3786982"><ele>244.0</ele><time>2026-05-03T09:01:45.342Z</time></trkpt><trkpt lat="43.2962811" lon="12.3788117"><ele>244.0</ele><time>2026-05-03T09:01:46.342Z</time></trkpt><trkpt lat="43.2963805" lon="12.378925"><ele>244.0</ele><time>2026-05-03T09:01:47.342Z</time></trkpt><trkpt lat="43.2964753" lon="12.3790252"><ele>245.0</ele><time>2026-05-03T09:01:48.342Z</time></trkpt><trkpt lat="43.2965687" lon="12.3791234"><ele>246.0</ele><time>2026-05-03T09:01:49.343Z</time></trkpt><trkpt lat="43.2966589" lon="12.3792093"><ele>247.0</ele><time>2026-05-03T09:01:50.342Z</time></trkpt><trkpt lat="43.2967492" lon="12.3793071"><ele>248.0</ele><time>2026-05-03T09:01:51.342Z</time></trkpt><trkpt lat="43.2968555" lon="12.3793927"><ele>248.0</ele><time>2026-05-03T09:01:52.342Z</time></trkpt><trkpt lat="43.2969583" lon="12.37947"><ele>248.0</ele><time>2026-05-03T09:01:53.343Z</time></trkpt><trkpt lat="43.2970674" lon="12.3795405"><ele>248.0</ele><time>2026-05-03T09:01:54.342Z</time></trkpt><trkpt lat="43.297188" lon="12.3796108"><ele>248.0</ele><time>2026-05-03T09:01:55.342Z</time></trkpt><trkpt lat="43.2973149" lon="12.3796787"><ele>249.33333333333334</ele><time>2026-05-03T09:01:56.342Z</time></trkpt><trkpt lat="43.2974534" lon="12.379725"><ele>250.66666666666669</ele><time>2026-05-03T09:01:57.342Z</time></trkpt><trkpt lat="43.297607" lon="12.3797715"><ele>252.0</ele><time>2026-05-03T09:01:58.342Z</time></trkpt><trkpt lat="43.2977638" lon="12.3797934"><ele>252.0</ele><time>2026-05-03T09:01:59.342Z</time></trkpt><trkpt lat="43.2979302" lon="12.379799"><ele>252.0</ele><time>2026-05-03T09:02:00.342Z</time></trkpt><trkpt lat="43.2981091" lon="12.3798165"><ele>252.0</ele><time>2026-05-03T09:02:01.342Z</time></trkpt><trkpt lat="43.2982913" lon="12.3798232"><ele>252.33333333333331</ele><time>2026-05-03T09:02:02.342Z</time></trkpt><trkpt lat="43.2984776" lon="12.3798285"><ele>252.66666666666666</ele><time>2026-05-03T09:02:03.342Z</time></trkpt><trkpt lat="43.298666" lon="12.3798311"><ele>253.0</ele><time>2026-05-03T09:02:04.342Z</time></trkpt><trkpt lat="43.2988546" lon="12.3798365"><ele>254.0</ele><time>2026-05-03T09:02:05.343Z</time></trkpt><trkpt lat="43.2990426" lon="12.3798381"><ele>255.0</ele><time>2026-05-03T09:02:06.342Z</time></trkpt><trkpt lat="43.2992346" lon="12.3798423"><ele>256.0</ele><time>2026-05-03T09:02:07.342Z</time></trkpt><trkpt lat="43.2994242" lon="12.3798538"><ele>256.0</ele><time>2026-05-03T09:02:08.342Z</time></trkpt><trkpt lat="43.299614" lon="12.3798603"><ele>256.0</ele><time>2026-05-03T09:02:09.342Z</time></trkpt><trkpt lat="43.2998114" lon="12.3798719"><ele>256.0</ele><time>2026-05-03T09:02:10.342Z</time></trkpt><trkpt lat="43.3000032" lon="12.3798765"><ele>256.3333333333333</ele><time>2026-05-03T09:02:11.342Z</time></trkpt><trkpt lat="43.300195" lon="12.3798868"><ele>256.6666666666667</ele><time>2026-05-03T09:02:12.342Z</time></trkpt><trkpt lat="43.3003885" lon="12.3798902"><ele>257.0</ele><time>2026-05-03T09:02:13.342Z</time></trkpt><trkpt lat="43.3005881" lon="12.3798942"><ele>257.0</ele><time>2026-05-03T09:02:14.342Z</time></trkpt><trkpt lat="43.3007868" lon="12.3798933"><ele>257.0</ele><time>2026-05-03T09:02:15.342Z</time></trkpt><trkpt lat="43.3009845" lon="12.3798961"><ele>257.0</ele><time>2026-05-03T09:02:16.342Z</time></trkpt><trkpt lat="43.3011879" lon="12.3799016"><ele>257.0</ele><time>2026-05-03T09:02:17.342Z</time></trkpt><trkpt lat="43.3013919" lon="12.3799053"><ele>257.0</ele><time>2026-05-03T09:02:18.342Z</time></trkpt><trkpt lat="43.3015957" lon="12.3799055"><ele>257.0</ele><time>2026-05-03T09:02:19.341Z</time></trkpt><trkpt lat="43.3018038" lon="12.3799149"><ele>256.6666666666667</ele><time>2026-05-03T09:02:20.342Z</time></trkpt><trkpt lat="43.3020076" lon="12.3799237"><ele>256.3333333333333</ele><time>2026-05-03T09:02:21.342Z</time></trkpt><trkpt lat="43.3022147" lon="12.3799239"><ele>256.0</ele><time>2026-05-03T09:02:22.342Z</time></trkpt><trkpt lat="43.3024203" lon="12.3799359"><ele>256.66666666666663</ele><time>2026-05-03T09:02:23.342Z</time></trkpt><trkpt lat="43.3026216" lon="12.3799501"><ele>257.3333333333333</ele><time>2026-05-03T09:02:24.342Z</time></trkpt><trkpt lat="43.3028226" lon="12.3799575"><ele>258.0</ele><time>2026-05-03T09:02:25.342Z</time></trkpt><trkpt lat="43.3030196" lon="12.3799581"><ele>258.6666666666667</ele><time>2026-05-03T09:02:26.342Z</time></trkpt><trkpt lat="43.3032193" lon="12.379974"><ele>259.33333333333337</ele><time>2026-05-03T09:02:27.342Z</time></trkpt><trkpt lat="43.3034249" lon="12.3799804"><ele>260.0</ele><time>2026-05-03T09:02:28.342Z</time></trkpt><trkpt lat="43.3036261" lon="12.3799825"><ele>260.0</ele><time>2026-05-03T09:02:29.342Z</time></trkpt><trkpt lat="43.3038244" lon="12.3799881"><ele>260.0</ele><time>2026-05-03T09:02:30.342Z</time></trkpt><trkpt lat="43.3040245" lon="12.3799931"><ele>260.0</ele><time>2026-05-03T09:02:31.343Z</time></trkpt><trkpt lat="43.3042259" lon="12.379997"><ele>259.33333333333337</ele><time>2026-05-03T09:02:32.342Z</time></trkpt><trkpt lat="43.3044314" lon="12.3800143"><ele>258.6666666666667</ele><time>2026-05-03T09:02:33.342Z</time></trkpt><trkpt lat="43.3046339" lon="12.3800194"><ele>258.0</ele><time>2026-05-03T09:02:34.342Z</time></trkpt><trkpt lat="43.3048341" lon="12.3800272"><ele>257.6666666666667</ele><time>2026-05-03T09:02:35.342Z</time></trkpt><trkpt lat="43.3050272" lon="12.3800492"><ele>257.33333333333337</ele><time>2026-05-03T09:02:36.342Z</time></trkpt><trkpt lat="43.3052168" lon="12.3800886"><ele>257.0</ele><time>2026-05-03T09:02:37.342Z</time></trkpt><trkpt lat="43.305402" lon="12.3801643"><ele>257.0</ele><time>2026-05-03T09:02:38.342Z</time></trkpt><trkpt lat="43.3055755" lon="12.3802609"><ele>257.0</ele><time>2026-05-03T09:02:39.342Z</time></trkpt><trkpt lat="43.3057337" lon="12.3803724"><ele>257.0</ele><time>2026-05-03T09:02:40.342Z</time></trkpt><trkpt lat="43.3058766" lon="12.3804912"><ele>259.0</ele><time>2026-05-03T09:02:41.342Z</time></trkpt><trkpt lat="43.3060084" lon="12.3806066"><ele>261.0</ele><time>2026-05-03T09:02:42.343Z</time></trkpt><trkpt lat="43.3061445" lon="12.3807253"><ele>263.0</ele><time>2026-05-03T09:02:43.342Z</time></trkpt><trkpt lat="43.3062757" lon="12.3808417"><ele>260.6666666666667</ele><time>2026-05-03T09:02:44.342Z</time></trkpt><trkpt lat="43.3064227" lon="12.3809552"><ele>258.3333333333333</ele><time>2026-05-03T09:02:45.342Z</time></trkpt><trkpt lat="43.3065641" lon="12.3810712"><ele>256.0</ele><time>2026-05-03T09:02:46.342Z</time></trkpt><trkpt lat="43.3067129" lon="12.3811939"><ele>256.0</ele><time>2026-05-03T09:02:47.342Z</time></trkpt><trkpt lat="43.3068655" lon="12.3813158"><ele>256.0</ele><time>2026-05-03T09:02:48.342Z</time></trkpt><trkpt lat="43.3070271" lon="12.3814467"><ele>256.0</ele><time>2026-05-03T09:02:49.342Z</time></trkpt><trkpt lat="43.3071906" lon="12.3815819"><ele>256.3333333333333</ele><time>2026-05-03T09:02:50.342Z</time></trkpt><trkpt lat="43.3073537" lon="12.3817199"><ele>256.6666666666667</ele><time>2026-05-03T09:02:51.342Z</time></trkpt><trkpt lat="43.3075181" lon="12.3818551"><ele>257.0</ele><time>2026-05-03T09:02:52.342Z</time></trkpt><trkpt lat="43.3076872" lon="12.3819806"><ele>257.0</ele><time>2026-05-03T09:02:53.342Z</time></trkpt><trkpt lat="43.3078626" lon="12.382092"><ele>257.0</ele><time>2026-05-03T09:02:54.342Z</time></trkpt><trkpt lat="43.3080365" lon="12.382186"><ele>257.0</ele><time>2026-05-03T09:02:55.342Z</time></trkpt><trkpt lat="43.3082185" lon="12.3822542"><ele>261.33333333333337</ele><time>2026-05-03T09:02:56.342Z</time></trkpt><trkpt lat="43.3084113" lon="12.3823013"><ele>265.6666666666667</ele><time>2026-05-03T09:02:57.342Z</time></trkpt><trkpt lat="43.3086109" lon="12.38233"><ele>270.0</ele><time>2026-05-03T09:02:58.342Z</time></trkpt><trkpt lat="43.3088143" lon="12.3823416"><ele>268.3333333333333</ele><time>2026-05-03T09:02:59.342Z</time></trkpt><trkpt lat="43.3090153" lon="12.3823422"><ele>266.66666666666663</ele><time>2026-05-03T09:03:00.342Z</time></trkpt><trkpt lat="43.3092283" lon="12.3823533"><ele>265.0</ele><time>2026-05-03T09:03:01.342Z</time></trkpt><trkpt lat="43.3094382" lon="12.3823593"><ele>265.0</ele><time>2026-05-03T09:03:02.342Z</time></trkpt><trkpt lat="43.3096464" lon="12.3823671"><ele>265.0</ele><time>2026-05-03T09:03:03.342Z</time></trkpt><trkpt lat="43.309851" lon="12.3823698"><ele>265.0</ele><time>2026-05-03T09:03:04.342Z</time></trkpt><trkpt lat="43.3100582" lon="12.3823786"><ele>265.66666666666663</ele><time>2026-05-03T09:03:05.342Z</time></trkpt><trkpt lat="43.3102739" lon="12.3823938"><ele>266.3333333333333</ele><time>2026-05-03T09:03:06.342Z</time></trkpt><trkpt lat="43.3104782" lon="12.3823993"><ele>267.0</ele><time>2026-05-03T09:03:07.342Z</time></trkpt><trkpt lat="43.3106803" lon="12.3824079"><ele>267.3333333333333</ele><time>2026-05-03T09:03:08.342Z</time></trkpt><trkpt lat="43.3108822" lon="12.3824155"><ele>267.66666666666663</ele><time>2026-05-03T09:03:09.342Z</time></trkpt><trkpt lat="43.3110877" lon="12.3824289"><ele>268.0</ele><time>2026-05-03T09:03:10.342Z</time></trkpt><trkpt lat="43.3112952" lon="12.3824294"><ele>267.66666666666663</ele><time>2026-05-03T09:03:11.342Z</time></trkpt><trkpt lat="43.3115093" lon="12.3824404"><ele>267.3333333333333</ele><time>2026-05-03T09:03:12.342Z</time></trkpt><trkpt lat="43.3117227" lon="12.3824396"><ele>267.0</ele><time>2026-05-03T09:03:13.342Z</time></trkpt><trkpt lat="43.311936" lon="12.3824441"><ele>267.0</ele><time>2026-05-03T09:03:14.342Z</time></trkpt><trkpt lat="43.3121501" lon="12.3824437"><ele>267.0</ele><time>2026-05-03T09:03:15.342Z</time></trkpt><trkpt lat="43.3123573" lon="12.3824547"><ele>267.0</ele><time>2026-05-03T09:03:16.342Z</time></trkpt><trkpt lat="43.3125581" lon="12.3824665"><ele>266.6666666666667</ele><time>2026-05-03T09:03:17.342Z</time></trkpt><trkpt lat="43.312752" lon="12.3824686"><ele>266.33333333333337</ele><time>2026-05-03T09:03:18.342Z</time></trkpt><trkpt lat="43.3129398" lon="12.382481"><ele>266.0</ele><time>2026-05-03T09:03:19.342Z</time></trkpt><trkpt lat="43.3131254" lon="12.3824983"><ele>266.0</ele><time>2026-05-03T09:03:20.342Z</time></trkpt><trkpt lat="43.3133041" lon="12.3825328"><ele>266.0</ele><time>2026-05-03T09:03:21.343Z</time></trkpt><trkpt lat="43.3134872" lon="12.3825825"><ele>266.0</ele><time>2026-05-03T09:03:22.342Z</time></trkpt><trkpt lat="43.3136694" lon="12.3826614"><ele>266.0</ele><time>2026-05-03T09:03:23.342Z</time></trkpt><trkpt lat="43.3138427" lon="12.3827555"><ele>266.0</ele><time>2026-05-03T09:03:24.342Z</time></trkpt><trkpt lat="43.3139982" lon="12.3828989"><ele>266.0</ele><time>2026-05-03T09:03:25.342Z</time></trkpt><trkpt lat="43.314131" lon="12.3830591"><ele>267.0</ele><time>2026-05-03T09:03:26.342Z</time></trkpt><trkpt lat="43.3142557" lon="12.3832401"><ele>268.0</ele><time>2026-05-03T09:03:27.342Z</time></trkpt><trkpt lat="43.3143776" lon="12.3834359"><ele>269.0</ele><time>2026-05-03T09:03:28.342Z</time></trkpt><trkpt lat="43.3144908" lon="12.3836322"><ele>269.0</ele><time>2026-05-03T09:03:29.342Z</time></trkpt><trkpt lat="43.3146" lon="12.3838237"><ele>269.0</ele><time>2026-05-03T09:03:30.342Z</time></trkpt><trkpt lat="43.3147086" lon="12.3839982"><ele>269.0</ele><time>2026-05-03T09:03:31.342Z</time></trkpt><trkpt lat="43.3148098" lon="12.3841596"><ele>271.33333333333337</ele><time>2026-05-03T09:03:32.342Z</time></trkpt><trkpt lat="43.3149194" lon="12.384301"><ele>273.6666666666667</ele><time>2026-05-03T09:03:33.342Z</time></trkpt><trkpt lat="43.315048" lon="12.3844242"><ele>276.0</ele><time>2026-05-03T09:03:34.342Z</time></trkpt><trkpt lat="43.315191" lon="12.3845091"><ele>276.0</ele><time>2026-05-03T09:03:35.342Z</time></trkpt><trkpt lat="43.3153398" lon="12.3845255"><ele>276.0</ele><time>2026-05-03T09:03:36.342Z</time></trkpt><trkpt lat="43.315499" lon="12.3845082"><ele>276.0</ele><time>2026-05-03T09:03:37.342Z</time></trkpt><trkpt lat="43.3156714" lon="12.3844758"><ele>276.6666666666667</ele><time>2026-05-03T09:03:38.343Z</time></trkpt><trkpt lat="43.3158449" lon="12.3844311"><ele>277.33333333333337</ele><time>2026-05-03T09:03:39.342Z</time></trkpt><trkpt lat="43.3160182" lon="12.3843946"><ele>278.0</ele><time>2026-05-03T09:03:40.342Z</time></trkpt><trkpt lat="43.3161934" lon="12.3843494"><ele>278.0</ele><time>2026-05-03T09:03:41.342Z</time></trkpt><trkpt lat="43.3163709" lon="12.3843066"><ele>278.0</ele><time>2026-05-03T09:03:42.342Z</time></trkpt><trkpt lat="43.3165343" lon="12.3842686"><ele>278.0</ele><time>2026-05-03T09:03:43.342Z</time></trkpt><trkpt lat="43.3166888" lon="12.3842388"><ele>278.33333333333337</ele><time>2026-05-03T09:03:44.343Z</time></trkpt><trkpt lat="43.3168375" lon="12.3842116"><ele>278.6666666666667</ele><time>2026-05-03T09:03:45.342Z</time></trkpt><trkpt lat="43.3169918" lon="12.3842091"><ele>279.0</ele><time>2026-05-03T09:03:46.342Z</time></trkpt><trkpt lat="43.3171507" lon="12.3842634"><ele>279.6666666666667</ele><time>2026-05-03T09:03:47.342Z</time></trkpt><trkpt lat="43.3173016" lon="12.3843404"><ele>280.33333333333337</ele><time>2026-05-03T09:03:48.343Z</time></trkpt><trkpt lat="43.3174437" lon="12.3844455"><ele>281.0</ele><time>2026-05-03T09:03:49.343Z</time></trkpt><trkpt lat="43.3175881" lon="12.3845706"><ele>285.33333333333337</ele><time>2026-05-03T09:03:50.343Z</time></trkpt><trkpt lat="43.3177365" lon="12.3847066"><ele>289.6666666666667</ele><time>2026-05-03T09:03:51.342Z</time></trkpt><trkpt lat="43.317887" lon="12.3848449"><ele>294.0</ele><time>2026-05-03T09:03:52.342Z</time></trkpt><trkpt lat="43.3180348" lon="12.3849855"><ele>290.6666666666667</ele><time>2026-05-03T09:03:53.342Z</time></trkpt><trkpt lat="43.3181873" lon="12.3851254"><ele>287.33333333333337</ele><time>2026-05-03T09:03:54.342Z</time></trkpt><trkpt lat="43.3183386" lon="12.3852602"><ele>284.0</ele><time>2026-05-03T09:03:55.342Z</time></trkpt><trkpt lat="43.3184953" lon="12.3853958"><ele>287.33333333333337</ele><time>2026-05-03T09:03:56.343Z</time></trkpt><trkpt lat="43.3186549" lon="12.385519"><ele>290.6666666666667</ele><time>2026-05-03T09:03:57.343Z</time></trkpt><trkpt lat="43.3188221" lon="12.3856229"><ele>294.0</ele><time>2026-05-03T09:03:58.342Z</time></trkpt><trkpt lat="43.3189892" lon="12.3857041"><ele>294.0</ele><time>2026-05-03T09:03:59.342Z</time></trkpt><trkpt lat="43.3191609" lon="12.3857567"><ele>294.0</ele><time>2026-05-03T09:04:00.342Z</time></trkpt><trkpt lat="43.3193354" lon="12.3857661"><ele>294.0</ele><time>2026-05-03T09:04:01.342Z</time></trkpt><trkpt lat="43.3195155" lon="12.385732"><ele>294.0</ele><time>2026-05-03T09:04:02.342Z</time></trkpt><trkpt lat="43.3196986" lon="12.3857027"><ele>294.0</ele><time>2026-05-03T09:04:03.343Z</time></trkpt><trkpt lat="43.3198841" lon="12.3856563"><ele>294.0</ele><time>2026-05-03T09:04:04.342Z</time></trkpt><trkpt lat="43.320079" lon="12.3856088"><ele>295.0</ele><time>2026-05-03T09:04:05.342Z</time></trkpt><trkpt lat="43.3202606" lon="12.3855725"><ele>296.0</ele><time>2026-05-03T09:04:06.342Z</time></trkpt><trkpt lat="43.3204405" lon="12.3855313"><ele>297.0</ele><time>2026-05-03T09:04:07.342Z</time></trkpt><trkpt lat="43.320621" lon="12.3854895"><ele>294.0</ele><time>2026-05-03T09:04:08.343Z</time></trkpt><trkpt lat="43.3207807" lon="12.3854487"><ele>291.0</ele><time>2026-05-03T09:04:09.342Z</time></trkpt><trkpt lat="43.3209394" lon="12.3854186"><ele>288.0</ele><time>2026-05-03T09:04:10.343Z</time></trkpt><trkpt lat="43.3211022" lon="12.3854016"><ele>288.0</ele><time>2026-05-03T09:04:11.343Z</time></trkpt><trkpt lat="43.3212603" lon="12.3854012"><ele>288.0</ele><time>2026-05-03T09:04:12.343Z</time></trkpt><trkpt lat="43.321421" lon="12.3854371"><ele>288.0</ele><time>2026-05-03T09:04:13.342Z</time></trkpt><trkpt lat="43.3215856" lon="12.3854957"><ele>291.0</ele><time>2026-05-03T09:04:14.343Z</time></trkpt><trkpt lat="43.3217478" lon="12.3855839"><ele>294.0</ele><time>2026-05-03T09:04:15.342Z</time></trkpt><trkpt lat="43.3219138" lon="12.3856943"><ele>297.0</ele><time>2026-05-03T09:04:16.342Z</time></trkpt><trkpt lat="43.3220785" lon="12.3858037"><ele>294.6666666666667</ele><time>2026-05-03T09:04:17.342Z</time></trkpt><trkpt lat="43.3222454" lon="12.3859238"><ele>292.33333333333337</ele><time>2026-05-03T09:04:18.342Z</time></trkpt><trkpt lat="43.3224094" lon="12.3860386"><ele>290.0</ele><time>2026-05-03T09:04:19.342Z</time></trkpt><trkpt lat="43.3225752" lon="12.3861561"><ele>290.0</ele><time>2026-05-03T09:04:20.342Z</time></trkpt><trkpt lat="43.3227349" lon="12.3862771"><ele>290.0</ele><time>2026-05-03T09:04:21.343Z</time></trkpt><trkpt lat="43.3228938" lon="12.3864118"><ele>290.0</ele><time>2026-05-03T09:04:22.342Z</time></trkpt><trkpt lat="43.3230303" lon="12.3865744"><ele>289.33333333333337</ele><time>2026-05-03T09:04:23.342Z</time></trkpt><trkpt lat="43.3231438" lon="12.3867373"><ele>288.6666666666667</ele><time>2026-05-03T09:04:24.342Z</time></trkpt><trkpt lat="43.323224" lon="12.3869109"><ele>288.0</ele><time>2026-05-03T09:04:25.342Z</time></trkpt><trkpt lat="43.3232825" lon="12.3871002"><ele>287.6666666666667</ele><time>2026-05-03T09:04:26.342Z</time></trkpt><trkpt lat="43.323309" lon="12.3873099"><ele>287.33333333333337</ele><time>2026-05-03T09:04:27.343Z</time></trkpt><trkpt lat="43.3233079" lon="12.3875315"><ele>287.0</ele><time>2026-05-03T09:04:28.342Z</time></trkpt><trkpt lat="43.3232831" lon="12.3877633"><ele>287.0</ele><time>2026-05-03T09:04:29.342Z</time></trkpt><trkpt lat="43.3232433" lon="12.3879978"><ele>287.0</ele><time>2026-05-03T09:04:30.342Z</time></trkpt><trkpt lat="43.323208" lon="12.3882463"><ele>287.0</ele><time>2026-05-03T09:04:31.342Z</time></trkpt><trkpt lat="43.323171" lon="12.3884814"><ele>286.6666666666667</ele><time>2026-05-03T09:04:32.342Z</time></trkpt><trkpt lat="43.3231438" lon="12.388705"><ele>286.3333333333333</ele><time>2026-05-03T09:04:33.342Z</time></trkpt><trkpt lat="43.3231315" lon="12.3889299"><ele>286.0</ele><time>2026-05-03T09:04:34.342Z</time></trkpt><trkpt lat="43.3231436" lon="12.3891604"><ele>286.3333333333333</ele><time>2026-05-03T09:04:35.342Z</time></trkpt><trkpt lat="43.3231722" lon="12.3893782"><ele>286.6666666666667</ele><time>2026-05-03T09:04:36.342Z</time></trkpt><trkpt lat="43.323227" lon="12.3896095"><ele>287.0</ele><time>2026-05-03T09:04:37.342Z</time></trkpt><trkpt lat="43.3232958" lon="12.3898307"><ele>287.0</ele><time>2026-05-03T09:04:38.343Z</time></trkpt><trkpt lat="43.3233611" lon="12.3900329"><ele>287.0</ele><time>2026-05-03T09:04:39.343Z</time></trkpt><trkpt lat="43.3234414" lon="12.3902075"><ele>287.0</ele><time>2026-05-03T09:04:40.342Z</time></trkpt><trkpt lat="43.3235309" lon="12.3903562"><ele>287.0</ele><time>2026-05-03T09:04:41.342Z</time></trkpt><trkpt lat="43.3236424" lon="12.3904608"><ele>287.0</ele><time>2026-05-03T09:04:42.343Z</time></trkpt><trkpt lat="43.3237618" lon="12.3905259"><ele>287.0</ele><time>2026-05-03T09:04:43.342Z</time></trkpt><trkpt lat="43.3239229" lon="12.3905212"><ele>287.0</ele><time>2026-05-03T09:04:44.342Z</time></trkpt><trkpt lat="43.3240806" lon="12.3905127"><ele>283.6666666666667</ele><time>2026-05-03T09:04:45.342Z</time></trkpt><trkpt lat="43.3242392" lon="12.3904928"><ele>280.3333333333333</ele><time>2026-05-03T09:04:46.342Z</time></trkpt><trkpt lat="43.3244108" lon="12.3904876"><ele>277.0</ele><time>2026-05-03T09:04:47.343Z</time></trkpt><trkpt lat="43.3245854" lon="12.3904931"><ele>276.66666666666663</ele><time>2026-05-03T09:04:48.342Z</time></trkpt><trkpt lat="43.3247497" lon="12.3905216"><ele>276.3333333333333</ele><time>2026-05-03T09:04:49.343Z</time></trkpt><trkpt lat="43.3249166" lon="12.3905782"><ele>276.0</ele><time>2026-05-03T09:04:50.343Z</time></trkpt><trkpt lat="43.325094" lon="12.3906555"><ele>276.0</ele><time>2026-05-03T09:04:51.342Z</time></trkpt><trkpt lat="43.3252622" lon="12.3907421"><ele>276.0</ele><time>2026-05-03T09:04:52.342Z</time></trkpt><trkpt lat="43.325427" lon="12.3908293"><ele>276.0</ele><time>2026-05-03T09:04:53.342Z</time></trkpt><trkpt lat="43.3255945" lon="12.3909241"><ele>277.6666666666667</ele><time>2026-05-03T09:04:54.342Z</time></trkpt><trkpt lat="43.3257445" lon="12.3910051"><ele>279.33333333333337</ele><time>2026-05-03T09:04:55.342Z</time></trkpt><trkpt lat="43.3258942" lon="12.3910841"><ele>281.0</ele><time>2026-05-03T09:04:56.343Z</time></trkpt><trkpt lat="43.3260152" lon="12.3911928"><ele>281.0</ele><time>2026-05-03T09:04:57.342Z</time></trkpt><trkpt lat="43.3261212" lon="12.3913085"><ele>281.0</ele><time>2026-05-03T09:04:58.343Z</time></trkpt><trkpt lat="43.3261919" lon="12.3914796"><ele>281.0</ele><time>2026-05-03T09:04:59.342Z</time></trkpt><trkpt lat="43.3262317" lon="12.3916576"><ele>281.0</ele><time>2026-05-03T09:05:00.342Z</time></trkpt><trkpt lat="43.3262453" lon="12.391857"><ele>281.33333333333337</ele><time>2026-05-03T09:05:01.342Z</time></trkpt><trkpt lat="43.3262418" lon="12.3920786"><ele>281.6666666666667</ele><time>2026-05-03T09:05:02.342Z</time></trkpt><trkpt lat="43.3262213" lon="12.3922999"><ele>282.0</ele><time>2026-05-03T09:05:03.342Z</time></trkpt><trkpt lat="43.3262008" lon="12.392537"><ele>282.0</ele><time>2026-05-03T09:05:04.342Z</time></trkpt><trkpt lat="43.3261779" lon="12.3927894"><ele>282.0</ele><time>2026-05-03T09:05:05.342Z</time></trkpt><trkpt lat="43.3261605" lon="12.3930554"><ele>282.0</ele><time>2026-05-03T09:05:06.342Z</time></trkpt><trkpt lat="43.3261435" lon="12.3933222"><ele>282.3333333333333</ele><time>2026-05-03T09:05:07.342Z</time></trkpt><trkpt lat="43.3261184" lon="12.3935756"><ele>282.66666666666663</ele><time>2026-05-03T09:05:08.343Z</time></trkpt><trkpt lat="43.3260902" lon="12.3938414"><ele>283.0</ele><time>2026-05-03T09:05:09.342Z</time></trkpt><trkpt lat="43.3260796" lon="12.3941062"><ele>283.0</ele><time>2026-05-03T09:05:10.342Z</time></trkpt><trkpt lat="43.3260575" lon="12.3943869"><ele>283.0</ele><time>2026-05-03T09:05:11.343Z</time></trkpt><trkpt lat="43.3260351" lon="12.3946711"><ele>283.0</ele><time>2026-05-03T09:05:12.343Z</time></trkpt><trkpt lat="43.326007" lon="12.3949588"><ele>282.66666666666663</ele><time>2026-05-03T09:05:13.342Z</time></trkpt><trkpt lat="43.325982" lon="12.3952527"><ele>282.3333333333333</ele><time>2026-05-03T09:05:14.342Z</time></trkpt><trkpt lat="43.3259646" lon="12.3955325"><ele>282.0</ele><time>2026-05-03T09:05:15.343Z</time></trkpt><trkpt lat="43.3259342" lon="12.3958196"><ele>282.0</ele><time>2026-05-03T09:05:16.342Z</time></trkpt><trkpt lat="43.3259177" lon="12.3960903"><ele>282.0</ele><time>2026-05-03T09:05:17.343Z</time></trkpt><trkpt lat="43.3258989" lon="12.3963671"><ele>282.0</ele><time>2026-05-03T09:05:18.342Z</time></trkpt><trkpt lat="43.3258839" lon="12.3966449"><ele>281.6666666666667</ele><time>2026-05-03T09:05:19.342Z</time></trkpt><trkpt lat="43.3258578" lon="12.3969187"><ele>281.33333333333337</ele><time>2026-05-03T09:05:20.343Z</time></trkpt><trkpt lat="43.3258289" lon="12.3972006"><ele>281.0</ele><time>2026-05-03T09:05:21.342Z</time></trkpt><trkpt lat="43.3258015" lon="12.3974681"><ele>281.6666666666667</ele><time>2026-05-03T09:05:22.343Z</time></trkpt><trkpt lat="43.3257926" lon="12.3977467"><ele>282.3333333333333</ele><time>2026-05-03T09:05:23.342Z</time></trkpt><trkpt lat="43.325765" lon="12.3980188"><ele>283.0</ele><time>2026-05-03T09:05:24.342Z</time></trkpt><trkpt lat="43.3257369" lon="12.3982964"><ele>283.3333333333333</ele><time>2026-05-03T09:05:25.342Z</time></trkpt><trkpt lat="43.3257114" lon="12.3985648"><ele>283.6666666666667</ele><time>2026-05-03T09:05:26.342Z</time></trkpt><trkpt lat="43.3256862" lon="12.3988142"><ele>284.0</ele><time>2026-05-03T09:05:27.342Z</time></trkpt><trkpt lat="43.325673" lon="12.3990698"><ele>285.33333333333337</ele><time>2026-05-03T09:05:28.342Z</time></trkpt><trkpt lat="43.3256734" lon="12.3993242"><ele>286.6666666666667</ele><time>2026-05-03T09:05:29.342Z</time></trkpt><trkpt lat="43.325686" lon="12.3995803"><ele>288.0</ele><time>2026-05-03T09:05:30.343Z</time></trkpt><trkpt lat="43.3257119" lon="12.3998366"><ele>288.0</ele><time>2026-05-03T09:05:31.342Z</time></trkpt><trkpt lat="43.3257392" lon="12.4000873"><ele>288.0</ele><time>2026-05-03T09:05:32.342Z</time></trkpt><trkpt lat="43.3257746" lon="12.4003527"><ele>288.0</ele><time>2026-05-03T09:05:33.342Z</time></trkpt><trkpt lat="43.3258137" lon="12.400602"><ele>289.0</ele><time>2026-05-03T09:05:34.343Z</time></trkpt><trkpt lat="43.3258578" lon="12.400855"><ele>290.0</ele><time>2026-05-03T09:05:35.342Z</time></trkpt><trkpt lat="43.3259053" lon="12.4010983"><ele>291.0</ele><time>2026-05-03T09:05:36.343Z</time></trkpt><trkpt lat="43.3259773" lon="12.4013211"><ele>291.6666666666667</ele><time>2026-05-03T09:05:37.342Z</time></trkpt><trkpt lat="43.3260673" lon="12.4015332"><ele>292.33333333333337</ele><time>2026-05-03T09:05:38.342Z</time></trkpt><trkpt lat="43.3261736" lon="12.4017151"><ele>293.0</ele><time>2026-05-03T09:05:39.342Z</time></trkpt><trkpt lat="43.3263107" lon="12.4018757"><ele>293.33333333333337</ele><time>2026-05-03T09:05:40.342Z</time></trkpt><trkpt lat="43.3264553" lon="12.4020412"><ele>293.6666666666667</ele><time>2026-05-03T09:05:41.342Z</time></trkpt><trkpt lat="43.3266021" lon="12.4022048"><ele>294.0</ele><time>2026-05-03T09:05:42.343Z</time></trkpt><trkpt lat="43.326743" lon="12.402355"><ele>294.0</ele><time>2026-05-03T09:05:43.343Z</time></trkpt><trkpt lat="43.3268895" lon="12.402478"><ele>294.0</ele><time>2026-05-03T09:05:44.342Z</time></trkpt><trkpt lat="43.3270344" lon="12.4025869"><ele>294.0</ele><time>2026-05-03T09:05:45.342Z</time></trkpt><trkpt lat="43.3271798" lon="12.4026762"><ele>296.6666666666667</ele><time>2026-05-03T09:05:46.342Z</time></trkpt><trkpt lat="43.3273376" lon="12.4027538"><ele>299.33333333333337</ele><time>2026-05-03T09:05:47.342Z</time></trkpt><trkpt lat="43.3275045" lon="12.4028161"><ele>302.0</ele><time>2026-05-03T09:05:48.342Z</time></trkpt><trkpt lat="43.3276717" lon="12.4028818"><ele>302.0</ele><time>2026-05-03T09:05:49.342Z</time></trkpt><trkpt lat="43.3278371" lon="12.4029567"><ele>302.0</ele><time>2026-05-03T09:05:50.342Z</time></trkpt><trkpt lat="43.3280096" lon="12.4030246"><ele>302.0</ele><time>2026-05-03T09:05:51.342Z</time></trkpt><trkpt lat="43.3281732" lon="12.4031254"><ele>299.6666666666667</ele><time>2026-05-03T09:05:52.342Z</time></trkpt><trkpt lat="43.3283278" lon="12.4032534"><ele>297.3333333333333</ele><time>2026-05-03T09:05:53.342Z</time></trkpt><trkpt lat="43.3284764" lon="12.4033855"><ele>295.0</ele><time>2026-05-03T09:05:54.342Z</time></trkpt><trkpt lat="43.3286159" lon="12.4035403"><ele>295.0</ele><time>2026-05-03T09:05:55.342Z</time></trkpt><trkpt lat="43.32874" lon="12.4037122"><ele>295.0</ele><time>2026-05-03T09:05:56.342Z</time></trkpt><trkpt lat="43.3288656" lon="12.4038928"><ele>295.0</ele><time>2026-05-03T09:05:57.342Z</time></trkpt><trkpt lat="43.3289585" lon="12.4041013"><ele>296.0</ele><time>2026-05-03T09:05:58.342Z</time></trkpt><trkpt lat="43.329037" lon="12.4043245"><ele>297.0</ele><time>2026-05-03T09:05:59.342Z</time></trkpt><trkpt lat="43.3291001" lon="12.4045571"><ele>298.0</ele><time>2026-05-03T09:06:00.342Z</time></trkpt><trkpt lat="43.3291395" lon="12.4048034"><ele>298.0</ele><time>2026-05-03T09:06:01.342Z</time></trkpt><trkpt lat="43.329176" lon="12.4050282"><ele>298.0</ele><time>2026-05-03T09:06:02.342Z</time></trkpt><trkpt lat="43.3292193" lon="12.4052589"><ele>298.0</ele><time>2026-05-03T09:06:03.342Z</time></trkpt><trkpt lat="43.3292685" lon="12.4054766"><ele>297.0</ele><time>2026-05-03T09:06:04.342Z</time></trkpt><trkpt lat="43.3293347" lon="12.4056865"><ele>296.0</ele><time>2026-05-03T09:06:05.342Z</time></trkpt><trkpt lat="43.3294118" lon="12.4058882"><ele>295.0</ele><time>2026-05-03T09:06:06.343Z</time></trkpt><trkpt lat="43.3295115" lon="12.4060729"><ele>295.0</ele><time>2026-05-03T09:06:07.342Z</time></trkpt><trkpt lat="43.3296277" lon="12.4062409"><ele>295.0</ele><time>2026-05-03T09:06:08.342Z</time></trkpt><trkpt lat="43.329756" lon="12.4063954"><ele>295.0</ele><time>2026-05-03T09:06:09.343Z</time></trkpt><trkpt lat="43.329901" lon="12.4065307"><ele>296.66666666666663</ele><time>2026-05-03T09:06:10.342Z</time></trkpt><trkpt lat="43.3300598" lon="12.4066726"><ele>298.3333333333333</ele><time>2026-05-03T09:06:11.342Z</time></trkpt><trkpt lat="43.3302294" lon="12.4068111"><ele>300.0</ele><time>2026-05-03T09:06:12.342Z</time></trkpt><trkpt lat="43.3303977" lon="12.4069584"><ele>300.0</ele><time>2026-05-03T09:06:13.343Z</time></trkpt><trkpt lat="43.3305694" lon="12.407092"><ele>300.0</ele><time>2026-05-03T09:06:14.342Z</time></trkpt><trkpt lat="43.3307433" lon="12.4072206"><ele>300.0</ele><time>2026-05-03T09:06:15.342Z</time></trkpt><trkpt lat="43.3309164" lon="12.40736"><ele>300.0</ele><time>2026-05-03T09:06:16.342Z</time></trkpt><trkpt lat="43.3310846" lon="12.407501"><ele>300.0</ele><time>2026-05-03T09:06:17.342Z</time></trkpt><trkpt lat="43.3312517" lon="12.4076539"><ele>300.0</ele><time>2026-05-03T09:06:18.342Z</time></trkpt><trkpt lat="43.3314042" lon="12.4078301"><ele>301.3333333333333</ele><time>2026-05-03T09:06:19.342Z</time></trkpt><trkpt lat="43.3315564" lon="12.4080182"><ele>302.66666666666663</ele><time>2026-05-03T09:06:20.342Z</time></trkpt><trkpt lat="43.3317002" lon="12.4082229"><ele>304.0</ele><time>2026-05-03T09:06:21.342Z</time></trkpt><trkpt lat="43.3318358" lon="12.4084401"><ele>304.0</ele><time>2026-05-03T09:06:22.342Z</time></trkpt><trkpt lat="43.3319773" lon="12.4086376"><ele>304.0</ele><time>2026-05-03T09:06:23.342Z</time></trkpt><trkpt lat="43.3321114" lon="12.408829"><ele>304.0</ele><time>2026-05-03T09:06:24.342Z</time></trkpt><trkpt lat="43.332247" lon="12.4090283"><ele>307.66666666666663</ele><time>2026-05-03T09:06:25.342Z</time></trkpt><trkpt lat="43.3323876" lon="12.409228"><ele>311.3333333333333</ele><time>2026-05-03T09:06:26.342Z</time></trkpt><trkpt lat="43.3325332" lon="12.4094135"><ele>315.0</ele><time>2026-05-03T09:06:27.342Z</time></trkpt><trkpt lat="43.3326774" lon="12.4096054"><ele>311.3333333333333</ele><time>2026-05-03T09:06:28.342Z</time></trkpt><trkpt lat="43.3328297" lon="12.4097863"><ele>307.66666666666663</ele><time>2026-05-03T09:06:29.342Z</time></trkpt><trkpt lat="43.332991" lon="12.4099647"><ele>304.0</ele><time>2026-05-03T09:06:30.342Z</time></trkpt><trkpt lat="43.3331366" lon="12.4101454"><ele>305.3333333333333</ele><time>2026-05-03T09:06:31.342Z</time></trkpt><trkpt lat="43.3332898" lon="12.4103238"><ele>306.6666666666667</ele><time>2026-05-03T09:06:32.342Z</time></trkpt><trkpt lat="43.3334379" lon="12.410496"><ele>308.0</ele><time>2026-05-03T09:06:33.342Z</time></trkpt><trkpt lat="43.3335855" lon="12.4106704"><ele>308.0</ele><time>2026-05-03T09:06:34.343Z</time></trkpt><trkpt lat="43.3337167" lon="12.4108587"><ele>308.0</ele><time>2026-05-03T09:06:35.343Z</time></trkpt><trkpt lat="43.3338463" lon="12.4110624"><ele>308.0</ele><time>2026-05-03T09:06:36.342Z</time></trkpt><trkpt lat="43.3339719" lon="12.4112739"><ele>310.33333333333337</ele><time>2026-05-03T09:06:37.343Z</time></trkpt><trkpt lat="43.3340844" lon="12.411489"><ele>312.6666666666667</ele><time>2026-05-03T09:06:38.342Z</time></trkpt><trkpt lat="43.3341965" lon="12.411715"><ele>315.0</ele><time>2026-05-03T09:06:39.342Z</time></trkpt><trkpt lat="43.3343055" lon="12.4119507"><ele>312.0</ele><time>2026-05-03T09:06:40.342Z</time></trkpt><trkpt lat="43.3344115" lon="12.4121764"><ele>309.0</ele><time>2026-05-03T09:06:41.342Z</time></trkpt><trkpt lat="43.3345219" lon="12.4124007"><ele>306.0</ele><time>2026-05-03T09:06:42.342Z</time></trkpt><trkpt lat="43.3346183" lon="12.4126084"><ele>306.0</ele><time>2026-05-03T09:06:43.342Z</time></trkpt><trkpt lat="43.3347131" lon="12.4127957"><ele>306.0</ele><time>2026-05-03T09:06:44.342Z</time></trkpt><trkpt lat="43.3348183" lon="12.4129589"><ele>306.0</ele><time>2026-05-03T09:06:45.342Z</time></trkpt><trkpt lat="43.334936" lon="12.4131154"><ele>307.6666666666667</ele><time>2026-05-03T09:06:46.342Z</time></trkpt><trkpt lat="43.3350716" lon="12.4132454"><ele>309.33333333333337</ele><time>2026-05-03T09:06:47.342Z</time></trkpt><trkpt lat="43.335222" lon="12.4133424"><ele>311.0</ele><time>2026-05-03T09:06:48.342Z</time></trkpt><trkpt lat="43.3353661" lon="12.4134188"><ele>311.0</ele><time>2026-05-03T09:06:49.342Z</time></trkpt><trkpt lat="43.3355172" lon="12.4134665"><ele>311.0</ele><time>2026-05-03T09:06:50.343Z</time></trkpt><trkpt lat="43.3356712" lon="12.4135085"><ele>311.0</ele><time>2026-05-03T09:06:51.342Z</time></trkpt><trkpt lat="43.3358192" lon="12.4135572"><ele>309.6666666666667</ele><time>2026-05-03T09:06:52.342Z</time></trkpt><trkpt lat="43.3359658" lon="12.413631"><ele>308.3333333333333</ele><time>2026-05-03T09:06:53.342Z</time></trkpt><trkpt lat="43.336106" lon="12.4137305"><ele>307.0</ele><time>2026-05-03T09:06:54.342Z</time></trkpt><trkpt lat="43.3362387" lon="12.4138409"><ele>307.0</ele><time>2026-05-03T09:06:55.342Z</time></trkpt><trkpt lat="43.3363826" lon="12.4139808"><ele>307.0</ele><time>2026-05-03T09:06:56.343Z</time></trkpt><trkpt lat="43.3365078" lon="12.4141598"><ele>307.0</ele><time>2026-05-03T09:06:57.342Z</time></trkpt><trkpt lat="43.3366364" lon="12.4143152"><ele>307.66666666666663</ele><time>2026-05-03T09:06:58.342Z</time></trkpt><trkpt lat="43.3367706" lon="12.4144816"><ele>308.3333333333333</ele><time>2026-05-03T09:06:59.342Z</time></trkpt><trkpt lat="43.3368944" lon="12.4146488"><ele>309.0</ele><time>2026-05-03T09:07:00.342Z</time></trkpt><trkpt lat="43.3370107" lon="12.414831"><ele>309.0</ele><time>2026-05-03T09:07:01.342Z</time></trkpt><trkpt lat="43.3371279" lon="12.4150115"><ele>309.0</ele><time>2026-05-03T09:07:02.342Z</time></trkpt><trkpt lat="43.3372543" lon="12.4151848"><ele>309.0</ele><time>2026-05-03T09:07:03.342Z</time></trkpt><trkpt lat="43.3373692" lon="12.4153539"><ele>310.6666666666667</ele><time>2026-05-03T09:07:04.342Z</time></trkpt><trkpt lat="43.3374825" lon="12.4155198"><ele>312.33333333333337</ele><time>2026-05-03T09:07:05.343Z</time></trkpt><trkpt lat="43.3375885" lon="12.415706"><ele>314.0</ele><time>2026-05-03T09:07:06.342Z</time></trkpt><trkpt lat="43.337677" lon="12.4158988"><ele>314.0</ele><time>2026-05-03T09:07:07.342Z</time></trkpt><trkpt lat="43.3377597" lon="12.4160992"><ele>314.0</ele><time>2026-05-03T09:07:08.342Z</time></trkpt><trkpt lat="43.3378332" lon="12.4163087"><ele>314.0</ele><time>2026-05-03T09:07:09.342Z</time></trkpt><trkpt lat="43.3378985" lon="12.41652"><ele>311.6666666666667</ele><time>2026-05-03T09:07:10.342Z</time></trkpt><trkpt lat="43.337963" lon="12.4167366"><ele>309.3333333333333</ele><time>2026-05-03T09:07:11.342Z</time></trkpt><trkpt lat="43.3380391" lon="12.4169443"><ele>307.0</ele><time>2026-05-03T09:07:12.342Z</time></trkpt><trkpt lat="43.3381254" lon="12.4171375"><ele>311.0</ele><time>2026-05-03T09:07:13.342Z</time></trkpt><trkpt lat="43.3382164" lon="12.4173273"><ele>315.0</ele><time>2026-05-03T09:07:14.342Z</time></trkpt><trkpt lat="43.338315" lon="12.4175007"><ele>319.0</ele><time>2026-05-03T09:07:15.342Z</time></trkpt><trkpt lat="43.3384208" lon="12.417669"><ele>319.0</ele><time>2026-05-03T09:07:16.342Z</time></trkpt><trkpt lat="43.3385408" lon="12.4178369"><ele>319.0</ele><time>2026-05-03T09:07:17.342Z</time></trkpt><trkpt lat="43.3386661" lon="12.4180016"><ele>319.0</ele><time>2026-05-03T09:07:18.343Z</time></trkpt><trkpt lat="43.338799" lon="12.4181549"><ele>320.3333333333333</ele><time>2026-05-03T09:07:19.342Z</time></trkpt><trkpt lat="43.3389404" lon="12.418292"><ele>321.6666666666667</ele><time>2026-05-03T09:07:20.342Z</time></trkpt><trkpt lat="43.3390886" lon="12.4184352"><ele>323.0</ele><time>2026-05-03T09:07:21.342Z</time></trkpt><trkpt lat="43.3392443" lon="12.4185552"><ele>323.0</ele><time>2026-05-03T09:07:22.342Z</time></trkpt><trkpt lat="43.3394007" lon="12.4186685"><ele>323.0</ele><time>2026-05-03T09:07:23.342Z</time></trkpt><trkpt lat="43.3395654" lon="12.4187926"><ele>323.0</ele><time>2026-05-03T09:07:24.342Z</time></trkpt><trkpt lat="43.3397102" lon="12.4189344"><ele>323.0</ele><time>2026-05-03T09:07:25.342Z</time></trkpt><trkpt lat="43.3398532" lon="12.4190946"><ele>323.0</ele><time>2026-05-03T09:07:26.342Z</time></trkpt><trkpt lat="43.3400014" lon="12.4192574"><ele>323.0</ele><time>2026-05-03T09:07:27.342Z</time></trkpt><trkpt lat="43.340153" lon="12.4194179"><ele>323.0</ele><time>2026-05-03T09:07:28.342Z</time></trkpt><trkpt lat="43.3402981" lon="12.4195806"><ele>323.0</ele><time>2026-05-03T09:07:29.343Z</time></trkpt><trkpt lat="43.3404483" lon="12.4197289"><ele>323.0</ele><time>2026-05-03T09:07:30.342Z</time></trkpt><trkpt lat="43.3405902" lon="12.4198767"><ele>325.0</ele><time>2026-05-03T09:07:31.342Z</time></trkpt><trkpt lat="43.3407257" lon="12.4200102"><ele>327.0</ele><time>2026-05-03T09:07:32.342Z</time></trkpt><trkpt lat="43.3408571" lon="12.4201357"><ele>329.0</ele><time>2026-05-03T09:07:33.343Z</time></trkpt><trkpt lat="43.3409873" lon="12.4202531"><ele>329.0</ele><time>2026-05-03T09:07:34.342Z</time></trkpt><trkpt lat="43.3411116" lon="12.4203406"><ele>329.0</ele><time>2026-05-03T09:07:35.342Z</time></trkpt><trkpt lat="43.3412365" lon="12.4204324"><ele>329.0</ele><time>2026-05-03T09:07:36.342Z</time></trkpt><trkpt lat="43.3413511" lon="12.4204989"><ele>329.0</ele><time>2026-05-03T09:07:37.342Z</time></trkpt><trkpt lat="43.3414742" lon="12.4205626"><ele>326.5</ele><time>2026-05-03T09:07:38.342Z</time></trkpt><trkpt lat="43.341601" lon="12.4206213"><ele>324.0</ele><time>2026-05-03T09:07:39.342Z</time></trkpt><trkpt lat="43.3417174" lon="12.4206856"><ele>321.5</ele><time>2026-05-03T09:07:40.342Z</time></trkpt><trkpt lat="43.3418466" lon="12.4207588"><ele>319.0</ele><time>2026-05-03T09:07:41.342Z</time></trkpt><trkpt lat="43.341976" lon="12.420833"><ele>319.0</ele><time>2026-05-03T09:07:42.342Z</time></trkpt><trkpt lat="43.3421097" lon="12.4208995"><ele>319.0</ele><time>2026-05-03T09:07:43.343Z</time></trkpt><trkpt lat="43.3422502" lon="12.4209691"><ele>319.0</ele><time>2026-05-03T09:07:44.342Z</time></trkpt><trkpt lat="43.3423837" lon="12.4210313"><ele>319.0</ele><time>2026-05-03T09:07:45.342Z</time></trkpt><trkpt lat="43.3425262" lon="12.4211005"><ele>318.66666666666663</ele><time>2026-05-03T09:07:46.342Z</time></trkpt><trkpt lat="43.342676" lon="12.421203"><ele>318.3333333333333</ele><time>2026-05-03T09:07:47.342Z</time></trkpt><trkpt lat="43.3428086" lon="12.4212712"><ele>318.0</ele><time>2026-05-03T09:07:48.342Z</time></trkpt><trkpt lat="43.342933" lon="12.4213795"><ele>318.0</ele><time>2026-05-03T09:07:49.342Z</time></trkpt><trkpt lat="43.3430335" lon="12.4214959"><ele>318.0</ele><time>2026-05-03T09:07:50.342Z</time></trkpt><trkpt lat="43.3431138" lon="12.4216505"><ele>318.0</ele><time>2026-05-03T09:07:51.342Z</time></trkpt><trkpt lat="43.3431841" lon="12.4218099"><ele>318.0</ele><time>2026-05-03T09:07:52.342Z</time></trkpt><trkpt lat="43.343241" lon="12.4219921"><ele>320.0</ele><time>2026-05-03T09:07:53.342Z</time></trkpt><trkpt lat="43.3432907" lon="12.4221804"><ele>322.0</ele><time>2026-05-03T09:07:54.342Z</time></trkpt><trkpt lat="43.3433415" lon="12.4223767"><ele>324.0</ele><time>2026-05-03T09:07:55.342Z</time></trkpt><trkpt lat="43.3433877" lon="12.4225793"><ele>324.0</ele><time>2026-05-03T09:07:56.342Z</time></trkpt><trkpt lat="43.3434215" lon="12.4227822"><ele>324.0</ele><time>2026-05-03T09:07:57.342Z</time></trkpt><trkpt lat="43.343449" lon="12.4229804"><ele>324.0</ele><time>2026-05-03T09:07:58.342Z</time></trkpt><trkpt lat="43.3434751" lon="12.4231926"><ele>325.6666666666667</ele><time>2026-05-03T09:07:59.342Z</time></trkpt><trkpt lat="43.3434892" lon="12.4234055"><ele>327.33333333333337</ele><time>2026-05-03T09:08:00.342Z</time></trkpt><trkpt lat="43.3434949" lon="12.4236147"><ele>329.0</ele><time>2026-05-03T09:08:01.342Z</time></trkpt><trkpt lat="43.3434955" lon="12.4238438"><ele>330.0</ele><time>2026-05-03T09:08:02.342Z</time></trkpt><trkpt lat="43.3434941" lon="12.4240723"><ele>331.0</ele><time>2026-05-03T09:08:03.342Z</time></trkpt><trkpt lat="43.343477" lon="12.4242889"><ele>332.0</ele><time>2026-05-03T09:08:04.342Z</time></trkpt><trkpt lat="43.3434646" lon="12.4245292"><ele>332.33333333333337</ele><time>2026-05-03T09:08:05.343Z</time></trkpt><trkpt lat="43.3434395" lon="12.424765"><ele>332.6666666666667</ele><time>2026-05-03T09:08:06.342Z</time></trkpt><trkpt lat="43.3434083" lon="12.4250028"><ele>333.0</ele><time>2026-05-03T09:08:07.342Z</time></trkpt><trkpt lat="43.3433734" lon="12.4252525"><ele>334.3333333333333</ele><time>2026-05-03T09:08:08.342Z</time></trkpt><trkpt lat="43.3433363" lon="12.425501"><ele>335.66666666666663</ele><time>2026-05-03T09:08:09.342Z</time></trkpt><trkpt lat="43.3432911" lon="12.4257467"><ele>337.0</ele><time>2026-05-03T09:08:10.342Z</time></trkpt><trkpt lat="43.34325" lon="12.4259957"><ele>337.0</ele><time>2026-05-03T09:08:11.343Z</time></trkpt><trkpt lat="43.3432097" lon="12.4262247"><ele>337.0</ele><time>2026-05-03T09:08:12.342Z</time></trkpt><trkpt lat="43.3431762" lon="12.4264501"><ele>337.0</ele><time>2026-05-03T09:08:13.342Z</time></trkpt><trkpt lat="43.3431365" lon="12.4266675"><ele>335.0</ele><time>2026-05-03T09:08:14.342Z</time></trkpt><trkpt lat="43.3430999" lon="12.4268993"><ele>333.0</ele><time>2026-05-03T09:08:15.342Z</time></trkpt><trkpt lat="43.3430485" lon="12.427124"><ele>331.0</ele><time>2026-05-03T09:08:16.342Z</time></trkpt><trkpt lat="43.3429853" lon="12.4273274"><ele>331.0</ele><time>2026-05-03T09:08:17.342Z</time></trkpt><trkpt lat="43.3429203" lon="12.4275092"><ele>331.0</ele><time>2026-05-03T09:08:18.342Z</time></trkpt><trkpt lat="43.3428511" lon="12.427681"><ele>331.0</ele><time>2026-05-03T09:08:19.342Z</time></trkpt><trkpt lat="43.3427972" lon="12.4278468"><ele>331.0</ele><time>2026-05-03T09:08:20.342Z</time></trkpt><trkpt lat="43.3427609" lon="12.4280084"><ele>331.5</ele><time>2026-05-03T09:08:21.342Z</time></trkpt><trkpt lat="43.3427623" lon="12.4281791"><ele>332.0</ele><time>2026-05-03T09:08:22.342Z</time></trkpt><trkpt lat="43.3427885" lon="12.428338"><ele>332.5</ele><time>2026-05-03T09:08:23.342Z</time></trkpt><trkpt lat="43.3428395" lon="12.4284897"><ele>333.0</ele><time>2026-05-03T09:08:24.342Z</time></trkpt><trkpt lat="43.3429187" lon="12.4285723"><ele>333.0</ele><time>2026-05-03T09:08:25.342Z</time></trkpt><trkpt lat="43.3430231" lon="12.4286793"><ele>333.0</ele><time>2026-05-03T09:08:26.342Z</time></trkpt><trkpt lat="43.343117" lon="12.4287887"><ele>333.0</ele><time>2026-05-03T09:08:27.342Z</time></trkpt><trkpt lat="43.343228" lon="12.4289297"><ele>333.0</ele><time>2026-05-03T09:08:28.342Z</time></trkpt><trkpt lat="43.3433386" lon="12.4290782"><ele>339.3333333333333</ele><time>2026-05-03T09:08:29.342Z</time></trkpt><trkpt lat="43.3434471" lon="12.4292412"><ele>345.66666666666663</ele><time>2026-05-03T09:08:30.343Z</time></trkpt><trkpt lat="43.343567" lon="12.4294111"><ele>352.0</ele><time>2026-05-03T09:08:31.342Z</time></trkpt><trkpt lat="43.3436825" lon="12.4295664"><ele>353.0</ele><time>2026-05-03T09:08:32.342Z</time></trkpt><trkpt lat="43.3437986" lon="12.4297141"><ele>354.0</ele><time>2026-05-03T09:08:33.342Z</time></trkpt><trkpt lat="43.3439118" lon="12.4298598"><ele>355.0</ele><time>2026-05-03T09:08:34.342Z</time></trkpt><trkpt lat="43.3440406" lon="12.4300002"><ele>355.0</ele><time>2026-05-03T09:08:35.342Z</time></trkpt><trkpt lat="43.3441702" lon="12.4300558"><ele>355.0</ele><time>2026-05-03T09:08:36.342Z</time></trkpt><trkpt lat="43.3443164" lon="12.4300844"><ele>355.0</ele><time>2026-05-03T09:08:37.343Z</time></trkpt><trkpt lat="43.3444567" lon="12.4300655"><ele>355.0</ele><time>2026-05-03T09:08:38.343Z</time></trkpt><trkpt lat="43.3445937" lon="12.4300433"><ele>357.8</ele><time>2026-05-03T09:08:39.342Z</time></trkpt><trkpt lat="43.3447132" lon="12.4300371"><ele>360.6</ele><time>2026-05-03T09:08:40.342Z</time></trkpt><trkpt lat="43.3448329" lon="12.4300483"><ele>363.4</ele><time>2026-05-03T09:08:41.342Z</time></trkpt><trkpt lat="43.3449191" lon="12.4301047"><ele>366.2</ele><time>2026-05-03T09:08:42.342Z</time></trkpt><trkpt lat="43.3450113" lon="12.4301779"><ele>369.0</ele><time>2026-05-03T09:08:43.342Z</time></trkpt><trkpt lat="43.3450246" lon="12.4303039"><ele>369.0</ele><time>2026-05-03T09:08:44.342Z</time></trkpt><trkpt lat="43.3450405" lon="12.4304376"><ele>369.0</ele><time>2026-05-03T09:08:45.342Z</time></trkpt><trkpt lat="43.3450432" lon="12.4305712"><ele>369.0</ele><time>2026-05-03T09:08:46.342Z</time></trkpt><trkpt lat="43.345045" lon="12.4307517"><ele>369.0</ele><time>2026-05-03T09:08:47.342Z</time></trkpt><trkpt lat="43.3450524" lon="12.43094"><ele>368.0</ele><time>2026-05-03T09:08:48.342Z</time></trkpt><trkpt lat="43.3450508" lon="12.4311415"><ele>367.0</ele><time>2026-05-03T09:08:49.342Z</time></trkpt><trkpt lat="43.3450507" lon="12.4313511"><ele>366.0</ele><time>2026-05-03T09:08:50.342Z</time></trkpt><trkpt lat="43.3450473" lon="12.431571"><ele>366.0</ele><time>2026-05-03T09:08:51.342Z</time></trkpt><trkpt lat="43.3450217" lon="12.4317879"><ele>366.0</ele><time>2026-05-03T09:08:52.342Z</time></trkpt><trkpt lat="43.3449851" lon="12.4320067"><ele>366.0</ele><time>2026-05-03T09:08:53.342Z</time></trkpt><trkpt lat="43.3449581" lon="12.4322378"><ele>367.3333333333333</ele><time>2026-05-03T09:08:54.342Z</time></trkpt><trkpt lat="43.3449415" lon="12.4324683"><ele>368.66666666666663</ele><time>2026-05-03T09:08:55.343Z</time></trkpt><trkpt lat="43.344948" lon="12.4326946"><ele>370.0</ele><time>2026-05-03T09:08:56.342Z</time></trkpt><trkpt lat="43.344965" lon="12.4329227"><ele>369.25</ele><time>2026-05-03T09:08:57.342Z</time></trkpt><trkpt lat="43.3449756" lon="12.4331372"><ele>368.5</ele><time>2026-05-03T09:08:58.343Z</time></trkpt><trkpt lat="43.3449952" lon="12.4333366"><ele>367.75</ele><time>2026-05-03T09:08:59.343Z</time></trkpt><trkpt lat="43.3450258" lon="12.4335205"><ele>367.0</ele><time>2026-05-03T09:09:00.342Z</time></trkpt><trkpt lat="43.3450653" lon="12.4336942"><ele>363.75</ele><time>2026-05-03T09:09:01.342Z</time></trkpt><trkpt lat="43.3451318" lon="12.4338433"><ele>360.5</ele><time>2026-05-03T09:09:02.342Z</time></trkpt><trkpt lat="43.3452138" lon="12.4339788"><ele>357.25</ele><time>2026-05-03T09:09:03.342Z</time></trkpt><trkpt lat="43.3452983" lon="12.4341039"><ele>354.0</ele><time>2026-05-03T09:09:04.342Z</time></trkpt><trkpt lat="43.3454257" lon="12.4341747"><ele>361.75</ele><time>2026-05-03T09:09:05.342Z</time></trkpt><trkpt lat="43.3455576" lon="12.4342368"><ele>369.5</ele><time>2026-05-03T09:09:06.342Z</time></trkpt><trkpt lat="43.3456941" lon="12.4342896"><ele>377.25</ele><time>2026-05-03T09:09:07.342Z</time></trkpt><trkpt lat="43.3458387" lon="12.4343322"><ele>385.0</ele><time>2026-05-03T09:09:08.342Z</time></trkpt><trkpt lat="43.3459802" lon="12.4343565"><ele>385.0</ele><time>2026-05-03T09:09:09.342Z</time></trkpt><trkpt lat="43.3461123" lon="12.4343682"><ele>385.0</ele><time>2026-05-03T09:09:10.342Z</time></trkpt><trkpt lat="43.3462431" lon="12.4343237"><ele>385.0</ele><time>2026-05-03T09:09:11.342Z</time></trkpt><trkpt lat="43.3463347" lon="12.4342477"><ele>385.0</ele><time>2026-05-03T09:09:12.342Z</time></trkpt><trkpt lat="43.3464217" lon="12.4341698"><ele>386.8</ele><time>2026-05-03T09:09:13.342Z</time></trkpt><trkpt lat="43.3465143" lon="12.4341268"><ele>388.6</ele><time>2026-05-03T09:09:14.342Z</time></trkpt><trkpt lat="43.3466112" lon="12.4340885"><ele>390.4</ele><time>2026-05-03T09:09:15.342Z</time></trkpt><trkpt lat="43.3467208" lon="12.4341433"><ele>392.2</ele><time>2026-05-03T09:09:16.342Z</time></trkpt><trkpt lat="43.3468167" lon="12.4342093"><ele>394.0</ele><time>2026-05-03T09:09:17.342Z</time></trkpt><trkpt lat="43.3469119" lon="12.4342871"><ele>394.0</ele><time>2026-05-03T09:09:18.343Z</time></trkpt><trkpt lat="43.3470102" lon="12.4343792"><ele>394.0</ele><time>2026-05-03T09:09:19.342Z</time></trkpt><trkpt lat="43.3471191" lon="12.4344775"><ele>394.0</ele><time>2026-05-03T09:09:20.342Z</time></trkpt><trkpt lat="43.3472269" lon="12.4346017"><ele>394.0</ele><time>2026-05-03T09:09:21.342Z</time></trkpt><trkpt lat="43.3473422" lon="12.4347151"><ele>391.25</ele><time>2026-05-03T09:09:22.342Z</time></trkpt><trkpt lat="43.3474612" lon="12.4348613"><ele>388.5</ele><time>2026-05-03T09:09:23.342Z</time></trkpt><trkpt lat="43.3475686" lon="12.4350013"><ele>385.75</ele><time>2026-05-03T09:09:24.342Z</time></trkpt><trkpt lat="43.3476688" lon="12.4351071"><ele>383.0</ele><time>2026-05-03T09:09:25.342Z</time></trkpt><trkpt lat="43.3477721" lon="12.435212"><ele>383.0</ele><time>2026-05-03T09:09:26.342Z</time></trkpt><trkpt lat="43.3478812" lon="12.4352709"><ele>383.0</ele><time>2026-05-03T09:09:27.342Z</time></trkpt><trkpt lat="43.347989" lon="12.4352949"><ele>383.0</ele><time>2026-05-03T09:09:28.342Z</time></trkpt><trkpt lat="43.3480731" lon="12.4352097"><ele>383.0</ele><time>2026-05-03T09:09:29.342Z</time></trkpt><trkpt lat="43.3481509" lon="12.4350911"><ele>383.0</ele><time>2026-05-03T09:09:30.342Z</time></trkpt><trkpt lat="43.3482161" lon="12.4349485"><ele>381.5</ele><time>2026-05-03T09:09:31.342Z</time></trkpt><trkpt lat="43.3482822" lon="12.4347863"><ele>380.0</ele><time>2026-05-03T09:09:32.342Z</time></trkpt><trkpt lat="43.3483537" lon="12.4346256"><ele>378.5</ele><time>2026-05-03T09:09:33.342Z</time></trkpt><trkpt lat="43.3484511" lon="12.4344661"><ele>377.0</ele><time>2026-05-03T09:09:34.343Z</time></trkpt><trkpt lat="43.3485577" lon="12.4343076"><ele>378.33333333333337</ele><time>2026-05-03T09:09:35.342Z</time></trkpt><trkpt lat="43.3486807" lon="12.4341803"><ele>379.6666666666667</ele><time>2026-05-03T09:09:36.342Z</time></trkpt><trkpt lat="43.3488113" lon="12.4340515"><ele>381.0</ele><time>2026-05-03T09:09:37.342Z</time></trkpt><trkpt lat="43.348942" lon="12.4339404"><ele>381.0</ele><time>2026-05-03T09:09:38.342Z</time></trkpt><trkpt lat="43.3490644" lon="12.43384"><ele>381.0</ele><time>2026-05-03T09:09:39.342Z</time></trkpt><trkpt lat="43.3491782" lon="12.4337333"><ele>381.0</ele><time>2026-05-03T09:09:40.342Z</time></trkpt><trkpt lat="43.349282" lon="12.4336142"><ele>381.0</ele><time>2026-05-03T09:09:41.343Z</time></trkpt><trkpt lat="43.3493926" lon="12.4334951"><ele>385.0</ele><time>2026-05-03T09:09:42.343Z</time></trkpt><trkpt lat="43.349502" lon="12.4334073"><ele>389.0</ele><time>2026-05-03T09:09:43.342Z</time></trkpt><trkpt lat="43.3496079" lon="12.4333386"><ele>393.0</ele><time>2026-05-03T09:09:44.342Z</time></trkpt><trkpt lat="43.3497325" lon="12.4333104"><ele>397.0</ele><time>2026-05-03T09:09:45.342Z</time></trkpt><trkpt lat="43.3498724" lon="12.4333196"><ele>397.0</ele><time>2026-05-03T09:09:46.342Z</time></trkpt><trkpt lat="43.3500219" lon="12.4333538"><ele>397.0</ele><time>2026-05-03T09:09:47.343Z</time></trkpt><trkpt lat="43.3501656" lon="12.4333912"><ele>397.0</ele><time>2026-05-03T09:09:48.342Z</time></trkpt><trkpt lat="43.3503075" lon="12.4334347"><ele>397.0</ele><time>2026-05-03T09:09:49.342Z</time></trkpt><trkpt lat="43.3504484" lon="12.4334829"><ele>402.6666666666667</ele><time>2026-05-03T09:09:50.343Z</time></trkpt><trkpt lat="43.350608" lon="12.4335122"><ele>408.33333333333337</ele><time>2026-05-03T09:09:51.342Z</time></trkpt><trkpt lat="43.3507573" lon="12.4335523"><ele>414.0</ele><time>2026-05-03T09:09:52.342Z</time></trkpt><trkpt lat="43.3509048" lon="12.4335974"><ele>414.0</ele><time>2026-05-03T09:09:53.342Z</time></trkpt><trkpt lat="43.3510447" lon="12.4336324"><ele>414.0</ele><time>2026-05-03T09:09:54.342Z</time></trkpt><trkpt lat="43.3511861" lon="12.433694"><ele>414.0</ele><time>2026-05-03T09:09:55.342Z</time></trkpt><trkpt lat="43.3513231" lon="12.4337635"><ele>414.0</ele><time>2026-05-03T09:09:56.342Z</time></trkpt><trkpt lat="43.351454" lon="12.4338562"><ele>405.33333333333337</ele><time>2026-05-03T09:09:57.342Z</time></trkpt><trkpt lat="43.3515738" lon="12.4339819"><ele>396.6666666666667</ele><time>2026-05-03T09:09:58.342Z</time></trkpt><trkpt lat="43.351694" lon="12.4341439"><ele>388.0</ele><time>2026-05-03T09:09:59.342Z</time></trkpt><trkpt lat="43.351818" lon="12.4343078"><ele>388.0</ele><time>2026-05-03T09:10:00.342Z</time></trkpt><trkpt lat="43.3519429" lon="12.4344614"><ele>388.0</ele><time>2026-05-03T09:10:01.342Z</time></trkpt><trkpt lat="43.3520796" lon="12.4345936"><ele>388.0</ele><time>2026-05-03T09:10:02.342Z</time></trkpt><trkpt lat="43.3522145" lon="12.4347058"><ele>387.0</ele><time>2026-05-03T09:10:03.342Z</time></trkpt><trkpt lat="43.3523579" lon="12.434821"><ele>386.0</ele><time>2026-05-03T09:10:04.342Z</time></trkpt><trkpt lat="43.3524974" lon="12.4349472"><ele>385.0</ele><time>2026-05-03T09:10:05.342Z</time></trkpt><trkpt lat="43.3526402" lon="12.4350598"><ele>385.0</ele><time>2026-05-03T09:10:06.342Z</time></trkpt><trkpt lat="43.3527795" lon="12.4351672"><ele>385.0</ele><time>2026-05-03T09:10:07.342Z</time></trkpt><trkpt lat="43.3529217" lon="12.4352836"><ele>385.0</ele><time>2026-05-03T09:10:08.342Z</time></trkpt><trkpt lat="43.3530587" lon="12.4353766"><ele>385.5</ele><time>2026-05-03T09:10:09.342Z</time></trkpt><trkpt lat="43.3531757" lon="12.4354959"><ele>386.0</ele><time>2026-05-03T09:10:10.343Z</time></trkpt><trkpt lat="43.3532735" lon="12.4356212"><ele>386.5</ele><time>2026-05-03T09:10:11.342Z</time></trkpt><trkpt lat="43.3533658" lon="12.4357623"><ele>387.0</ele><time>2026-05-03T09:10:12.342Z</time></trkpt><trkpt lat="43.3534585" lon="12.435917"><ele>387.0</ele><time>2026-05-03T09:10:13.342Z</time></trkpt><trkpt lat="43.3535621" lon="12.4360564"><ele>387.0</ele><time>2026-05-03T09:10:14.342Z</time></trkpt><trkpt lat="43.3536818" lon="12.4361775"><ele>387.0</ele><time>2026-05-03T09:10:15.342Z</time></trkpt><trkpt lat="43.353824" lon="12.4362748"><ele>384.0</ele><time>2026-05-03T09:10:16.343Z</time></trkpt><trkpt lat="43.35398" lon="12.4363649"><ele>381.0</ele><time>2026-05-03T09:10:17.343Z</time></trkpt><trkpt lat="43.3541415" lon="12.4364537"><ele>378.0</ele><time>2026-05-03T09:10:18.342Z</time></trkpt><trkpt lat="43.3543112" lon="12.4365344"><ele>378.0</ele><time>2026-05-03T09:10:19.342Z</time></trkpt><trkpt lat="43.3544718" lon="12.436622"><ele>378.0</ele><time>2026-05-03T09:10:20.342Z</time></trkpt><trkpt lat="43.3546315" lon="12.436694"><ele>378.0</ele><time>2026-05-03T09:10:21.342Z</time></trkpt><trkpt lat="43.3548106" lon="12.4367796"><ele>383.33333333333337</ele><time>2026-05-03T09:10:22.342Z</time></trkpt><trkpt lat="43.3549796" lon="12.436829"><ele>388.6666666666667</ele><time>2026-05-03T09:10:23.342Z</time></trkpt><trkpt lat="43.3551481" lon="12.4368625"><ele>394.0</ele><time>2026-05-03T09:10:24.342Z</time></trkpt><trkpt lat="43.3553161" lon="12.43687"><ele>394.0</ele><time>2026-05-03T09:10:25.342Z</time></trkpt><trkpt lat="43.3554862" lon="12.4368757"><ele>394.0</ele><time>2026-05-03T09:10:26.342Z</time></trkpt><trkpt lat="43.3556569" lon="12.4368578"><ele>394.0</ele><time>2026-05-03T09:10:27.342Z</time></trkpt><trkpt lat="43.3558258" lon="12.4368268"><ele>391.0</ele><time>2026-05-03T09:10:28.342Z</time></trkpt><trkpt lat="43.3559742" lon="12.4367096"><ele>388.0</ele><time>2026-05-03T09:10:29.342Z</time></trkpt><trkpt lat="43.3561211" lon="12.4366137"><ele>385.0</ele><time>2026-05-03T09:10:30.342Z</time></trkpt><trkpt lat="43.3562727" lon="12.4365186"><ele>379.6666666666667</ele><time>2026-05-03T09:10:31.342Z</time></trkpt><trkpt lat="43.3564237" lon="12.436467"><ele>374.33333333333337</ele><time>2026-05-03T09:10:32.342Z</time></trkpt><trkpt lat="43.3565755" lon="12.4364256"><ele>369.0</ele><time>2026-05-03T09:10:33.342Z</time></trkpt><trkpt lat="43.3567157" lon="12.4363533"><ele>382.66666666666663</ele><time>2026-05-03T09:10:34.342Z</time></trkpt><trkpt lat="43.3568679" lon="12.43629"><ele>396.3333333333333</ele><time>2026-05-03T09:10:35.343Z</time></trkpt><trkpt lat="43.3570156" lon="12.436194"><ele>410.0</ele><time>2026-05-03T09:10:36.342Z</time></trkpt><trkpt lat="43.3571722" lon="12.4361221"><ele>403.0</ele><time>2026-05-03T09:10:37.342Z</time></trkpt><trkpt lat="43.3573349" lon="12.4360581"><ele>396.0</ele><time>2026-05-03T09:10:38.342Z</time></trkpt><trkpt lat="43.3575004" lon="12.4360111"><ele>389.0</ele><time>2026-05-03T09:10:39.342Z</time></trkpt><trkpt lat="43.3576739" lon="12.435985"><ele>389.0</ele><time>2026-05-03T09:10:40.342Z</time></trkpt><trkpt lat="43.3578443" lon="12.4359677"><ele>389.0</ele><time>2026-05-03T09:10:41.342Z</time></trkpt><trkpt lat="43.358016" lon="12.4359543"><ele>389.0</ele><time>2026-05-03T09:10:42.342Z</time></trkpt><trkpt lat="43.3581771" lon="12.435934"><ele>387.66666666666663</ele><time>2026-05-03T09:10:43.342Z</time></trkpt><trkpt lat="43.3583366" lon="12.4359364"><ele>386.33333333333337</ele><time>2026-05-03T09:10:44.343Z</time></trkpt><trkpt lat="43.3585018" lon="12.4359658"><ele>385.0</ele><time>2026-05-03T09:10:45.343Z</time></trkpt><trkpt lat="43.3586591" lon="12.43601"><ele>385.0</ele><time>2026-05-03T09:10:46.342Z</time></trkpt><trkpt lat="43.3588205" lon="12.4360773"><ele>385.0</ele><time>2026-05-03T09:10:47.342Z</time></trkpt><trkpt lat="43.3589752" lon="12.4361694"><ele>385.0</ele><time>2026-05-03T09:10:48.342Z</time></trkpt><trkpt lat="43.359133" lon="12.4362752"><ele>377.33333333333337</ele><time>2026-05-03T09:10:49.342Z</time></trkpt><trkpt lat="43.3592938" lon="12.4363996"><ele>369.6666666666667</ele><time>2026-05-03T09:10:50.343Z</time></trkpt><trkpt lat="43.3594477" lon="12.436513"><ele>362.0</ele><time>2026-05-03T09:10:51.342Z</time></trkpt><trkpt lat="43.359605" lon="12.4366263"><ele>368.0</ele><time>2026-05-03T09:10:52.342Z</time></trkpt><trkpt lat="43.3597526" lon="12.4367167"><ele>374.0</ele><time>2026-05-03T09:10:53.342Z</time></trkpt><trkpt lat="43.359892" lon="12.4368135"><ele>380.0</ele><time>2026-05-03T09:10:54.342Z</time></trkpt><trkpt lat="43.3600153" lon="12.4369072"><ele>380.0</ele><time>2026-05-03T09:10:55.342Z</time></trkpt><trkpt lat="43.3601256" lon="12.4370158"><ele>380.0</ele><time>2026-05-03T09:10:56.342Z</time></trkpt><trkpt lat="43.3602148" lon="12.4371418"><ele>380.0</ele><time>2026-05-03T09:10:57.342Z</time></trkpt><trkpt lat="43.3603043" lon="12.4372841"><ele>380.0</ele><time>2026-05-03T09:10:58.342Z</time></trkpt><trkpt lat="43.3604023" lon="12.4374343"><ele>380.0</ele><time>2026-05-03T09:10:59.342Z</time></trkpt><trkpt lat="43.3605044" lon="12.4375912"><ele>380.0</ele><time>2026-05-03T09:11:00.342Z</time></trkpt><trkpt lat="43.360608" lon="12.4377332"><ele>380.0</ele><time>2026-05-03T09:11:01.342Z</time></trkpt><trkpt lat="43.3607198" lon="12.4378642"><ele>380.0</ele><time>2026-05-03T09:11:02.343Z</time></trkpt><trkpt lat="43.3608555" lon="12.4379696"><ele>372.33333333333337</ele><time>2026-05-03T09:11:03.342Z</time></trkpt><trkpt lat="43.3610059" lon="12.4380599"><ele>364.6666666666667</ele><time>2026-05-03T09:11:04.343Z</time></trkpt><trkpt lat="43.361156" lon="12.4381522"><ele>357.0</ele><time>2026-05-03T09:11:05.343Z</time></trkpt><trkpt lat="43.3613068" lon="12.4382393"><ele>361.0</ele><time>2026-05-03T09:11:06.342Z</time></trkpt><trkpt lat="43.3614561" lon="12.4383315"><ele>365.0</ele><time>2026-05-03T09:11:07.342Z</time></trkpt><trkpt lat="43.3616028" lon="12.4384116"><ele>369.0</ele><time>2026-05-03T09:11:08.342Z</time></trkpt><trkpt lat="43.3617626" lon="12.4384805"><ele>369.0</ele><time>2026-05-03T09:11:09.342Z</time></trkpt><trkpt lat="43.3619248" lon="12.4385476"><ele>369.0</ele><time>2026-05-03T09:11:10.342Z</time></trkpt><trkpt lat="43.3620849" lon="12.4386138"><ele>369.0</ele><time>2026-05-03T09:11:11.342Z</time></trkpt><trkpt lat="43.3622484" lon="12.4386717"><ele>365.3333333333333</ele><time>2026-05-03T09:11:12.343Z</time></trkpt><trkpt lat="43.36242" lon="12.4387175"><ele>361.66666666666663</ele><time>2026-05-03T09:11:13.342Z</time></trkpt><trkpt lat="43.362575" lon="12.4387577"><ele>358.0</ele><time>2026-05-03T09:11:14.342Z</time></trkpt><trkpt lat="43.3627234" lon="12.4388153"><ele>358.0</ele><time>2026-05-03T09:11:15.342Z</time></trkpt><trkpt lat="43.3628599" lon="12.4388941"><ele>358.0</ele><time>2026-05-03T09:11:16.342Z</time></trkpt><trkpt lat="43.3629815" lon="12.4390002"><ele>358.0</ele><time>2026-05-03T09:11:17.343Z</time></trkpt><trkpt lat="43.3630952" lon="12.4391137"><ele>358.0</ele><time>2026-05-03T09:11:18.342Z</time></trkpt><trkpt lat="43.3632054" lon="12.4392311"><ele>357.66666666666663</ele><time>2026-05-03T09:11:19.342Z</time></trkpt><trkpt lat="43.3633197" lon="12.439367"><ele>357.3333333333333</ele><time>2026-05-03T09:11:20.342Z</time></trkpt><trkpt lat="43.3634312" lon="12.4395039"><ele>357.0</ele><time>2026-05-03T09:11:21.343Z</time></trkpt><trkpt lat="43.363534" lon="12.439666"><ele>357.0</ele><time>2026-05-03T09:11:22.342Z</time></trkpt><trkpt lat="43.3636313" lon="12.4398501"><ele>357.0</ele><time>2026-05-03T09:11:23.342Z</time></trkpt><trkpt lat="43.3637331" lon="12.4400195"><ele>357.0</ele><time>2026-05-03T09:11:24.342Z</time></trkpt><trkpt lat="43.3638283" lon="12.4401917"><ele>361.3333333333333</ele><time>2026-05-03T09:11:25.342Z</time></trkpt><trkpt lat="43.3639057" lon="12.4403736"><ele>365.66666666666663</ele><time>2026-05-03T09:11:26.342Z</time></trkpt><trkpt lat="43.3639773" lon="12.4405548"><ele>370.0</ele><time>2026-05-03T09:11:27.342Z</time></trkpt><trkpt lat="43.3640103" lon="12.4407781"><ele>370.0</ele><time>2026-05-03T09:11:28.342Z</time></trkpt><trkpt lat="43.3640412" lon="12.4409993"><ele>370.0</ele><time>2026-05-03T09:11:29.343Z</time></trkpt><trkpt lat="43.364073" lon="12.441214"><ele>370.0</ele><time>2026-05-03T09:11:30.342Z</time></trkpt><trkpt lat="43.3641018" lon="12.4414309"><ele>370.66666666666663</ele><time>2026-05-03T09:11:31.342Z</time></trkpt><trkpt lat="43.3641116" lon="12.4416724"><ele>371.3333333333333</ele><time>2026-05-03T09:11:32.342Z</time></trkpt><trkpt lat="43.3641458" lon="12.4418907"><ele>372.0</ele><time>2026-05-03T09:11:33.342Z</time></trkpt><trkpt lat="43.3641912" lon="12.442098"><ele>368.0</ele><time>2026-05-03T09:11:34.342Z</time></trkpt><trkpt lat="43.3642541" lon="12.442291"><ele>364.0</ele><time>2026-05-03T09:11:35.343Z</time></trkpt><trkpt lat="43.3643385" lon="12.4424789"><ele>360.0</ele><time>2026-05-03T09:11:36.342Z</time></trkpt><trkpt lat="43.3644398" lon="12.4426685"><ele>360.0</ele><time>2026-05-03T09:11:37.342Z</time></trkpt><trkpt lat="43.3645437" lon="12.4428674"><ele>360.0</ele><time>2026-05-03T09:11:38.343Z</time></trkpt><trkpt lat="43.3646548" lon="12.4430694"><ele>360.0</ele><time>2026-05-03T09:11:39.342Z</time></trkpt><trkpt lat="43.3647615" lon="12.4432719"><ele>361.3333333333333</ele><time>2026-05-03T09:11:40.342Z</time></trkpt><trkpt lat="43.3648797" lon="12.4434741"><ele>362.66666666666663</ele><time>2026-05-03T09:11:41.342Z</time></trkpt><trkpt lat="43.364991" lon="12.4436551"><ele>364.0</ele><time>2026-05-03T09:11:42.342Z</time></trkpt><trkpt lat="43.3651033" lon="12.4438444"><ele>364.0</ele><time>2026-05-03T09:11:43.342Z</time></trkpt><trkpt lat="43.3652131" lon="12.4440464"><ele>364.0</ele><time>2026-05-03T09:11:44.342Z</time></trkpt><trkpt lat="43.3653169" lon="12.4442395"><ele>364.0</ele><time>2026-05-03T09:11:45.342Z</time></trkpt><trkpt lat="43.3654258" lon="12.4444332"><ele>361.0</ele><time>2026-05-03T09:11:46.342Z</time></trkpt><trkpt lat="43.3655244" lon="12.4446472"><ele>358.0</ele><time>2026-05-03T09:11:47.342Z</time></trkpt><trkpt lat="43.3656123" lon="12.4448762"><ele>355.0</ele><time>2026-05-03T09:11:48.342Z</time></trkpt><trkpt lat="43.3657114" lon="12.4450994"><ele>361.0</ele><time>2026-05-03T09:11:49.342Z</time></trkpt><trkpt lat="43.365808" lon="12.4453237"><ele>367.0</ele><time>2026-05-03T09:11:50.342Z</time></trkpt><trkpt lat="43.365911" lon="12.4455349"><ele>373.0</ele><time>2026-05-03T09:11:51.342Z</time></trkpt><trkpt lat="43.3660301" lon="12.445735"><ele>373.0</ele><time>2026-05-03T09:11:52.342Z</time></trkpt><trkpt lat="43.366152" lon="12.4459368"><ele>373.0</ele><time>2026-05-03T09:11:53.342Z</time></trkpt><trkpt lat="43.3662732" lon="12.4461316"><ele>373.0</ele><time>2026-05-03T09:11:54.342Z</time></trkpt><trkpt lat="43.3663875" lon="12.4463186"><ele>376.0</ele><time>2026-05-03T09:11:55.342Z</time></trkpt><trkpt lat="43.3665047" lon="12.446484"><ele>379.0</ele><time>2026-05-03T09:11:56.342Z</time></trkpt><trkpt lat="43.3666161" lon="12.4466378"><ele>382.0</ele><time>2026-05-03T09:11:57.342Z</time></trkpt><trkpt lat="43.3667473" lon="12.44678"><ele>382.0</ele><time>2026-05-03T09:11:58.342Z</time></trkpt><trkpt lat="43.3668869" lon="12.4468929"><ele>382.0</ele><time>2026-05-03T09:11:59.342Z</time></trkpt><trkpt lat="43.3670438" lon="12.4469701"><ele>382.0</ele><time>2026-05-03T09:12:00.342Z</time></trkpt><trkpt lat="43.3672016" lon="12.4470305"><ele>380.0</ele><time>2026-05-03T09:12:01.342Z</time></trkpt><trkpt lat="43.3673524" lon="12.4470999"><ele>378.0</ele><time>2026-05-03T09:12:02.342Z</time></trkpt><trkpt lat="43.3675125" lon="12.4471646"><ele>376.0</ele><time>2026-05-03T09:12:03.342Z</time></trkpt><trkpt lat="43.3676839" lon="12.447239"><ele>376.0</ele><time>2026-05-03T09:12:04.342Z</time></trkpt><trkpt lat="43.3678545" lon="12.4473139"><ele>376.0</ele><time>2026-05-03T09:12:05.342Z</time></trkpt><trkpt lat="43.3680292" lon="12.4474012"><ele>376.0</ele><time>2026-05-03T09:12:06.342Z</time></trkpt><trkpt lat="43.3681967" lon="12.447483"><ele>380.66666666666663</ele><time>2026-05-03T09:12:07.342Z</time></trkpt><trkpt lat="43.3683709" lon="12.4475698"><ele>385.3333333333333</ele><time>2026-05-03T09:12:08.342Z</time></trkpt><trkpt lat="43.3685432" lon="12.4476606"><ele>390.0</ele><time>2026-05-03T09:12:09.342Z</time></trkpt><trkpt lat="43.3687079" lon="12.4477424"><ele>387.0</ele><time>2026-05-03T09:12:10.342Z</time></trkpt><trkpt lat="43.3688852" lon="12.4478622"><ele>384.0</ele><time>2026-05-03T09:12:11.342Z</time></trkpt><trkpt lat="43.369056" lon="12.4479689"><ele>381.0</ele><time>2026-05-03T09:12:12.342Z</time></trkpt><trkpt lat="43.3692329" lon="12.4480922"><ele>381.0</ele><time>2026-05-03T09:12:13.343Z</time></trkpt><trkpt lat="43.3694013" lon="12.4482232"><ele>381.0</ele><time>2026-05-03T09:12:14.342Z</time></trkpt><trkpt lat="43.3695691" lon="12.4483373"><ele>381.0</ele><time>2026-05-03T09:12:15.342Z</time></trkpt><trkpt lat="43.3697292" lon="12.4484457"><ele>378.0</ele><time>2026-05-03T09:12:16.342Z</time></trkpt><trkpt lat="43.3698821" lon="12.4485654"><ele>375.0</ele><time>2026-05-03T09:12:17.342Z</time></trkpt><trkpt lat="43.37003" lon="12.4486909"><ele>372.0</ele><time>2026-05-03T09:12:18.342Z</time></trkpt><trkpt lat="43.3701735" lon="12.4488287"><ele>372.0</ele><time>2026-05-03T09:12:19.343Z</time></trkpt><trkpt lat="43.370307" lon="12.449004"><ele>372.0</ele><time>2026-05-03T09:12:20.342Z</time></trkpt><trkpt lat="43.3704312" lon="12.4491836"><ele>372.0</ele><time>2026-05-03T09:12:21.342Z</time></trkpt><trkpt lat="43.3705455" lon="12.4493975"><ele>372.3333333333333</ele><time>2026-05-03T09:12:22.342Z</time></trkpt><trkpt lat="43.3706576" lon="12.4496218"><ele>372.66666666666663</ele><time>2026-05-03T09:12:23.342Z</time></trkpt><trkpt lat="43.3707661" lon="12.449837"><ele>373.0</ele><time>2026-05-03T09:12:24.342Z</time></trkpt><trkpt lat="43.3708729" lon="12.4500635"><ele>373.0</ele><time>2026-05-03T09:12:25.342Z</time></trkpt><trkpt lat="43.370983" lon="12.4502707"><ele>373.0</ele><time>2026-05-03T09:12:26.342Z</time></trkpt><trkpt lat="43.3710857" lon="12.4504842"><ele>373.0</ele><time>2026-05-03T09:12:27.342Z</time></trkpt><trkpt lat="43.3711837" lon="12.450701"><ele>370.3333333333333</ele><time>2026-05-03T09:12:28.342Z</time></trkpt><trkpt lat="43.3712667" lon="12.4509385"><ele>367.6666666666667</ele><time>2026-05-03T09:12:29.342Z</time></trkpt><trkpt lat="43.371325" lon="12.4511685"><ele>365.0</ele><time>2026-05-03T09:12:30.342Z</time></trkpt><trkpt lat="43.3713661" lon="12.451426"><ele>371.6666666666667</ele><time>2026-05-03T09:12:31.342Z</time></trkpt><trkpt lat="43.3713829" lon="12.4516817"><ele>378.33333333333337</ele><time>2026-05-03T09:12:32.342Z</time></trkpt><trkpt lat="43.3713825" lon="12.451943"><ele>385.0</ele><time>2026-05-03T09:12:33.342Z</time></trkpt><trkpt lat="43.3713765" lon="12.4522124"><ele>385.0</ele><time>2026-05-03T09:12:34.342Z</time></trkpt><trkpt lat="43.3713684" lon="12.4524948"><ele>385.0</ele><time>2026-05-03T09:12:35.343Z</time></trkpt><trkpt lat="43.3713694" lon="12.4527728"><ele>385.0</ele><time>2026-05-03T09:12:36.342Z</time></trkpt><trkpt lat="43.3713685" lon="12.4530506"><ele>382.0</ele><time>2026-05-03T09:12:37.342Z</time></trkpt><trkpt lat="43.3713713" lon="12.4533295"><ele>379.0</ele><time>2026-05-03T09:12:38.342Z</time></trkpt><trkpt lat="43.3713695" lon="12.4536075"><ele>376.0</ele><time>2026-05-03T09:12:39.342Z</time></trkpt><trkpt lat="43.3713657" lon="12.4538847"><ele>374.66666666666663</ele><time>2026-05-03T09:12:40.342Z</time></trkpt><trkpt lat="43.3713677" lon="12.4541595"><ele>373.3333333333333</ele><time>2026-05-03T09:12:41.342Z</time></trkpt><trkpt lat="43.3713697" lon="12.4544186"><ele>372.0</ele><time>2026-05-03T09:12:42.342Z</time></trkpt><trkpt lat="43.3713737" lon="12.4546787"><ele>371.6666666666667</ele><time>2026-05-03T09:12:43.342Z</time></trkpt><trkpt lat="43.3713777" lon="12.4549292"><ele>371.33333333333337</ele><time>2026-05-03T09:12:44.342Z</time></trkpt><trkpt lat="43.3713903" lon="12.4551674"><ele>371.0</ele><time>2026-05-03T09:12:45.342Z</time></trkpt><trkpt lat="43.3714072" lon="12.4553977"><ele>370.33333333333337</ele><time>2026-05-03T09:12:46.342Z</time></trkpt><trkpt lat="43.3714381" lon="12.4556109"><ele>369.6666666666667</ele><time>2026-05-03T09:12:47.342Z</time></trkpt><trkpt lat="43.3714812" lon="12.455809"><ele>369.0</ele><time>2026-05-03T09:12:48.342Z</time></trkpt><trkpt lat="43.3715442" lon="12.4559943"><ele>369.0</ele><time>2026-05-03T09:12:49.342Z</time></trkpt><trkpt lat="43.3716202" lon="12.4561506"><ele>369.0</ele><time>2026-05-03T09:12:50.342Z</time></trkpt><trkpt lat="43.3716999" lon="12.4563101"><ele>369.0</ele><time>2026-05-03T09:12:51.342Z</time></trkpt><trkpt lat="43.3717787" lon="12.4564572"><ele>369.0</ele><time>2026-05-03T09:12:52.342Z</time></trkpt><trkpt lat="43.3718408" lon="12.4566073"><ele>368.5</ele><time>2026-05-03T09:12:53.342Z</time></trkpt><trkpt lat="43.3719012" lon="12.4567615"><ele>368.0</ele><time>2026-05-03T09:12:54.342Z</time></trkpt><trkpt lat="43.3719451" lon="12.456933"><ele>367.5</ele><time>2026-05-03T09:12:55.342Z</time></trkpt><trkpt lat="43.3719739" lon="12.4571228"><ele>367.0</ele><time>2026-05-03T09:12:56.342Z</time></trkpt><trkpt lat="43.3719783" lon="12.4573131"><ele>367.0</ele><time>2026-05-03T09:12:57.342Z</time></trkpt><trkpt lat="43.3719688" lon="12.4575026"><ele>367.0</ele><time>2026-05-03T09:12:58.342Z</time></trkpt><trkpt lat="43.3719569" lon="12.4576945"><ele>367.0</ele><time>2026-05-03T09:12:59.342Z</time></trkpt><trkpt lat="43.3719593" lon="12.4579035"><ele>367.0</ele><time>2026-05-03T09:13:00.342Z</time></trkpt><trkpt lat="43.3719673" lon="12.458087"><ele>367.66666666666663</ele><time>2026-05-03T09:13:01.342Z</time></trkpt><trkpt lat="43.3720017" lon="12.4583046"><ele>368.3333333333333</ele><time>2026-05-03T09:13:02.342Z</time></trkpt><trkpt lat="43.3720367" lon="12.4585142"><ele>369.0</ele><time>2026-05-03T09:13:03.342Z</time></trkpt><trkpt lat="43.3720802" lon="12.4587314"><ele>369.0</ele><time>2026-05-03T09:13:04.342Z</time></trkpt><trkpt lat="43.3721134" lon="12.4589634"><ele>369.0</ele><time>2026-05-03T09:13:05.342Z</time></trkpt><trkpt lat="43.3721484" lon="12.459189"><ele>369.0</ele><time>2026-05-03T09:13:06.342Z</time></trkpt><trkpt lat="43.3721831" lon="12.4594207"><ele>377.33333333333337</ele><time>2026-05-03T09:13:07.342Z</time></trkpt><trkpt lat="43.3722227" lon="12.4596655"><ele>385.6666666666667</ele><time>2026-05-03T09:13:08.342Z</time></trkpt><trkpt lat="43.3722424" lon="12.4598983"><ele>394.0</ele><time>2026-05-03T09:13:09.342Z</time></trkpt><trkpt lat="43.3722543" lon="12.4601391"><ele>394.0</ele><time>2026-05-03T09:13:10.343Z</time></trkpt><trkpt lat="43.3722484" lon="12.4603834"><ele>394.0</ele><time>2026-05-03T09:13:11.342Z</time></trkpt><trkpt lat="43.3722316" lon="12.4606255"><ele>394.0</ele><time>2026-05-03T09:13:12.343Z</time></trkpt><trkpt lat="43.3722138" lon="12.4608619"><ele>393.6666666666667</ele><time>2026-05-03T09:13:13.342Z</time></trkpt><trkpt lat="43.3721998" lon="12.4610956"><ele>393.33333333333337</ele><time>2026-05-03T09:13:14.342Z</time></trkpt><trkpt lat="43.372184" lon="12.461322"><ele>393.0</ele><time>2026-05-03T09:13:15.342Z</time></trkpt><trkpt lat="43.3721862" lon="12.4615371"><ele>391.33333333333337</ele><time>2026-05-03T09:13:16.342Z</time></trkpt><trkpt lat="43.3721983" lon="12.4617616"><ele>389.6666666666667</ele><time>2026-05-03T09:13:17.342Z</time></trkpt><trkpt lat="43.3722209" lon="12.4619732"><ele>388.0</ele><time>2026-05-03T09:13:18.342Z</time></trkpt><trkpt lat="43.3722709" lon="12.4621804"><ele>386.5</ele><time>2026-05-03T09:13:19.342Z</time></trkpt><trkpt lat="43.372336" lon="12.4623663"><ele>385.0</ele><time>2026-05-03T09:13:20.342Z</time></trkpt><trkpt lat="43.3724063" lon="12.4625456"><ele>383.5</ele><time>2026-05-03T09:13:21.342Z</time></trkpt><trkpt lat="43.3724786" lon="12.4627222"><ele>382.0</ele><time>2026-05-03T09:13:22.342Z</time></trkpt><trkpt lat="43.3725573" lon="12.4628929"><ele>379.5</ele><time>2026-05-03T09:13:23.342Z</time></trkpt><trkpt lat="43.3726412" lon="12.463043"><ele>377.0</ele><time>2026-05-03T09:13:24.342Z</time></trkpt><trkpt lat="43.3727266" lon="12.4631582"><ele>374.5</ele><time>2026-05-03T09:13:25.342Z</time></trkpt><trkpt lat="43.3728303" lon="12.4632535"><ele>372.0</ele><time>2026-05-03T09:13:26.342Z</time></trkpt><trkpt lat="43.3729367" lon="12.4633194"><ele>374.75</ele><time>2026-05-03T09:13:27.342Z</time></trkpt><trkpt lat="43.3730503" lon="12.4633557"><ele>377.5</ele><time>2026-05-03T09:13:28.342Z</time></trkpt><trkpt lat="43.3731629" lon="12.4633764"><ele>380.25</ele><time>2026-05-03T09:13:29.342Z</time></trkpt><trkpt lat="43.3732797" lon="12.4633994"><ele>383.0</ele><time>2026-05-03T09:13:30.342Z</time></trkpt><trkpt lat="43.3733807" lon="12.4634376"><ele>383.0</ele><time>2026-05-03T09:13:31.342Z</time></trkpt><trkpt lat="43.3734767" lon="12.4634805"><ele>383.0</ele><time>2026-05-03T09:13:32.342Z</time></trkpt><trkpt lat="43.3735744" lon="12.4635274"><ele>383.0</ele><time>2026-05-03T09:13:33.342Z</time></trkpt><trkpt lat="43.3736629" lon="12.4635838"><ele>383.0</ele><time>2026-05-03T09:13:34.342Z</time></trkpt><trkpt lat="43.3737543" lon="12.4636323"><ele>383.0</ele><time>2026-05-03T09:13:35.342Z</time></trkpt><trkpt lat="43.3738513" lon="12.4636974"><ele>384.5</ele><time>2026-05-03T09:13:36.343Z</time></trkpt><trkpt lat="43.3739595" lon="12.4637615"><ele>386.0</ele><time>2026-05-03T09:13:37.342Z</time></trkpt><trkpt lat="43.3740585" lon="12.463818"><ele>387.5</ele><time>2026-05-03T09:13:38.342Z</time></trkpt><trkpt lat="43.3741586" lon="12.4638938"><ele>389.0</ele><time>2026-05-03T09:13:39.343Z</time></trkpt><trkpt lat="43.3742578" lon="12.463971"><ele>385.5</ele><time>2026-05-03T09:13:40.342Z</time></trkpt><trkpt lat="43.3743527" lon="12.464076"><ele>382.0</ele><time>2026-05-03T09:13:41.342Z</time></trkpt><trkpt lat="43.3744137" lon="12.4642008"><ele>378.5</ele><time>2026-05-03T09:13:42.342Z</time></trkpt><trkpt lat="43.3744693" lon="12.4643495"><ele>375.0</ele><time>2026-05-03T09:13:43.343Z</time></trkpt><trkpt lat="43.3745113" lon="12.4645083"><ele>373.6666666666667</ele><time>2026-05-03T09:13:44.342Z</time></trkpt><trkpt lat="43.3745407" lon="12.4646917"><ele>372.33333333333337</ele><time>2026-05-03T09:13:45.342Z</time></trkpt><trkpt lat="43.3745712" lon="12.4648896"><ele>371.0</ele><time>2026-05-03T09:13:46.342Z</time></trkpt><trkpt lat="43.3746153" lon="12.4651231"><ele>371.0</ele><time>2026-05-03T09:13:47.343Z</time></trkpt><trkpt lat="43.3746451" lon="12.4653384"><ele>371.0</ele><time>2026-05-03T09:13:48.342Z</time></trkpt><trkpt lat="43.3746736" lon="12.4655535"><ele>371.0</ele><time>2026-05-03T09:13:49.342Z</time></trkpt><trkpt lat="43.3747066" lon="12.4657804"><ele>377.33333333333337</ele><time>2026-05-03T09:13:50.342Z</time></trkpt><trkpt lat="43.3747402" lon="12.4660203"><ele>383.6666666666667</ele><time>2026-05-03T09:13:51.342Z</time></trkpt><trkpt lat="43.3747801" lon="12.4662531"><ele>390.0</ele><time>2026-05-03T09:13:52.342Z</time></trkpt><trkpt lat="43.3748202" lon="12.4664931"><ele>390.0</ele><time>2026-05-03T09:13:53.342Z</time></trkpt><trkpt lat="43.3748517" lon="12.4667147"><ele>390.0</ele><time>2026-05-03T09:13:54.343Z</time></trkpt><trkpt lat="43.3748905" lon="12.4669488"><ele>390.0</ele><time>2026-05-03T09:13:55.342Z</time></trkpt><trkpt lat="43.374929" lon="12.4671898"><ele>390.0</ele><time>2026-05-03T09:13:56.342Z</time></trkpt><trkpt lat="43.374972" lon="12.4674315"><ele>390.0</ele><time>2026-05-03T09:13:57.342Z</time></trkpt><trkpt lat="43.3750074" lon="12.467662"><ele>390.0</ele><time>2026-05-03T09:13:58.342Z</time></trkpt><trkpt lat="43.375026" lon="12.4678854"><ele>391.0</ele><time>2026-05-03T09:13:59.342Z</time></trkpt><trkpt lat="43.3750203" lon="12.4681046"><ele>392.0</ele><time>2026-05-03T09:14:00.343Z</time></trkpt><trkpt lat="43.3750069" lon="12.4683288"><ele>393.0</ele><time>2026-05-03T09:14:01.342Z</time></trkpt><trkpt lat="43.3749745" lon="12.4685406"><ele>393.0</ele><time>2026-05-03T09:14:02.342Z</time></trkpt><trkpt lat="43.37494" lon="12.468738"><ele>393.0</ele><time>2026-05-03T09:14:03.342Z</time></trkpt><trkpt lat="43.3749171" lon="12.4689389"><ele>393.0</ele><time>2026-05-03T09:14:04.342Z</time></trkpt><trkpt lat="43.3749166" lon="12.4691297"><ele>393.0</ele><time>2026-05-03T09:14:05.342Z</time></trkpt><trkpt lat="43.3749257" lon="12.4693338"><ele>393.0</ele><time>2026-05-03T09:14:06.342Z</time></trkpt><trkpt lat="43.3749645" lon="12.4695267"><ele>393.0</ele><time>2026-05-03T09:14:07.342Z</time></trkpt><trkpt lat="43.3750122" lon="12.4696949"><ele>393.0</ele><time>2026-05-03T09:14:08.342Z</time></trkpt><trkpt lat="43.375083" lon="12.4698721"><ele>393.0</ele><time>2026-05-03T09:14:09.342Z</time></trkpt><trkpt lat="43.37517" lon="12.4700263"><ele>394.0</ele><time>2026-05-03T09:14:10.342Z</time></trkpt><trkpt lat="43.3752802" lon="12.4701735"><ele>395.0</ele><time>2026-05-03T09:14:11.342Z</time></trkpt><trkpt lat="43.3753867" lon="12.4703068"><ele>396.0</ele><time>2026-05-03T09:14:12.342Z</time></trkpt><trkpt lat="43.3754892" lon="12.4704353"><ele>397.0</ele><time>2026-05-03T09:14:13.342Z</time></trkpt><trkpt lat="43.375596" lon="12.4705736"><ele>397.0</ele><time>2026-05-03T09:14:14.342Z</time></trkpt><trkpt lat="43.375676" lon="12.4707125"><ele>397.0</ele><time>2026-05-03T09:14:15.342Z</time></trkpt><trkpt lat="43.3757377" lon="12.470853"><ele>397.0</ele><time>2026-05-03T09:14:16.342Z</time></trkpt><trkpt lat="43.3757657" lon="12.4710223"><ele>397.0</ele><time>2026-05-03T09:14:17.342Z</time></trkpt><trkpt lat="43.3757752" lon="12.4711946"><ele>395.5</ele><time>2026-05-03T09:14:18.343Z</time></trkpt><trkpt lat="43.3757639" lon="12.4713804"><ele>394.0</ele><time>2026-05-03T09:14:19.343Z</time></trkpt><trkpt lat="43.3757553" lon="12.4715751"><ele>392.5</ele><time>2026-05-03T09:14:20.342Z</time></trkpt><trkpt lat="43.3757465" lon="12.4717776"><ele>391.0</ele><time>2026-05-03T09:14:21.342Z</time></trkpt><trkpt lat="43.3757366" lon="12.4719821"><ele>392.75</ele><time>2026-05-03T09:14:22.342Z</time></trkpt><trkpt lat="43.3757264" lon="12.4721791"><ele>394.5</ele><time>2026-05-03T09:14:23.342Z</time></trkpt><trkpt lat="43.3757156" lon="12.4723767"><ele>396.25</ele><time>2026-05-03T09:14:24.342Z</time></trkpt><trkpt lat="43.3757019" lon="12.4725556"><ele>398.0</ele><time>2026-05-03T09:14:25.342Z</time></trkpt><trkpt lat="43.3756887" lon="12.4727375"><ele>398.0</ele><time>2026-05-03T09:14:26.342Z</time></trkpt><trkpt lat="43.3756762" lon="12.4729244"><ele>398.0</ele><time>2026-05-03T09:14:27.342Z</time></trkpt><trkpt lat="43.375664" lon="12.4731015"><ele>398.0</ele><time>2026-05-03T09:14:28.342Z</time></trkpt><trkpt lat="43.375643" lon="12.4732911"><ele>398.0</ele><time>2026-05-03T09:14:29.342Z</time></trkpt><trkpt lat="43.3756291" lon="12.473488"><ele>399.0</ele><time>2026-05-03T09:14:30.342Z</time></trkpt><trkpt lat="43.3756113" lon="12.4736903"><ele>400.0</ele><time>2026-05-03T09:14:31.342Z</time></trkpt><trkpt lat="43.3755925" lon="12.4738912"><ele>401.0</ele><time>2026-05-03T09:14:32.342Z</time></trkpt><trkpt lat="43.3755852" lon="12.4740962"><ele>402.0</ele><time>2026-05-03T09:14:33.342Z</time></trkpt><trkpt lat="43.3755751" lon="12.4743107"><ele>403.66666666666663</ele><time>2026-05-03T09:14:34.342Z</time></trkpt><trkpt lat="43.3755682" lon="12.4745236"><ele>405.3333333333333</ele><time>2026-05-03T09:14:35.343Z</time></trkpt><trkpt lat="43.3755488" lon="12.4747383"><ele>407.0</ele><time>2026-05-03T09:14:36.342Z</time></trkpt><trkpt lat="43.3755332" lon="12.4749616"><ele>399.3333333333333</ele><time>2026-05-03T09:14:37.342Z</time></trkpt><trkpt lat="43.3755187" lon="12.4751788"><ele>391.66666666666663</ele><time>2026-05-03T09:14:38.342Z</time></trkpt><trkpt lat="43.3755075" lon="12.4753998"><ele>384.0</ele><time>2026-05-03T09:14:39.342Z</time></trkpt><trkpt lat="43.375495" lon="12.4756206"><ele>384.0</ele><time>2026-05-03T09:14:40.343Z</time></trkpt><trkpt lat="43.3754933" lon="12.4758174"><ele>384.0</ele><time>2026-05-03T09:14:41.342Z</time></trkpt><trkpt lat="43.3754767" lon="12.4760331"><ele>384.0</ele><time>2026-05-03T09:14:42.342Z</time></trkpt><trkpt lat="43.37546" lon="12.4762467"><ele>384.0</ele><time>2026-05-03T09:14:43.342Z</time></trkpt><trkpt lat="43.3754347" lon="12.476462"><ele>384.0</ele><time>2026-05-03T09:14:44.343Z</time></trkpt><trkpt lat="43.375392" lon="12.4766733"><ele>384.0</ele><time>2026-05-03T09:14:45.342Z</time></trkpt><trkpt lat="43.3753297" lon="12.4768795"><ele>384.0</ele><time>2026-05-03T09:14:46.342Z</time></trkpt><trkpt lat="43.3752517" lon="12.4770777"><ele>384.0</ele><time>2026-05-03T09:14:47.342Z</time></trkpt><trkpt lat="43.3751627" lon="12.477274"><ele>384.0</ele><time>2026-05-03T09:14:48.342Z</time></trkpt><trkpt lat="43.3750574" lon="12.4774579"><ele>388.66666666666663</ele><time>2026-05-03T09:14:49.342Z</time></trkpt><trkpt lat="43.3749471" lon="12.4776415"><ele>393.3333333333333</ele><time>2026-05-03T09:14:50.343Z</time></trkpt><trkpt lat="43.3748346" lon="12.4778087"><ele>398.0</ele><time>2026-05-03T09:14:51.342Z</time></trkpt><trkpt lat="43.3747067" lon="12.4779724"><ele>396.66666666666663</ele><time>2026-05-03T09:14:52.342Z</time></trkpt><trkpt lat="43.3745761" lon="12.4781201"><ele>395.33333333333337</ele><time>2026-05-03T09:14:53.342Z</time></trkpt><trkpt lat="43.374459" lon="12.4782594"><ele>394.0</ele><time>2026-05-03T09:14:54.342Z</time></trkpt><trkpt lat="43.3743367" lon="12.4783968"><ele>394.0</ele><time>2026-05-03T09:14:55.343Z</time></trkpt><trkpt lat="43.3742165" lon="12.4785248"><ele>394.0</ele><time>2026-05-03T09:14:56.342Z</time></trkpt><trkpt lat="43.3741006" lon="12.4786582"><ele>394.0</ele><time>2026-05-03T09:14:57.343Z</time></trkpt><trkpt lat="43.3739862" lon="12.4787865"><ele>393.0</ele><time>2026-05-03T09:14:58.342Z</time></trkpt><trkpt lat="43.3738665" lon="12.4789183"><ele>392.0</ele><time>2026-05-03T09:14:59.342Z</time></trkpt><trkpt lat="43.37375" lon="12.4790673"><ele>391.0</ele><time>2026-05-03T09:15:00.342Z</time></trkpt><trkpt lat="43.3736414" lon="12.4792171"><ele>391.0</ele><time>2026-05-03T09:15:01.342Z</time></trkpt><trkpt lat="43.3735331" lon="12.4793758"><ele>391.0</ele><time>2026-05-03T09:15:02.343Z</time></trkpt><trkpt lat="43.3734402" lon="12.4795325"><ele>391.0</ele><time>2026-05-03T09:15:03.343Z</time></trkpt><trkpt lat="43.3733482" lon="12.4796875"><ele>395.0</ele><time>2026-05-03T09:15:04.342Z</time></trkpt><trkpt lat="43.3732642" lon="12.4798612"><ele>399.0</ele><time>2026-05-03T09:15:05.342Z</time></trkpt><trkpt lat="43.373202" lon="12.4800575"><ele>403.0</ele><time>2026-05-03T09:15:06.342Z</time></trkpt><trkpt lat="43.3731568" lon="12.480257"><ele>402.6666666666667</ele><time>2026-05-03T09:15:07.342Z</time></trkpt><trkpt lat="43.3731583" lon="12.480469"><ele>402.33333333333337</ele><time>2026-05-03T09:15:08.342Z</time></trkpt><trkpt lat="43.373181" lon="12.4806911"><ele>402.0</ele><time>2026-05-03T09:15:09.342Z</time></trkpt><trkpt lat="43.373223" lon="12.4808963"><ele>402.0</ele><time>2026-05-03T09:15:10.342Z</time></trkpt><trkpt lat="43.3732856" lon="12.4811038"><ele>402.0</ele><time>2026-05-03T09:15:11.342Z</time></trkpt><trkpt lat="43.3733702" lon="12.4812775"><ele>402.0</ele><time>2026-05-03T09:15:12.342Z</time></trkpt><trkpt lat="43.3734815" lon="12.4814315"><ele>402.33333333333337</ele><time>2026-05-03T09:15:13.342Z</time></trkpt><trkpt lat="43.3736129" lon="12.4815769"><ele>402.6666666666667</ele><time>2026-05-03T09:15:14.342Z</time></trkpt><trkpt lat="43.3737509" lon="12.4817061"><ele>403.0</ele><time>2026-05-03T09:15:15.342Z</time></trkpt><trkpt lat="43.3738887" lon="12.4818397"><ele>403.0</ele><time>2026-05-03T09:15:16.343Z</time></trkpt><trkpt lat="43.3740378" lon="12.48197"><ele>403.0</ele><time>2026-05-03T09:15:17.342Z</time></trkpt><trkpt lat="43.3741809" lon="12.4821241"><ele>403.0</ele><time>2026-05-03T09:15:18.342Z</time></trkpt><trkpt lat="43.3743235" lon="12.4822764"><ele>401.33333333333337</ele><time>2026-05-03T09:15:19.342Z</time></trkpt><trkpt lat="43.3744594" lon="12.4824422"><ele>399.66666666666663</ele><time>2026-05-03T09:15:20.342Z</time></trkpt><trkpt lat="43.3745874" lon="12.482618"><ele>398.0</ele><time>2026-05-03T09:15:21.342Z</time></trkpt><trkpt lat="43.3747126" lon="12.4828034"><ele>399.3333333333333</ele><time>2026-05-03T09:15:22.342Z</time></trkpt><trkpt lat="43.3748399" lon="12.4829824"><ele>400.66666666666663</ele><time>2026-05-03T09:15:23.342Z</time></trkpt><trkpt lat="43.3749627" lon="12.4831926"><ele>402.0</ele><time>2026-05-03T09:15:24.342Z</time></trkpt><trkpt lat="43.3750815" lon="12.4833913"><ele>402.0</ele><time>2026-05-03T09:15:25.342Z</time></trkpt><trkpt lat="43.3751986" lon="12.4835924"><ele>402.0</ele><time>2026-05-03T09:15:26.342Z</time></trkpt><trkpt lat="43.3753177" lon="12.4837904"><ele>402.0</ele><time>2026-05-03T09:15:27.342Z</time></trkpt><trkpt lat="43.3754452" lon="12.4839895"><ele>403.0</ele><time>2026-05-03T09:15:28.342Z</time></trkpt><trkpt lat="43.3755651" lon="12.4841868"><ele>404.0</ele><time>2026-05-03T09:15:29.343Z</time></trkpt><trkpt lat="43.3756778" lon="12.4843896"><ele>405.0</ele><time>2026-05-03T09:15:30.343Z</time></trkpt><trkpt lat="43.3757956" lon="12.4845968"><ele>402.66666666666663</ele><time>2026-05-03T09:15:31.342Z</time></trkpt><trkpt lat="43.3759077" lon="12.484802"><ele>400.3333333333333</ele><time>2026-05-03T09:15:32.342Z</time></trkpt><trkpt lat="43.3760242" lon="12.4850079"><ele>398.0</ele><time>2026-05-03T09:15:33.342Z</time></trkpt><trkpt lat="43.376143" lon="12.4851954"><ele>398.0</ele><time>2026-05-03T09:15:34.343Z</time></trkpt><trkpt lat="43.3762547" lon="12.4853861"><ele>398.0</ele><time>2026-05-03T09:15:35.342Z</time></trkpt><trkpt lat="43.3763648" lon="12.4855742"><ele>398.0</ele><time>2026-05-03T09:15:36.342Z</time></trkpt><trkpt lat="43.3764783" lon="12.4857677"><ele>398.66666666666663</ele><time>2026-05-03T09:15:37.342Z</time></trkpt><trkpt lat="43.3765911" lon="12.4859562"><ele>399.33333333333337</ele><time>2026-05-03T09:15:38.342Z</time></trkpt><trkpt lat="43.3767023" lon="12.486135"><ele>400.0</ele><time>2026-05-03T09:15:39.342Z</time></trkpt><trkpt lat="43.3768124" lon="12.4863137"><ele>400.0</ele><time>2026-05-03T09:15:40.342Z</time></trkpt><trkpt lat="43.3769167" lon="12.4864833"><ele>400.0</ele><time>2026-05-03T09:15:41.343Z</time></trkpt><trkpt lat="43.3770125" lon="12.4866611"><ele>400.0</ele><time>2026-05-03T09:15:42.342Z</time></trkpt><trkpt lat="43.3771189" lon="12.4868363"><ele>400.6666666666667</ele><time>2026-05-03T09:15:43.342Z</time></trkpt><trkpt lat="43.3772232" lon="12.4870064"><ele>401.33333333333337</ele><time>2026-05-03T09:15:44.342Z</time></trkpt><trkpt lat="43.3773312" lon="12.4871698"><ele>402.0</ele><time>2026-05-03T09:15:45.342Z</time></trkpt><trkpt lat="43.3774214" lon="12.4873352"><ele>402.0</ele><time>2026-05-03T09:15:46.342Z</time></trkpt><trkpt lat="43.3775134" lon="12.4875043"><ele>402.0</ele><time>2026-05-03T09:15:47.342Z</time></trkpt><trkpt lat="43.3775892" lon="12.4876717"><ele>402.0</ele><time>2026-05-03T09:15:48.342Z</time></trkpt><trkpt lat="43.3776347" lon="12.4878632"><ele>402.0</ele><time>2026-05-03T09:15:49.342Z</time></trkpt><trkpt lat="43.3776558" lon="12.4880636"><ele>402.0</ele><time>2026-05-03T09:15:50.343Z</time></trkpt><trkpt lat="43.3776489" lon="12.4882634"><ele>402.0</ele><time>2026-05-03T09:15:51.342Z</time></trkpt><trkpt lat="43.3776303" lon="12.4884601"><ele>402.0</ele><time>2026-05-03T09:15:52.342Z</time></trkpt><trkpt lat="43.3775977" lon="12.4886589"><ele>402.0</ele><time>2026-05-03T09:15:53.342Z</time></trkpt><trkpt lat="43.3775587" lon="12.4888502"><ele>402.5</ele><time>2026-05-03T09:15:54.342Z</time></trkpt><trkpt lat="43.3775193" lon="12.4890382"><ele>403.0</ele><time>2026-05-03T09:15:55.342Z</time></trkpt><trkpt lat="43.3774809" lon="12.4892322"><ele>403.5</ele><time>2026-05-03T09:15:56.342Z</time></trkpt><trkpt lat="43.3774382" lon="12.48943"><ele>404.0</ele><time>2026-05-03T09:15:57.342Z</time></trkpt><trkpt lat="43.3773969" lon="12.4896214"><ele>405.0</ele><time>2026-05-03T09:15:58.342Z</time></trkpt><trkpt lat="43.3773585" lon="12.4898114"><ele>406.0</ele><time>2026-05-03T09:15:59.343Z</time></trkpt><trkpt lat="43.3773224" lon="12.4900085"><ele>407.0</ele><time>2026-05-03T09:16:00.342Z</time></trkpt><trkpt lat="43.3772848" lon="12.4902069"><ele>408.0</ele><time>2026-05-03T09:16:01.342Z</time></trkpt><trkpt lat="43.3772487" lon="12.4903966"><ele>408.25</ele><time>2026-05-03T09:16:02.342Z</time></trkpt><trkpt lat="43.3772187" lon="12.490579"><ele>408.5</ele><time>2026-05-03T09:16:03.342Z</time></trkpt><trkpt lat="43.3771979" lon="12.4907612"><ele>408.75</ele><time>2026-05-03T09:16:04.342Z</time></trkpt><trkpt lat="43.3771927" lon="12.490958"><ele>409.0</ele><time>2026-05-03T09:16:05.342Z</time></trkpt><trkpt lat="43.3772033" lon="12.4911463"><ele>409.25</ele><time>2026-05-03T09:16:06.342Z</time></trkpt><trkpt lat="43.3772323" lon="12.4913233"><ele>409.5</ele><time>2026-05-03T09:16:07.342Z</time></trkpt><trkpt lat="43.3772767" lon="12.4914959"><ele>409.75</ele><time>2026-05-03T09:16:08.343Z</time></trkpt><trkpt lat="43.3773381" lon="12.4916627"><ele>410.0</ele><time>2026-05-03T09:16:09.342Z</time></trkpt><trkpt lat="43.3773994" lon="12.4918258"><ele>410.0</ele><time>2026-05-03T09:16:10.342Z</time></trkpt><trkpt lat="43.3774511" lon="12.4919738"><ele>410.0</ele><time>2026-05-03T09:16:11.342Z</time></trkpt><trkpt lat="43.3774999" lon="12.4921137"><ele>410.0</ele><time>2026-05-03T09:16:12.342Z</time></trkpt><trkpt lat="43.3775463" lon="12.4922471"><ele>410.0</ele><time>2026-05-03T09:16:13.342Z</time></trkpt><trkpt lat="43.3775883" lon="12.4923628"><ele>410.0</ele><time>2026-05-03T09:16:14.342Z</time></trkpt><trkpt lat="43.3776273" lon="12.4924718"><ele>409.99999999999994</ele><time>2026-05-03T09:16:15.342Z</time></trkpt><trkpt lat="43.3776677" lon="12.492584"><ele>410.0</ele><time>2026-05-03T09:16:16.342Z</time></trkpt><trkpt lat="43.3777045" lon="12.4926799"><ele>410.0</ele><time>2026-05-03T09:16:17.342Z</time></trkpt><trkpt lat="43.3777332" lon="12.4927689"><ele>410.0</ele><time>2026-05-03T09:16:18.342Z</time></trkpt><trkpt lat="43.3777574" lon="12.492858"><ele>409.99999999999994</ele><time>2026-05-03T09:16:19.342Z</time></trkpt><trkpt lat="43.3777704" lon="12.4930117"><ele>410.0</ele><time>2026-05-03T09:16:21.342Z</time></trkpt><trkpt lat="43.3777244" lon="12.4931483"><ele>410.3333333333333</ele><time>2026-05-03T09:16:23.342Z</time></trkpt><trkpt lat="43.3776727" lon="12.4932035"><ele>410.66666666666663</ele><time>2026-05-03T09:16:24.342Z</time></trkpt><trkpt lat="43.3776046" lon="12.4932274"><ele>411.0</ele><time>2026-05-03T09:16:25.342Z</time></trkpt><trkpt lat="43.3775216" lon="12.4932143"><ele>411.33333333333337</ele><time>2026-05-03T09:16:26.342Z</time></trkpt><trkpt lat="43.3774291" lon="12.4931934"><ele>411.6666666666667</ele><time>2026-05-03T09:16:27.342Z</time></trkpt><trkpt lat="43.377333" lon="12.4931825"><ele>412.0</ele><time>2026-05-03T09:16:28.342Z</time></trkpt><trkpt lat="43.3772309" lon="12.4931525"><ele>411.8</ele><time>2026-05-03T09:16:29.342Z</time></trkpt><trkpt lat="43.377124" lon="12.4931321"><ele>411.6</ele><time>2026-05-03T09:16:30.342Z</time></trkpt><trkpt lat="43.377015" lon="12.4931124"><ele>411.40000000000003</ele><time>2026-05-03T09:16:31.342Z</time></trkpt><trkpt lat="43.3769078" lon="12.4930844"><ele>411.20000000000005</ele><time>2026-05-03T09:16:32.342Z</time></trkpt><trkpt lat="43.3767996" lon="12.4930557"><ele>411.0</ele><time>2026-05-03T09:16:33.342Z</time></trkpt><trkpt lat="43.3766955" lon="12.4930388"><ele>411.0</ele><time>2026-05-03T09:16:34.342Z</time></trkpt><trkpt lat="43.3765914" lon="12.4930226"><ele>411.0</ele><time>2026-05-03T09:16:35.342Z</time></trkpt><trkpt lat="43.3764928" lon="12.4930245"><ele>411.0</ele><time>2026-05-03T09:16:36.342Z</time></trkpt><trkpt lat="43.3763897" lon="12.4930534"><ele>411.0</ele><time>2026-05-03T09:16:37.342Z</time></trkpt><trkpt lat="43.3762972" lon="12.4931144"><ele>411.0</ele><time>2026-05-03T09:16:38.342Z</time></trkpt><trkpt lat="43.3762239" lon="12.4931918"><ele>411.4</ele><time>2026-05-03T09:16:39.342Z</time></trkpt><trkpt lat="43.3761656" lon="12.493301"><ele>411.8</ele><time>2026-05-03T09:16:40.343Z</time></trkpt><trkpt lat="43.3761173" lon="12.4934209"><ele>412.2</ele><time>2026-05-03T09:16:41.343Z</time></trkpt><trkpt lat="43.3760962" lon="12.4935571"><ele>412.59999999999997</ele><time>2026-05-03T09:16:42.342Z</time></trkpt><trkpt lat="43.3761074" lon="12.4936916"><ele>413.0</ele><time>2026-05-03T09:16:43.342Z</time></trkpt><trkpt lat="43.3761416" lon="12.4938283"><ele>413.0</ele><time>2026-05-03T09:16:44.342Z</time></trkpt><trkpt lat="43.3761868" lon="12.4939473"><ele>413.0</ele><time>2026-05-03T09:16:45.342Z</time></trkpt><trkpt lat="43.3762595" lon="12.4940538"><ele>413.0</ele><time>2026-05-03T09:16:46.342Z</time></trkpt><trkpt lat="43.3763444" lon="12.4941498"><ele>413.0</ele><time>2026-05-03T09:16:47.342Z</time></trkpt><trkpt lat="43.3764334" lon="12.4942376"><ele>413.0</ele><time>2026-05-03T09:16:48.342Z</time></trkpt><trkpt lat="43.3765147" lon="12.4943305"><ele>412.75</ele><time>2026-05-03T09:16:49.342Z</time></trkpt><trkpt lat="43.376595" lon="12.4944472"><ele>412.5</ele><time>2026-05-03T09:16:50.343Z</time></trkpt><trkpt lat="43.376673" lon="12.4945748"><ele>412.25</ele><time>2026-05-03T09:16:51.343Z</time></trkpt><trkpt lat="43.3767399" lon="12.4947059"><ele>412.0</ele><time>2026-05-03T09:16:52.342Z</time></trkpt><trkpt lat="43.3767662" lon="12.4948589"><ele>412.0</ele><time>2026-05-03T09:16:53.342Z</time></trkpt><trkpt lat="43.3767558" lon="12.4950419"><ele>412.0</ele><time>2026-05-03T09:16:54.342Z</time></trkpt><trkpt lat="43.3767495" lon="12.4952215"><ele>412.0</ele><time>2026-05-03T09:16:55.342Z</time></trkpt><trkpt lat="43.3767413" lon="12.4953963"><ele>412.0</ele><time>2026-05-03T09:16:56.342Z</time></trkpt><trkpt lat="43.376724" lon="12.4955967"><ele>412.0</ele><time>2026-05-03T09:16:57.342Z</time></trkpt><trkpt lat="43.3767069" lon="12.495791"><ele>412.0</ele><time>2026-05-03T09:16:58.343Z</time></trkpt><trkpt lat="43.3766859" lon="12.4959852"><ele>412.0</ele><time>2026-05-03T09:16:59.342Z</time></trkpt><trkpt lat="43.3766702" lon="12.4961832"><ele>412.0</ele><time>2026-05-03T09:17:00.342Z</time></trkpt><trkpt lat="43.3766505" lon="12.4963829"><ele>411.75</ele><time>2026-05-03T09:17:01.342Z</time></trkpt><trkpt lat="43.3766254" lon="12.4965704"><ele>411.5</ele><time>2026-05-03T09:17:02.343Z</time></trkpt><trkpt lat="43.3766083" lon="12.4967684"><ele>411.25</ele><time>2026-05-03T09:17:03.342Z</time></trkpt><trkpt lat="43.3765917" lon="12.4969697"><ele>411.0</ele><time>2026-05-03T09:17:04.343Z</time></trkpt><trkpt lat="43.3765701" lon="12.4971707"><ele>410.66666666666663</ele><time>2026-05-03T09:17:05.342Z</time></trkpt><trkpt lat="43.3765447" lon="12.4973689"><ele>410.3333333333333</ele><time>2026-05-03T09:17:06.342Z</time></trkpt><trkpt lat="43.3765107" lon="12.49758"><ele>410.0</ele><time>2026-05-03T09:17:07.342Z</time></trkpt><trkpt lat="43.3764819" lon="12.497807"><ele>411.0</ele><time>2026-05-03T09:17:08.343Z</time></trkpt><trkpt lat="43.3764451" lon="12.498034"><ele>412.0</ele><time>2026-05-03T09:17:09.342Z</time></trkpt><trkpt lat="43.3763976" lon="12.4982804"><ele>413.0</ele><time>2026-05-03T09:17:10.342Z</time></trkpt><trkpt lat="43.3763545" lon="12.4985282"><ele>412.66666666666663</ele><time>2026-05-03T09:17:11.342Z</time></trkpt><trkpt lat="43.3762823" lon="12.4987918"><ele>412.33333333333337</ele><time>2026-05-03T09:17:12.342Z</time></trkpt><trkpt lat="43.3761956" lon="12.499059"><ele>412.0</ele><time>2026-05-03T09:17:13.342Z</time></trkpt><trkpt lat="43.3760973" lon="12.4993115"><ele>412.0</ele><time>2026-05-03T09:17:14.342Z</time></trkpt><trkpt lat="43.3759957" lon="12.4995661"><ele>412.0</ele><time>2026-05-03T09:17:15.342Z</time></trkpt><trkpt lat="43.3758887" lon="12.4998109"><ele>412.0</ele><time>2026-05-03T09:17:16.342Z</time></trkpt><trkpt lat="43.3757716" lon="12.5000642"><ele>411.6666666666667</ele><time>2026-05-03T09:17:17.342Z</time></trkpt><trkpt lat="43.3756505" lon="12.5003074"><ele>411.33333333333337</ele><time>2026-05-03T09:17:18.342Z</time></trkpt><trkpt lat="43.3755234" lon="12.5005455"><ele>411.0</ele><time>2026-05-03T09:17:19.342Z</time></trkpt><trkpt lat="43.3753999" lon="12.500793"><ele>411.0</ele><time>2026-05-03T09:17:20.342Z</time></trkpt><trkpt lat="43.3752818" lon="12.501031"><ele>411.0</ele><time>2026-05-03T09:17:21.342Z</time></trkpt><trkpt lat="43.3751556" lon="12.5012608"><ele>411.0</ele><time>2026-05-03T09:17:22.342Z</time></trkpt><trkpt lat="43.3750335" lon="12.5014989"><ele>411.0</ele><time>2026-05-03T09:17:23.342Z</time></trkpt><trkpt lat="43.3749073" lon="12.5017324"><ele>411.0</ele><time>2026-05-03T09:17:24.342Z</time></trkpt><trkpt lat="43.3747881" lon="12.5019657"><ele>411.0</ele><time>2026-05-03T09:17:25.342Z</time></trkpt><trkpt lat="43.3746655" lon="12.5021967"><ele>409.33333333333337</ele><time>2026-05-03T09:17:26.342Z</time></trkpt><trkpt lat="43.3745402" lon="12.5024258"><ele>407.6666666666667</ele><time>2026-05-03T09:17:27.342Z</time></trkpt><trkpt lat="43.3744207" lon="12.5026585"><ele>406.0</ele><time>2026-05-03T09:17:28.342Z</time></trkpt><trkpt lat="43.3742991" lon="12.5028964"><ele>405.6666666666667</ele><time>2026-05-03T09:17:29.342Z</time></trkpt><trkpt lat="43.3741797" lon="12.503127"><ele>405.33333333333337</ele><time>2026-05-03T09:17:30.342Z</time></trkpt><trkpt lat="43.3740523" lon="12.5033678"><ele>405.0</ele><time>2026-05-03T09:17:31.342Z</time></trkpt><trkpt lat="43.3739228" lon="12.5035987"><ele>404.33333333333337</ele><time>2026-05-03T09:17:32.342Z</time></trkpt><trkpt lat="43.3737974" lon="12.503839"><ele>403.6666666666667</ele><time>2026-05-03T09:17:33.342Z</time></trkpt><trkpt lat="43.3736678" lon="12.504085"><ele>403.0</ele><time>2026-05-03T09:17:34.342Z</time></trkpt><trkpt lat="43.3735448" lon="12.5043383"><ele>403.0</ele><time>2026-05-03T09:17:35.342Z</time></trkpt><trkpt lat="43.3734192" lon="12.5045765"><ele>403.0</ele><time>2026-05-03T09:17:36.342Z</time></trkpt><trkpt lat="43.3732936" lon="12.5048279"><ele>403.0</ele><time>2026-05-03T09:17:37.343Z</time></trkpt><trkpt lat="43.3731637" lon="12.5050854"><ele>403.5</ele><time>2026-05-03T09:17:38.342Z</time></trkpt><trkpt lat="43.3730257" lon="12.5053503"><ele>404.0</ele><time>2026-05-03T09:17:39.342Z</time></trkpt><trkpt lat="43.3728871" lon="12.5056176"><ele>402.0</ele><time>2026-05-03T09:17:40.342Z</time></trkpt><trkpt lat="43.3727417" lon="12.5058763"><ele>400.0</ele><time>2026-05-03T09:17:41.342Z</time></trkpt><trkpt lat="43.3725955" lon="12.5061345"><ele>399.5</ele><time>2026-05-03T09:17:42.342Z</time></trkpt><trkpt lat="43.3724604" lon="12.5063996"><ele>399.0</ele><time>2026-05-03T09:17:43.342Z</time></trkpt><trkpt lat="43.3723227" lon="12.5066527"><ele>398.5</ele><time>2026-05-03T09:17:44.342Z</time></trkpt><trkpt lat="43.3721893" lon="12.5068984"><ele>398.0</ele><time>2026-05-03T09:17:45.342Z</time></trkpt><trkpt lat="43.3720539" lon="12.5071511"><ele>398.0</ele><time>2026-05-03T09:17:46.343Z</time></trkpt><trkpt lat="43.3719158" lon="12.5073909"><ele>398.0</ele><time>2026-05-03T09:17:47.342Z</time></trkpt><trkpt lat="43.3717775" lon="12.5076278"><ele>398.0</ele><time>2026-05-03T09:17:48.342Z</time></trkpt><trkpt lat="43.3716429" lon="12.5078738"><ele>398.3333333333333</ele><time>2026-05-03T09:17:49.342Z</time></trkpt><trkpt lat="43.3715071" lon="12.5081221"><ele>398.66666666666663</ele><time>2026-05-03T09:17:50.342Z</time></trkpt><trkpt lat="43.3713745" lon="12.5083559"><ele>399.0</ele><time>2026-05-03T09:17:51.342Z</time></trkpt><trkpt lat="43.3712349" lon="12.508587"><ele>399.66666666666663</ele><time>2026-05-03T09:17:52.342Z</time></trkpt><trkpt lat="43.3711027" lon="12.5088157"><ele>400.3333333333333</ele><time>2026-05-03T09:17:53.342Z</time></trkpt><trkpt lat="43.3709671" lon="12.5090482"><ele>401.0</ele><time>2026-05-03T09:17:54.342Z</time></trkpt><trkpt lat="43.370832" lon="12.5092708"><ele>401.0</ele><time>2026-05-03T09:17:55.342Z</time></trkpt><trkpt lat="43.3706945" lon="12.5094952"><ele>401.0</ele><time>2026-05-03T09:17:56.342Z</time></trkpt><trkpt lat="43.3705616" lon="12.5097152"><ele>401.0</ele><time>2026-05-03T09:17:57.343Z</time></trkpt><trkpt lat="43.3704318" lon="12.5099235"><ele>401.0</ele><time>2026-05-03T09:17:58.342Z</time></trkpt><trkpt lat="43.3702973" lon="12.510132"><ele>401.0</ele><time>2026-05-03T09:17:59.343Z</time></trkpt><trkpt lat="43.370169" lon="12.5103394"><ele>401.0</ele><time>2026-05-03T09:18:00.342Z</time></trkpt><trkpt lat="43.370046" lon="12.5105496"><ele>401.0</ele><time>2026-05-03T09:18:01.342Z</time></trkpt><trkpt lat="43.3699151" lon="12.5107553"><ele>401.0</ele><time>2026-05-03T09:18:02.342Z</time></trkpt><trkpt lat="43.3697884" lon="12.5109606"><ele>401.0</ele><time>2026-05-03T09:18:03.342Z</time></trkpt><trkpt lat="43.3696605" lon="12.5111605"><ele>401.0</ele><time>2026-05-03T09:18:04.342Z</time></trkpt><trkpt lat="43.3695354" lon="12.5113572"><ele>401.0</ele><time>2026-05-03T09:18:05.342Z</time></trkpt><trkpt lat="43.369408" lon="12.5115693"><ele>401.0</ele><time>2026-05-03T09:18:06.343Z</time></trkpt><trkpt lat="43.3692801" lon="12.5117794"><ele>401.0</ele><time>2026-05-03T09:18:07.342Z</time></trkpt><trkpt lat="43.369162" lon="12.5120034"><ele>401.0</ele><time>2026-05-03T09:18:08.342Z</time></trkpt><trkpt lat="43.3690411" lon="12.5122196"><ele>401.0</ele><time>2026-05-03T09:18:09.342Z</time></trkpt><trkpt lat="43.368919" lon="12.5124338"><ele>401.3333333333333</ele><time>2026-05-03T09:18:10.342Z</time></trkpt><trkpt lat="43.3688041" lon="12.5126432"><ele>401.66666666666663</ele><time>2026-05-03T09:18:11.343Z</time></trkpt><trkpt lat="43.3686826" lon="12.5128682"><ele>402.0</ele><time>2026-05-03T09:18:12.342Z</time></trkpt><trkpt lat="43.3685573" lon="12.5130974"><ele>402.33333333333337</ele><time>2026-05-03T09:18:13.342Z</time></trkpt><trkpt lat="43.3684356" lon="12.5133213"><ele>402.6666666666667</ele><time>2026-05-03T09:18:14.342Z</time></trkpt><trkpt lat="43.3683095" lon="12.5135444"><ele>403.0</ele><time>2026-05-03T09:18:15.342Z</time></trkpt><trkpt lat="43.3681905" lon="12.5137649"><ele>403.33333333333337</ele><time>2026-05-03T09:18:16.342Z</time></trkpt><trkpt lat="43.3680707" lon="12.5139882"><ele>403.66666666666663</ele><time>2026-05-03T09:18:17.342Z</time></trkpt><trkpt lat="43.3679481" lon="12.5142165"><ele>404.0</ele><time>2026-05-03T09:18:18.342Z</time></trkpt><trkpt lat="43.3678278" lon="12.5144467"><ele>404.0</ele><time>2026-05-03T09:18:19.342Z</time></trkpt><trkpt lat="43.367707" lon="12.5146771"><ele>404.0</ele><time>2026-05-03T09:18:20.342Z</time></trkpt><trkpt lat="43.3675873" lon="12.5149153"><ele>404.0</ele><time>2026-05-03T09:18:21.342Z</time></trkpt><trkpt lat="43.3674648" lon="12.5151417"><ele>404.0</ele><time>2026-05-03T09:18:22.343Z</time></trkpt><trkpt lat="43.3673492" lon="12.5153683"><ele>404.0</ele><time>2026-05-03T09:18:23.342Z</time></trkpt><trkpt lat="43.3672297" lon="12.5156024"><ele>404.0</ele><time>2026-05-03T09:18:24.342Z</time></trkpt><trkpt lat="43.3671159" lon="12.5158378"><ele>404.3333333333333</ele><time>2026-05-03T09:18:25.343Z</time></trkpt><trkpt lat="43.3669996" lon="12.5160742"><ele>404.66666666666663</ele><time>2026-05-03T09:18:26.342Z</time></trkpt><trkpt lat="43.3668826" lon="12.516303"><ele>405.0</ele><time>2026-05-03T09:18:27.342Z</time></trkpt><trkpt lat="43.3667677" lon="12.5165416"><ele>406.0</ele><time>2026-05-03T09:18:28.342Z</time></trkpt><trkpt lat="43.366651" lon="12.5167737"><ele>407.0</ele><time>2026-05-03T09:18:29.342Z</time></trkpt><trkpt lat="43.3665389" lon="12.5170079"><ele>408.0</ele><time>2026-05-03T09:18:30.342Z</time></trkpt><trkpt lat="43.3664256" lon="12.5172534"><ele>408.66666666666663</ele><time>2026-05-03T09:18:31.342Z</time></trkpt><trkpt lat="43.3663126" lon="12.5175083"><ele>409.3333333333333</ele><time>2026-05-03T09:18:32.342Z</time></trkpt><trkpt lat="43.3661911" lon="12.5177692"><ele>410.0</ele><time>2026-05-03T09:18:33.342Z</time></trkpt><trkpt lat="43.3660727" lon="12.5180292"><ele>410.0</ele><time>2026-05-03T09:18:34.343Z</time></trkpt><trkpt lat="43.3659466" lon="12.5182896"><ele>410.0</ele><time>2026-05-03T09:18:35.342Z</time></trkpt><trkpt lat="43.3658142" lon="12.5185685"><ele>410.5</ele><time>2026-05-03T09:18:36.342Z</time></trkpt><trkpt lat="43.3656731" lon="12.5188392"><ele>411.0</ele><time>2026-05-03T09:18:37.342Z</time></trkpt><trkpt lat="43.365543" lon="12.5191076"><ele>411.0</ele><time>2026-05-03T09:18:38.342Z</time></trkpt><trkpt lat="43.3654052" lon="12.5193698"><ele>411.0</ele><time>2026-05-03T09:18:39.342Z</time></trkpt><trkpt lat="43.36528" lon="12.5196008"><ele>411.0</ele><time>2026-05-03T09:18:40.342Z</time></trkpt><trkpt lat="43.3651534" lon="12.5198244"><ele>411.66666666666663</ele><time>2026-05-03T09:18:41.342Z</time></trkpt><trkpt lat="43.3650323" lon="12.5200558"><ele>412.3333333333333</ele><time>2026-05-03T09:18:42.342Z</time></trkpt><trkpt lat="43.3649087" lon="12.5202926"><ele>413.0</ele><time>2026-05-03T09:18:43.342Z</time></trkpt><trkpt lat="43.3647836" lon="12.5205265"><ele>413.3333333333333</ele><time>2026-05-03T09:18:44.342Z</time></trkpt><trkpt lat="43.3646585" lon="12.5207612"><ele>413.66666666666663</ele><time>2026-05-03T09:18:45.343Z</time></trkpt><trkpt lat="43.3645296" lon="12.520982"><ele>414.0</ele><time>2026-05-03T09:18:46.342Z</time></trkpt><trkpt lat="43.3643976" lon="12.521217"><ele>414.5</ele><time>2026-05-03T09:18:47.342Z</time></trkpt><trkpt lat="43.3642588" lon="12.5214592"><ele>415.0</ele><time>2026-05-03T09:18:48.342Z</time></trkpt><trkpt lat="43.364123" lon="12.5217122"><ele>415.0</ele><time>2026-05-03T09:18:49.342Z</time></trkpt><trkpt lat="43.3639836" lon="12.5219605"><ele>415.0</ele><time>2026-05-03T09:18:50.343Z</time></trkpt><trkpt lat="43.3638482" lon="12.5222313"><ele>415.0</ele><time>2026-05-03T09:18:51.342Z</time></trkpt><trkpt lat="43.3636957" lon="12.522496"><ele>415.0</ele><time>2026-05-03T09:18:52.342Z</time></trkpt><trkpt lat="43.363538" lon="12.52277"><ele>416.5</ele><time>2026-05-03T09:18:53.342Z</time></trkpt><trkpt lat="43.3633808" lon="12.523048"><ele>418.0</ele><time>2026-05-03T09:18:54.342Z</time></trkpt><trkpt lat="43.3632222" lon="12.5233171"><ele>418.0</ele><time>2026-05-03T09:18:55.342Z</time></trkpt><trkpt lat="43.3630612" lon="12.5235819"><ele>418.0</ele><time>2026-05-03T09:18:56.342Z</time></trkpt><trkpt lat="43.3629029" lon="12.5238382"><ele>420.0</ele><time>2026-05-03T09:18:57.342Z</time></trkpt><trkpt lat="43.3627422" lon="12.524095"><ele>422.0</ele><time>2026-05-03T09:18:58.342Z</time></trkpt><trkpt lat="43.3625875" lon="12.5243518"><ele>421.5</ele><time>2026-05-03T09:18:59.342Z</time></trkpt><trkpt lat="43.3624375" lon="12.5246118"><ele>421.0</ele><time>2026-05-03T09:19:00.342Z</time></trkpt><trkpt lat="43.3622964" lon="12.5248702"><ele>420.5</ele><time>2026-05-03T09:19:01.343Z</time></trkpt><trkpt lat="43.362154" lon="12.5251196"><ele>420.0</ele><time>2026-05-03T09:19:02.342Z</time></trkpt><trkpt lat="43.3620059" lon="12.5253698"><ele>421.0</ele><time>2026-05-03T09:19:03.342Z</time></trkpt><trkpt lat="43.361861" lon="12.5256201"><ele>422.0</ele><time>2026-05-03T09:19:04.342Z</time></trkpt><trkpt lat="43.3617241" lon="12.5258697"><ele>422.0</ele><time>2026-05-03T09:19:05.343Z</time></trkpt><trkpt lat="43.3615885" lon="12.5261095"><ele>422.0</ele><time>2026-05-03T09:19:06.342Z</time></trkpt><trkpt lat="43.3614582" lon="12.526347"><ele>422.0</ele><time>2026-05-03T09:19:07.342Z</time></trkpt><trkpt lat="43.3613277" lon="12.5265635"><ele>423.0</ele><time>2026-05-03T09:19:08.342Z</time></trkpt><trkpt lat="43.3612025" lon="12.5267771"><ele>424.0</ele><time>2026-05-03T09:19:09.342Z</time></trkpt><trkpt lat="43.3610813" lon="12.5269974"><ele>425.0</ele><time>2026-05-03T09:19:10.342Z</time></trkpt><trkpt lat="43.3609561" lon="12.5272181"><ele>425.3333333333333</ele><time>2026-05-03T09:19:11.342Z</time></trkpt><trkpt lat="43.3608322" lon="12.5274259"><ele>425.66666666666663</ele><time>2026-05-03T09:19:12.342Z</time></trkpt><trkpt lat="43.3607116" lon="12.5276457"><ele>426.0</ele><time>2026-05-03T09:19:13.342Z</time></trkpt><trkpt lat="43.3605854" lon="12.527862"><ele>426.33333333333337</ele><time>2026-05-03T09:19:14.342Z</time></trkpt><trkpt lat="43.3604599" lon="12.5280767"><ele>426.6666666666667</ele><time>2026-05-03T09:19:15.342Z</time></trkpt><trkpt lat="43.360334" lon="12.5283005"><ele>427.0</ele><time>2026-05-03T09:19:16.342Z</time></trkpt><trkpt lat="43.3602072" lon="12.5285158"><ele>428.0</ele><time>2026-05-03T09:19:17.342Z</time></trkpt><trkpt lat="43.3600781" lon="12.5287365"><ele>429.0</ele><time>2026-05-03T09:19:18.342Z</time></trkpt><trkpt lat="43.3599526" lon="12.5289598"><ele>430.0</ele><time>2026-05-03T09:19:19.342Z</time></trkpt><trkpt lat="43.3598313" lon="12.5291808"><ele>430.0</ele><time>2026-05-03T09:19:20.342Z</time></trkpt><trkpt lat="43.3597058" lon="12.529397"><ele>430.0</ele><time>2026-05-03T09:19:21.343Z</time></trkpt><trkpt lat="43.3595809" lon="12.5296218"><ele>430.0</ele><time>2026-05-03T09:19:22.343Z</time></trkpt><trkpt lat="43.35945" lon="12.5298397"><ele>430.0</ele><time>2026-05-03T09:19:23.342Z</time></trkpt><trkpt lat="43.3593251" lon="12.5300577"><ele>430.0</ele><time>2026-05-03T09:19:24.343Z</time></trkpt><trkpt lat="43.3591961" lon="12.5302741"><ele>430.0</ele><time>2026-05-03T09:19:25.342Z</time></trkpt><trkpt lat="43.3590696" lon="12.5304952"><ele>429.6666666666667</ele><time>2026-05-03T09:19:26.342Z</time></trkpt><trkpt lat="43.3589415" lon="12.5307138"><ele>429.33333333333337</ele><time>2026-05-03T09:19:27.342Z</time></trkpt><trkpt lat="43.3588132" lon="12.5309406"><ele>429.0</ele><time>2026-05-03T09:19:28.342Z</time></trkpt><trkpt lat="43.3586839" lon="12.5311685"><ele>429.66666666666663</ele><time>2026-05-03T09:19:29.343Z</time></trkpt><trkpt lat="43.358561" lon="12.5314077"><ele>430.3333333333333</ele><time>2026-05-03T09:19:30.343Z</time></trkpt><trkpt lat="43.3584368" lon="12.5316447"><ele>431.0</ele><time>2026-05-03T09:19:31.342Z</time></trkpt><trkpt lat="43.3583236" lon="12.5318817"><ele>432.3333333333333</ele><time>2026-05-03T09:19:32.342Z</time></trkpt><trkpt lat="43.3582212" lon="12.5321433"><ele>433.66666666666663</ele><time>2026-05-03T09:19:33.342Z</time></trkpt><trkpt lat="43.3581195" lon="12.5324001"><ele>435.0</ele><time>2026-05-03T09:19:34.342Z</time></trkpt><trkpt lat="43.3580331" lon="12.5326618"><ele>435.0</ele><time>2026-05-03T09:19:35.342Z</time></trkpt><trkpt lat="43.3579491" lon="12.5329312"><ele>435.0</ele><time>2026-05-03T09:19:36.343Z</time></trkpt><trkpt lat="43.3578722" lon="12.5332048"><ele>435.0</ele><time>2026-05-03T09:19:37.342Z</time></trkpt><trkpt lat="43.3578041" lon="12.533482"><ele>435.66666666666663</ele><time>2026-05-03T09:19:38.343Z</time></trkpt><trkpt lat="43.3577529" lon="12.5337623"><ele>436.3333333333333</ele><time>2026-05-03T09:19:39.342Z</time></trkpt><trkpt lat="43.3577037" lon="12.5340367"><ele>437.0</ele><time>2026-05-03T09:19:40.342Z</time></trkpt><trkpt lat="43.35767" lon="12.5343025"><ele>437.0</ele><time>2026-05-03T09:19:41.342Z</time></trkpt><trkpt lat="43.3576422" lon="12.5345752"><ele>437.0</ele><time>2026-05-03T09:19:42.342Z</time></trkpt><trkpt lat="43.3576077" lon="12.5348439"><ele>437.0</ele><time>2026-05-03T09:19:43.342Z</time></trkpt><trkpt lat="43.3575797" lon="12.5351117"><ele>437.0</ele><time>2026-05-03T09:19:44.342Z</time></trkpt><trkpt lat="43.3575478" lon="12.5353833"><ele>437.0</ele><time>2026-05-03T09:19:45.342Z</time></trkpt><trkpt lat="43.3575168" lon="12.5356435"><ele>437.0</ele><time>2026-05-03T09:19:46.342Z</time></trkpt><trkpt lat="43.357488" lon="12.5358969"><ele>438.0</ele><time>2026-05-03T09:19:47.342Z</time></trkpt><trkpt lat="43.3574624" lon="12.5361569"><ele>439.0</ele><time>2026-05-03T09:19:48.343Z</time></trkpt><trkpt lat="43.3574301" lon="12.5364267"><ele>440.0</ele><time>2026-05-03T09:19:49.342Z</time></trkpt><trkpt lat="43.3574022" lon="12.5366927"><ele>440.3333333333333</ele><time>2026-05-03T09:19:50.342Z</time></trkpt><trkpt lat="43.3573682" lon="12.5369694"><ele>440.66666666666663</ele><time>2026-05-03T09:19:51.343Z</time></trkpt><trkpt lat="43.357329" lon="12.5372453"><ele>441.0</ele><time>2026-05-03T09:19:52.343Z</time></trkpt><trkpt lat="43.3572911" lon="12.5375381"><ele>441.66666666666663</ele><time>2026-05-03T09:19:53.343Z</time></trkpt><trkpt lat="43.3572524" lon="12.5378336"><ele>442.3333333333333</ele><time>2026-05-03T09:19:54.342Z</time></trkpt><trkpt lat="43.3572097" lon="12.5381307"><ele>443.0</ele><time>2026-05-03T09:19:55.342Z</time></trkpt><trkpt lat="43.3571718" lon="12.5384181"><ele>443.66666666666663</ele><time>2026-05-03T09:19:56.342Z</time></trkpt><trkpt lat="43.3571311" lon="12.5387112"><ele>444.33333333333337</ele><time>2026-05-03T09:19:57.343Z</time></trkpt><trkpt lat="43.3570967" lon="12.5390024"><ele>445.0</ele><time>2026-05-03T09:19:58.342Z</time></trkpt><trkpt lat="43.3570571" lon="12.5393056"><ele>445.33333333333337</ele><time>2026-05-03T09:19:59.342Z</time></trkpt><trkpt lat="43.357014" lon="12.5395957"><ele>445.66666666666663</ele><time>2026-05-03T09:20:00.342Z</time></trkpt><trkpt lat="43.3569716" lon="12.5398901"><ele>446.0</ele><time>2026-05-03T09:20:01.343Z</time></trkpt><trkpt lat="43.3569376" lon="12.5401942"><ele>447.0</ele><time>2026-05-03T09:20:02.342Z</time></trkpt><trkpt lat="43.3569024" lon="12.5404861"><ele>448.0</ele><time>2026-05-03T09:20:03.342Z</time></trkpt><trkpt lat="43.3568684" lon="12.5407811"><ele>449.0</ele><time>2026-05-03T09:20:04.343Z</time></trkpt><trkpt lat="43.3568303" lon="12.5410669"><ele>449.3333333333333</ele><time>2026-05-03T09:20:05.342Z</time></trkpt><trkpt lat="43.356788" lon="12.541351"><ele>449.66666666666663</ele><time>2026-05-03T09:20:06.342Z</time></trkpt><trkpt lat="43.3567488" lon="12.5416436"><ele>450.0</ele><time>2026-05-03T09:20:07.342Z</time></trkpt><trkpt lat="43.3567153" lon="12.5419347"><ele>450.66666666666663</ele><time>2026-05-03T09:20:08.342Z</time></trkpt><trkpt lat="43.3566755" lon="12.5422193"><ele>451.3333333333333</ele><time>2026-05-03T09:20:09.342Z</time></trkpt><trkpt lat="43.3566466" lon="12.542505"><ele>452.0</ele><time>2026-05-03T09:20:10.342Z</time></trkpt><trkpt lat="43.3566073" lon="12.5427809"><ele>452.3333333333333</ele><time>2026-05-03T09:20:11.343Z</time></trkpt><trkpt lat="43.3565768" lon="12.5430587"><ele>452.66666666666663</ele><time>2026-05-03T09:20:12.342Z</time></trkpt><trkpt lat="43.3565467" lon="12.5433423"><ele>453.0</ele><time>2026-05-03T09:20:13.342Z</time></trkpt><trkpt lat="43.3565132" lon="12.5436211"><ele>454.0</ele><time>2026-05-03T09:20:14.343Z</time></trkpt><trkpt lat="43.3564701" lon="12.543905"><ele>455.0</ele><time>2026-05-03T09:20:15.342Z</time></trkpt><trkpt lat="43.3564348" lon="12.5441836"><ele>456.0</ele><time>2026-05-03T09:20:16.342Z</time></trkpt><trkpt lat="43.3563962" lon="12.5444684"><ele>455.0</ele><time>2026-05-03T09:20:17.342Z</time></trkpt><trkpt lat="43.3563592" lon="12.5447599"><ele>454.0</ele><time>2026-05-03T09:20:18.342Z</time></trkpt><trkpt lat="43.3563206" lon="12.5450476"><ele>453.0</ele><time>2026-05-03T09:20:19.342Z</time></trkpt><trkpt lat="43.3562851" lon="12.545344"><ele>454.0</ele><time>2026-05-03T09:20:20.342Z</time></trkpt><trkpt lat="43.3562455" lon="12.5456238"><ele>455.0</ele><time>2026-05-03T09:20:21.343Z</time></trkpt><trkpt lat="43.3562041" lon="12.5459158"><ele>456.0</ele><time>2026-05-03T09:20:22.342Z</time></trkpt><trkpt lat="43.3561688" lon="12.5462085"><ele>456.0</ele><time>2026-05-03T09:20:23.343Z</time></trkpt><trkpt lat="43.3561274" lon="12.5464995"><ele>456.0</ele><time>2026-05-03T09:20:24.342Z</time></trkpt><trkpt lat="43.3560916" lon="12.5467917"><ele>456.0</ele><time>2026-05-03T09:20:25.343Z</time></trkpt><trkpt lat="43.3560499" lon="12.5470927"><ele>456.33333333333337</ele><time>2026-05-03T09:20:26.342Z</time></trkpt><trkpt lat="43.3560143" lon="12.5473884"><ele>456.6666666666667</ele><time>2026-05-03T09:20:27.342Z</time></trkpt><trkpt lat="43.3559661" lon="12.5476825"><ele>457.0</ele><time>2026-05-03T09:20:28.342Z</time></trkpt><trkpt lat="43.35592" lon="12.5479894"><ele>458.33333333333337</ele><time>2026-05-03T09:20:29.342Z</time></trkpt><trkpt lat="43.3558745" lon="12.5482893"><ele>459.66666666666663</ele><time>2026-05-03T09:20:30.342Z</time></trkpt><trkpt lat="43.3558188" lon="12.5485745"><ele>461.0</ele><time>2026-05-03T09:20:31.342Z</time></trkpt><trkpt lat="43.3557564" lon="12.5488671"><ele>461.3333333333333</ele><time>2026-05-03T09:20:32.342Z</time></trkpt><trkpt lat="43.3556814" lon="12.549156"><ele>461.66666666666663</ele><time>2026-05-03T09:20:33.342Z</time></trkpt><trkpt lat="43.3556089" lon="12.5494315"><ele>462.0</ele><time>2026-05-03T09:20:34.342Z</time></trkpt><trkpt lat="43.3555302" lon="12.5497028"><ele>461.0</ele><time>2026-05-03T09:20:35.342Z</time></trkpt><trkpt lat="43.3554515" lon="12.5499674"><ele>460.0</ele><time>2026-05-03T09:20:36.342Z</time></trkpt><trkpt lat="43.3553608" lon="12.5502139"><ele>459.0</ele><time>2026-05-03T09:20:37.342Z</time></trkpt><trkpt lat="43.3552738" lon="12.5504538"><ele>458.66666666666663</ele><time>2026-05-03T09:20:38.342Z</time></trkpt><trkpt lat="43.3551861" lon="12.5506991"><ele>458.3333333333333</ele><time>2026-05-03T09:20:39.342Z</time></trkpt><trkpt lat="43.3550954" lon="12.5509159"><ele>458.0</ele><time>2026-05-03T09:20:40.342Z</time></trkpt><trkpt lat="43.3549959" lon="12.5511309"><ele>458.66666666666663</ele><time>2026-05-03T09:20:41.342Z</time></trkpt><trkpt lat="43.3549057" lon="12.5513141"><ele>459.33333333333337</ele><time>2026-05-03T09:20:42.342Z</time></trkpt><trkpt lat="43.3548124" lon="12.5514902"><ele>460.0</ele><time>2026-05-03T09:20:43.342Z</time></trkpt><trkpt lat="43.3547172" lon="12.551688"><ele>460.0</ele><time>2026-05-03T09:20:44.342Z</time></trkpt><trkpt lat="43.3546131" lon="12.5518678"><ele>460.0</ele><time>2026-05-03T09:20:45.342Z</time></trkpt><trkpt lat="43.3545084" lon="12.5520527"><ele>460.0</ele><time>2026-05-03T09:20:46.342Z</time></trkpt><trkpt lat="43.3544038" lon="12.5522446"><ele>460.0</ele><time>2026-05-03T09:20:47.342Z</time></trkpt><trkpt lat="43.3542979" lon="12.5524404"><ele>460.0</ele><time>2026-05-03T09:20:48.342Z</time></trkpt><trkpt lat="43.3541944" lon="12.5526398"><ele>460.0</ele><time>2026-05-03T09:20:49.342Z</time></trkpt><trkpt lat="43.3540945" lon="12.5528302"><ele>459.6666666666667</ele><time>2026-05-03T09:20:50.342Z</time></trkpt><trkpt lat="43.3539874" lon="12.553011"><ele>459.33333333333337</ele><time>2026-05-03T09:20:51.342Z</time></trkpt><trkpt lat="43.3538826" lon="12.5531779"><ele>459.0</ele><time>2026-05-03T09:20:52.342Z</time></trkpt><trkpt lat="43.3537759" lon="12.5533617"><ele>458.66666666666663</ele><time>2026-05-03T09:20:53.342Z</time></trkpt><trkpt lat="43.3536764" lon="12.5535562"><ele>458.3333333333333</ele><time>2026-05-03T09:20:54.342Z</time></trkpt><trkpt lat="43.3535757" lon="12.5537443"><ele>458.0</ele><time>2026-05-03T09:20:55.342Z</time></trkpt><trkpt lat="43.3534647" lon="12.5539264"><ele>458.0</ele><time>2026-05-03T09:20:56.342Z</time></trkpt><trkpt lat="43.3533611" lon="12.5541149"><ele>458.0</ele><time>2026-05-03T09:20:57.342Z</time></trkpt><trkpt lat="43.3532578" lon="12.5542993"><ele>458.0</ele><time>2026-05-03T09:20:58.343Z</time></trkpt><trkpt lat="43.3531562" lon="12.5545032"><ele>458.3333333333333</ele><time>2026-05-03T09:20:59.342Z</time></trkpt><trkpt lat="43.3530446" lon="12.5546964"><ele>458.66666666666663</ele><time>2026-05-03T09:21:00.342Z</time></trkpt><trkpt lat="43.352938" lon="12.5548963"><ele>459.0</ele><time>2026-05-03T09:21:01.342Z</time></trkpt><trkpt lat="43.3528268" lon="12.5550999"><ele>459.0</ele><time>2026-05-03T09:21:02.343Z</time></trkpt><trkpt lat="43.352711" lon="12.5553009"><ele>459.0</ele><time>2026-05-03T09:21:03.342Z</time></trkpt><trkpt lat="43.3525991" lon="12.5555041"><ele>459.0</ele><time>2026-05-03T09:21:04.342Z</time></trkpt><trkpt lat="43.3524865" lon="12.5557061"><ele>459.33333333333337</ele><time>2026-05-03T09:21:05.342Z</time></trkpt><trkpt lat="43.3523749" lon="12.5559171"><ele>459.6666666666667</ele><time>2026-05-03T09:21:06.343Z</time></trkpt><trkpt lat="43.3522589" lon="12.5561211"><ele>460.0</ele><time>2026-05-03T09:21:07.342Z</time></trkpt><trkpt lat="43.3521444" lon="12.5563316"><ele>458.6666666666667</ele><time>2026-05-03T09:21:08.342Z</time></trkpt><trkpt lat="43.3520274" lon="12.5565306"><ele>457.33333333333337</ele><time>2026-05-03T09:21:09.343Z</time></trkpt><trkpt lat="43.3519139" lon="12.5567283"><ele>456.0</ele><time>2026-05-03T09:21:10.342Z</time></trkpt><trkpt lat="43.3517865" lon="12.5569261"><ele>456.66666666666663</ele><time>2026-05-03T09:21:11.342Z</time></trkpt><trkpt lat="43.3516688" lon="12.557121"><ele>457.3333333333333</ele><time>2026-05-03T09:21:12.342Z</time></trkpt><trkpt lat="43.3515497" lon="12.5573162"><ele>458.0</ele><time>2026-05-03T09:21:13.342Z</time></trkpt><trkpt lat="43.3514317" lon="12.5575246"><ele>458.66666666666663</ele><time>2026-05-03T09:21:14.342Z</time></trkpt><trkpt lat="43.3513084" lon="12.5577301"><ele>459.33333333333337</ele><time>2026-05-03T09:21:15.342Z</time></trkpt><trkpt lat="43.3511733" lon="12.5579352"><ele>460.0</ele><time>2026-05-03T09:21:16.342Z</time></trkpt><trkpt lat="43.3510408" lon="12.558147"><ele>460.0</ele><time>2026-05-03T09:21:17.342Z</time></trkpt><trkpt lat="43.3508973" lon="12.558359"><ele>460.0</ele><time>2026-05-03T09:21:18.342Z</time></trkpt><trkpt lat="43.3507567" lon="12.5585661"><ele>460.0</ele><time>2026-05-03T09:21:19.342Z</time></trkpt><trkpt lat="43.350607" lon="12.5587631"><ele>461.0</ele><time>2026-05-03T09:21:20.342Z</time></trkpt><trkpt lat="43.3504644" lon="12.5589592"><ele>462.0</ele><time>2026-05-03T09:21:21.342Z</time></trkpt><trkpt lat="43.3503252" lon="12.5591497"><ele>463.0</ele><time>2026-05-03T09:21:22.342Z</time></trkpt><trkpt lat="43.3501852" lon="12.5593388"><ele>463.0</ele><time>2026-05-03T09:21:23.342Z</time></trkpt><trkpt lat="43.3500424" lon="12.5595202"><ele>463.0</ele><time>2026-05-03T09:21:24.342Z</time></trkpt><trkpt lat="43.3499068" lon="12.559694"><ele>463.0</ele><time>2026-05-03T09:21:25.342Z</time></trkpt><trkpt lat="43.3497695" lon="12.5598654"><ele>462.33333333333337</ele><time>2026-05-03T09:21:26.342Z</time></trkpt><trkpt lat="43.3496412" lon="12.5600282"><ele>461.66666666666663</ele><time>2026-05-03T09:21:27.342Z</time></trkpt><trkpt lat="43.3495086" lon="12.5601972"><ele>461.0</ele><time>2026-05-03T09:21:28.342Z</time></trkpt><trkpt lat="43.3493767" lon="12.5603519"><ele>461.3333333333333</ele><time>2026-05-03T09:21:29.343Z</time></trkpt><trkpt lat="43.3492455" lon="12.5605067"><ele>461.66666666666663</ele><time>2026-05-03T09:21:30.342Z</time></trkpt><trkpt lat="43.3491087" lon="12.5606584"><ele>462.0</ele><time>2026-05-03T09:21:31.342Z</time></trkpt><trkpt lat="43.3489691" lon="12.5608046"><ele>462.33333333333337</ele><time>2026-05-03T09:21:32.342Z</time></trkpt><trkpt lat="43.3488304" lon="12.5609492"><ele>462.6666666666667</ele><time>2026-05-03T09:21:33.342Z</time></trkpt><trkpt lat="43.3486986" lon="12.5610881"><ele>463.0</ele><time>2026-05-03T09:21:34.342Z</time></trkpt><trkpt lat="43.3485642" lon="12.5612255"><ele>464.0</ele><time>2026-05-03T09:21:35.342Z</time></trkpt><trkpt lat="43.3484377" lon="12.5613649"><ele>465.0</ele><time>2026-05-03T09:21:36.342Z</time></trkpt><trkpt lat="43.3483049" lon="12.5615094"><ele>466.0</ele><time>2026-05-03T09:21:37.342Z</time></trkpt><trkpt lat="43.3481795" lon="12.5616503"><ele>466.0</ele><time>2026-05-03T09:21:38.343Z</time></trkpt><trkpt lat="43.3480496" lon="12.5617873"><ele>466.0</ele><time>2026-05-03T09:21:39.342Z</time></trkpt><trkpt lat="43.3479231" lon="12.5619191"><ele>466.0</ele><time>2026-05-03T09:21:40.342Z</time></trkpt><trkpt lat="43.3477901" lon="12.5620595"><ele>465.6666666666667</ele><time>2026-05-03T09:21:41.342Z</time></trkpt><trkpt lat="43.3476662" lon="12.5621927"><ele>465.33333333333337</ele><time>2026-05-03T09:21:42.342Z</time></trkpt><trkpt lat="43.3475436" lon="12.5623319"><ele>465.0</ele><time>2026-05-03T09:21:43.342Z</time></trkpt><trkpt lat="43.3474126" lon="12.5624626"><ele>465.0</ele><time>2026-05-03T09:21:44.342Z</time></trkpt><trkpt lat="43.3472811" lon="12.5625976"><ele>465.0</ele><time>2026-05-03T09:21:45.342Z</time></trkpt><trkpt lat="43.3471494" lon="12.5627396"><ele>465.0</ele><time>2026-05-03T09:21:46.342Z</time></trkpt><trkpt lat="43.347015" lon="12.5628796"><ele>465.0</ele><time>2026-05-03T09:21:47.342Z</time></trkpt><trkpt lat="43.3468872" lon="12.5630277"><ele>465.0</ele><time>2026-05-03T09:21:48.342Z</time></trkpt><trkpt lat="43.3467569" lon="12.5631695"><ele>465.0</ele><time>2026-05-03T09:21:49.343Z</time></trkpt><trkpt lat="43.3466303" lon="12.5633198"><ele>465.0</ele><time>2026-05-03T09:21:50.342Z</time></trkpt><trkpt lat="43.3464937" lon="12.5634601"><ele>465.0</ele><time>2026-05-03T09:21:51.342Z</time></trkpt><trkpt lat="43.3463583" lon="12.563603"><ele>465.0</ele><time>2026-05-03T09:21:52.342Z</time></trkpt><trkpt lat="43.3462199" lon="12.5637473"><ele>464.66666666666663</ele><time>2026-05-03T09:21:53.342Z</time></trkpt><trkpt lat="43.3460857" lon="12.5638834"><ele>464.3333333333333</ele><time>2026-05-03T09:21:54.343Z</time></trkpt><trkpt lat="43.345949" lon="12.564037"><ele>464.0</ele><time>2026-05-03T09:21:55.342Z</time></trkpt><trkpt lat="43.3458078" lon="12.5641842"><ele>464.0</ele><time>2026-05-03T09:21:56.342Z</time></trkpt><trkpt lat="43.3456568" lon="12.5643377"><ele>464.0</ele><time>2026-05-03T09:21:57.342Z</time></trkpt><trkpt lat="43.3455107" lon="12.5645017"><ele>464.0</ele><time>2026-05-03T09:21:58.342Z</time></trkpt><trkpt lat="43.3453566" lon="12.5646646"><ele>464.0</ele><time>2026-05-03T09:21:59.342Z</time></trkpt><trkpt lat="43.3451986" lon="12.5648311"><ele>464.0</ele><time>2026-05-03T09:22:00.342Z</time></trkpt><trkpt lat="43.3450368" lon="12.5649934"><ele>464.0</ele><time>2026-05-03T09:22:01.342Z</time></trkpt><trkpt lat="43.3448737" lon="12.5651633"><ele>463.3333333333333</ele><time>2026-05-03T09:22:02.342Z</time></trkpt><trkpt lat="43.3447107" lon="12.5653399"><ele>462.66666666666663</ele><time>2026-05-03T09:22:03.342Z</time></trkpt><trkpt lat="43.3445471" lon="12.5655146"><ele>462.0</ele><time>2026-05-03T09:22:04.343Z</time></trkpt><trkpt lat="43.3443879" lon="12.5656809"><ele>462.0</ele><time>2026-05-03T09:22:05.342Z</time></trkpt><trkpt lat="43.3442251" lon="12.5658427"><ele>462.0</ele><time>2026-05-03T09:22:06.342Z</time></trkpt><trkpt lat="43.3440573" lon="12.5660124"><ele>462.0</ele><time>2026-05-03T09:22:07.342Z</time></trkpt><trkpt lat="43.3438974" lon="12.5661921"><ele>461.66666666666663</ele><time>2026-05-03T09:22:08.342Z</time></trkpt><trkpt lat="43.3437374" lon="12.5663888"><ele>461.3333333333333</ele><time>2026-05-03T09:22:09.342Z</time></trkpt><trkpt lat="43.3435796" lon="12.5665732"><ele>461.0</ele><time>2026-05-03T09:22:10.342Z</time></trkpt><trkpt lat="43.3434228" lon="12.5667687"><ele>461.0</ele><time>2026-05-03T09:22:11.343Z</time></trkpt><trkpt lat="43.3432637" lon="12.5669728"><ele>461.0</ele><time>2026-05-03T09:22:12.342Z</time></trkpt><trkpt lat="43.3431175" lon="12.5671793"><ele>461.0</ele><time>2026-05-03T09:22:13.342Z</time></trkpt><trkpt lat="43.3429746" lon="12.567375"><ele>461.0</ele><time>2026-05-03T09:22:14.342Z</time></trkpt><trkpt lat="43.3428366" lon="12.5675663"><ele>461.0</ele><time>2026-05-03T09:22:15.342Z</time></trkpt><trkpt lat="43.3427079" lon="12.567763"><ele>461.0</ele><time>2026-05-03T09:22:16.343Z</time></trkpt><trkpt lat="43.3425923" lon="12.5679549"><ele>460.66666666666663</ele><time>2026-05-03T09:22:17.343Z</time></trkpt><trkpt lat="43.3424692" lon="12.5681497"><ele>460.33333333333337</ele><time>2026-05-03T09:22:18.342Z</time></trkpt><trkpt lat="43.3423535" lon="12.5683368"><ele>460.0</ele><time>2026-05-03T09:22:19.342Z</time></trkpt><trkpt lat="43.3422476" lon="12.5685015"><ele>459.6666666666667</ele><time>2026-05-03T09:22:20.342Z</time></trkpt><trkpt lat="43.3421393" lon="12.5686798"><ele>459.33333333333337</ele><time>2026-05-03T09:22:21.342Z</time></trkpt><trkpt lat="43.3420293" lon="12.5688586"><ele>459.0</ele><time>2026-05-03T09:22:22.342Z</time></trkpt><trkpt lat="43.3419262" lon="12.5690468"><ele>459.0</ele><time>2026-05-03T09:22:23.342Z</time></trkpt><trkpt lat="43.3418224" lon="12.5692376"><ele>459.0</ele><time>2026-05-03T09:22:24.342Z</time></trkpt><trkpt lat="43.3417188" lon="12.5694199"><ele>459.0</ele><time>2026-05-03T09:22:25.342Z</time></trkpt><trkpt lat="43.3416169" lon="12.5696035"><ele>458.0</ele><time>2026-05-03T09:22:26.342Z</time></trkpt><trkpt lat="43.3415199" lon="12.5697874"><ele>457.0</ele><time>2026-05-03T09:22:27.342Z</time></trkpt><trkpt lat="43.3414352" lon="12.5699751"><ele>456.0</ele><time>2026-05-03T09:22:28.342Z</time></trkpt><trkpt lat="43.3413478" lon="12.5701645"><ele>456.0</ele><time>2026-05-03T09:22:29.342Z</time></trkpt><trkpt lat="43.3412607" lon="12.5703474"><ele>456.0</ele><time>2026-05-03T09:22:30.342Z</time></trkpt><trkpt lat="43.3411731" lon="12.5705215"><ele>456.0</ele><time>2026-05-03T09:22:31.343Z</time></trkpt><trkpt lat="43.3410828" lon="12.5707069"><ele>457.0</ele><time>2026-05-03T09:22:32.342Z</time></trkpt><trkpt lat="43.3409968" lon="12.5708904"><ele>458.0</ele><time>2026-05-03T09:22:33.343Z</time></trkpt><trkpt lat="43.3409127" lon="12.5710761"><ele>459.0</ele><time>2026-05-03T09:22:34.342Z</time></trkpt><trkpt lat="43.3408254" lon="12.5712625"><ele>459.33333333333337</ele><time>2026-05-03T09:22:35.342Z</time></trkpt><trkpt lat="43.3407411" lon="12.5714564"><ele>459.6666666666667</ele><time>2026-05-03T09:22:36.342Z</time></trkpt><trkpt lat="43.3406595" lon="12.5716602"><ele>460.0</ele><time>2026-05-03T09:22:37.342Z</time></trkpt><trkpt lat="43.3405752" lon="12.5718638"><ele>460.0</ele><time>2026-05-03T09:22:38.343Z</time></trkpt><trkpt lat="43.3405001" lon="12.5720641"><ele>460.0</ele><time>2026-05-03T09:22:39.342Z</time></trkpt><trkpt lat="43.3404314" lon="12.5722538"><ele>460.0</ele><time>2026-05-03T09:22:40.342Z</time></trkpt><trkpt lat="43.340361" lon="12.5724375"><ele>460.0</ele><time>2026-05-03T09:22:41.342Z</time></trkpt><trkpt lat="43.3402998" lon="12.5726098"><ele>460.0</ele><time>2026-05-03T09:22:42.342Z</time></trkpt><trkpt lat="43.3402338" lon="12.5727728"><ele>460.0</ele><time>2026-05-03T09:22:43.342Z</time></trkpt><trkpt lat="43.3401793" lon="12.5729353"><ele>460.0</ele><time>2026-05-03T09:22:44.342Z</time></trkpt><trkpt lat="43.3401133" lon="12.5730814"><ele>459.75</ele><time>2026-05-03T09:22:45.342Z</time></trkpt><trkpt lat="43.3400551" lon="12.5732221"><ele>459.5</ele><time>2026-05-03T09:22:46.342Z</time></trkpt><trkpt lat="43.3399922" lon="12.5733677"><ele>459.25</ele><time>2026-05-03T09:22:47.342Z</time></trkpt><trkpt lat="43.3399239" lon="12.5735112"><ele>459.0</ele><time>2026-05-03T09:22:48.342Z</time></trkpt><trkpt lat="43.3398634" lon="12.5736559"><ele>459.2</ele><time>2026-05-03T09:22:49.342Z</time></trkpt><trkpt lat="43.3398083" lon="12.5737946"><ele>459.4</ele><time>2026-05-03T09:22:50.342Z</time></trkpt><trkpt lat="43.3397479" lon="12.57392"><ele>459.6</ele><time>2026-05-03T09:22:51.343Z</time></trkpt><trkpt lat="43.3396934" lon="12.5740294"><ele>459.8</ele><time>2026-05-03T09:22:52.342Z</time></trkpt><trkpt lat="43.3396122" lon="12.5741171"><ele>460.0</ele><time>2026-05-03T09:22:54.342Z</time></trkpt><trkpt lat="43.339524" lon="12.5741531"><ele>459.4</ele><time>2026-05-03T09:22:57.343Z</time></trkpt><trkpt lat="43.3393997" lon="12.5741184"><ele>458.8</ele><time>2026-05-03T09:22:59.342Z</time></trkpt><trkpt lat="43.3393178" lon="12.5740884"><ele>458.20000000000005</ele><time>2026-05-03T09:23:00.343Z</time></trkpt><trkpt lat="43.3392368" lon="12.5740543"><ele>457.6</ele><time>2026-05-03T09:23:01.342Z</time></trkpt><trkpt lat="43.3391505" lon="12.5740168"><ele>457.0</ele><time>2026-05-03T09:23:02.342Z</time></trkpt><trkpt lat="43.3390488" lon="12.5739739"><ele>457.0</ele><time>2026-05-03T09:23:03.342Z</time></trkpt><trkpt lat="43.3389294" lon="12.5739246"><ele>457.0</ele><time>2026-05-03T09:23:04.342Z</time></trkpt><trkpt lat="43.3388146" lon="12.5738702"><ele>457.0</ele><time>2026-05-03T09:23:05.343Z</time></trkpt><trkpt lat="43.3386908" lon="12.5738264"><ele>457.0</ele><time>2026-05-03T09:23:06.342Z</time></trkpt><trkpt lat="43.3385592" lon="12.5737763"><ele>456.5</ele><time>2026-05-03T09:23:07.343Z</time></trkpt><trkpt lat="43.3384327" lon="12.573732"><ele>456.0</ele><time>2026-05-03T09:23:08.342Z</time></trkpt><trkpt lat="43.3382966" lon="12.5736813"><ele>455.5</ele><time>2026-05-03T09:23:09.343Z</time></trkpt><trkpt lat="43.3381535" lon="12.5736176"><ele>455.0</ele><time>2026-05-03T09:23:10.342Z</time></trkpt><trkpt lat="43.3380097" lon="12.5735654"><ele>455.0</ele><time>2026-05-03T09:23:11.342Z</time></trkpt><trkpt lat="43.3378522" lon="12.5735036"><ele>455.0</ele><time>2026-05-03T09:23:12.343Z</time></trkpt><trkpt lat="43.3376966" lon="12.5734432"><ele>455.0</ele><time>2026-05-03T09:23:13.342Z</time></trkpt><trkpt lat="43.3375419" lon="12.5733872"><ele>455.0</ele><time>2026-05-03T09:23:14.342Z</time></trkpt><trkpt lat="43.3373916" lon="12.573324"><ele>455.0</ele><time>2026-05-03T09:23:15.342Z</time></trkpt><trkpt lat="43.3372379" lon="12.5732728"><ele>455.0</ele><time>2026-05-03T09:23:16.342Z</time></trkpt><trkpt lat="43.337104" lon="12.5732096"><ele>454.0</ele><time>2026-05-03T09:23:17.342Z</time></trkpt><trkpt lat="43.3369745" lon="12.5731589"><ele>453.0</ele><time>2026-05-03T09:23:18.342Z</time></trkpt><trkpt lat="43.3368387" lon="12.5731196"><ele>452.0</ele><time>2026-05-03T09:23:19.342Z</time></trkpt><trkpt lat="43.336708" lon="12.5730731"><ele>451.0</ele><time>2026-05-03T09:23:20.343Z</time></trkpt><trkpt lat="43.3365852" lon="12.5730359"><ele>451.0</ele><time>2026-05-03T09:23:21.342Z</time></trkpt><trkpt lat="43.336478" lon="12.5729891"><ele>451.0</ele><time>2026-05-03T09:23:22.342Z</time></trkpt><trkpt lat="43.3363949" lon="12.5729405"><ele>451.0</ele><time>2026-05-03T09:23:23.342Z</time></trkpt><trkpt lat="43.3363452" lon="12.5728708"><ele>451.0</ele><time>2026-05-03T09:23:24.342Z</time></trkpt><trkpt lat="43.3362985" lon="12.5727977"><ele>451.0</ele><time>2026-05-03T09:23:25.343Z</time></trkpt><trkpt lat="43.3362089" lon="12.5727148"><ele>450.4</ele><time>2026-05-03T09:23:27.342Z</time></trkpt><trkpt lat="43.336131" lon="12.5727276"><ele>449.8</ele><time>2026-05-03T09:23:28.342Z</time></trkpt><trkpt lat="43.3360502" lon="12.5727436"><ele>449.19999999999993</ele><time>2026-05-03T09:23:29.342Z</time></trkpt><trkpt lat="43.3359608" lon="12.5727752"><ele>448.59999999999997</ele><time>2026-05-03T09:23:30.342Z</time></trkpt><trkpt lat="43.3358567" lon="12.5727713"><ele>448.0</ele><time>2026-05-03T09:23:31.342Z</time></trkpt><trkpt lat="43.3357436" lon="12.5727677"><ele>448.0</ele><time>2026-05-03T09:23:32.342Z</time></trkpt><trkpt lat="43.3356072" lon="12.5727214"><ele>448.0</ele><time>2026-05-03T09:23:33.343Z</time></trkpt><trkpt lat="43.3354658" lon="12.5726704"><ele>448.0</ele><time>2026-05-03T09:23:34.342Z</time></trkpt><trkpt lat="43.3353209" lon="12.5726202"><ele>448.0</ele><time>2026-05-03T09:23:35.342Z</time></trkpt><trkpt lat="43.3351684" lon="12.5725739"><ele>448.0</ele><time>2026-05-03T09:23:36.342Z</time></trkpt><trkpt lat="43.3350166" lon="12.5725428"><ele>448.0</ele><time>2026-05-03T09:23:37.342Z</time></trkpt><trkpt lat="43.3348572" lon="12.5725316"><ele>448.0</ele><time>2026-05-03T09:23:38.342Z</time></trkpt><trkpt lat="43.3346829" lon="12.5725352"><ele>447.6666666666667</ele><time>2026-05-03T09:23:39.342Z</time></trkpt><trkpt lat="43.3345117" lon="12.5725572"><ele>447.33333333333337</ele><time>2026-05-03T09:23:40.342Z</time></trkpt><trkpt lat="43.3343453" lon="12.5726095"><ele>447.0</ele><time>2026-05-03T09:23:41.342Z</time></trkpt><trkpt lat="43.334171" lon="12.5726692"><ele>447.0</ele><time>2026-05-03T09:23:42.342Z</time></trkpt><trkpt lat="43.3339992" lon="12.5727399"><ele>447.0</ele><time>2026-05-03T09:23:43.343Z</time></trkpt><trkpt lat="43.3338246" lon="12.5728237"><ele>447.0</ele><time>2026-05-03T09:23:44.342Z</time></trkpt><trkpt lat="43.333654" lon="12.5728989"><ele>446.33333333333337</ele><time>2026-05-03T09:23:45.342Z</time></trkpt><trkpt lat="43.3334816" lon="12.5729914"><ele>445.6666666666667</ele><time>2026-05-03T09:23:46.342Z</time></trkpt><trkpt lat="43.3333071" lon="12.5730862"><ele>445.0</ele><time>2026-05-03T09:23:47.342Z</time></trkpt><trkpt lat="43.3331282" lon="12.5731616"><ele>444.6666666666667</ele><time>2026-05-03T09:23:48.342Z</time></trkpt><trkpt lat="43.3329478" lon="12.573257"><ele>444.33333333333337</ele><time>2026-05-03T09:23:49.342Z</time></trkpt><trkpt lat="43.3327738" lon="12.5733478"><ele>444.0</ele><time>2026-05-03T09:23:50.343Z</time></trkpt><trkpt lat="43.3325957" lon="12.5734425"><ele>444.0</ele><time>2026-05-03T09:23:51.342Z</time></trkpt><trkpt lat="43.3324199" lon="12.5735303"><ele>444.0</ele><time>2026-05-03T09:23:52.342Z</time></trkpt><trkpt lat="43.3322393" lon="12.5736164"><ele>444.0</ele><time>2026-05-03T09:23:53.342Z</time></trkpt><trkpt lat="43.332064" lon="12.5736964"><ele>444.33333333333337</ele><time>2026-05-03T09:23:54.342Z</time></trkpt><trkpt lat="43.3318992" lon="12.5737872"><ele>444.6666666666667</ele><time>2026-05-03T09:23:55.342Z</time></trkpt><trkpt lat="43.3317216" lon="12.5738746"><ele>445.0</ele><time>2026-05-03T09:23:56.343Z</time></trkpt><trkpt lat="43.3315483" lon="12.5739635"><ele>444.33333333333337</ele><time>2026-05-03T09:23:57.342Z</time></trkpt><trkpt lat="43.3313802" lon="12.5740538"><ele>443.66666666666663</ele><time>2026-05-03T09:23:58.342Z</time></trkpt><trkpt lat="43.3312088" lon="12.5741329"><ele>443.0</ele><time>2026-05-03T09:23:59.342Z</time></trkpt><trkpt lat="43.3310392" lon="12.5742242"><ele>443.0</ele><time>2026-05-03T09:24:00.343Z</time></trkpt><trkpt lat="43.3308655" lon="12.5743101"><ele>443.0</ele><time>2026-05-03T09:24:01.342Z</time></trkpt><trkpt lat="43.3306951" lon="12.5743945"><ele>443.0</ele><time>2026-05-03T09:24:02.342Z</time></trkpt><trkpt lat="43.3305184" lon="12.5744852"><ele>442.3333333333333</ele><time>2026-05-03T09:24:03.342Z</time></trkpt><trkpt lat="43.3303404" lon="12.5745627"><ele>441.66666666666663</ele><time>2026-05-03T09:24:04.342Z</time></trkpt><trkpt lat="43.3301588" lon="12.574627"><ele>441.0</ele><time>2026-05-03T09:24:05.342Z</time></trkpt><trkpt lat="43.3299757" lon="12.5746892"><ele>441.0</ele><time>2026-05-03T09:24:06.342Z</time></trkpt><trkpt lat="43.3297922" lon="12.5747356"><ele>441.0</ele><time>2026-05-03T09:24:07.342Z</time></trkpt><trkpt lat="43.3296068" lon="12.5747884"><ele>441.0</ele><time>2026-05-03T09:24:08.342Z</time></trkpt><trkpt lat="43.32942" lon="12.5748349"><ele>440.33333333333337</ele><time>2026-05-03T09:24:09.342Z</time></trkpt><trkpt lat="43.3292317" lon="12.5748829"><ele>439.6666666666667</ele><time>2026-05-03T09:24:10.343Z</time></trkpt><trkpt lat="43.3290476" lon="12.5749289"><ele>439.0</ele><time>2026-05-03T09:24:11.342Z</time></trkpt><trkpt lat="43.3288706" lon="12.5749774"><ele>438.33333333333337</ele><time>2026-05-03T09:24:12.343Z</time></trkpt><trkpt lat="43.3286857" lon="12.5750311"><ele>437.66666666666663</ele><time>2026-05-03T09:24:13.342Z</time></trkpt><trkpt lat="43.3285038" lon="12.5750778"><ele>437.0</ele><time>2026-05-03T09:24:14.343Z</time></trkpt><trkpt lat="43.3283201" lon="12.5751148"><ele>437.0</ele><time>2026-05-03T09:24:15.343Z</time></trkpt><trkpt lat="43.3281342" lon="12.575172"><ele>437.0</ele><time>2026-05-03T09:24:16.342Z</time></trkpt><trkpt lat="43.3279487" lon="12.5752246"><ele>437.0</ele><time>2026-05-03T09:24:17.342Z</time></trkpt><trkpt lat="43.3277635" lon="12.5752765"><ele>437.0</ele><time>2026-05-03T09:24:18.343Z</time></trkpt><trkpt lat="43.3275857" lon="12.5753301"><ele>437.0</ele><time>2026-05-03T09:24:19.342Z</time></trkpt><trkpt lat="43.3274001" lon="12.5753857"><ele>437.0</ele><time>2026-05-03T09:24:20.342Z</time></trkpt><trkpt lat="43.3272353" lon="12.5754566"><ele>436.0</ele><time>2026-05-03T09:24:21.342Z</time></trkpt><trkpt lat="43.327053" lon="12.5755138"><ele>435.0</ele><time>2026-05-03T09:24:22.342Z</time></trkpt><trkpt lat="43.3268717" lon="12.575583"><ele>434.0</ele><time>2026-05-03T09:24:23.343Z</time></trkpt><trkpt lat="43.326699" lon="12.5756567"><ele>434.0</ele><time>2026-05-03T09:24:24.342Z</time></trkpt><trkpt lat="43.3265346" lon="12.5757182"><ele>434.0</ele><time>2026-05-03T09:24:25.342Z</time></trkpt><trkpt lat="43.3263575" lon="12.5757905"><ele>434.0</ele><time>2026-05-03T09:24:26.342Z</time></trkpt><trkpt lat="43.3261771" lon="12.5758498"><ele>434.0</ele><time>2026-05-03T09:24:27.342Z</time></trkpt><trkpt lat="43.3260087" lon="12.5759117"><ele>434.0</ele><time>2026-05-03T09:24:28.343Z</time></trkpt><trkpt lat="43.3258387" lon="12.5759615"><ele>434.0</ele><time>2026-05-03T09:24:29.343Z</time></trkpt><trkpt lat="43.3256795" lon="12.5760152"><ele>433.66666666666663</ele><time>2026-05-03T09:24:30.342Z</time></trkpt><trkpt lat="43.3255106" lon="12.5760786"><ele>433.33333333333337</ele><time>2026-05-03T09:24:31.342Z</time></trkpt><trkpt lat="43.3253464" lon="12.5761432"><ele>433.0</ele><time>2026-05-03T09:24:32.342Z</time></trkpt><trkpt lat="43.3251748" lon="12.5761877"><ele>433.0</ele><time>2026-05-03T09:24:33.342Z</time></trkpt><trkpt lat="43.3250164" lon="12.5762237"><ele>433.0</ele><time>2026-05-03T09:24:34.343Z</time></trkpt><trkpt lat="43.3248452" lon="12.5762428"><ele>433.0</ele><time>2026-05-03T09:24:35.342Z</time></trkpt><trkpt lat="43.3246728" lon="12.5762512"><ele>432.0</ele><time>2026-05-03T09:24:36.342Z</time></trkpt><trkpt lat="43.3245054" lon="12.5762686"><ele>431.0</ele><time>2026-05-03T09:24:37.343Z</time></trkpt><trkpt lat="43.3243328" lon="12.5762749"><ele>430.0</ele><time>2026-05-03T09:24:38.342Z</time></trkpt><trkpt lat="43.3241653" lon="12.5762853"><ele>430.0</ele><time>2026-05-03T09:24:39.342Z</time></trkpt><trkpt lat="43.3240015" lon="12.5762938"><ele>430.0</ele><time>2026-05-03T09:24:40.343Z</time></trkpt><trkpt lat="43.3238381" lon="12.5763052"><ele>430.0</ele><time>2026-05-03T09:24:41.342Z</time></trkpt><trkpt lat="43.3236825" lon="12.5763203"><ele>430.0</ele><time>2026-05-03T09:24:42.343Z</time></trkpt><trkpt lat="43.3235359" lon="12.5763312"><ele>430.0</ele><time>2026-05-03T09:24:43.342Z</time></trkpt><trkpt lat="43.3233857" lon="12.5763459"><ele>430.0</ele><time>2026-05-03T09:24:44.342Z</time></trkpt><trkpt lat="43.3232368" lon="12.5763459"><ele>430.0</ele><time>2026-05-03T09:24:45.342Z</time></trkpt><trkpt lat="43.3230906" lon="12.5763336"><ele>429.6666666666667</ele><time>2026-05-03T09:24:46.342Z</time></trkpt><trkpt lat="43.3229367" lon="12.5763021"><ele>429.33333333333337</ele><time>2026-05-03T09:24:47.342Z</time></trkpt><trkpt lat="43.3227973" lon="12.5762619"><ele>429.0</ele><time>2026-05-03T09:24:48.342Z</time></trkpt><trkpt lat="43.3226453" lon="12.5762127"><ele>429.0</ele><time>2026-05-03T09:24:49.343Z</time></trkpt><trkpt lat="43.3224961" lon="12.5761723"><ele>429.0</ele><time>2026-05-03T09:24:50.342Z</time></trkpt><trkpt lat="43.3223463" lon="12.5761038"><ele>429.0</ele><time>2026-05-03T09:24:51.342Z</time></trkpt><trkpt lat="43.3221927" lon="12.5760377"><ele>428.66666666666663</ele><time>2026-05-03T09:24:52.342Z</time></trkpt><trkpt lat="43.322037" lon="12.5759698"><ele>428.3333333333333</ele><time>2026-05-03T09:24:53.343Z</time></trkpt><trkpt lat="43.3218891" lon="12.5759105"><ele>428.0</ele><time>2026-05-03T09:24:54.342Z</time></trkpt><trkpt lat="43.3217331" lon="12.5758388"><ele>428.0</ele><time>2026-05-03T09:24:55.342Z</time></trkpt><trkpt lat="43.3215781" lon="12.5757754"><ele>428.0</ele><time>2026-05-03T09:24:56.342Z</time></trkpt><trkpt lat="43.3214241" lon="12.5757029"><ele>428.0</ele><time>2026-05-03T09:24:57.342Z</time></trkpt><trkpt lat="43.3212749" lon="12.575629"><ele>427.5</ele><time>2026-05-03T09:24:58.342Z</time></trkpt><trkpt lat="43.3211396" lon="12.5755668"><ele>427.0</ele><time>2026-05-03T09:24:59.342Z</time></trkpt><trkpt lat="43.3210018" lon="12.5755111"><ele>426.5</ele><time>2026-05-03T09:25:00.342Z</time></trkpt><trkpt lat="43.3208636" lon="12.5754426"><ele>426.0</ele><time>2026-05-03T09:25:01.342Z</time></trkpt><trkpt lat="43.3207232" lon="12.5753712"><ele>425.75</ele><time>2026-05-03T09:25:02.342Z</time></trkpt><trkpt lat="43.3205815" lon="12.5752999"><ele>425.5</ele><time>2026-05-03T09:25:03.342Z</time></trkpt><trkpt lat="43.3204416" lon="12.5752408"><ele>425.25</ele><time>2026-05-03T09:25:04.342Z</time></trkpt><trkpt lat="43.320302" lon="12.5751832"><ele>425.0</ele><time>2026-05-03T09:25:05.342Z</time></trkpt><trkpt lat="43.3201527" lon="12.5751187"><ele>425.0</ele><time>2026-05-03T09:25:06.342Z</time></trkpt><trkpt lat="43.3200034" lon="12.5750584"><ele>425.0</ele><time>2026-05-03T09:25:07.342Z</time></trkpt><trkpt lat="43.3198558" lon="12.5750059"><ele>425.0</ele><time>2026-05-03T09:25:08.342Z</time></trkpt><trkpt lat="43.3197087" lon="12.5749461"><ele>424.0</ele><time>2026-05-03T09:25:09.342Z</time></trkpt><trkpt lat="43.3195597" lon="12.5748845"><ele>423.0</ele><time>2026-05-03T09:25:10.342Z</time></trkpt><trkpt lat="43.3194078" lon="12.5748264"><ele>422.0</ele><time>2026-05-03T09:25:11.342Z</time></trkpt><trkpt lat="43.3192609" lon="12.5747696"><ele>422.0</ele><time>2026-05-03T09:25:12.342Z</time></trkpt><trkpt lat="43.3191057" lon="12.574723"><ele>422.0</ele><time>2026-05-03T09:25:13.343Z</time></trkpt><trkpt lat="43.3189499" lon="12.5746769"><ele>422.0</ele><time>2026-05-03T09:25:14.342Z</time></trkpt><trkpt lat="43.3187941" lon="12.5746351"><ele>422.0</ele><time>2026-05-03T09:25:15.342Z</time></trkpt><trkpt lat="43.3186372" lon="12.5745935"><ele>422.0</ele><time>2026-05-03T09:25:16.342Z</time></trkpt><trkpt lat="43.3184845" lon="12.5745532"><ele>422.0</ele><time>2026-05-03T09:25:17.343Z</time></trkpt><trkpt lat="43.3183312" lon="12.5745086"><ele>422.0</ele><time>2026-05-03T09:25:18.343Z</time></trkpt><trkpt lat="43.3181743" lon="12.5744605"><ele>422.0</ele><time>2026-05-03T09:25:19.342Z</time></trkpt><trkpt lat="43.3180145" lon="12.5744159"><ele>422.0</ele><time>2026-05-03T09:25:20.342Z</time></trkpt><trkpt lat="43.3178537" lon="12.5743734"><ele>421.3333333333333</ele><time>2026-05-03T09:25:21.342Z</time></trkpt><trkpt lat="43.3176942" lon="12.5743249"><ele>420.66666666666663</ele><time>2026-05-03T09:25:22.342Z</time></trkpt><trkpt lat="43.3175324" lon="12.5742851"><ele>420.0</ele><time>2026-05-03T09:25:23.342Z</time></trkpt><trkpt lat="43.3173698" lon="12.5742492"><ele>418.66666666666663</ele><time>2026-05-03T09:25:24.342Z</time></trkpt><trkpt lat="43.3172041" lon="12.5742176"><ele>417.3333333333333</ele><time>2026-05-03T09:25:25.342Z</time></trkpt><trkpt lat="43.3170413" lon="12.5741961"><ele>416.0</ele><time>2026-05-03T09:25:26.343Z</time></trkpt><trkpt lat="43.316882" lon="12.5741992"><ele>416.0</ele><time>2026-05-03T09:25:27.342Z</time></trkpt><trkpt lat="43.3167296" lon="12.5742115"><ele>416.0</ele><time>2026-05-03T09:25:28.342Z</time></trkpt><trkpt lat="43.3165834" lon="12.5742304"><ele>416.0</ele><time>2026-05-03T09:25:29.343Z</time></trkpt><trkpt lat="43.3164452" lon="12.5742622"><ele>416.0</ele><time>2026-05-03T09:25:30.342Z</time></trkpt><trkpt lat="43.3163137" lon="12.574284"><ele>416.4</ele><time>2026-05-03T09:25:31.342Z</time></trkpt><trkpt lat="43.3161825" lon="12.5743152"><ele>416.8</ele><time>2026-05-03T09:25:32.342Z</time></trkpt><trkpt lat="43.3160744" lon="12.5743425"><ele>417.2</ele><time>2026-05-03T09:25:33.342Z</time></trkpt><trkpt lat="43.315971" lon="12.5743631"><ele>417.59999999999997</ele><time>2026-05-03T09:25:34.342Z</time></trkpt><trkpt lat="43.3158831" lon="12.5743939"><ele>418.0</ele><time>2026-05-03T09:25:35.342Z</time></trkpt><trkpt lat="43.3157986" lon="12.5744361"><ele>418.00000000000006</ele><time>2026-05-03T09:25:36.342Z</time></trkpt><trkpt lat="43.3157207" lon="12.5744626"><ele>418.0</ele><time>2026-05-03T09:25:37.342Z</time></trkpt><trkpt lat="43.3156443" lon="12.5745114"><ele>418.0</ele><time>2026-05-03T09:25:38.342Z</time></trkpt><trkpt lat="43.3155645" lon="12.5745434"><ele>418.0</ele><time>2026-05-03T09:25:39.342Z</time></trkpt><trkpt lat="43.3154745" lon="12.5745583"><ele>418.00000000000006</ele><time>2026-05-03T09:25:40.342Z</time></trkpt><trkpt lat="43.3153723" lon="12.5745676"><ele>418.0</ele><time>2026-05-03T09:25:41.342Z</time></trkpt><trkpt lat="43.3152568" lon="12.5745785"><ele>418.25</ele><time>2026-05-03T09:25:42.342Z</time></trkpt><trkpt lat="43.315151" lon="12.5745959"><ele>418.5</ele><time>2026-05-03T09:25:43.342Z</time></trkpt><trkpt lat="43.3150414" lon="12.5746276"><ele>418.75</ele><time>2026-05-03T09:25:44.342Z</time></trkpt><trkpt lat="43.3149191" lon="12.5746645"><ele>419.0</ele><time>2026-05-03T09:25:45.342Z</time></trkpt><trkpt lat="43.3147865" lon="12.5746962"><ele>418.5</ele><time>2026-05-03T09:25:46.342Z</time></trkpt><trkpt lat="43.314661" lon="12.574732"><ele>418.0</ele><time>2026-05-03T09:25:47.342Z</time></trkpt><trkpt lat="43.3145246" lon="12.5747698"><ele>417.5</ele><time>2026-05-03T09:25:48.342Z</time></trkpt><trkpt lat="43.3143834" lon="12.5748128"><ele>417.0</ele><time>2026-05-03T09:25:49.342Z</time></trkpt><trkpt lat="43.3142296" lon="12.5748737"><ele>417.0</ele><time>2026-05-03T09:25:50.342Z</time></trkpt><trkpt lat="43.3140721" lon="12.5749317"><ele>417.0</ele><time>2026-05-03T09:25:51.342Z</time></trkpt><trkpt lat="43.3139184" lon="12.5749877"><ele>417.0</ele><time>2026-05-03T09:25:52.342Z</time></trkpt><trkpt lat="43.3137682" lon="12.5750401"><ele>416.33333333333337</ele><time>2026-05-03T09:25:53.342Z</time></trkpt><trkpt lat="43.3136156" lon="12.5750996"><ele>415.6666666666667</ele><time>2026-05-03T09:25:54.342Z</time></trkpt><trkpt lat="43.3134625" lon="12.5751655"><ele>415.0</ele><time>2026-05-03T09:25:55.342Z</time></trkpt><trkpt lat="43.3133063" lon="12.5752263"><ele>415.0</ele><time>2026-05-03T09:25:56.342Z</time></trkpt><trkpt lat="43.3131578" lon="12.5752705"><ele>415.0</ele><time>2026-05-03T09:25:57.342Z</time></trkpt><trkpt lat="43.3130117" lon="12.5753189"><ele>415.0</ele><time>2026-05-03T09:25:58.342Z</time></trkpt><trkpt lat="43.3128741" lon="12.5753655"><ele>415.0</ele><time>2026-05-03T09:25:59.342Z</time></trkpt><trkpt lat="43.3127436" lon="12.5754191"><ele>414.75</ele><time>2026-05-03T09:26:00.342Z</time></trkpt><trkpt lat="43.3126101" lon="12.5754755"><ele>414.5</ele><time>2026-05-03T09:26:01.342Z</time></trkpt><trkpt lat="43.31248" lon="12.5755228"><ele>414.25</ele><time>2026-05-03T09:26:02.342Z</time></trkpt><trkpt lat="43.3123355" lon="12.5755654"><ele>414.0</ele><time>2026-05-03T09:26:03.342Z</time></trkpt><trkpt lat="43.3121952" lon="12.5756178"><ele>414.0</ele><time>2026-05-03T09:26:04.342Z</time></trkpt><trkpt lat="43.3120536" lon="12.5756735"><ele>414.0</ele><time>2026-05-03T09:26:05.342Z</time></trkpt><trkpt lat="43.3119056" lon="12.575724"><ele>414.0</ele><time>2026-05-03T09:26:06.342Z</time></trkpt><trkpt lat="43.3117591" lon="12.5757863"><ele>414.0</ele><time>2026-05-03T09:26:07.342Z</time></trkpt><trkpt lat="43.3116131" lon="12.5758417"><ele>414.0</ele><time>2026-05-03T09:26:08.342Z</time></trkpt><trkpt lat="43.3114655" lon="12.5758985"><ele>414.0</ele><time>2026-05-03T09:26:09.342Z</time></trkpt><trkpt lat="43.3113246" lon="12.5759498"><ele>414.25</ele><time>2026-05-03T09:26:10.342Z</time></trkpt><trkpt lat="43.3111885" lon="12.5760028"><ele>414.5</ele><time>2026-05-03T09:26:11.342Z</time></trkpt><trkpt lat="43.311049" lon="12.5760515"><ele>414.75</ele><time>2026-05-03T09:26:12.343Z</time></trkpt><trkpt lat="43.3109113" lon="12.5760975"><ele>415.0</ele><time>2026-05-03T09:26:13.342Z</time></trkpt><trkpt lat="43.3107706" lon="12.5761279"><ele>415.0</ele><time>2026-05-03T09:26:14.342Z</time></trkpt><trkpt lat="43.3106309" lon="12.576144"><ele>415.0</ele><time>2026-05-03T09:26:15.342Z</time></trkpt><trkpt lat="43.3104813" lon="12.5761481"><ele>415.0</ele><time>2026-05-03T09:26:16.342Z</time></trkpt><trkpt lat="43.3103394" lon="12.5761497"><ele>415.0</ele><time>2026-05-03T09:26:17.342Z</time></trkpt><trkpt lat="43.3101956" lon="12.5761545"><ele>415.0</ele><time>2026-05-03T09:26:18.342Z</time></trkpt><trkpt lat="43.3100577" lon="12.5761508"><ele>415.0</ele><time>2026-05-03T09:26:19.342Z</time></trkpt><trkpt lat="43.3099318" lon="12.5761575"><ele>415.0</ele><time>2026-05-03T09:26:20.342Z</time></trkpt><trkpt lat="43.3098052" lon="12.5761637"><ele>415.0</ele><time>2026-05-03T09:26:21.342Z</time></trkpt><trkpt lat="43.309677" lon="12.5761651"><ele>414.5</ele><time>2026-05-03T09:26:22.342Z</time></trkpt><trkpt lat="43.3095392" lon="12.5761625"><ele>414.0</ele><time>2026-05-03T09:26:23.342Z</time></trkpt><trkpt lat="43.3094021" lon="12.5761672"><ele>413.5</ele><time>2026-05-03T09:26:24.343Z</time></trkpt><trkpt lat="43.3092598" lon="12.5761625"><ele>413.0</ele><time>2026-05-03T09:26:25.343Z</time></trkpt><trkpt lat="43.3091115" lon="12.5761595"><ele>413.0</ele><time>2026-05-03T09:26:26.342Z</time></trkpt><trkpt lat="43.3089742" lon="12.5761653"><ele>413.0</ele><time>2026-05-03T09:26:27.342Z</time></trkpt><trkpt lat="43.3088339" lon="12.5761885"><ele>413.0</ele><time>2026-05-03T09:26:28.342Z</time></trkpt><trkpt lat="43.3086988" lon="12.5762273"><ele>413.0</ele><time>2026-05-03T09:26:29.343Z</time></trkpt><trkpt lat="43.3085622" lon="12.5762882"><ele>413.25</ele><time>2026-05-03T09:26:30.343Z</time></trkpt><trkpt lat="43.3084289" lon="12.5763665"><ele>413.5</ele><time>2026-05-03T09:26:31.342Z</time></trkpt><trkpt lat="43.3083076" lon="12.5764565"><ele>413.75</ele><time>2026-05-03T09:26:32.342Z</time></trkpt><trkpt lat="43.308179" lon="12.5765494"><ele>414.0</ele><time>2026-05-03T09:26:33.342Z</time></trkpt><trkpt lat="43.3080606" lon="12.5766447"><ele>414.75</ele><time>2026-05-03T09:26:34.342Z</time></trkpt><trkpt lat="43.3079346" lon="12.5767428"><ele>415.5</ele><time>2026-05-03T09:26:35.342Z</time></trkpt><trkpt lat="43.307813" lon="12.5768386"><ele>416.25</ele><time>2026-05-03T09:26:36.342Z</time></trkpt><trkpt lat="43.3076907" lon="12.5769454"><ele>417.0</ele><time>2026-05-03T09:26:37.343Z</time></trkpt><trkpt lat="43.3075668" lon="12.5770539"><ele>417.0</ele><time>2026-05-03T09:26:38.342Z</time></trkpt><trkpt lat="43.3074326" lon="12.5771557"><ele>417.0</ele><time>2026-05-03T09:26:39.342Z</time></trkpt><trkpt lat="43.3072961" lon="12.577261"><ele>417.0</ele><time>2026-05-03T09:26:40.343Z</time></trkpt><trkpt lat="43.307157" lon="12.5773734"><ele>417.0</ele><time>2026-05-03T09:26:41.342Z</time></trkpt><trkpt lat="43.3070189" lon="12.5774872"><ele>417.0</ele><time>2026-05-03T09:26:42.342Z</time></trkpt><trkpt lat="43.3068717" lon="12.5776029"><ele>417.0</ele><time>2026-05-03T09:26:43.342Z</time></trkpt><trkpt lat="43.3067373" lon="12.5777099"><ele>417.0</ele><time>2026-05-03T09:26:44.342Z</time></trkpt><trkpt lat="43.3065963" lon="12.5778208"><ele>417.0</ele><time>2026-05-03T09:26:45.342Z</time></trkpt><trkpt lat="43.3064499" lon="12.5779318"><ele>417.0</ele><time>2026-05-03T09:26:46.342Z</time></trkpt><trkpt lat="43.3063067" lon="12.5780445"><ele>418.66666666666663</ele><time>2026-05-03T09:26:47.343Z</time></trkpt><trkpt lat="43.3061616" lon="12.5781576"><ele>420.3333333333333</ele><time>2026-05-03T09:26:48.342Z</time></trkpt><trkpt lat="43.3060154" lon="12.5782759"><ele>422.0</ele><time>2026-05-03T09:26:49.342Z</time></trkpt><trkpt lat="43.3058624" lon="12.5783913"><ele>422.0</ele><time>2026-05-03T09:26:50.342Z</time></trkpt><trkpt lat="43.3057119" lon="12.5784979"><ele>422.0</ele><time>2026-05-03T09:26:51.343Z</time></trkpt><trkpt lat="43.3055506" lon="12.5785996"><ele>422.0</ele><time>2026-05-03T09:26:52.342Z</time></trkpt><trkpt lat="43.3053792" lon="12.5786804"><ele>422.66666666666663</ele><time>2026-05-03T09:26:53.342Z</time></trkpt><trkpt lat="43.3052017" lon="12.5787402"><ele>423.33333333333337</ele><time>2026-05-03T09:26:54.342Z</time></trkpt><trkpt lat="43.3050192" lon="12.5788164"><ele>424.0</ele><time>2026-05-03T09:26:55.342Z</time></trkpt><trkpt lat="43.3048364" lon="12.5788865"><ele>425.0</ele><time>2026-05-03T09:26:56.342Z</time></trkpt><trkpt lat="43.3046459" lon="12.5789547"><ele>426.0</ele><time>2026-05-03T09:26:57.342Z</time></trkpt><trkpt lat="43.304461" lon="12.5790121"><ele>427.0</ele><time>2026-05-03T09:26:58.342Z</time></trkpt><trkpt lat="43.3042738" lon="12.5790766"><ele>427.0</ele><time>2026-05-03T09:26:59.343Z</time></trkpt><trkpt lat="43.3040922" lon="12.5791469"><ele>427.0</ele><time>2026-05-03T09:27:00.342Z</time></trkpt><trkpt lat="43.3039276" lon="12.579207"><ele>427.0</ele><time>2026-05-03T09:27:01.342Z</time></trkpt><trkpt lat="43.3037769" lon="12.5792596"><ele>429.0</ele><time>2026-05-03T09:27:02.342Z</time></trkpt><trkpt lat="43.303629" lon="12.5793195"><ele>431.0</ele><time>2026-05-03T09:27:03.342Z</time></trkpt><trkpt lat="43.3034835" lon="12.5793981"><ele>433.0</ele><time>2026-05-03T09:27:04.342Z</time></trkpt><trkpt lat="43.3033396" lon="12.5794949"><ele>433.33333333333337</ele><time>2026-05-03T09:27:05.342Z</time></trkpt><trkpt lat="43.3031952" lon="12.579608"><ele>433.66666666666663</ele><time>2026-05-03T09:27:06.342Z</time></trkpt><trkpt lat="43.3030486" lon="12.5797357"><ele>434.0</ele><time>2026-05-03T09:27:07.342Z</time></trkpt><trkpt lat="43.3029039" lon="12.5798792"><ele>434.0</ele><time>2026-05-03T09:27:08.342Z</time></trkpt><trkpt lat="43.3027621" lon="12.5800323"><ele>434.0</ele><time>2026-05-03T09:27:09.343Z</time></trkpt><trkpt lat="43.3026219" lon="12.5801922"><ele>434.0</ele><time>2026-05-03T09:27:10.342Z</time></trkpt><trkpt lat="43.3024799" lon="12.5803713"><ele>434.0</ele><time>2026-05-03T09:27:11.342Z</time></trkpt><trkpt lat="43.3023394" lon="12.5805519"><ele>434.0</ele><time>2026-05-03T09:27:12.342Z</time></trkpt><trkpt lat="43.3021967" lon="12.5807312"><ele>434.0</ele><time>2026-05-03T09:27:13.342Z</time></trkpt><trkpt lat="43.3020599" lon="12.5809118"><ele>433.66666666666663</ele><time>2026-05-03T09:27:14.342Z</time></trkpt><trkpt lat="43.3019204" lon="12.5810844"><ele>433.33333333333337</ele><time>2026-05-03T09:27:15.342Z</time></trkpt><trkpt lat="43.3017821" lon="12.5812475"><ele>433.0</ele><time>2026-05-03T09:27:16.342Z</time></trkpt><trkpt lat="43.3016455" lon="12.5813949"><ele>431.0</ele><time>2026-05-03T09:27:17.342Z</time></trkpt><trkpt lat="43.3015092" lon="12.581525"><ele>429.0</ele><time>2026-05-03T09:27:18.342Z</time></trkpt><trkpt lat="43.3013583" lon="12.5816309"><ele>427.0</ele><time>2026-05-03T09:27:19.343Z</time></trkpt><trkpt lat="43.3012012" lon="12.5817005"><ele>424.6666666666667</ele><time>2026-05-03T09:27:20.342Z</time></trkpt><trkpt lat="43.3010389" lon="12.5817267"><ele>422.33333333333337</ele><time>2026-05-03T09:27:21.342Z</time></trkpt><trkpt lat="43.3008686" lon="12.5816969"><ele>420.0</ele><time>2026-05-03T09:27:22.342Z</time></trkpt><trkpt lat="43.3007006" lon="12.5816386"><ele>418.33333333333337</ele><time>2026-05-03T09:27:23.342Z</time></trkpt><trkpt lat="43.3005333" lon="12.5815431"><ele>416.6666666666667</ele><time>2026-05-03T09:27:24.342Z</time></trkpt><trkpt lat="43.3003752" lon="12.5814262"><ele>415.0</ele><time>2026-05-03T09:27:25.342Z</time></trkpt><trkpt lat="43.3001988" lon="12.5812815"><ele>414.6666666666667</ele><time>2026-05-03T09:27:26.342Z</time></trkpt><trkpt lat="43.3000293" lon="12.5811442"><ele>414.33333333333337</ele><time>2026-05-03T09:27:27.342Z</time></trkpt><trkpt lat="43.2998514" lon="12.5810044"><ele>414.0</ele><time>2026-05-03T09:27:28.342Z</time></trkpt><trkpt lat="43.2996743" lon="12.5808511"><ele>414.0</ele><time>2026-05-03T09:27:29.342Z</time></trkpt><trkpt lat="43.2994889" lon="12.5806998"><ele>414.0</ele><time>2026-05-03T09:27:30.342Z</time></trkpt><trkpt lat="43.2993043" lon="12.580545"><ele>414.0</ele><time>2026-05-03T09:27:31.342Z</time></trkpt><trkpt lat="43.2991126" lon="12.5803917"><ele>413.66666666666663</ele><time>2026-05-03T09:27:32.342Z</time></trkpt><trkpt lat="43.2989283" lon="12.5802342"><ele>413.3333333333333</ele><time>2026-05-03T09:27:33.342Z</time></trkpt><trkpt lat="43.29873" lon="12.5800765"><ele>413.0</ele><time>2026-05-03T09:27:34.342Z</time></trkpt><trkpt lat="43.2985407" lon="12.5799194"><ele>413.0</ele><time>2026-05-03T09:27:35.343Z</time></trkpt><trkpt lat="43.2983437" lon="12.5797545"><ele>413.0</ele><time>2026-05-03T09:27:36.342Z</time></trkpt><trkpt lat="43.2981426" lon="12.579589"><ele>414.5</ele><time>2026-05-03T09:27:37.342Z</time></trkpt><trkpt lat="43.2979483" lon="12.5794332"><ele>416.0</ele><time>2026-05-03T09:27:38.342Z</time></trkpt><trkpt lat="43.2977528" lon="12.5792792"><ele>416.0</ele><time>2026-05-03T09:27:39.342Z</time></trkpt><trkpt lat="43.2975579" lon="12.5791222"><ele>416.0</ele><time>2026-05-03T09:27:40.342Z</time></trkpt><trkpt lat="43.2973596" lon="12.5789654"><ele>415.66666666666663</ele><time>2026-05-03T09:27:41.343Z</time></trkpt><trkpt lat="43.2971585" lon="12.5788125"><ele>415.33333333333337</ele><time>2026-05-03T09:27:42.342Z</time></trkpt><trkpt lat="43.2969648" lon="12.5786731"><ele>415.0</ele><time>2026-05-03T09:27:43.342Z</time></trkpt><trkpt lat="43.2967707" lon="12.5785323"><ele>415.6666666666667</ele><time>2026-05-03T09:27:44.342Z</time></trkpt><trkpt lat="43.2965786" lon="12.5783981"><ele>416.33333333333337</ele><time>2026-05-03T09:27:45.342Z</time></trkpt><trkpt lat="43.2963832" lon="12.5782718"><ele>417.0</ele><time>2026-05-03T09:27:46.342Z</time></trkpt><trkpt lat="43.296202" lon="12.5781393"><ele>418.66666666666663</ele><time>2026-05-03T09:27:47.342Z</time></trkpt><trkpt lat="43.2960086" lon="12.5780062"><ele>420.3333333333333</ele><time>2026-05-03T09:27:48.343Z</time></trkpt><trkpt lat="43.2958103" lon="12.5778945"><ele>422.0</ele><time>2026-05-03T09:27:49.342Z</time></trkpt><trkpt lat="43.2956149" lon="12.5777937"><ele>423.66666666666663</ele><time>2026-05-03T09:27:50.342Z</time></trkpt><trkpt lat="43.2954207" lon="12.5777088"><ele>425.33333333333337</ele><time>2026-05-03T09:27:51.342Z</time></trkpt><trkpt lat="43.2952273" lon="12.5776325"><ele>427.0</ele><time>2026-05-03T09:27:52.342Z</time></trkpt><trkpt lat="43.2950358" lon="12.5775696"><ele>427.0</ele><time>2026-05-03T09:27:53.342Z</time></trkpt><trkpt lat="43.2948449" lon="12.5774995"><ele>427.0</ele><time>2026-05-03T09:27:54.342Z</time></trkpt><trkpt lat="43.2946458" lon="12.5774498"><ele>427.0</ele><time>2026-05-03T09:27:55.342Z</time></trkpt><trkpt lat="43.2944467" lon="12.5773926"><ele>429.6666666666667</ele><time>2026-05-03T09:27:56.342Z</time></trkpt><trkpt lat="43.2942508" lon="12.577346"><ele>432.33333333333337</ele><time>2026-05-03T09:27:57.342Z</time></trkpt><trkpt lat="43.2940599" lon="12.5773035"><ele>435.0</ele><time>2026-05-03T09:27:58.342Z</time></trkpt><trkpt lat="43.2938644" lon="12.5772595"><ele>441.0</ele><time>2026-05-03T09:27:59.342Z</time></trkpt><trkpt lat="43.2936724" lon="12.5772102"><ele>447.0</ele><time>2026-05-03T09:28:00.342Z</time></trkpt><trkpt lat="43.2934765" lon="12.5771632"><ele>453.0</ele><time>2026-05-03T09:28:01.343Z</time></trkpt><trkpt lat="43.2932874" lon="12.5770984"><ele>454.33333333333337</ele><time>2026-05-03T09:28:02.343Z</time></trkpt><trkpt lat="43.2930956" lon="12.5770173"><ele>455.6666666666667</ele><time>2026-05-03T09:28:03.342Z</time></trkpt><trkpt lat="43.292913" lon="12.5769205"><ele>457.0</ele><time>2026-05-03T09:28:04.342Z</time></trkpt><trkpt lat="43.2927411" lon="12.5768155"><ele>457.0</ele><time>2026-05-03T09:28:05.342Z</time></trkpt><trkpt lat="43.2925571" lon="12.5767069"><ele>457.0</ele><time>2026-05-03T09:28:06.342Z</time></trkpt><trkpt lat="43.2923756" lon="12.5765827"><ele>457.0</ele><time>2026-05-03T09:28:07.342Z</time></trkpt><trkpt lat="43.2922027" lon="12.5764498"><ele>458.0</ele><time>2026-05-03T09:28:08.342Z</time></trkpt><trkpt lat="43.2920381" lon="12.5762955"><ele>459.0</ele><time>2026-05-03T09:28:09.342Z</time></trkpt><trkpt lat="43.2918815" lon="12.5761424"><ele>460.0</ele><time>2026-05-03T09:28:10.342Z</time></trkpt><trkpt lat="43.2917292" lon="12.5759907"><ele>460.0</ele><time>2026-05-03T09:28:11.342Z</time></trkpt><trkpt lat="43.2915538" lon="12.5758571"><ele>460.0</ele><time>2026-05-03T09:28:12.342Z</time></trkpt><trkpt lat="43.2913781" lon="12.5757304"><ele>460.0</ele><time>2026-05-03T09:28:13.342Z</time></trkpt><trkpt lat="43.2912144" lon="12.5755936"><ele>463.33333333333337</ele><time>2026-05-03T09:28:14.342Z</time></trkpt><trkpt lat="43.2910386" lon="12.575467"><ele>466.66666666666663</ele><time>2026-05-03T09:28:15.342Z</time></trkpt><trkpt lat="43.2908573" lon="12.5753483"><ele>470.0</ele><time>2026-05-03T09:28:16.342Z</time></trkpt><trkpt lat="43.2906837" lon="12.5752273"><ele>473.66666666666663</ele><time>2026-05-03T09:28:17.342Z</time></trkpt><trkpt lat="43.2905162" lon="12.5751131"><ele>477.33333333333337</ele><time>2026-05-03T09:28:18.343Z</time></trkpt><trkpt lat="43.2903587" lon="12.5749973"><ele>481.0</ele><time>2026-05-03T09:28:19.342Z</time></trkpt><trkpt lat="43.2902151" lon="12.5748926"><ele>481.0</ele><time>2026-05-03T09:28:20.342Z</time></trkpt><trkpt lat="43.2900852" lon="12.5747723"><ele>481.0</ele><time>2026-05-03T09:28:21.342Z</time></trkpt><trkpt lat="43.2899604" lon="12.5746435"><ele>481.0</ele><time>2026-05-03T09:28:22.342Z</time></trkpt><trkpt lat="43.2898486" lon="12.5744988"><ele>483.0</ele><time>2026-05-03T09:28:23.342Z</time></trkpt><trkpt lat="43.289752" lon="12.5743204"><ele>485.0</ele><time>2026-05-03T09:28:24.342Z</time></trkpt><trkpt lat="43.2896573" lon="12.5741319"><ele>487.0</ele><time>2026-05-03T09:28:25.342Z</time></trkpt><trkpt lat="43.2895511" lon="12.5739406"><ele>487.0</ele><time>2026-05-03T09:28:26.342Z</time></trkpt><trkpt lat="43.2894446" lon="12.5737458"><ele>487.0</ele><time>2026-05-03T09:28:27.342Z</time></trkpt><trkpt lat="43.2893291" lon="12.5735879"><ele>487.0</ele><time>2026-05-03T09:28:28.343Z</time></trkpt><trkpt lat="43.2892063" lon="12.5734458"><ele>489.0</ele><time>2026-05-03T09:28:29.342Z</time></trkpt><trkpt lat="43.289076" lon="12.5733469"><ele>491.0</ele><time>2026-05-03T09:28:30.342Z</time></trkpt><trkpt lat="43.2889334" lon="12.5732711"><ele>493.0</ele><time>2026-05-03T09:28:31.342Z</time></trkpt><trkpt lat="43.28877" lon="12.5732056"><ele>496.0</ele><time>2026-05-03T09:28:32.342Z</time></trkpt><trkpt lat="43.2885953" lon="12.5731545"><ele>499.0</ele><time>2026-05-03T09:28:33.342Z</time></trkpt><trkpt lat="43.2884123" lon="12.5731101"><ele>502.0</ele><time>2026-05-03T09:28:34.342Z</time></trkpt><trkpt lat="43.288244" lon="12.5730531"><ele>502.0</ele><time>2026-05-03T09:28:35.343Z</time></trkpt><trkpt lat="43.2880952" lon="12.5730006"><ele>502.0</ele><time>2026-05-03T09:28:36.342Z</time></trkpt><trkpt lat="43.2879651" lon="12.5729516"><ele>502.0</ele><time>2026-05-03T09:28:37.342Z</time></trkpt><trkpt lat="43.287858" lon="12.5729137"><ele>502.0</ele><time>2026-05-03T09:28:38.342Z</time></trkpt><trkpt lat="43.2877517" lon="12.5728862"><ele>502.71428571428567</ele><time>2026-05-03T09:28:39.343Z</time></trkpt><trkpt lat="43.2876846" lon="12.5728692"><ele>503.42857142857144</ele><time>2026-05-03T09:28:40.342Z</time></trkpt><trkpt lat="43.2876123" lon="12.5728552"><ele>504.1428571428571</ele><time>2026-05-03T09:28:41.342Z</time></trkpt><trkpt lat="43.2875399" lon="12.5728543"><ele>504.85714285714283</ele><time>2026-05-03T09:28:42.342Z</time></trkpt><trkpt lat="43.2874625" lon="12.5728678"><ele>505.57142857142856</ele><time>2026-05-03T09:28:43.342Z</time></trkpt><trkpt lat="43.2873978" lon="12.5729109"><ele>506.2857142857143</ele><time>2026-05-03T09:28:44.342Z</time></trkpt><trkpt lat="43.2873454" lon="12.5729804"><ele>507.0</ele><time>2026-05-03T09:28:45.342Z</time></trkpt><trkpt lat="43.287307" lon="12.5730818"><ele>507.0</ele><time>2026-05-03T09:28:46.342Z</time></trkpt><trkpt lat="43.2872824" lon="12.5731843"><ele>507.0</ele><time>2026-05-03T09:28:47.342Z</time></trkpt><trkpt lat="43.2872621" lon="12.5732886"><ele>507.0</ele><time>2026-05-03T09:28:48.343Z</time></trkpt><trkpt lat="43.287254" lon="12.573412"><ele>507.0</ele><time>2026-05-03T09:28:49.342Z</time></trkpt><trkpt lat="43.2872412" lon="12.5735349"><ele>507.0</ele><time>2026-05-03T09:28:50.342Z</time></trkpt><trkpt lat="43.2872219" lon="12.5736697"><ele>507.0</ele><time>2026-05-03T09:28:51.342Z</time></trkpt><trkpt lat="43.2871894" lon="12.573829"><ele>512.75</ele><time>2026-05-03T09:28:52.342Z</time></trkpt><trkpt lat="43.2871573" lon="12.5739885"><ele>518.5</ele><time>2026-05-03T09:28:53.342Z</time></trkpt><trkpt lat="43.2871107" lon="12.5741405"><ele>524.25</ele><time>2026-05-03T09:28:54.342Z</time></trkpt><trkpt lat="43.287055" lon="12.5742848"><ele>530.0</ele><time>2026-05-03T09:28:55.342Z</time></trkpt><trkpt lat="43.2870039" lon="12.5744233"><ele>527.4</ele><time>2026-05-03T09:28:56.342Z</time></trkpt><trkpt lat="43.2869454" lon="12.5745601"><ele>524.8</ele><time>2026-05-03T09:28:57.342Z</time></trkpt><trkpt lat="43.2868841" lon="12.5746695"><ele>522.2</ele><time>2026-05-03T09:28:58.342Z</time></trkpt><trkpt lat="43.2868084" lon="12.5747608"><ele>519.6</ele><time>2026-05-03T09:28:59.342Z</time></trkpt><trkpt lat="43.286737" lon="12.5748294"><ele>517.0</ele><time>2026-05-03T09:29:00.342Z</time></trkpt><trkpt lat="43.2866656" lon="12.5748673"><ele>517.0</ele><time>2026-05-03T09:29:01.342Z</time></trkpt><trkpt lat="43.2865801" lon="12.5748698"><ele>517.0</ele><time>2026-05-03T09:29:02.343Z</time></trkpt><trkpt lat="43.2864972" lon="12.5748283"><ele>517.0</ele><time>2026-05-03T09:29:03.342Z</time></trkpt><trkpt lat="43.2864243" lon="12.5747517"><ele>517.0</ele><time>2026-05-03T09:29:04.342Z</time></trkpt><trkpt lat="43.2863576" lon="12.5746547"><ele>517.0</ele><time>2026-05-03T09:29:05.342Z</time></trkpt><trkpt lat="43.2862844" lon="12.5745446"><ele>520.3333333333334</ele><time>2026-05-03T09:29:06.343Z</time></trkpt><trkpt lat="43.2861944" lon="12.574418"><ele>523.6666666666666</ele><time>2026-05-03T09:29:07.342Z</time></trkpt><trkpt lat="43.2860857" lon="12.5742667"><ele>527.0</ele><time>2026-05-03T09:29:08.343Z</time></trkpt><trkpt lat="43.2859864" lon="12.5740785"><ele>527.0</ele><time>2026-05-03T09:29:09.342Z</time></trkpt><trkpt lat="43.2858903" lon="12.5738904"><ele>527.0</ele><time>2026-05-03T09:29:10.342Z</time></trkpt><trkpt lat="43.2857989" lon="12.5736963"><ele>527.0</ele><time>2026-05-03T09:29:11.342Z</time></trkpt><trkpt lat="43.2856995" lon="12.5735049"><ele>528.3333333333333</ele><time>2026-05-03T09:29:12.342Z</time></trkpt><trkpt lat="43.2855976" lon="12.5733163"><ele>529.6666666666666</ele><time>2026-05-03T09:29:13.342Z</time></trkpt><trkpt lat="43.2854968" lon="12.5731832"><ele>531.0</ele><time>2026-05-03T09:29:14.342Z</time></trkpt><trkpt lat="43.2853788" lon="12.5730623"><ele>531.0</ele><time>2026-05-03T09:29:15.342Z</time></trkpt><trkpt lat="43.285248" lon="12.5729438"><ele>531.0</ele><time>2026-05-03T09:29:16.342Z</time></trkpt><trkpt lat="43.2851048" lon="12.5728301"><ele>531.0</ele><time>2026-05-03T09:29:17.342Z</time></trkpt><trkpt lat="43.2849561" lon="12.5727537"><ele>536.6666666666666</ele><time>2026-05-03T09:29:18.342Z</time></trkpt><trkpt lat="43.28481" lon="12.5726796"><ele>542.3333333333333</ele><time>2026-05-03T09:29:19.342Z</time></trkpt><trkpt lat="43.2846556" lon="12.5726269"><ele>548.0</ele><time>2026-05-03T09:29:20.342Z</time></trkpt><trkpt lat="43.2844933" lon="12.5725783"><ele>549.3333333333333</ele><time>2026-05-03T09:29:21.343Z</time></trkpt><trkpt lat="43.2843277" lon="12.5725287"><ele>550.6666666666666</ele><time>2026-05-03T09:29:22.342Z</time></trkpt><trkpt lat="43.2841616" lon="12.5724905"><ele>552.0</ele><time>2026-05-03T09:29:23.342Z</time></trkpt><trkpt lat="43.2839865" lon="12.5724544"><ele>554.3333333333334</ele><time>2026-05-03T09:29:24.342Z</time></trkpt><trkpt lat="43.2838274" lon="12.5724209"><ele>556.6666666666667</ele><time>2026-05-03T09:29:25.342Z</time></trkpt><trkpt lat="43.2836755" lon="12.5723889"><ele>559.0</ele><time>2026-05-03T09:29:26.343Z</time></trkpt><trkpt lat="43.2835295" lon="12.5723564"><ele>559.0</ele><time>2026-05-03T09:29:27.342Z</time></trkpt><trkpt lat="43.2833778" lon="12.5723272"><ele>559.0</ele><time>2026-05-03T09:29:28.342Z</time></trkpt><trkpt lat="43.2832307" lon="12.5722727"><ele>559.0</ele><time>2026-05-03T09:29:29.342Z</time></trkpt><trkpt lat="43.2830969" lon="12.5722116"><ele>559.0</ele><time>2026-05-03T09:29:30.342Z</time></trkpt><trkpt lat="43.2829676" lon="12.5721261"><ele>561.3333333333334</ele><time>2026-05-03T09:29:31.342Z</time></trkpt><trkpt lat="43.2828355" lon="12.5719973"><ele>563.6666666666666</ele><time>2026-05-03T09:29:32.342Z</time></trkpt><trkpt lat="43.282698" lon="12.5718606"><ele>566.0</ele><time>2026-05-03T09:29:33.342Z</time></trkpt><trkpt lat="43.2825641" lon="12.5717168"><ele>566.0</ele><time>2026-05-03T09:29:34.342Z</time></trkpt><trkpt lat="43.2824325" lon="12.5715655"><ele>566.0</ele><time>2026-05-03T09:29:35.342Z</time></trkpt><trkpt lat="43.2823047" lon="12.5714212"><ele>566.0</ele><time>2026-05-03T09:29:36.342Z</time></trkpt><trkpt lat="43.2821883" lon="12.5712881"><ele>564.25</ele><time>2026-05-03T09:29:37.342Z</time></trkpt><trkpt lat="43.2820884" lon="12.5711671"><ele>562.5</ele><time>2026-05-03T09:29:38.342Z</time></trkpt><trkpt lat="43.2820197" lon="12.5710253"><ele>560.75</ele><time>2026-05-03T09:29:39.343Z</time></trkpt><trkpt lat="43.281967" lon="12.5708702"><ele>559.0</ele><time>2026-05-03T09:29:40.342Z</time></trkpt><trkpt lat="43.2819326" lon="12.5707025"><ele>559.0</ele><time>2026-05-03T09:29:41.342Z</time></trkpt><trkpt lat="43.2819056" lon="12.5705293"><ele>559.0</ele><time>2026-05-03T09:29:42.343Z</time></trkpt><trkpt lat="43.281884" lon="12.570347"><ele>559.0</ele><time>2026-05-03T09:29:43.342Z</time></trkpt><trkpt lat="43.2818346" lon="12.5701712"><ele>559.0</ele><time>2026-05-03T09:29:44.342Z</time></trkpt><trkpt lat="43.2817629" lon="12.5699868"><ele>559.0</ele><time>2026-05-03T09:29:45.342Z</time></trkpt><trkpt lat="43.2816657" lon="12.569822"><ele>559.0</ele><time>2026-05-03T09:29:46.343Z</time></trkpt><trkpt lat="43.2815658" lon="12.5696433"><ele>559.0</ele><time>2026-05-03T09:29:47.342Z</time></trkpt><trkpt lat="43.2814475" lon="12.5694678"><ele>561.6666666666667</ele><time>2026-05-03T09:29:48.342Z</time></trkpt><trkpt lat="43.2813304" lon="12.5693042"><ele>564.3333333333334</ele><time>2026-05-03T09:29:49.342Z</time></trkpt><trkpt lat="43.281215" lon="12.5691517"><ele>567.0</ele><time>2026-05-03T09:29:50.342Z</time></trkpt><trkpt lat="43.2810987" lon="12.5690403"><ele>567.0</ele><time>2026-05-03T09:29:51.343Z</time></trkpt><trkpt lat="43.2809672" lon="12.5689473"><ele>567.0</ele><time>2026-05-03T09:29:52.342Z</time></trkpt><trkpt lat="43.2808299" lon="12.5688915"><ele>567.0</ele><time>2026-05-03T09:29:53.342Z</time></trkpt><trkpt lat="43.2806787" lon="12.5688648"><ele>567.0</ele><time>2026-05-03T09:29:54.342Z</time></trkpt><trkpt lat="43.2805219" lon="12.5688541"><ele>569.0</ele><time>2026-05-03T09:29:55.342Z</time></trkpt><trkpt lat="43.28035" lon="12.5688417"><ele>571.0</ele><time>2026-05-03T09:29:56.342Z</time></trkpt><trkpt lat="43.2801678" lon="12.5688472"><ele>573.0</ele><time>2026-05-03T09:29:57.343Z</time></trkpt><trkpt lat="43.2799925" lon="12.5688585"><ele>573.0</ele><time>2026-05-03T09:29:58.342Z</time></trkpt><trkpt lat="43.279819" lon="12.5688485"><ele>573.0</ele><time>2026-05-03T09:29:59.342Z</time></trkpt><trkpt lat="43.2796544" lon="12.5688224"><ele>573.0</ele><time>2026-05-03T09:30:00.342Z</time></trkpt><trkpt lat="43.2794908" lon="12.5687772"><ele>577.6666666666666</ele><time>2026-05-03T09:30:01.342Z</time></trkpt><trkpt lat="43.2793377" lon="12.5686836"><ele>582.3333333333333</ele><time>2026-05-03T09:30:02.342Z</time></trkpt><trkpt lat="43.2791804" lon="12.5685793"><ele>587.0</ele><time>2026-05-03T09:30:03.342Z</time></trkpt><trkpt lat="43.2790228" lon="12.5684459"><ele>586.0</ele><time>2026-05-03T09:30:04.343Z</time></trkpt><trkpt lat="43.2788584" lon="12.5683223"><ele>585.0</ele><time>2026-05-03T09:30:05.342Z</time></trkpt><trkpt lat="43.2786821" lon="12.5681985"><ele>584.0</ele><time>2026-05-03T09:30:06.343Z</time></trkpt><trkpt lat="43.2785047" lon="12.5680661"><ele>584.0</ele><time>2026-05-03T09:30:07.342Z</time></trkpt><trkpt lat="43.2783284" lon="12.5679348"><ele>584.0</ele><time>2026-05-03T09:30:08.342Z</time></trkpt><trkpt lat="43.2781515" lon="12.5678072"><ele>584.0</ele><time>2026-05-03T09:30:09.342Z</time></trkpt><trkpt lat="43.2779858" lon="12.5676727"><ele>588.0</ele><time>2026-05-03T09:30:10.342Z</time></trkpt><trkpt lat="43.277821" lon="12.5675374"><ele>592.0</ele><time>2026-05-03T09:30:11.343Z</time></trkpt><trkpt lat="43.2776775" lon="12.567399"><ele>596.0</ele><time>2026-05-03T09:30:12.342Z</time></trkpt><trkpt lat="43.2775293" lon="12.567252"><ele>596.0</ele><time>2026-05-03T09:30:13.342Z</time></trkpt><trkpt lat="43.2773993" lon="12.5670987"><ele>596.0</ele><time>2026-05-03T09:30:14.342Z</time></trkpt><trkpt lat="43.2772617" lon="12.5669469"><ele>596.0</ele><time>2026-05-03T09:30:15.342Z</time></trkpt><trkpt lat="43.277128" lon="12.5667981"><ele>600.0</ele><time>2026-05-03T09:30:16.342Z</time></trkpt><trkpt lat="43.2770148" lon="12.5666387"><ele>604.0</ele><time>2026-05-03T09:30:17.342Z</time></trkpt><trkpt lat="43.2768871" lon="12.5665147"><ele>608.0</ele><time>2026-05-03T09:30:18.342Z</time></trkpt><trkpt lat="43.2767488" lon="12.5664441"><ele>608.0</ele><time>2026-05-03T09:30:19.342Z</time></trkpt><trkpt lat="43.2766068" lon="12.5663999"><ele>608.0</ele><time>2026-05-03T09:30:20.342Z</time></trkpt><trkpt lat="43.2764524" lon="12.5663612"><ele>608.0</ele><time>2026-05-03T09:30:21.342Z</time></trkpt><trkpt lat="43.2763216" lon="12.5663545"><ele>608.0</ele><time>2026-05-03T09:30:22.342Z</time></trkpt><trkpt lat="43.2761542" lon="12.5663838"><ele>610.6666666666666</ele><time>2026-05-03T09:30:23.343Z</time></trkpt><trkpt lat="43.2759839" lon="12.5664469"><ele>613.3333333333334</ele><time>2026-05-03T09:30:24.342Z</time></trkpt><trkpt lat="43.2758239" lon="12.5665211"><ele>616.0</ele><time>2026-05-03T09:30:25.342Z</time></trkpt><trkpt lat="43.2756759" lon="12.5665821"><ele>619.0</ele><time>2026-05-03T09:30:26.342Z</time></trkpt><trkpt lat="43.2755292" lon="12.5666417"><ele>622.0</ele><time>2026-05-03T09:30:27.342Z</time></trkpt><trkpt lat="43.2753794" lon="12.566677"><ele>625.0</ele><time>2026-05-03T09:30:28.342Z</time></trkpt><trkpt lat="43.2752319" lon="12.5666468"><ele>625.0</ele><time>2026-05-03T09:30:29.342Z</time></trkpt><trkpt lat="43.2750779" lon="12.5665927"><ele>625.0</ele><time>2026-05-03T09:30:30.342Z</time></trkpt><trkpt lat="43.2749173" lon="12.566524"><ele>625.0</ele><time>2026-05-03T09:30:31.343Z</time></trkpt><trkpt lat="43.2747622" lon="12.5664302"><ele>625.0</ele><time>2026-05-03T09:30:32.342Z</time></trkpt><trkpt lat="43.2745941" lon="12.5663367"><ele>625.0</ele><time>2026-05-03T09:30:33.342Z</time></trkpt><trkpt lat="43.2744146" lon="12.5662418"><ele>625.0</ele><time>2026-05-03T09:30:34.342Z</time></trkpt><trkpt lat="43.2742358" lon="12.5661216"><ele>629.3333333333334</ele><time>2026-05-03T09:30:35.342Z</time></trkpt><trkpt lat="43.274063" lon="12.5660002"><ele>633.6666666666666</ele><time>2026-05-03T09:30:36.342Z</time></trkpt><trkpt lat="43.2738972" lon="12.5658877"><ele>638.0</ele><time>2026-05-03T09:30:37.343Z</time></trkpt><trkpt lat="43.273743" lon="12.5657513"><ele>638.0</ele><time>2026-05-03T09:30:38.342Z</time></trkpt><trkpt lat="43.2736012" lon="12.5656248"><ele>638.0</ele><time>2026-05-03T09:30:39.342Z</time></trkpt><trkpt lat="43.2734711" lon="12.5655386"><ele>638.0</ele><time>2026-05-03T09:30:40.342Z</time></trkpt><trkpt lat="43.2733422" lon="12.565458"><ele>638.0</ele><time>2026-05-03T09:30:41.343Z</time></trkpt><trkpt lat="43.2731907" lon="12.56545"><ele>638.0</ele><time>2026-05-03T09:30:42.342Z</time></trkpt><trkpt lat="43.2730428" lon="12.5654281"><ele>638.0</ele><time>2026-05-03T09:30:43.343Z</time></trkpt><trkpt lat="43.272902" lon="12.5654541"><ele>638.0</ele><time>2026-05-03T09:30:44.342Z</time></trkpt><trkpt lat="43.272753" lon="12.5654745"><ele>639.3333333333333</ele><time>2026-05-03T09:30:45.342Z</time></trkpt><trkpt lat="43.2726078" lon="12.565499"><ele>640.6666666666666</ele><time>2026-05-03T09:30:46.343Z</time></trkpt><trkpt lat="43.2724618" lon="12.5655374"><ele>642.0</ele><time>2026-05-03T09:30:47.342Z</time></trkpt><trkpt lat="43.27231" lon="12.56559"><ele>642.0</ele><time>2026-05-03T09:30:48.342Z</time></trkpt><trkpt lat="43.2721501" lon="12.5656567"><ele>642.0</ele><time>2026-05-03T09:30:49.342Z</time></trkpt><trkpt lat="43.2719971" lon="12.5657111"><ele>642.0</ele><time>2026-05-03T09:30:50.342Z</time></trkpt><trkpt lat="43.2718489" lon="12.5657617"><ele>642.0</ele><time>2026-05-03T09:30:51.342Z</time></trkpt><trkpt lat="43.2717014" lon="12.5658086"><ele>642.0</ele><time>2026-05-03T09:30:52.342Z</time></trkpt><trkpt lat="43.271561" lon="12.565827"><ele>642.0</ele><time>2026-05-03T09:30:53.342Z</time></trkpt><trkpt lat="43.2714338" lon="12.5658018"><ele>642.0</ele><time>2026-05-03T09:30:54.342Z</time></trkpt><trkpt lat="43.2713165" lon="12.5657532"><ele>642.5</ele><time>2026-05-03T09:30:55.342Z</time></trkpt><trkpt lat="43.271208" lon="12.5656557"><ele>643.0</ele><time>2026-05-03T09:30:56.342Z</time></trkpt><trkpt lat="43.2711158" lon="12.5655038"><ele>643.5</ele><time>2026-05-03T09:30:57.342Z</time></trkpt><trkpt lat="43.2710332" lon="12.5653354"><ele>644.0</ele><time>2026-05-03T09:30:58.342Z</time></trkpt><trkpt lat="43.2709537" lon="12.5651558"><ele>644.0</ele><time>2026-05-03T09:30:59.342Z</time></trkpt><trkpt lat="43.2708647" lon="12.5649596"><ele>644.0</ele><time>2026-05-03T09:31:00.342Z</time></trkpt><trkpt lat="43.2707854" lon="12.564783"><ele>644.0</ele><time>2026-05-03T09:31:01.342Z</time></trkpt><trkpt lat="43.2706985" lon="12.5646021"><ele>644.25</ele><time>2026-05-03T09:31:02.342Z</time></trkpt><trkpt lat="43.270616" lon="12.5644522"><ele>644.5</ele><time>2026-05-03T09:31:03.342Z</time></trkpt><trkpt lat="43.2705004" lon="12.5643502"><ele>644.75</ele><time>2026-05-03T09:31:04.342Z</time></trkpt><trkpt lat="43.2703683" lon="12.564277"><ele>645.0</ele><time>2026-05-03T09:31:05.343Z</time></trkpt><trkpt lat="43.2702298" lon="12.564216"><ele>645.0</ele><time>2026-05-03T09:31:06.342Z</time></trkpt><trkpt lat="43.2700827" lon="12.5641727"><ele>645.0</ele><time>2026-05-03T09:31:07.342Z</time></trkpt><trkpt lat="43.2699121" lon="12.564145"><ele>645.0</ele><time>2026-05-03T09:31:08.342Z</time></trkpt><trkpt lat="43.2697418" lon="12.5641077"><ele>644.6666666666666</ele><time>2026-05-03T09:31:09.342Z</time></trkpt><trkpt lat="43.269575" lon="12.5640813"><ele>644.3333333333333</ele><time>2026-05-03T09:31:10.342Z</time></trkpt><trkpt lat="43.2694152" lon="12.5640766"><ele>644.0</ele><time>2026-05-03T09:31:11.343Z</time></trkpt><trkpt lat="43.2692607" lon="12.564102"><ele>644.0</ele><time>2026-05-03T09:31:12.342Z</time></trkpt><trkpt lat="43.2691134" lon="12.5641565"><ele>644.0</ele><time>2026-05-03T09:31:13.343Z</time></trkpt><trkpt lat="43.2689732" lon="12.5642651"><ele>644.0</ele><time>2026-05-03T09:31:14.342Z</time></trkpt><trkpt lat="43.2688339" lon="12.564391"><ele>642.6666666666666</ele><time>2026-05-03T09:31:15.343Z</time></trkpt><trkpt lat="43.2686936" lon="12.5645275"><ele>641.3333333333334</ele><time>2026-05-03T09:31:16.342Z</time></trkpt><trkpt lat="43.268545" lon="12.5646634"><ele>640.0</ele><time>2026-05-03T09:31:17.342Z</time></trkpt><trkpt lat="43.2683926" lon="12.56479"><ele>640.0</ele><time>2026-05-03T09:31:18.342Z</time></trkpt><trkpt lat="43.2682353" lon="12.5649245"><ele>640.0</ele><time>2026-05-03T09:31:19.343Z</time></trkpt><trkpt lat="43.268079" lon="12.5650687"><ele>640.0</ele><time>2026-05-03T09:31:20.342Z</time></trkpt><trkpt lat="43.2679341" lon="12.5652021"><ele>639.0</ele><time>2026-05-03T09:31:21.342Z</time></trkpt><trkpt lat="43.2677918" lon="12.565319"><ele>638.0</ele><time>2026-05-03T09:31:22.343Z</time></trkpt><trkpt lat="43.2676551" lon="12.5654298"><ele>637.0</ele><time>2026-05-03T09:31:23.342Z</time></trkpt><trkpt lat="43.2675245" lon="12.5655129"><ele>639.25</ele><time>2026-05-03T09:31:24.343Z</time></trkpt><trkpt lat="43.2673878" lon="12.565567"><ele>641.5</ele><time>2026-05-03T09:31:25.342Z</time></trkpt><trkpt lat="43.2672401" lon="12.5655861"><ele>643.75</ele><time>2026-05-03T09:31:26.343Z</time></trkpt><trkpt lat="43.267093" lon="12.5655757"><ele>646.0</ele><time>2026-05-03T09:31:27.342Z</time></trkpt><trkpt lat="43.2669477" lon="12.5655158"><ele>646.0</ele><time>2026-05-03T09:31:28.342Z</time></trkpt><trkpt lat="43.2667996" lon="12.5654229"><ele>646.0</ele><time>2026-05-03T09:31:29.342Z</time></trkpt><trkpt lat="43.2666613" lon="12.5653039"><ele>646.0</ele><time>2026-05-03T09:31:30.342Z</time></trkpt><trkpt lat="43.2665142" lon="12.5651744"><ele>646.6666666666667</ele><time>2026-05-03T09:31:31.342Z</time></trkpt><trkpt lat="43.2663649" lon="12.5650318"><ele>647.3333333333334</ele><time>2026-05-03T09:31:32.342Z</time></trkpt><trkpt lat="43.2662079" lon="12.5648885"><ele>648.0</ele><time>2026-05-03T09:31:33.342Z</time></trkpt><trkpt lat="43.2660444" lon="12.5647482"><ele>648.0</ele><time>2026-05-03T09:31:34.342Z</time></trkpt><trkpt lat="43.2658792" lon="12.5645989"><ele>648.0</ele><time>2026-05-03T09:31:35.342Z</time></trkpt><trkpt lat="43.2657277" lon="12.5644542"><ele>648.0</ele><time>2026-05-03T09:31:36.342Z</time></trkpt><trkpt lat="43.2655818" lon="12.5643355"><ele>646.6666666666666</ele><time>2026-05-03T09:31:37.342Z</time></trkpt><trkpt lat="43.2654339" lon="12.564236"><ele>645.3333333333333</ele><time>2026-05-03T09:31:38.343Z</time></trkpt><trkpt lat="43.2652908" lon="12.5641697"><ele>644.0</ele><time>2026-05-03T09:31:39.342Z</time></trkpt><trkpt lat="43.2651314" lon="12.5641522"><ele>644.0</ele><time>2026-05-03T09:31:40.342Z</time></trkpt><trkpt lat="43.2649695" lon="12.5641489"><ele>644.0</ele><time>2026-05-03T09:31:41.342Z</time></trkpt><trkpt lat="43.2647943" lon="12.5641681"><ele>644.0</ele><time>2026-05-03T09:31:42.342Z</time></trkpt><trkpt lat="43.2646189" lon="12.5641814"><ele>642.6666666666666</ele><time>2026-05-03T09:31:43.342Z</time></trkpt><trkpt lat="43.2644473" lon="12.5641983"><ele>641.3333333333334</ele><time>2026-05-03T09:31:44.342Z</time></trkpt><trkpt lat="43.2642758" lon="12.5642069"><ele>640.0</ele><time>2026-05-03T09:31:45.342Z</time></trkpt><trkpt lat="43.2641084" lon="12.5642074"><ele>640.0</ele><time>2026-05-03T09:31:46.342Z</time></trkpt><trkpt lat="43.2639515" lon="12.5641753"><ele>640.0</ele><time>2026-05-03T09:31:47.342Z</time></trkpt><trkpt lat="43.2637888" lon="12.5641118"><ele>640.0</ele><time>2026-05-03T09:31:48.342Z</time></trkpt><trkpt lat="43.2636323" lon="12.5640234"><ele>639.0</ele><time>2026-05-03T09:31:49.342Z</time></trkpt><trkpt lat="43.2634596" lon="12.5639111"><ele>638.0</ele><time>2026-05-03T09:31:50.342Z</time></trkpt><trkpt lat="43.2632822" lon="12.5638015"><ele>637.0</ele><time>2026-05-03T09:31:51.342Z</time></trkpt><trkpt lat="43.2631026" lon="12.5636902"><ele>640.6666666666667</ele><time>2026-05-03T09:31:52.342Z</time></trkpt><trkpt lat="43.2629223" lon="12.5635804"><ele>644.3333333333334</ele><time>2026-05-03T09:31:53.342Z</time></trkpt><trkpt lat="43.2627493" lon="12.5634628"><ele>648.0</ele><time>2026-05-03T09:31:54.342Z</time></trkpt><trkpt lat="43.2625741" lon="12.5633559"><ele>648.0</ele><time>2026-05-03T09:31:55.342Z</time></trkpt><trkpt lat="43.2624073" lon="12.5632438"><ele>648.0</ele><time>2026-05-03T09:31:56.343Z</time></trkpt><trkpt lat="43.2622333" lon="12.5631485"><ele>648.0</ele><time>2026-05-03T09:31:57.342Z</time></trkpt><trkpt lat="43.2620719" lon="12.5630644"><ele>650.3333333333334</ele><time>2026-05-03T09:31:58.342Z</time></trkpt><trkpt lat="43.2619145" lon="12.5629855"><ele>652.6666666666667</ele><time>2026-05-03T09:31:59.342Z</time></trkpt><trkpt lat="43.2617564" lon="12.5629314"><ele>655.0</ele><time>2026-05-03T09:32:00.342Z</time></trkpt><trkpt lat="43.261597" lon="12.5628908"><ele>654.6666666666667</ele><time>2026-05-03T09:32:01.342Z</time></trkpt><trkpt lat="43.2614328" lon="12.5628748"><ele>654.3333333333334</ele><time>2026-05-03T09:32:02.342Z</time></trkpt><trkpt lat="43.2612767" lon="12.562874"><ele>654.0</ele><time>2026-05-03T09:32:03.342Z</time></trkpt><trkpt lat="43.2611271" lon="12.5628674"><ele>654.75</ele><time>2026-05-03T09:32:04.342Z</time></trkpt><trkpt lat="43.2609848" lon="12.5628339"><ele>655.5</ele><time>2026-05-03T09:32:05.342Z</time></trkpt><trkpt lat="43.2608494" lon="12.562763"><ele>656.25</ele><time>2026-05-03T09:32:06.342Z</time></trkpt><trkpt lat="43.2607196" lon="12.5626786"><ele>657.0</ele><time>2026-05-03T09:32:07.343Z</time></trkpt><trkpt lat="43.2605884" lon="12.5625711"><ele>653.6666666666666</ele><time>2026-05-03T09:32:08.343Z</time></trkpt><trkpt lat="43.2604542" lon="12.5624642"><ele>650.3333333333333</ele><time>2026-05-03T09:32:09.342Z</time></trkpt><trkpt lat="43.2603198" lon="12.5623555"><ele>647.0</ele><time>2026-05-03T09:32:10.342Z</time></trkpt><trkpt lat="43.260177" lon="12.5622251"><ele>647.0</ele><time>2026-05-03T09:32:11.342Z</time></trkpt><trkpt lat="43.2600382" lon="12.5621134"><ele>647.0</ele><time>2026-05-03T09:32:12.342Z</time></trkpt><trkpt lat="43.2599046" lon="12.5620001"><ele>647.0</ele><time>2026-05-03T09:32:13.342Z</time></trkpt><trkpt lat="43.2597663" lon="12.5618943"><ele>650.5</ele><time>2026-05-03T09:32:14.342Z</time></trkpt><trkpt lat="43.2596283" lon="12.5618375"><ele>654.0</ele><time>2026-05-03T09:32:15.342Z</time></trkpt><trkpt lat="43.2594848" lon="12.5618057"><ele>657.5</ele><time>2026-05-03T09:32:16.342Z</time></trkpt><trkpt lat="43.2593474" lon="12.5618023"><ele>661.0</ele><time>2026-05-03T09:32:17.342Z</time></trkpt><trkpt lat="43.2592122" lon="12.5618234"><ele>661.0</ele><time>2026-05-03T09:32:18.342Z</time></trkpt><trkpt lat="43.2590755" lon="12.5618846"><ele>661.0</ele><time>2026-05-03T09:32:19.342Z</time></trkpt><trkpt lat="43.2589191" lon="12.5619498"><ele>661.0</ele><time>2026-05-03T09:32:20.342Z</time></trkpt><trkpt lat="43.2587682" lon="12.5620277"><ele>655.3333333333334</ele><time>2026-05-03T09:32:21.343Z</time></trkpt><trkpt lat="43.2586227" lon="12.5621215"><ele>649.6666666666666</ele><time>2026-05-03T09:32:22.342Z</time></trkpt><trkpt lat="43.258466" lon="12.5622165"><ele>644.0</ele><time>2026-05-03T09:32:23.342Z</time></trkpt><trkpt lat="43.2583183" lon="12.5623006"><ele>644.0</ele><time>2026-05-03T09:32:24.342Z</time></trkpt><trkpt lat="43.2581757" lon="12.5623556"><ele>644.0</ele><time>2026-05-03T09:32:25.342Z</time></trkpt><trkpt lat="43.2580399" lon="12.562378"><ele>644.0</ele><time>2026-05-03T09:32:26.342Z</time></trkpt><trkpt lat="43.2578963" lon="12.5623546"><ele>644.0</ele><time>2026-05-03T09:32:27.342Z</time></trkpt><trkpt lat="43.25775" lon="12.5622998"><ele>642.5</ele><time>2026-05-03T09:32:28.342Z</time></trkpt><trkpt lat="43.2576053" lon="12.5622356"><ele>641.0</ele><time>2026-05-03T09:32:29.342Z</time></trkpt><trkpt lat="43.2574821" lon="12.5621614"><ele>639.5</ele><time>2026-05-03T09:32:30.342Z</time></trkpt><trkpt lat="43.2573583" lon="12.5620391"><ele>638.0</ele><time>2026-05-03T09:32:31.343Z</time></trkpt><trkpt lat="43.2572423" lon="12.5618825"><ele>635.3333333333333</ele><time>2026-05-03T09:32:32.342Z</time></trkpt><trkpt lat="43.2571558" lon="12.5617245"><ele>632.6666666666666</ele><time>2026-05-03T09:32:33.342Z</time></trkpt><trkpt lat="43.2570551" lon="12.5615458"><ele>630.0</ele><time>2026-05-03T09:32:34.342Z</time></trkpt><trkpt lat="43.2569458" lon="12.5613561"><ele>633.3333333333334</ele><time>2026-05-03T09:32:35.342Z</time></trkpt><trkpt lat="43.2568262" lon="12.5611712"><ele>636.6666666666667</ele><time>2026-05-03T09:32:36.343Z</time></trkpt><trkpt lat="43.2566959" lon="12.5609962"><ele>640.0</ele><time>2026-05-03T09:32:37.342Z</time></trkpt><trkpt lat="43.2565804" lon="12.5608261"><ele>634.6666666666667</ele><time>2026-05-03T09:32:38.342Z</time></trkpt><trkpt lat="43.2564519" lon="12.5606759"><ele>629.3333333333334</ele><time>2026-05-03T09:32:39.342Z</time></trkpt><trkpt lat="43.2563158" lon="12.5605586"><ele>624.0</ele><time>2026-05-03T09:32:40.343Z</time></trkpt><trkpt lat="43.2561716" lon="12.5604763"><ele>624.0</ele><time>2026-05-03T09:32:41.342Z</time></trkpt><trkpt lat="43.2560222" lon="12.560435"><ele>624.0</ele><time>2026-05-03T09:32:42.342Z</time></trkpt><trkpt lat="43.2558588" lon="12.560438"><ele>624.0</ele><time>2026-05-03T09:32:43.342Z</time></trkpt><trkpt lat="43.2556939" lon="12.5604574"><ele>623.0</ele><time>2026-05-03T09:32:44.342Z</time></trkpt><trkpt lat="43.2555195" lon="12.5604816"><ele>622.0</ele><time>2026-05-03T09:32:45.342Z</time></trkpt><trkpt lat="43.2553398" lon="12.5605094"><ele>621.0</ele><time>2026-05-03T09:32:46.342Z</time></trkpt><trkpt lat="43.2551628" lon="12.5605285"><ele>621.0</ele><time>2026-05-03T09:32:47.342Z</time></trkpt><trkpt lat="43.254976" lon="12.5605007"><ele>621.0</ele><time>2026-05-03T09:32:48.342Z</time></trkpt><trkpt lat="43.2547874" lon="12.5604842"><ele>621.0</ele><time>2026-05-03T09:32:49.342Z</time></trkpt><trkpt lat="43.2545964" lon="12.5604666"><ele>620.0</ele><time>2026-05-03T09:32:50.342Z</time></trkpt><trkpt lat="43.2544032" lon="12.560449"><ele>619.0</ele><time>2026-05-03T09:32:51.342Z</time></trkpt><trkpt lat="43.2542188" lon="12.560437"><ele>618.0</ele><time>2026-05-03T09:32:52.342Z</time></trkpt><trkpt lat="43.2540384" lon="12.5604322"><ele>616.3333333333334</ele><time>2026-05-03T09:32:53.342Z</time></trkpt><trkpt lat="43.2538706" lon="12.5604403"><ele>614.6666666666667</ele><time>2026-05-03T09:32:54.342Z</time></trkpt><trkpt lat="43.2537104" lon="12.5604593"><ele>613.0</ele><time>2026-05-03T09:32:55.342Z</time></trkpt><trkpt lat="43.253565" lon="12.5604897"><ele>613.0</ele><time>2026-05-03T09:32:56.342Z</time></trkpt><trkpt lat="43.2534341" lon="12.5605176"><ele>613.0</ele><time>2026-05-03T09:32:57.342Z</time></trkpt><trkpt lat="43.2533119" lon="12.5605312"><ele>613.0</ele><time>2026-05-03T09:32:58.342Z</time></trkpt><trkpt lat="43.2531964" lon="12.5605031"><ele>613.0</ele><time>2026-05-03T09:32:59.342Z</time></trkpt><trkpt lat="43.2530918" lon="12.5604377"><ele>613.0</ele><time>2026-05-03T09:33:00.342Z</time></trkpt><trkpt lat="43.2530023" lon="12.5603224"><ele>613.0</ele><time>2026-05-03T09:33:01.342Z</time></trkpt><trkpt lat="43.2529236" lon="12.560171"><ele>613.0</ele><time>2026-05-03T09:33:02.342Z</time></trkpt><trkpt lat="43.2528521" lon="12.5599975"><ele>613.0</ele><time>2026-05-03T09:33:03.342Z</time></trkpt><trkpt lat="43.2527806" lon="12.5598157"><ele>613.0</ele><time>2026-05-03T09:33:04.342Z</time></trkpt><trkpt lat="43.2527021" lon="12.5596181"><ele>613.0</ele><time>2026-05-03T09:33:05.342Z</time></trkpt><trkpt lat="43.2526195" lon="12.5594099"><ele>613.0</ele><time>2026-05-03T09:33:06.342Z</time></trkpt><trkpt lat="43.2525357" lon="12.5592057"><ele>614.0</ele><time>2026-05-03T09:33:07.343Z</time></trkpt><trkpt lat="43.2524374" lon="12.5589758"><ele>615.0</ele><time>2026-05-03T09:33:08.342Z</time></trkpt><trkpt lat="43.2523393" lon="12.5587575"><ele>616.0</ele><time>2026-05-03T09:33:09.342Z</time></trkpt><trkpt lat="43.2522319" lon="12.5585412"><ele>613.0</ele><time>2026-05-03T09:33:10.343Z</time></trkpt><trkpt lat="43.2521247" lon="12.5583238"><ele>610.0</ele><time>2026-05-03T09:33:11.342Z</time></trkpt><trkpt lat="43.2520224" lon="12.5581323"><ele>607.0</ele><time>2026-05-03T09:33:12.343Z</time></trkpt><trkpt lat="43.2519236" lon="12.5579354"><ele>608.3333333333334</ele><time>2026-05-03T09:33:13.342Z</time></trkpt><trkpt lat="43.2518244" lon="12.5577575"><ele>609.6666666666666</ele><time>2026-05-03T09:33:14.342Z</time></trkpt><trkpt lat="43.2517197" lon="12.5575914"><ele>611.0</ele><time>2026-05-03T09:33:15.342Z</time></trkpt><trkpt lat="43.2515924" lon="12.5574279"><ele>611.0</ele><time>2026-05-03T09:33:16.342Z</time></trkpt><trkpt lat="43.2514613" lon="12.5572847"><ele>611.0</ele><time>2026-05-03T09:33:17.342Z</time></trkpt><trkpt lat="43.2513144" lon="12.5571411"><ele>611.0</ele><time>2026-05-03T09:33:18.342Z</time></trkpt><trkpt lat="43.2511637" lon="12.5569902"><ele>608.0</ele><time>2026-05-03T09:33:19.342Z</time></trkpt><trkpt lat="43.2510138" lon="12.5568383"><ele>605.0</ele><time>2026-05-03T09:33:20.342Z</time></trkpt><trkpt lat="43.2508667" lon="12.5566877"><ele>602.0</ele><time>2026-05-03T09:33:21.342Z</time></trkpt><trkpt lat="43.2507241" lon="12.5565346"><ele>601.3333333333333</ele><time>2026-05-03T09:33:22.342Z</time></trkpt><trkpt lat="43.2505861" lon="12.5563929"><ele>600.6666666666666</ele><time>2026-05-03T09:33:23.342Z</time></trkpt><trkpt lat="43.2504435" lon="12.5562783"><ele>600.0</ele><time>2026-05-03T09:33:24.342Z</time></trkpt><trkpt lat="43.2502933" lon="12.5561718"><ele>600.0</ele><time>2026-05-03T09:33:25.342Z</time></trkpt><trkpt lat="43.2501257" lon="12.556089"><ele>600.0</ele><time>2026-05-03T09:33:26.342Z</time></trkpt><trkpt lat="43.2499546" lon="12.5560235"><ele>600.0</ele><time>2026-05-03T09:33:27.342Z</time></trkpt><trkpt lat="43.2497763" lon="12.5559785"><ele>599.0</ele><time>2026-05-03T09:33:28.342Z</time></trkpt><trkpt lat="43.249587" lon="12.5559518"><ele>598.0</ele><time>2026-05-03T09:33:29.342Z</time></trkpt><trkpt lat="43.2493946" lon="12.5559338"><ele>597.0</ele><time>2026-05-03T09:33:30.342Z</time></trkpt><trkpt lat="43.2492091" lon="12.5559243"><ele>597.0</ele><time>2026-05-03T09:33:31.342Z</time></trkpt><trkpt lat="43.2490171" lon="12.5559147"><ele>597.0</ele><time>2026-05-03T09:33:32.343Z</time></trkpt><trkpt lat="43.2488268" lon="12.5558943"><ele>597.0</ele><time>2026-05-03T09:33:33.342Z</time></trkpt><trkpt lat="43.2486317" lon="12.5558808"><ele>593.3333333333334</ele><time>2026-05-03T09:33:34.342Z</time></trkpt><trkpt lat="43.2484374" lon="12.5558667"><ele>589.6666666666667</ele><time>2026-05-03T09:33:35.342Z</time></trkpt><trkpt lat="43.2482372" lon="12.5558491"><ele>586.0</ele><time>2026-05-03T09:33:36.342Z</time></trkpt><trkpt lat="43.2480353" lon="12.5558327"><ele>584.6666666666667</ele><time>2026-05-03T09:33:37.342Z</time></trkpt><trkpt lat="43.2478338" lon="12.5558232"><ele>583.3333333333334</ele><time>2026-05-03T09:33:38.342Z</time></trkpt><trkpt lat="43.2476294" lon="12.5558069"><ele>582.0</ele><time>2026-05-03T09:33:39.342Z</time></trkpt><trkpt lat="43.2474226" lon="12.5557916"><ele>582.0</ele><time>2026-05-03T09:33:40.343Z</time></trkpt><trkpt lat="43.2472114" lon="12.5557791"><ele>582.0</ele><time>2026-05-03T09:33:41.342Z</time></trkpt><trkpt lat="43.2470024" lon="12.5557639"><ele>582.0</ele><time>2026-05-03T09:33:42.343Z</time></trkpt><trkpt lat="43.2467949" lon="12.5557533"><ele>582.0</ele><time>2026-05-03T09:33:43.342Z</time></trkpt><trkpt lat="43.2465884" lon="12.5557425"><ele>582.0</ele><time>2026-05-03T09:33:44.342Z</time></trkpt><trkpt lat="43.2463827" lon="12.5557289"><ele>582.0</ele><time>2026-05-03T09:33:45.342Z</time></trkpt><trkpt lat="43.2461765" lon="12.5557174"><ele>581.6666666666666</ele><time>2026-05-03T09:33:46.342Z</time></trkpt><trkpt lat="43.2459781" lon="12.5556968"><ele>581.3333333333333</ele><time>2026-05-03T09:33:47.342Z</time></trkpt><trkpt lat="43.2457734" lon="12.5556842"><ele>581.0</ele><time>2026-05-03T09:33:48.343Z</time></trkpt><trkpt lat="43.2455706" lon="12.5556629"><ele>579.0</ele><time>2026-05-03T09:33:49.343Z</time></trkpt><trkpt lat="43.2453708" lon="12.5556417"><ele>577.0</ele><time>2026-05-03T09:33:50.343Z</time></trkpt><trkpt lat="43.2451753" lon="12.5556125"><ele>575.0</ele><time>2026-05-03T09:33:51.343Z</time></trkpt><trkpt lat="43.2449846" lon="12.5555722"><ele>575.0</ele><time>2026-05-03T09:33:52.342Z</time></trkpt><trkpt lat="43.2447981" lon="12.5555061"><ele>575.0</ele><time>2026-05-03T09:33:53.342Z</time></trkpt><trkpt lat="43.2446181" lon="12.5554274"><ele>575.0</ele><time>2026-05-03T09:33:54.342Z</time></trkpt><trkpt lat="43.2444388" lon="12.5553404"><ele>573.0</ele><time>2026-05-03T09:33:55.342Z</time></trkpt><trkpt lat="43.2442657" lon="12.5552523"><ele>571.0</ele><time>2026-05-03T09:33:56.342Z</time></trkpt><trkpt lat="43.2441015" lon="12.5551609"><ele>569.0</ele><time>2026-05-03T09:33:57.342Z</time></trkpt><trkpt lat="43.2439327" lon="12.5550725"><ele>567.3333333333333</ele><time>2026-05-03T09:33:58.342Z</time></trkpt><trkpt lat="43.2437723" lon="12.5549887"><ele>565.6666666666666</ele><time>2026-05-03T09:33:59.343Z</time></trkpt><trkpt lat="43.2436163" lon="12.5549105"><ele>564.0</ele><time>2026-05-03T09:34:00.342Z</time></trkpt><trkpt lat="43.2434441" lon="12.554874"><ele>564.0</ele><time>2026-05-03T09:34:01.343Z</time></trkpt><trkpt lat="43.2432733" lon="12.5548678"><ele>564.0</ele><time>2026-05-03T09:34:02.342Z</time></trkpt><trkpt lat="43.2430937" lon="12.5548816"><ele>564.0</ele><time>2026-05-03T09:34:03.343Z</time></trkpt><trkpt lat="43.2429098" lon="12.5549121"><ele>563.3333333333334</ele><time>2026-05-03T09:34:04.342Z</time></trkpt><trkpt lat="43.24272" lon="12.5549466"><ele>562.6666666666667</ele><time>2026-05-03T09:34:05.342Z</time></trkpt><trkpt lat="43.2425192" lon="12.5549785"><ele>562.0</ele><time>2026-05-03T09:34:06.342Z</time></trkpt><trkpt lat="43.2423125" lon="12.5549976"><ele>563.0</ele><time>2026-05-03T09:34:07.342Z</time></trkpt><trkpt lat="43.2421067" lon="12.5550069"><ele>564.0</ele><time>2026-05-03T09:34:08.343Z</time></trkpt><trkpt lat="43.2418948" lon="12.5550126"><ele>565.0</ele><time>2026-05-03T09:34:09.342Z</time></trkpt><trkpt lat="43.2416833" lon="12.5550124"><ele>565.0</ele><time>2026-05-03T09:34:10.342Z</time></trkpt><trkpt lat="43.2414808" lon="12.5550097"><ele>565.0</ele><time>2026-05-03T09:34:11.342Z</time></trkpt><trkpt lat="43.2412699" lon="12.5549988"><ele>565.0</ele><time>2026-05-03T09:34:12.342Z</time></trkpt><trkpt lat="43.2410705" lon="12.5549857"><ele>566.3333333333334</ele><time>2026-05-03T09:34:13.342Z</time></trkpt><trkpt lat="43.2408746" lon="12.554974"><ele>567.6666666666666</ele><time>2026-05-03T09:34:14.342Z</time></trkpt><trkpt lat="43.24068" lon="12.5549667"><ele>569.0</ele><time>2026-05-03T09:34:15.342Z</time></trkpt><trkpt lat="43.2404935" lon="12.5549603"><ele>571.3333333333333</ele><time>2026-05-03T09:34:16.342Z</time></trkpt><trkpt lat="43.2403219" lon="12.5549575"><ele>573.6666666666666</ele><time>2026-05-03T09:34:17.342Z</time></trkpt><trkpt lat="43.2401665" lon="12.5549447"><ele>576.0</ele><time>2026-05-03T09:34:18.343Z</time></trkpt><trkpt lat="43.24001" lon="12.5549741"><ele>576.0</ele><time>2026-05-03T09:34:19.343Z</time></trkpt><trkpt lat="43.2398632" lon="12.5550322"><ele>576.0</ele><time>2026-05-03T09:34:20.342Z</time></trkpt><trkpt lat="43.2397164" lon="12.5551202"><ele>576.0</ele><time>2026-05-03T09:34:21.343Z</time></trkpt><trkpt lat="43.2395754" lon="12.5552141"><ele>578.6666666666666</ele><time>2026-05-03T09:34:22.342Z</time></trkpt><trkpt lat="43.2394229" lon="12.5552878"><ele>581.3333333333333</ele><time>2026-05-03T09:34:23.342Z</time></trkpt><trkpt lat="43.2392685" lon="12.555337"><ele>584.0</ele><time>2026-05-03T09:34:24.342Z</time></trkpt><trkpt lat="43.2391105" lon="12.5553762"><ele>586.0</ele><time>2026-05-03T09:34:25.342Z</time></trkpt><trkpt lat="43.2389537" lon="12.5553765"><ele>588.0</ele><time>2026-05-03T09:34:26.342Z</time></trkpt><trkpt lat="43.2388071" lon="12.5553793"><ele>590.0</ele><time>2026-05-03T09:34:27.343Z</time></trkpt><trkpt lat="43.2386753" lon="12.5553726"><ele>592.0</ele><time>2026-05-03T09:34:28.342Z</time></trkpt><trkpt lat="43.2385469" lon="12.5553206"><ele>592.0</ele><time>2026-05-03T09:34:29.342Z</time></trkpt><trkpt lat="43.2384388" lon="12.555232"><ele>592.0</ele><time>2026-05-03T09:34:30.342Z</time></trkpt><trkpt lat="43.2383237" lon="12.5551258"><ele>592.0</ele><time>2026-05-03T09:34:31.342Z</time></trkpt><trkpt lat="43.238212" lon="12.5550082"><ele>592.0</ele><time>2026-05-03T09:34:32.343Z</time></trkpt><trkpt lat="43.2380967" lon="12.5548841"><ele>594.5</ele><time>2026-05-03T09:34:33.342Z</time></trkpt><trkpt lat="43.2379801" lon="12.5547472"><ele>597.0</ele><time>2026-05-03T09:34:34.342Z</time></trkpt><trkpt lat="43.2378732" lon="12.5546108"><ele>599.5</ele><time>2026-05-03T09:34:35.343Z</time></trkpt><trkpt lat="43.2377758" lon="12.5544956"><ele>602.0</ele><time>2026-05-03T09:34:36.342Z</time></trkpt><trkpt lat="43.2376966" lon="12.554388"><ele>602.0</ele><time>2026-05-03T09:34:37.343Z</time></trkpt><trkpt lat="43.2376102" lon="12.5542978"><ele>602.0</ele><time>2026-05-03T09:34:38.343Z</time></trkpt><trkpt lat="43.2375311" lon="12.5542605"><ele>602.0</ele><time>2026-05-03T09:34:39.342Z</time></trkpt><trkpt lat="43.2374499" lon="12.5542504"><ele>602.0</ele><time>2026-05-03T09:34:40.342Z</time></trkpt><trkpt lat="43.2373869" lon="12.5543194"><ele>602.0</ele><time>2026-05-03T09:34:41.342Z</time></trkpt><trkpt lat="43.2373386" lon="12.5544249"><ele>602.0</ele><time>2026-05-03T09:34:42.342Z</time></trkpt><trkpt lat="43.2373116" lon="12.5545512"><ele>604.0</ele><time>2026-05-03T09:34:43.342Z</time></trkpt><trkpt lat="43.2373044" lon="12.5546818"><ele>606.0</ele><time>2026-05-03T09:34:44.342Z</time></trkpt><trkpt lat="43.2373557" lon="12.5547928"><ele>608.0</ele><time>2026-05-03T09:34:45.343Z</time></trkpt><trkpt lat="43.2374305" lon="12.554883"><ele>610.0</ele><time>2026-05-03T09:34:46.342Z</time></trkpt><trkpt lat="43.2375166" lon="12.5549776"><ele>612.0</ele><time>2026-05-03T09:34:47.342Z</time></trkpt><trkpt lat="43.2375639" lon="12.555102"><ele>612.0</ele><time>2026-05-03T09:34:48.342Z</time></trkpt><trkpt lat="43.2376032" lon="12.5552419"><ele>612.0</ele><time>2026-05-03T09:34:49.342Z</time></trkpt><trkpt lat="43.2376206" lon="12.555386"><ele>612.0</ele><time>2026-05-03T09:34:50.343Z</time></trkpt><trkpt lat="43.2375982" lon="12.5555438"><ele>612.0</ele><time>2026-05-03T09:34:51.342Z</time></trkpt><trkpt lat="43.2375457" lon="12.5557192"><ele>612.25</ele><time>2026-05-03T09:34:52.342Z</time></trkpt><trkpt lat="43.237494" lon="12.5558805"><ele>612.5</ele><time>2026-05-03T09:34:53.343Z</time></trkpt><trkpt lat="43.2374447" lon="12.5560388"><ele>612.75</ele><time>2026-05-03T09:34:54.343Z</time></trkpt><trkpt lat="43.2373767" lon="12.5562108"><ele>613.0</ele><time>2026-05-03T09:34:55.342Z</time></trkpt><trkpt lat="43.2373161" lon="12.5563807"><ele>618.0</ele><time>2026-05-03T09:34:56.342Z</time></trkpt><trkpt lat="43.2372551" lon="12.5565521"><ele>623.0</ele><time>2026-05-03T09:34:57.342Z</time></trkpt><trkpt lat="43.2371739" lon="12.5566915"><ele>628.0</ele><time>2026-05-03T09:34:58.342Z</time></trkpt><trkpt lat="43.2370685" lon="12.5568226"><ele>633.0</ele><time>2026-05-03T09:34:59.342Z</time></trkpt><trkpt lat="43.2369542" lon="12.5569512"><ele>631.25</ele><time>2026-05-03T09:35:00.342Z</time></trkpt><trkpt lat="43.2368378" lon="12.5570777"><ele>629.5</ele><time>2026-05-03T09:35:01.342Z</time></trkpt><trkpt lat="43.2367288" lon="12.5572155"><ele>627.75</ele><time>2026-05-03T09:35:02.342Z</time></trkpt><trkpt lat="43.2366379" lon="12.557377"><ele>626.0</ele><time>2026-05-03T09:35:03.342Z</time></trkpt><trkpt lat="43.2365657" lon="12.5575574"><ele>626.0</ele><time>2026-05-03T09:35:04.342Z</time></trkpt><trkpt lat="43.2365177" lon="12.5577588"><ele>626.0</ele><time>2026-05-03T09:35:05.342Z</time></trkpt><trkpt lat="43.2364797" lon="12.5579707"><ele>626.0</ele><time>2026-05-03T09:35:06.342Z</time></trkpt><trkpt lat="43.236475" lon="12.5582184"><ele>625.6666666666666</ele><time>2026-05-03T09:35:07.342Z</time></trkpt><trkpt lat="43.2364786" lon="12.5584307"><ele>625.3333333333334</ele><time>2026-05-03T09:35:08.342Z</time></trkpt><trkpt lat="43.2364645" lon="12.5586399"><ele>625.0</ele><time>2026-05-03T09:35:09.342Z</time></trkpt><trkpt lat="43.2364417" lon="12.5588471"><ele>633.3333333333334</ele><time>2026-05-03T09:35:10.342Z</time></trkpt><trkpt lat="43.2364422" lon="12.5590723"><ele>641.6666666666666</ele><time>2026-05-03T09:35:11.342Z</time></trkpt><trkpt lat="43.2364337" lon="12.5592905"><ele>650.0</ele><time>2026-05-03T09:35:12.342Z</time></trkpt><trkpt lat="43.2364231" lon="12.5595016"><ele>648.75</ele><time>2026-05-03T09:35:13.342Z</time></trkpt><trkpt lat="43.2364183" lon="12.5596903"><ele>647.5</ele><time>2026-05-03T09:35:14.342Z</time></trkpt><trkpt lat="43.236409" lon="12.5598621"><ele>646.25</ele><time>2026-05-03T09:35:15.342Z</time></trkpt><trkpt lat="43.2363975" lon="12.5600196"><ele>645.0</ele><time>2026-05-03T09:35:16.342Z</time></trkpt><trkpt lat="43.2363735" lon="12.5601553"><ele>645.0</ele><time>2026-05-03T09:35:17.343Z</time></trkpt><trkpt lat="43.2363246" lon="12.5602748"><ele>645.0</ele><time>2026-05-03T09:35:18.342Z</time></trkpt><trkpt lat="43.2362536" lon="12.5603682"><ele>645.0</ele><time>2026-05-03T09:35:19.342Z</time></trkpt><trkpt lat="43.2361598" lon="12.5604176"><ele>645.0</ele><time>2026-05-03T09:35:20.342Z</time></trkpt><trkpt lat="43.2360599" lon="12.5604205"><ele>645.0</ele><time>2026-05-03T09:35:21.342Z</time></trkpt><trkpt lat="43.235959" lon="12.5603925"><ele>645.0</ele><time>2026-05-03T09:35:22.342Z</time></trkpt><trkpt lat="43.235863" lon="12.560361"><ele>645.0</ele><time>2026-05-03T09:35:23.342Z</time></trkpt><trkpt lat="43.2357311" lon="12.5602998"><ele>645.0</ele><time>2026-05-03T09:35:24.342Z</time></trkpt><trkpt lat="43.2355901" lon="12.5602366"><ele>645.0</ele><time>2026-05-03T09:35:25.342Z</time></trkpt><trkpt lat="43.2354525" lon="12.5601704"><ele>647.0</ele><time>2026-05-03T09:35:26.342Z</time></trkpt><trkpt lat="43.2353145" lon="12.5601199"><ele>649.0</ele><time>2026-05-03T09:35:27.342Z</time></trkpt><trkpt lat="43.2351763" lon="12.5600781"><ele>651.0</ele><time>2026-05-03T09:35:28.342Z</time></trkpt><trkpt lat="43.2350314" lon="12.5600427"><ele>653.0</ele><time>2026-05-03T09:35:29.342Z</time></trkpt><trkpt lat="43.2348749" lon="12.560154"><ele>653.75</ele><time>2026-05-03T09:35:30.343Z</time></trkpt><trkpt lat="43.2347343" lon="12.5602045"><ele>654.5</ele><time>2026-05-03T09:35:31.342Z</time></trkpt><trkpt lat="43.2345974" lon="12.5602258"><ele>655.25</ele><time>2026-05-03T09:35:32.342Z</time></trkpt><trkpt lat="43.2344522" lon="12.56021"><ele>656.0</ele><time>2026-05-03T09:35:33.342Z</time></trkpt><trkpt lat="43.234309" lon="12.5601594"><ele>656.0</ele><time>2026-05-03T09:35:34.342Z</time></trkpt><trkpt lat="43.2341713" lon="12.5600694"><ele>656.0</ele><time>2026-05-03T09:35:35.342Z</time></trkpt><trkpt lat="43.2340293" lon="12.5599766"><ele>656.0</ele><time>2026-05-03T09:35:36.342Z</time></trkpt><trkpt lat="43.2338946" lon="12.559867"><ele>653.0</ele><time>2026-05-03T09:35:37.342Z</time></trkpt><trkpt lat="43.233752" lon="12.5597661"><ele>650.0</ele><time>2026-05-03T09:35:38.342Z</time></trkpt><trkpt lat="43.2335931" lon="12.5596853"><ele>647.0</ele><time>2026-05-03T09:35:39.342Z</time></trkpt><trkpt lat="43.2334279" lon="12.5596464"><ele>647.0</ele><time>2026-05-03T09:35:40.342Z</time></trkpt><trkpt lat="43.2332559" lon="12.5596199"><ele>647.0</ele><time>2026-05-03T09:35:41.343Z</time></trkpt><trkpt lat="43.2330801" lon="12.5596028"><ele>647.0</ele><time>2026-05-03T09:35:42.342Z</time></trkpt><trkpt lat="43.2328968" lon="12.5595958"><ele>646.3333333333333</ele><time>2026-05-03T09:35:43.342Z</time></trkpt><trkpt lat="43.2327098" lon="12.5595762"><ele>645.6666666666666</ele><time>2026-05-03T09:35:44.342Z</time></trkpt><trkpt lat="43.2325332" lon="12.559569"><ele>645.0</ele><time>2026-05-03T09:35:45.343Z</time></trkpt><trkpt lat="43.2323524" lon="12.5595561"><ele>649.0</ele><time>2026-05-03T09:35:46.343Z</time></trkpt><trkpt lat="43.2321743" lon="12.5595317"><ele>653.0</ele><time>2026-05-03T09:35:47.342Z</time></trkpt><trkpt lat="43.2319894" lon="12.5594817"><ele>657.0</ele><time>2026-05-03T09:35:48.342Z</time></trkpt><trkpt lat="43.2318082" lon="12.55944"><ele>657.0</ele><time>2026-05-03T09:35:49.342Z</time></trkpt><trkpt lat="43.2316319" lon="12.5593761"><ele>657.0</ele><time>2026-05-03T09:35:50.343Z</time></trkpt><trkpt lat="43.2314514" lon="12.5592981"><ele>657.0</ele><time>2026-05-03T09:35:51.342Z</time></trkpt><trkpt lat="43.2312784" lon="12.5592167"><ele>656.0</ele><time>2026-05-03T09:35:52.342Z</time></trkpt><trkpt lat="43.2311053" lon="12.5591385"><ele>655.0</ele><time>2026-05-03T09:35:53.342Z</time></trkpt><trkpt lat="43.2309229" lon="12.5590485"><ele>654.0</ele><time>2026-05-03T09:35:54.342Z</time></trkpt><trkpt lat="43.230743" lon="12.5589646"><ele>655.3333333333334</ele><time>2026-05-03T09:35:55.342Z</time></trkpt><trkpt lat="43.2305679" lon="12.5588815"><ele>656.6666666666667</ele><time>2026-05-03T09:35:56.342Z</time></trkpt><trkpt lat="43.2303904" lon="12.5588064"><ele>658.0</ele><time>2026-05-03T09:35:57.342Z</time></trkpt><trkpt lat="43.2302153" lon="12.5587314"><ele>658.3333333333334</ele><time>2026-05-03T09:35:58.342Z</time></trkpt><trkpt lat="43.2300553" lon="12.5586657"><ele>658.6666666666666</ele><time>2026-05-03T09:35:59.342Z</time></trkpt><trkpt lat="43.2299039" lon="12.5586009"><ele>659.0</ele><time>2026-05-03T09:36:00.342Z</time></trkpt><trkpt lat="43.2297731" lon="12.5585353"><ele>659.0</ele><time>2026-05-03T09:36:01.342Z</time></trkpt><trkpt lat="43.2296465" lon="12.558435"><ele>659.0</ele><time>2026-05-03T09:36:02.342Z</time></trkpt><trkpt lat="43.2295343" lon="12.5583134"><ele>659.0</ele><time>2026-05-03T09:36:03.342Z</time></trkpt><trkpt lat="43.2294343" lon="12.558172"><ele>659.0</ele><time>2026-05-03T09:36:04.342Z</time></trkpt><trkpt lat="43.2293515" lon="12.5579984"><ele>660.0</ele><time>2026-05-03T09:36:05.342Z</time></trkpt><trkpt lat="43.2292851" lon="12.5578044"><ele>661.0</ele><time>2026-05-03T09:36:06.342Z</time></trkpt><trkpt lat="43.2292282" lon="12.5576095"><ele>662.0</ele><time>2026-05-03T09:36:07.342Z</time></trkpt><trkpt lat="43.2291857" lon="12.5574149"><ele>662.0</ele><time>2026-05-03T09:36:08.342Z</time></trkpt><trkpt lat="43.2291634" lon="12.5572247"><ele>662.0</ele><time>2026-05-03T09:36:09.342Z</time></trkpt><trkpt lat="43.2291652" lon="12.5570218"><ele>662.0</ele><time>2026-05-03T09:36:10.342Z</time></trkpt><trkpt lat="43.2291883" lon="12.5568354"><ele>662.0</ele><time>2026-05-03T09:36:11.342Z</time></trkpt><trkpt lat="43.2292329" lon="12.5566553"><ele>663.3333333333333</ele><time>2026-05-03T09:36:12.343Z</time></trkpt><trkpt lat="43.2292942" lon="12.5564725"><ele>664.6666666666666</ele><time>2026-05-03T09:36:13.342Z</time></trkpt><trkpt lat="43.2293914" lon="12.5562979"><ele>666.0</ele><time>2026-05-03T09:36:14.342Z</time></trkpt><trkpt lat="43.2294833" lon="12.5561182"><ele>662.6666666666666</ele><time>2026-05-03T09:36:15.342Z</time></trkpt><trkpt lat="43.2295562" lon="12.5559214"><ele>659.3333333333333</ele><time>2026-05-03T09:36:16.343Z</time></trkpt><trkpt lat="43.2296093" lon="12.5557027"><ele>656.0</ele><time>2026-05-03T09:36:17.342Z</time></trkpt><trkpt lat="43.2296484" lon="12.5554658"><ele>655.0</ele><time>2026-05-03T09:36:18.342Z</time></trkpt><trkpt lat="43.2296841" lon="12.5552436"><ele>654.0</ele><time>2026-05-03T09:36:19.342Z</time></trkpt><trkpt lat="43.2297175" lon="12.5550331"><ele>653.0</ele><time>2026-05-03T09:36:20.342Z</time></trkpt><trkpt lat="43.2297369" lon="12.5548392"><ele>653.0</ele><time>2026-05-03T09:36:21.343Z</time></trkpt><trkpt lat="43.2297457" lon="12.5546506"><ele>653.0</ele><time>2026-05-03T09:36:22.342Z</time></trkpt><trkpt lat="43.2297338" lon="12.5544787"><ele>653.0</ele><time>2026-05-03T09:36:23.342Z</time></trkpt><trkpt lat="43.2297128" lon="12.554307"><ele>653.0</ele><time>2026-05-03T09:36:24.342Z</time></trkpt><trkpt lat="43.2296421" lon="12.5541672"><ele>654.3333333333333</ele><time>2026-05-03T09:36:25.342Z</time></trkpt><trkpt lat="43.2295528" lon="12.5540136"><ele>655.6666666666666</ele><time>2026-05-03T09:36:26.343Z</time></trkpt><trkpt lat="43.2294397" lon="12.5538811"><ele>657.0</ele><time>2026-05-03T09:36:27.342Z</time></trkpt><trkpt lat="43.2293144" lon="12.5537458"><ele>655.6666666666666</ele><time>2026-05-03T09:36:28.342Z</time></trkpt><trkpt lat="43.2291778" lon="12.5536017"><ele>654.3333333333333</ele><time>2026-05-03T09:36:29.342Z</time></trkpt><trkpt lat="43.2290476" lon="12.5534604"><ele>653.0</ele><time>2026-05-03T09:36:30.342Z</time></trkpt><trkpt lat="43.2289142" lon="12.553321"><ele>653.0</ele><time>2026-05-03T09:36:31.342Z</time></trkpt><trkpt lat="43.2287884" lon="12.5531811"><ele>653.0</ele><time>2026-05-03T09:36:32.342Z</time></trkpt><trkpt lat="43.2286603" lon="12.5530504"><ele>653.0</ele><time>2026-05-03T09:36:33.342Z</time></trkpt><trkpt lat="43.2285179" lon="12.5529373"><ele>656.3333333333333</ele><time>2026-05-03T09:36:34.342Z</time></trkpt><trkpt lat="43.2283561" lon="12.5528617"><ele>659.6666666666666</ele><time>2026-05-03T09:36:35.342Z</time></trkpt><trkpt lat="43.2281941" lon="12.5528084"><ele>663.0</ele><time>2026-05-03T09:36:36.342Z</time></trkpt><trkpt lat="43.2280105" lon="12.552793"><ele>663.0</ele><time>2026-05-03T09:36:37.342Z</time></trkpt><trkpt lat="43.2278181" lon="12.552785"><ele>663.0</ele><time>2026-05-03T09:36:38.342Z</time></trkpt><trkpt lat="43.2276193" lon="12.5527812"><ele>663.0</ele><time>2026-05-03T09:36:39.342Z</time></trkpt><trkpt lat="43.2274186" lon="12.5527739"><ele>663.3333333333334</ele><time>2026-05-03T09:36:40.342Z</time></trkpt><trkpt lat="43.2272259" lon="12.5527764"><ele>663.6666666666667</ele><time>2026-05-03T09:36:41.342Z</time></trkpt><trkpt lat="43.2270293" lon="12.5527849"><ele>664.0</ele><time>2026-05-03T09:36:42.342Z</time></trkpt><trkpt lat="43.2268289" lon="12.5527931"><ele>664.0</ele><time>2026-05-03T09:36:43.343Z</time></trkpt><trkpt lat="43.2266249" lon="12.5528158"><ele>664.0</ele><time>2026-05-03T09:36:44.342Z</time></trkpt><trkpt lat="43.2264226" lon="12.5528438"><ele>664.0</ele><time>2026-05-03T09:36:45.342Z</time></trkpt><trkpt lat="43.2262248" lon="12.5528762"><ele>659.6666666666667</ele><time>2026-05-03T09:36:46.342Z</time></trkpt><trkpt lat="43.2260328" lon="12.5529024"><ele>655.3333333333334</ele><time>2026-05-03T09:36:47.342Z</time></trkpt><trkpt lat="43.2258468" lon="12.5529256"><ele>651.0</ele><time>2026-05-03T09:36:48.342Z</time></trkpt><trkpt lat="43.2256662" lon="12.5529198"><ele>650.6666666666666</ele><time>2026-05-03T09:36:49.342Z</time></trkpt><trkpt lat="43.2254905" lon="12.5528971"><ele>650.3333333333333</ele><time>2026-05-03T09:36:50.342Z</time></trkpt><trkpt lat="43.2253473" lon="12.5528411"><ele>650.0</ele><time>2026-05-03T09:36:51.342Z</time></trkpt><trkpt lat="43.225199" lon="12.5527533"><ele>654.0</ele><time>2026-05-03T09:36:52.342Z</time></trkpt><trkpt lat="43.2250718" lon="12.5526449"><ele>658.0</ele><time>2026-05-03T09:36:53.342Z</time></trkpt><trkpt lat="43.2249431" lon="12.5525422"><ele>662.0</ele><time>2026-05-03T09:36:54.342Z</time></trkpt><trkpt lat="43.2248127" lon="12.5524277"><ele>657.0</ele><time>2026-05-03T09:36:55.342Z</time></trkpt><trkpt lat="43.2246817" lon="12.5523155"><ele>652.0</ele><time>2026-05-03T09:36:56.342Z</time></trkpt><trkpt lat="43.2245442" lon="12.5521991"><ele>647.0</ele><time>2026-05-03T09:36:57.343Z</time></trkpt><trkpt lat="43.2243983" lon="12.5520774"><ele>653.3333333333333</ele><time>2026-05-03T09:36:58.342Z</time></trkpt><trkpt lat="43.2242533" lon="12.5519618"><ele>659.6666666666666</ele><time>2026-05-03T09:36:59.342Z</time></trkpt><trkpt lat="43.2241161" lon="12.5518475"><ele>666.0</ele><time>2026-05-03T09:37:00.342Z</time></trkpt><trkpt lat="43.223989" lon="12.551733"><ele>663.25</ele><time>2026-05-03T09:37:01.342Z</time></trkpt><trkpt lat="43.2238624" lon="12.551628"><ele>660.5</ele><time>2026-05-03T09:37:02.343Z</time></trkpt><trkpt lat="43.2237671" lon="12.5515204"><ele>657.75</ele><time>2026-05-03T09:37:03.342Z</time></trkpt><trkpt lat="43.2236875" lon="12.5513988"><ele>655.0</ele><time>2026-05-03T09:37:04.342Z</time></trkpt><trkpt lat="43.2236261" lon="12.5512427"><ele>656.0</ele><time>2026-05-03T09:37:05.342Z</time></trkpt><trkpt lat="43.2235856" lon="12.5510628"><ele>657.0</ele><time>2026-05-03T09:37:06.342Z</time></trkpt><trkpt lat="43.223559" lon="12.5508676"><ele>658.0</ele><time>2026-05-03T09:37:07.342Z</time></trkpt><trkpt lat="43.2235435" lon="12.550661"><ele>659.0</ele><time>2026-05-03T09:37:08.343Z</time></trkpt><trkpt lat="43.2235325" lon="12.5504496"><ele>659.3333333333333</ele><time>2026-05-03T09:37:09.342Z</time></trkpt><trkpt lat="43.2235033" lon="12.5502375"><ele>659.6666666666666</ele><time>2026-05-03T09:37:10.342Z</time></trkpt><trkpt lat="43.2234589" lon="12.5500341"><ele>660.0</ele><time>2026-05-03T09:37:11.342Z</time></trkpt><trkpt lat="43.223394" lon="12.5498283"><ele>660.0</ele><time>2026-05-03T09:37:12.342Z</time></trkpt><trkpt lat="43.2233311" lon="12.5496319"><ele>660.0</ele><time>2026-05-03T09:37:13.342Z</time></trkpt><trkpt lat="43.2232704" lon="12.5494401"><ele>660.0</ele><time>2026-05-03T09:37:14.342Z</time></trkpt><trkpt lat="43.2231995" lon="12.54926"><ele>657.0</ele><time>2026-05-03T09:37:15.342Z</time></trkpt><trkpt lat="43.22313" lon="12.5490841"><ele>654.0</ele><time>2026-05-03T09:37:16.342Z</time></trkpt><trkpt lat="43.2230675" lon="12.5488936"><ele>651.0</ele><time>2026-05-03T09:37:17.343Z</time></trkpt><trkpt lat="43.2230113" lon="12.5487058"><ele>648.0</ele><time>2026-05-03T09:37:18.342Z</time></trkpt><trkpt lat="43.2229596" lon="12.5485146"><ele>648.0</ele><time>2026-05-03T09:37:19.342Z</time></trkpt><trkpt lat="43.2229273" lon="12.5483093"><ele>648.0</ele><time>2026-05-03T09:37:20.342Z</time></trkpt><trkpt lat="43.2229164" lon="12.5480882"><ele>648.0</ele><time>2026-05-03T09:37:21.343Z</time></trkpt><trkpt lat="43.2229155" lon="12.5478633"><ele>647.0</ele><time>2026-05-03T09:37:22.342Z</time></trkpt><trkpt lat="43.2229307" lon="12.5476411"><ele>646.0</ele><time>2026-05-03T09:37:23.342Z</time></trkpt><trkpt lat="43.2229438" lon="12.5474263"><ele>645.0</ele><time>2026-05-03T09:37:24.342Z</time></trkpt><trkpt lat="43.2229562" lon="12.5472058"><ele>642.6666666666666</ele><time>2026-05-03T09:37:25.342Z</time></trkpt><trkpt lat="43.2229638" lon="12.5469878"><ele>640.3333333333333</ele><time>2026-05-03T09:37:26.342Z</time></trkpt><trkpt lat="43.2229556" lon="12.5467833"><ele>638.0</ele><time>2026-05-03T09:37:27.342Z</time></trkpt><trkpt lat="43.2229251" lon="12.5465937"><ele>638.0</ele><time>2026-05-03T09:37:28.343Z</time></trkpt><trkpt lat="43.2228672" lon="12.5464137"><ele>638.0</ele><time>2026-05-03T09:37:29.342Z</time></trkpt><trkpt lat="43.2227921" lon="12.546243"><ele>638.0</ele><time>2026-05-03T09:37:30.343Z</time></trkpt><trkpt lat="43.2227177" lon="12.5460646"><ele>638.0</ele><time>2026-05-03T09:37:31.342Z</time></trkpt><trkpt lat="43.2226302" lon="12.5458764"><ele>638.5</ele><time>2026-05-03T09:37:32.342Z</time></trkpt><trkpt lat="43.2225444" lon="12.545703"><ele>639.0</ele><time>2026-05-03T09:37:33.343Z</time></trkpt><trkpt lat="43.22247" lon="12.5455364"><ele>639.5</ele><time>2026-05-03T09:37:34.343Z</time></trkpt><trkpt lat="43.2224182" lon="12.5453746"><ele>640.0</ele><time>2026-05-03T09:37:35.342Z</time></trkpt><trkpt lat="43.2223855" lon="12.5452167"><ele>640.0</ele><time>2026-05-03T09:37:36.342Z</time></trkpt><trkpt lat="43.2223749" lon="12.5450574"><ele>640.0</ele><time>2026-05-03T09:37:37.342Z</time></trkpt><trkpt lat="43.2223875" lon="12.544897"><ele>640.0</ele><time>2026-05-03T09:37:38.343Z</time></trkpt><trkpt lat="43.2224243" lon="12.5447425"><ele>640.0</ele><time>2026-05-03T09:37:39.342Z</time></trkpt><trkpt lat="43.2224781" lon="12.5445909"><ele>637.5</ele><time>2026-05-03T09:37:40.342Z</time></trkpt><trkpt lat="43.2225468" lon="12.5444458"><ele>635.0</ele><time>2026-05-03T09:37:41.342Z</time></trkpt><trkpt lat="43.2226014" lon="12.544309"><ele>632.5</ele><time>2026-05-03T09:37:42.342Z</time></trkpt><trkpt lat="43.2226432" lon="12.5441747"><ele>630.0</ele><time>2026-05-03T09:37:43.342Z</time></trkpt><trkpt lat="43.2226433" lon="12.5440238"><ele>630.0</ele><time>2026-05-03T09:37:44.342Z</time></trkpt><trkpt lat="43.2226013" lon="12.5438709"><ele>630.0</ele><time>2026-05-03T09:37:45.343Z</time></trkpt><trkpt lat="43.2225419" lon="12.543711"><ele>630.0</ele><time>2026-05-03T09:37:46.342Z</time></trkpt><trkpt lat="43.2224513" lon="12.5435035"><ele>630.0</ele><time>2026-05-03T09:37:47.342Z</time></trkpt><trkpt lat="43.2223767" lon="12.5433313"><ele>625.0</ele><time>2026-05-03T09:37:48.342Z</time></trkpt><trkpt lat="43.2222914" lon="12.5431517"><ele>620.0</ele><time>2026-05-03T09:37:49.342Z</time></trkpt><trkpt lat="43.2222077" lon="12.5429676"><ele>615.0</ele><time>2026-05-03T09:37:50.342Z</time></trkpt><trkpt lat="43.2221195" lon="12.5427764"><ele>615.0</ele><time>2026-05-03T09:37:51.342Z</time></trkpt><trkpt lat="43.2220354" lon="12.5426096"><ele>615.0</ele><time>2026-05-03T09:37:52.342Z</time></trkpt><trkpt lat="43.221948" lon="12.5424569"><ele>615.0</ele><time>2026-05-03T09:37:53.342Z</time></trkpt><trkpt lat="43.2218364" lon="12.5423046"><ele>615.0</ele><time>2026-05-03T09:37:54.343Z</time></trkpt><trkpt lat="43.2217012" lon="12.542164"><ele>614.3333333333334</ele><time>2026-05-03T09:37:55.342Z</time></trkpt><trkpt lat="43.2215605" lon="12.5420286"><ele>613.6666666666667</ele><time>2026-05-03T09:37:56.342Z</time></trkpt><trkpt lat="43.2214302" lon="12.5418824"><ele>613.0</ele><time>2026-05-03T09:37:57.342Z</time></trkpt><trkpt lat="43.2213094" lon="12.5417305"><ele>616.6666666666667</ele><time>2026-05-03T09:37:58.342Z</time></trkpt><trkpt lat="43.2212085" lon="12.5415739"><ele>620.3333333333334</ele><time>2026-05-03T09:37:59.342Z</time></trkpt><trkpt lat="43.2211257" lon="12.541392"><ele>624.0</ele><time>2026-05-03T09:38:00.343Z</time></trkpt><trkpt lat="43.2210514" lon="12.5411981"><ele>625.0</ele><time>2026-05-03T09:38:01.342Z</time></trkpt><trkpt lat="43.2209843" lon="12.5410006"><ele>626.0</ele><time>2026-05-03T09:38:02.343Z</time></trkpt><trkpt lat="43.2209228" lon="12.5407906"><ele>627.0</ele><time>2026-05-03T09:38:03.342Z</time></trkpt><trkpt lat="43.2208581" lon="12.5405816"><ele>625.6666666666666</ele><time>2026-05-03T09:38:04.342Z</time></trkpt><trkpt lat="43.2207949" lon="12.5403756"><ele>624.3333333333333</ele><time>2026-05-03T09:38:05.342Z</time></trkpt><trkpt lat="43.2207334" lon="12.5401782"><ele>623.0</ele><time>2026-05-03T09:38:06.342Z</time></trkpt><trkpt lat="43.2206618" lon="12.5399941"><ele>623.0</ele><time>2026-05-03T09:38:07.342Z</time></trkpt><trkpt lat="43.2205799" lon="12.5398205"><ele>623.0</ele><time>2026-05-03T09:38:08.342Z</time></trkpt><trkpt lat="43.2204699" lon="12.539659"><ele>623.0</ele><time>2026-05-03T09:38:09.342Z</time></trkpt><trkpt lat="43.2203547" lon="12.5394959"><ele>624.3333333333333</ele><time>2026-05-03T09:38:10.342Z</time></trkpt><trkpt lat="43.2202357" lon="12.5393298"><ele>625.6666666666666</ele><time>2026-05-03T09:38:11.342Z</time></trkpt><trkpt lat="43.220121" lon="12.5391662"><ele>627.0</ele><time>2026-05-03T09:38:12.342Z</time></trkpt><trkpt lat="43.2200126" lon="12.5389923"><ele>627.0</ele><time>2026-05-03T09:38:13.342Z</time></trkpt><trkpt lat="43.2199178" lon="12.5388138"><ele>627.0</ele><time>2026-05-03T09:38:14.342Z</time></trkpt><trkpt lat="43.2198321" lon="12.5386283"><ele>627.0</ele><time>2026-05-03T09:38:15.342Z</time></trkpt><trkpt lat="43.2197507" lon="12.5384422"><ele>627.25</ele><time>2026-05-03T09:38:16.342Z</time></trkpt><trkpt lat="43.2196718" lon="12.5382557"><ele>627.5</ele><time>2026-05-03T09:38:17.342Z</time></trkpt><trkpt lat="43.2195941" lon="12.5380913"><ele>627.75</ele><time>2026-05-03T09:38:18.342Z</time></trkpt><trkpt lat="43.2195119" lon="12.5379408"><ele>628.0</ele><time>2026-05-03T09:38:19.342Z</time></trkpt><trkpt lat="43.2194066" lon="12.5377967"><ele>628.0</ele><time>2026-05-03T09:38:20.343Z</time></trkpt><trkpt lat="43.219299" lon="12.5376579"><ele>628.0</ele><time>2026-05-03T09:38:21.342Z</time></trkpt><trkpt lat="43.2191909" lon="12.5375336"><ele>628.0</ele><time>2026-05-03T09:38:22.342Z</time></trkpt><trkpt lat="43.2190725" lon="12.5374068"><ele>628.0</ele><time>2026-05-03T09:38:23.343Z</time></trkpt><trkpt lat="43.2189504" lon="12.5372842"><ele>628.0</ele><time>2026-05-03T09:38:24.342Z</time></trkpt><trkpt lat="43.2188329" lon="12.5371621"><ele>628.0</ele><time>2026-05-03T09:38:25.342Z</time></trkpt><trkpt lat="43.2187113" lon="12.5370396"><ele>628.0</ele><time>2026-05-03T09:38:26.342Z</time></trkpt><trkpt lat="43.2185838" lon="12.5369189"><ele>629.6666666666667</ele><time>2026-05-03T09:38:27.342Z</time></trkpt><trkpt lat="43.2184509" lon="12.5367888"><ele>631.3333333333334</ele><time>2026-05-03T09:38:28.342Z</time></trkpt><trkpt lat="43.2183209" lon="12.5366605"><ele>633.0</ele><time>2026-05-03T09:38:29.343Z</time></trkpt><trkpt lat="43.2181916" lon="12.5365281"><ele>633.3333333333334</ele><time>2026-05-03T09:38:30.342Z</time></trkpt><trkpt lat="43.2180758" lon="12.5363864"><ele>633.6666666666667</ele><time>2026-05-03T09:38:31.342Z</time></trkpt><trkpt lat="43.2179657" lon="12.5362478"><ele>634.0</ele><time>2026-05-03T09:38:32.342Z</time></trkpt><trkpt lat="43.2178523" lon="12.5361046"><ele>634.3333333333334</ele><time>2026-05-03T09:38:33.342Z</time></trkpt><trkpt lat="43.2177436" lon="12.5359652"><ele>634.6666666666666</ele><time>2026-05-03T09:38:34.342Z</time></trkpt><trkpt lat="43.2176315" lon="12.5358213"><ele>635.0</ele><time>2026-05-03T09:38:35.343Z</time></trkpt><trkpt lat="43.2175104" lon="12.535682"><ele>635.0</ele><time>2026-05-03T09:38:36.342Z</time></trkpt><trkpt lat="43.2173845" lon="12.5355492"><ele>635.0</ele><time>2026-05-03T09:38:37.342Z</time></trkpt><trkpt lat="43.2172431" lon="12.5354122"><ele>635.0</ele><time>2026-05-03T09:38:38.342Z</time></trkpt><trkpt lat="43.2171062" lon="12.535277"><ele>631.3333333333333</ele><time>2026-05-03T09:38:39.342Z</time></trkpt><trkpt lat="43.2169603" lon="12.5351515"><ele>627.6666666666666</ele><time>2026-05-03T09:38:40.342Z</time></trkpt><trkpt lat="43.2168184" lon="12.5350338"><ele>624.0</ele><time>2026-05-03T09:38:41.342Z</time></trkpt><trkpt lat="43.2166861" lon="12.5349162"><ele>624.0</ele><time>2026-05-03T09:38:42.342Z</time></trkpt><trkpt lat="43.2165463" lon="12.5347946"><ele>624.0</ele><time>2026-05-03T09:38:43.342Z</time></trkpt><trkpt lat="43.21641" lon="12.5346717"><ele>624.0</ele><time>2026-05-03T09:38:44.342Z</time></trkpt><trkpt lat="43.2162732" lon="12.5345366"><ele>624.6666666666666</ele><time>2026-05-03T09:38:45.342Z</time></trkpt><trkpt lat="43.2161424" lon="12.5344077"><ele>625.3333333333333</ele><time>2026-05-03T09:38:46.342Z</time></trkpt><trkpt lat="43.2160088" lon="12.5342585"><ele>626.0</ele><time>2026-05-03T09:38:47.342Z</time></trkpt><trkpt lat="43.2158792" lon="12.5341007"><ele>626.0</ele><time>2026-05-03T09:38:48.342Z</time></trkpt><trkpt lat="43.2157467" lon="12.5339424"><ele>626.0</ele><time>2026-05-03T09:38:49.342Z</time></trkpt><trkpt lat="43.2156178" lon="12.5337902"><ele>626.0</ele><time>2026-05-03T09:38:50.342Z</time></trkpt><trkpt lat="43.2154847" lon="12.5336298"><ele>623.0</ele><time>2026-05-03T09:38:51.343Z</time></trkpt><trkpt lat="43.2153548" lon="12.5334683"><ele>620.0</ele><time>2026-05-03T09:38:52.343Z</time></trkpt><trkpt lat="43.2152357" lon="12.5332978"><ele>617.0</ele><time>2026-05-03T09:38:53.343Z</time></trkpt><trkpt lat="43.2151219" lon="12.5331099"><ele>617.0</ele><time>2026-05-03T09:38:54.343Z</time></trkpt><trkpt lat="43.2150179" lon="12.5329144"><ele>617.0</ele><time>2026-05-03T09:38:55.343Z</time></trkpt><trkpt lat="43.2149197" lon="12.5327132"><ele>617.0</ele><time>2026-05-03T09:38:56.342Z</time></trkpt><trkpt lat="43.2148146" lon="12.5325122"><ele>616.6666666666666</ele><time>2026-05-03T09:38:57.342Z</time></trkpt><trkpt lat="43.2147003" lon="12.5323135"><ele>616.3333333333334</ele><time>2026-05-03T09:38:58.342Z</time></trkpt><trkpt lat="43.21457" lon="12.5321438"><ele>616.0</ele><time>2026-05-03T09:38:59.343Z</time></trkpt><trkpt lat="43.2144324" lon="12.5319799"><ele>616.0</ele><time>2026-05-03T09:39:00.342Z</time></trkpt><trkpt lat="43.2142791" lon="12.5318365"><ele>616.0</ele><time>2026-05-03T09:39:01.342Z</time></trkpt><trkpt lat="43.2141136" lon="12.5317116"><ele>616.0</ele><time>2026-05-03T09:39:02.342Z</time></trkpt><trkpt lat="43.2139399" lon="12.53162"><ele>613.3333333333334</ele><time>2026-05-03T09:39:03.342Z</time></trkpt><trkpt lat="43.2137539" lon="12.5315476"><ele>610.6666666666666</ele><time>2026-05-03T09:39:04.343Z</time></trkpt><trkpt lat="43.2135678" lon="12.5314914"><ele>608.0</ele><time>2026-05-03T09:39:05.342Z</time></trkpt><trkpt lat="43.2133767" lon="12.5314245"><ele>608.0</ele><time>2026-05-03T09:39:06.342Z</time></trkpt><trkpt lat="43.2131863" lon="12.5313567"><ele>608.0</ele><time>2026-05-03T09:39:07.342Z</time></trkpt><trkpt lat="43.2129982" lon="12.531291"><ele>608.0</ele><time>2026-05-03T09:39:08.342Z</time></trkpt><trkpt lat="43.2128157" lon="12.5312291"><ele>608.0</ele><time>2026-05-03T09:39:09.342Z</time></trkpt><trkpt lat="43.2126416" lon="12.531169"><ele>608.0</ele><time>2026-05-03T09:39:10.342Z</time></trkpt><trkpt lat="43.2124826" lon="12.5311027"><ele>608.0</ele><time>2026-05-03T09:39:11.342Z</time></trkpt><trkpt lat="43.2123307" lon="12.5310199"><ele>611.0</ele><time>2026-05-03T09:39:12.342Z</time></trkpt><trkpt lat="43.2121983" lon="12.5308866"><ele>614.0</ele><time>2026-05-03T09:39:13.342Z</time></trkpt><trkpt lat="43.2120724" lon="12.5307431"><ele>617.0</ele><time>2026-05-03T09:39:14.342Z</time></trkpt><trkpt lat="43.211956" lon="12.5305826"><ele>617.0</ele><time>2026-05-03T09:39:15.342Z</time></trkpt><trkpt lat="43.2118362" lon="12.5304165"><ele>617.0</ele><time>2026-05-03T09:39:16.342Z</time></trkpt><trkpt lat="43.2117216" lon="12.5302476"><ele>617.0</ele><time>2026-05-03T09:39:17.342Z</time></trkpt><trkpt lat="43.2116056" lon="12.5300834"><ele>616.3333333333333</ele><time>2026-05-03T09:39:18.342Z</time></trkpt><trkpt lat="43.2114813" lon="12.5299171"><ele>615.6666666666666</ele><time>2026-05-03T09:39:19.342Z</time></trkpt><trkpt lat="43.211349" lon="12.5297728"><ele>615.0</ele><time>2026-05-03T09:39:20.342Z</time></trkpt><trkpt lat="43.2112133" lon="12.5296408"><ele>613.0</ele><time>2026-05-03T09:39:21.343Z</time></trkpt><trkpt lat="43.2110701" lon="12.5295203"><ele>611.0</ele><time>2026-05-03T09:39:22.342Z</time></trkpt><trkpt lat="43.2109228" lon="12.5294162"><ele>609.0</ele><time>2026-05-03T09:39:23.342Z</time></trkpt><trkpt lat="43.2107699" lon="12.5293186"><ele>607.6666666666666</ele><time>2026-05-03T09:39:24.342Z</time></trkpt><trkpt lat="43.2106107" lon="12.5292317"><ele>606.3333333333333</ele><time>2026-05-03T09:39:25.342Z</time></trkpt><trkpt lat="43.2104517" lon="12.5291509"><ele>605.0</ele><time>2026-05-03T09:39:26.342Z</time></trkpt><trkpt lat="43.210292" lon="12.5290599"><ele>605.0</ele><time>2026-05-03T09:39:27.342Z</time></trkpt><trkpt lat="43.2101175" lon="12.5289915"><ele>605.0</ele><time>2026-05-03T09:39:28.342Z</time></trkpt><trkpt lat="43.2099348" lon="12.5289237"><ele>605.0</ele><time>2026-05-03T09:39:29.342Z</time></trkpt><trkpt lat="43.2097521" lon="12.5288535"><ele>602.6666666666666</ele><time>2026-05-03T09:39:30.342Z</time></trkpt><trkpt lat="43.2095599" lon="12.5287743"><ele>600.3333333333334</ele><time>2026-05-03T09:39:31.343Z</time></trkpt><trkpt lat="43.2093651" lon="12.5286953"><ele>598.0</ele><time>2026-05-03T09:39:32.342Z</time></trkpt><trkpt lat="43.2091817" lon="12.5286242"><ele>596.3333333333334</ele><time>2026-05-03T09:39:33.343Z</time></trkpt><trkpt lat="43.2089912" lon="12.5285481"><ele>594.6666666666666</ele><time>2026-05-03T09:39:34.342Z</time></trkpt><trkpt lat="43.2088266" lon="12.5284796"><ele>593.0</ele><time>2026-05-03T09:39:35.342Z</time></trkpt><trkpt lat="43.2086474" lon="12.5284126"><ele>593.0</ele><time>2026-05-03T09:39:36.342Z</time></trkpt><trkpt lat="43.2084812" lon="12.5283346"><ele>593.0</ele><time>2026-05-03T09:39:37.343Z</time></trkpt><trkpt lat="43.2083162" lon="12.5282416"><ele>593.0</ele><time>2026-05-03T09:39:38.343Z</time></trkpt><trkpt lat="43.2081661" lon="12.5281251"><ele>588.0</ele><time>2026-05-03T09:39:39.342Z</time></trkpt><trkpt lat="43.2080495" lon="12.5279655"><ele>583.0</ele><time>2026-05-03T09:39:40.343Z</time></trkpt><trkpt lat="43.2079437" lon="12.5277762"><ele>578.0</ele><time>2026-05-03T09:39:41.343Z</time></trkpt><trkpt lat="43.207852" lon="12.527571"><ele>578.0</ele><time>2026-05-03T09:39:42.342Z</time></trkpt><trkpt lat="43.2077564" lon="12.5273703"><ele>578.0</ele><time>2026-05-03T09:39:43.343Z</time></trkpt><trkpt lat="43.207656" lon="12.527205"><ele>578.0</ele><time>2026-05-03T09:39:44.342Z</time></trkpt><trkpt lat="43.2075382" lon="12.5270744"><ele>579.0</ele><time>2026-05-03T09:39:45.342Z</time></trkpt><trkpt lat="43.2073904" lon="12.5269792"><ele>580.0</ele><time>2026-05-03T09:39:46.342Z</time></trkpt><trkpt lat="43.2072322" lon="12.5269285"><ele>581.0</ele><time>2026-05-03T09:39:47.342Z</time></trkpt><trkpt lat="43.2070625" lon="12.5268907"><ele>581.6666666666666</ele><time>2026-05-03T09:39:48.342Z</time></trkpt><trkpt lat="43.2068919" lon="12.5268674"><ele>582.3333333333334</ele><time>2026-05-03T09:39:49.342Z</time></trkpt><trkpt lat="43.2067074" lon="12.5268427"><ele>583.0</ele><time>2026-05-03T09:39:50.342Z</time></trkpt><trkpt lat="43.206535" lon="12.5268182"><ele>582.6666666666667</ele><time>2026-05-03T09:39:51.343Z</time></trkpt><trkpt lat="43.2063583" lon="12.5267884"><ele>582.3333333333334</ele><time>2026-05-03T09:39:52.342Z</time></trkpt><trkpt lat="43.2061815" lon="12.5267464"><ele>582.0</ele><time>2026-05-03T09:39:53.342Z</time></trkpt><trkpt lat="43.2060223" lon="12.5266903"><ele>582.0</ele><time>2026-05-03T09:39:54.343Z</time></trkpt><trkpt lat="43.2058711" lon="12.5266031"><ele>582.0</ele><time>2026-05-03T09:39:55.343Z</time></trkpt><trkpt lat="43.2057267" lon="12.5265012"><ele>582.0</ele><time>2026-05-03T09:39:56.342Z</time></trkpt><trkpt lat="43.2055781" lon="12.5263923"><ele>578.3333333333334</ele><time>2026-05-03T09:39:57.343Z</time></trkpt><trkpt lat="43.205428" lon="12.5262764"><ele>574.6666666666667</ele><time>2026-05-03T09:39:58.342Z</time></trkpt><trkpt lat="43.2052755" lon="12.5261599"><ele>571.0</ele><time>2026-05-03T09:39:59.343Z</time></trkpt><trkpt lat="43.2051232" lon="12.5260411"><ele>570.3333333333334</ele><time>2026-05-03T09:40:00.342Z</time></trkpt><trkpt lat="43.2049694" lon="12.5259286"><ele>569.6666666666666</ele><time>2026-05-03T09:40:01.342Z</time></trkpt><trkpt lat="43.2048214" lon="12.5258123"><ele>569.0</ele><time>2026-05-03T09:40:02.342Z</time></trkpt><trkpt lat="43.2046755" lon="12.5256939"><ele>568.0</ele><time>2026-05-03T09:40:03.342Z</time></trkpt><trkpt lat="43.2045295" lon="12.5255768"><ele>567.0</ele><time>2026-05-03T09:40:04.343Z</time></trkpt><trkpt lat="43.2043933" lon="12.5254673"><ele>566.0</ele><time>2026-05-03T09:40:05.342Z</time></trkpt><trkpt lat="43.2042608" lon="12.525347"><ele>566.0</ele><time>2026-05-03T09:40:06.343Z</time></trkpt><trkpt lat="43.2041531" lon="12.5252076"><ele>566.0</ele><time>2026-05-03T09:40:07.342Z</time></trkpt><trkpt lat="43.2040628" lon="12.5250539"><ele>566.0</ele><time>2026-05-03T09:40:08.342Z</time></trkpt><trkpt lat="43.2039969" lon="12.5248579"><ele>566.0</ele><time>2026-05-03T09:40:09.342Z</time></trkpt><trkpt lat="43.2039392" lon="12.5246505"><ele>571.6666666666666</ele><time>2026-05-03T09:40:10.343Z</time></trkpt><trkpt lat="43.2038749" lon="12.524442"><ele>577.3333333333334</ele><time>2026-05-03T09:40:11.342Z</time></trkpt><trkpt lat="43.2038099" lon="12.5242289"><ele>583.0</ele><time>2026-05-03T09:40:12.343Z</time></trkpt><trkpt lat="43.2037259" lon="12.5240307"><ele>583.0</ele><time>2026-05-03T09:40:13.342Z</time></trkpt><trkpt lat="43.203634" lon="12.5238439"><ele>583.0</ele><time>2026-05-03T09:40:14.343Z</time></trkpt><trkpt lat="43.2035002" lon="12.5236811"><ele>583.0</ele><time>2026-05-03T09:40:15.343Z</time></trkpt><trkpt lat="43.2033848" lon="12.5235215"><ele>578.6666666666667</ele><time>2026-05-03T09:40:16.342Z</time></trkpt><trkpt lat="43.2032737" lon="12.5233562"><ele>574.3333333333334</ele><time>2026-05-03T09:40:17.342Z</time></trkpt><trkpt lat="43.203192" lon="12.5231887"><ele>570.0</ele><time>2026-05-03T09:40:18.343Z</time></trkpt><trkpt lat="43.2031218" lon="12.5230123"><ele>578.6666666666666</ele><time>2026-05-03T09:40:19.342Z</time></trkpt><trkpt lat="43.203089" lon="12.522811"><ele>587.3333333333333</ele><time>2026-05-03T09:40:20.343Z</time></trkpt><trkpt lat="43.2030713" lon="12.5226019"><ele>596.0</ele><time>2026-05-03T09:40:21.342Z</time></trkpt><trkpt lat="43.2030595" lon="12.522387"><ele>596.0</ele><time>2026-05-03T09:40:22.343Z</time></trkpt><trkpt lat="43.2030463" lon="12.5221637"><ele>596.0</ele><time>2026-05-03T09:40:23.342Z</time></trkpt><trkpt lat="43.2030362" lon="12.5219361"><ele>596.0</ele><time>2026-05-03T09:40:24.342Z</time></trkpt><trkpt lat="43.2030208" lon="12.5217066"><ele>594.5</ele><time>2026-05-03T09:40:25.342Z</time></trkpt><trkpt lat="43.2030049" lon="12.5215121"><ele>593.0</ele><time>2026-05-03T09:40:26.342Z</time></trkpt><trkpt lat="43.2029675" lon="12.5213061"><ele>591.5</ele><time>2026-05-03T09:40:27.343Z</time></trkpt><trkpt lat="43.2029132" lon="12.521114"><ele>590.0</ele><time>2026-05-03T09:40:28.342Z</time></trkpt><trkpt lat="43.2028485" lon="12.520933"><ele>587.75</ele><time>2026-05-03T09:40:29.342Z</time></trkpt><trkpt lat="43.202777" lon="12.5207624"><ele>585.5</ele><time>2026-05-03T09:40:30.342Z</time></trkpt><trkpt lat="43.2026843" lon="12.5206238"><ele>583.25</ele><time>2026-05-03T09:40:31.343Z</time></trkpt><trkpt lat="43.2025629" lon="12.520501"><ele>581.0</ele><time>2026-05-03T09:40:32.342Z</time></trkpt><trkpt lat="43.2024304" lon="12.5203984"><ele>580.6666666666666</ele><time>2026-05-03T09:40:33.342Z</time></trkpt><trkpt lat="43.2022856" lon="12.5203223"><ele>580.3333333333334</ele><time>2026-05-03T09:40:34.342Z</time></trkpt><trkpt lat="43.2021299" lon="12.5202683"><ele>580.0</ele><time>2026-05-03T09:40:35.342Z</time></trkpt><trkpt lat="43.201966" lon="12.520223"><ele>580.0</ele><time>2026-05-03T09:40:36.342Z</time></trkpt><trkpt lat="43.2018055" lon="12.5201885"><ele>580.0</ele><time>2026-05-03T09:40:37.342Z</time></trkpt><trkpt lat="43.2016476" lon="12.5201518"><ele>580.0</ele><time>2026-05-03T09:40:38.342Z</time></trkpt><trkpt lat="43.2015044" lon="12.5201007"><ele>584.0</ele><time>2026-05-03T09:40:39.342Z</time></trkpt><trkpt lat="43.2013823" lon="12.5200255"><ele>588.0</ele><time>2026-05-03T09:40:40.342Z</time></trkpt><trkpt lat="43.2012882" lon="12.5199202"><ele>592.0</ele><time>2026-05-03T09:40:41.343Z</time></trkpt><trkpt lat="43.2012289" lon="12.5197823"><ele>596.0</ele><time>2026-05-03T09:40:42.342Z</time></trkpt><trkpt lat="43.201198" lon="12.5196238"><ele>594.75</ele><time>2026-05-03T09:40:43.342Z</time></trkpt><trkpt lat="43.2011972" lon="12.5194542"><ele>593.5</ele><time>2026-05-03T09:40:44.342Z</time></trkpt><trkpt lat="43.2012183" lon="12.5192614"><ele>592.25</ele><time>2026-05-03T09:40:45.342Z</time></trkpt><trkpt lat="43.2012476" lon="12.5190739"><ele>591.0</ele><time>2026-05-03T09:40:46.342Z</time></trkpt><trkpt lat="43.2012643" lon="12.5188915"><ele>588.5</ele><time>2026-05-03T09:40:47.343Z</time></trkpt><trkpt lat="43.2012645" lon="12.5187038"><ele>586.0</ele><time>2026-05-03T09:40:48.342Z</time></trkpt><trkpt lat="43.2012486" lon="12.5185181"><ele>583.5</ele><time>2026-05-03T09:40:49.342Z</time></trkpt><trkpt lat="43.2012113" lon="12.5183449"><ele>581.0</ele><time>2026-05-03T09:40:50.342Z</time></trkpt><trkpt lat="43.2011411" lon="12.5181791"><ele>581.0</ele><time>2026-05-03T09:40:51.342Z</time></trkpt><trkpt lat="43.2010421" lon="12.5180264"><ele>581.0</ele><time>2026-05-03T09:40:52.342Z</time></trkpt><trkpt lat="43.2009158" lon="12.5178836"><ele>581.0</ele><time>2026-05-03T09:40:53.343Z</time></trkpt><trkpt lat="43.200778" lon="12.5177702"><ele>580.0</ele><time>2026-05-03T09:40:54.342Z</time></trkpt><trkpt lat="43.2006326" lon="12.5176669"><ele>579.0</ele><time>2026-05-03T09:40:55.343Z</time></trkpt><trkpt lat="43.2004856" lon="12.5175676"><ele>578.0</ele><time>2026-05-03T09:40:56.342Z</time></trkpt><trkpt lat="43.2003382" lon="12.5174727"><ele>578.0</ele><time>2026-05-03T09:40:57.343Z</time></trkpt><trkpt lat="43.2001974" lon="12.5173589"><ele>578.0</ele><time>2026-05-03T09:40:58.342Z</time></trkpt><trkpt lat="43.200046" lon="12.517261"><ele>578.0</ele><time>2026-05-03T09:40:59.342Z</time></trkpt><trkpt lat="43.1999076" lon="12.5171802"><ele>577.3333333333333</ele><time>2026-05-03T09:41:00.342Z</time></trkpt><trkpt lat="43.199756" lon="12.5171138"><ele>576.6666666666666</ele><time>2026-05-03T09:41:01.342Z</time></trkpt><trkpt lat="43.1996034" lon="12.5170735"><ele>576.0</ele><time>2026-05-03T09:41:02.342Z</time></trkpt><trkpt lat="43.1994387" lon="12.5170565"><ele>571.0</ele><time>2026-05-03T09:41:03.342Z</time></trkpt><trkpt lat="43.1992756" lon="12.5170466"><ele>566.0</ele><time>2026-05-03T09:41:04.342Z</time></trkpt><trkpt lat="43.1991085" lon="12.5170473"><ele>561.0</ele><time>2026-05-03T09:41:05.342Z</time></trkpt><trkpt lat="43.1989534" lon="12.5170162"><ele>561.0</ele><time>2026-05-03T09:41:06.342Z</time></trkpt><trkpt lat="43.1987983" lon="12.5169768"><ele>561.0</ele><time>2026-05-03T09:41:07.343Z</time></trkpt><trkpt lat="43.1986433" lon="12.5169244"><ele>561.0</ele><time>2026-05-03T09:41:08.343Z</time></trkpt><trkpt lat="43.198495" lon="12.516843"><ele>561.0</ele><time>2026-05-03T09:41:09.343Z</time></trkpt><trkpt lat="43.1983511" lon="12.516733"><ele>561.0</ele><time>2026-05-03T09:41:10.342Z</time></trkpt><trkpt lat="43.1982008" lon="12.5166099"><ele>561.0</ele><time>2026-05-03T09:41:11.342Z</time></trkpt><trkpt lat="43.1980583" lon="12.5164849"><ele>558.6666666666666</ele><time>2026-05-03T09:41:12.343Z</time></trkpt><trkpt lat="43.1979145" lon="12.5163492"><ele>556.3333333333333</ele><time>2026-05-03T09:41:13.342Z</time></trkpt><trkpt lat="43.1977688" lon="12.5162155"><ele>554.0</ele><time>2026-05-03T09:41:14.342Z</time></trkpt><trkpt lat="43.1976208" lon="12.5160856"><ele>554.0</ele><time>2026-05-03T09:41:15.343Z</time></trkpt><trkpt lat="43.1974665" lon="12.5159678"><ele>554.0</ele><time>2026-05-03T09:41:16.342Z</time></trkpt><trkpt lat="43.1973085" lon="12.5158756"><ele>554.0</ele><time>2026-05-03T09:41:17.343Z</time></trkpt><trkpt lat="43.1971475" lon="12.5157898"><ele>552.0</ele><time>2026-05-03T09:41:18.342Z</time></trkpt><trkpt lat="43.1969808" lon="12.5157173"><ele>550.0</ele><time>2026-05-03T09:41:19.342Z</time></trkpt><trkpt lat="43.1968133" lon="12.5156515"><ele>548.0</ele><time>2026-05-03T09:41:20.342Z</time></trkpt><trkpt lat="43.196655" lon="12.5155823"><ele>545.6666666666666</ele><time>2026-05-03T09:41:21.343Z</time></trkpt><trkpt lat="43.1964988" lon="12.5155051"><ele>543.3333333333334</ele><time>2026-05-03T09:41:22.342Z</time></trkpt><trkpt lat="43.1963621" lon="12.515409"><ele>541.0</ele><time>2026-05-03T09:41:23.342Z</time></trkpt><trkpt lat="43.1962212" lon="12.5152713"><ele>541.0</ele><time>2026-05-03T09:41:24.343Z</time></trkpt><trkpt lat="43.1960828" lon="12.5151266"><ele>541.0</ele><time>2026-05-03T09:41:25.342Z</time></trkpt><trkpt lat="43.1959469" lon="12.5149734"><ele>541.0</ele><time>2026-05-03T09:41:26.342Z</time></trkpt><trkpt lat="43.1958311" lon="12.5148082"><ele>541.0</ele><time>2026-05-03T09:41:27.342Z</time></trkpt><trkpt lat="43.1957201" lon="12.5146349"><ele>541.0</ele><time>2026-05-03T09:41:28.342Z</time></trkpt><trkpt lat="43.1956154" lon="12.5144488"><ele>541.0</ele><time>2026-05-03T09:41:29.343Z</time></trkpt><trkpt lat="43.195515" lon="12.5142571"><ele>538.6666666666667</ele><time>2026-05-03T09:41:30.342Z</time></trkpt><trkpt lat="43.1954172" lon="12.514052"><ele>536.3333333333334</ele><time>2026-05-03T09:41:31.342Z</time></trkpt><trkpt lat="43.1953196" lon="12.5138626"><ele>534.0</ele><time>2026-05-03T09:41:32.342Z</time></trkpt><trkpt lat="43.1952194" lon="12.513686"><ele>534.0</ele><time>2026-05-03T09:41:33.342Z</time></trkpt><trkpt lat="43.1951247" lon="12.5135253"><ele>534.0</ele><time>2026-05-03T09:41:34.342Z</time></trkpt><trkpt lat="43.1950188" lon="12.5133877"><ele>534.0</ele><time>2026-05-03T09:41:35.342Z</time></trkpt><trkpt lat="43.194896" lon="12.5132669"><ele>534.0</ele><time>2026-05-03T09:41:36.342Z</time></trkpt><trkpt lat="43.1947723" lon="12.5131625"><ele>532.3333333333334</ele><time>2026-05-03T09:41:37.343Z</time></trkpt><trkpt lat="43.1946274" lon="12.5130858"><ele>530.6666666666667</ele><time>2026-05-03T09:41:38.343Z</time></trkpt><trkpt lat="43.1944788" lon="12.5130266"><ele>529.0</ele><time>2026-05-03T09:41:39.342Z</time></trkpt><trkpt lat="43.1943074" lon="12.5130116"><ele>529.0</ele><time>2026-05-03T09:41:40.342Z</time></trkpt><trkpt lat="43.1941364" lon="12.5130212"><ele>529.0</ele><time>2026-05-03T09:41:41.342Z</time></trkpt><trkpt lat="43.193966" lon="12.5130615"><ele>529.0</ele><time>2026-05-03T09:41:42.342Z</time></trkpt><trkpt lat="43.1937885" lon="12.5131108"><ele>528.0</ele><time>2026-05-03T09:41:43.343Z</time></trkpt><trkpt lat="43.1936096" lon="12.5131678"><ele>527.0</ele><time>2026-05-03T09:41:44.342Z</time></trkpt><trkpt lat="43.1934309" lon="12.5132231"><ele>526.0</ele><time>2026-05-03T09:41:45.342Z</time></trkpt><trkpt lat="43.1932461" lon="12.5132857"><ele>523.3333333333334</ele><time>2026-05-03T09:41:46.342Z</time></trkpt><trkpt lat="43.193063" lon="12.5133415"><ele>520.6666666666666</ele><time>2026-05-03T09:41:47.342Z</time></trkpt><trkpt lat="43.192897" lon="12.5134005"><ele>518.0</ele><time>2026-05-03T09:41:48.342Z</time></trkpt><trkpt lat="43.1927474" lon="12.5134501"><ele>518.0</ele><time>2026-05-03T09:41:49.342Z</time></trkpt><trkpt lat="43.1926196" lon="12.5134998"><ele>518.0</ele><time>2026-05-03T09:41:50.342Z</time></trkpt><trkpt lat="43.1924967" lon="12.5135409"><ele>518.0</ele><time>2026-05-03T09:41:51.342Z</time></trkpt><trkpt lat="43.1923958" lon="12.5135524"><ele>518.0</ele><time>2026-05-03T09:41:52.342Z</time></trkpt><trkpt lat="43.1923146" lon="12.5135253"><ele>518.0</ele><time>2026-05-03T09:41:53.343Z</time></trkpt><trkpt lat="43.1922416" lon="12.5134859"><ele>516.1999999999999</ele><time>2026-05-03T09:41:54.342Z</time></trkpt><trkpt lat="43.1921843" lon="12.5133997"><ele>514.4</ele><time>2026-05-03T09:41:55.342Z</time></trkpt><trkpt lat="43.1921461" lon="12.5132838"><ele>512.5999999999999</ele><time>2026-05-03T09:41:56.342Z</time></trkpt><trkpt lat="43.1921255" lon="12.5131565"><ele>510.79999999999995</ele><time>2026-05-03T09:41:57.342Z</time></trkpt><trkpt lat="43.1921503" lon="12.5130174"><ele>509.0</ele><time>2026-05-03T09:41:58.342Z</time></trkpt><trkpt lat="43.1922063" lon="12.5128979"><ele>509.75</ele><time>2026-05-03T09:41:59.342Z</time></trkpt><trkpt lat="43.1922904" lon="12.512786"><ele>510.5</ele><time>2026-05-03T09:42:00.342Z</time></trkpt><trkpt lat="43.1923815" lon="12.5126783"><ele>511.25</ele><time>2026-05-03T09:42:01.342Z</time></trkpt><trkpt lat="43.1925017" lon="12.5125671"><ele>512.0</ele><time>2026-05-03T09:42:02.342Z</time></trkpt><trkpt lat="43.1926267" lon="12.5124716"><ele>512.0</ele><time>2026-05-03T09:42:03.342Z</time></trkpt><trkpt lat="43.1927586" lon="12.5123905"><ele>512.0</ele><time>2026-05-03T09:42:04.342Z</time></trkpt><trkpt lat="43.1928705" lon="12.5123398"><ele>512.0</ele><time>2026-05-03T09:42:05.342Z</time></trkpt><trkpt lat="43.1929632" lon="12.5122932"><ele>512.0</ele><time>2026-05-03T09:42:06.342Z</time></trkpt><trkpt lat="43.1930284" lon="12.5122202"><ele>512.0</ele><time>2026-05-03T09:42:07.342Z</time></trkpt><trkpt lat="43.1930644" lon="12.5121187"><ele>509.6</ele><time>2026-05-03T09:42:08.342Z</time></trkpt><trkpt lat="43.1930626" lon="12.5120048"><ele>507.20000000000005</ele><time>2026-05-03T09:42:09.342Z</time></trkpt><trkpt lat="43.1930224" lon="12.511887"><ele>504.8</ele><time>2026-05-03T09:42:10.342Z</time></trkpt><trkpt lat="43.1929488" lon="12.5117796"><ele>502.4</ele><time>2026-05-03T09:42:11.342Z</time></trkpt><trkpt lat="43.1928648" lon="12.5117009"><ele>500.0</ele><time>2026-05-03T09:42:12.342Z</time></trkpt><trkpt lat="43.1927579" lon="12.5116521"><ele>500.0</ele><time>2026-05-03T09:42:13.342Z</time></trkpt><trkpt lat="43.1926226" lon="12.511639"><ele>500.0</ele><time>2026-05-03T09:42:14.342Z</time></trkpt><trkpt lat="43.1924832" lon="12.5116615"><ele>500.0</ele><time>2026-05-03T09:42:15.342Z</time></trkpt><trkpt lat="43.1923388" lon="12.5116929"><ele>500.0</ele><time>2026-05-03T09:42:16.342Z</time></trkpt><trkpt lat="43.1921943" lon="12.5117314"><ele>497.0</ele><time>2026-05-03T09:42:17.342Z</time></trkpt><trkpt lat="43.1920444" lon="12.5117639"><ele>494.0</ele><time>2026-05-03T09:42:18.342Z</time></trkpt><trkpt lat="43.1919051" lon="12.5118078"><ele>491.0</ele><time>2026-05-03T09:42:19.343Z</time></trkpt><trkpt lat="43.1917571" lon="12.5118375"><ele>488.0</ele><time>2026-05-03T09:42:20.343Z</time></trkpt><trkpt lat="43.1916125" lon="12.5118714"><ele>487.5</ele><time>2026-05-03T09:42:21.342Z</time></trkpt><trkpt lat="43.191471" lon="12.5118973"><ele>487.0</ele><time>2026-05-03T09:42:22.342Z</time></trkpt><trkpt lat="43.1913395" lon="12.5119461"><ele>486.5</ele><time>2026-05-03T09:42:23.342Z</time></trkpt><trkpt lat="43.1912098" lon="12.5120367"><ele>486.0</ele><time>2026-05-03T09:42:24.342Z</time></trkpt><trkpt lat="43.1910934" lon="12.5121709"><ele>486.0</ele><time>2026-05-03T09:42:25.343Z</time></trkpt><trkpt lat="43.190995" lon="12.5123397"><ele>486.0</ele><time>2026-05-03T09:42:26.343Z</time></trkpt><trkpt lat="43.1909086" lon="12.5125079"><ele>486.0</ele><time>2026-05-03T09:42:27.342Z</time></trkpt><trkpt lat="43.1908175" lon="12.5126654"><ele>486.0</ele><time>2026-05-03T09:42:28.343Z</time></trkpt><trkpt lat="43.1907307" lon="12.5128267"><ele>486.0</ele><time>2026-05-03T09:42:29.342Z</time></trkpt><trkpt lat="43.1906446" lon="12.5129843"><ele>486.0</ele><time>2026-05-03T09:42:30.342Z</time></trkpt><trkpt lat="43.1905571" lon="12.5131346"><ele>486.0</ele><time>2026-05-03T09:42:31.343Z</time></trkpt><trkpt lat="43.1904615" lon="12.5132619"><ele>483.25</ele><time>2026-05-03T09:42:32.342Z</time></trkpt><trkpt lat="43.190361" lon="12.5133911"><ele>480.5</ele><time>2026-05-03T09:42:33.342Z</time></trkpt><trkpt lat="43.1902563" lon="12.5135067"><ele>477.75</ele><time>2026-05-03T09:42:34.342Z</time></trkpt><trkpt lat="43.1901596" lon="12.513602"><ele>475.0</ele><time>2026-05-03T09:42:35.342Z</time></trkpt><trkpt lat="43.1900765" lon="12.513688"><ele>475.00000000000006</ele><time>2026-05-03T09:42:36.342Z</time></trkpt><trkpt lat="43.190003" lon="12.513733"><ele>475.0</ele><time>2026-05-03T09:42:37.342Z</time></trkpt><trkpt lat="43.1899237" lon="12.5137693"><ele>475.0</ele><time>2026-05-03T09:42:38.343Z</time></trkpt><trkpt lat="43.1898372" lon="12.5137608"><ele>475.0</ele><time>2026-05-03T09:42:39.343Z</time></trkpt><trkpt lat="43.1897534" lon="12.5137246"><ele>475.00000000000006</ele><time>2026-05-03T09:42:40.342Z</time></trkpt><trkpt lat="43.1896808" lon="12.5136625"><ele>475.0</ele><time>2026-05-03T09:42:41.342Z</time></trkpt><trkpt lat="43.1896356" lon="12.5135702"><ele>471.8</ele><time>2026-05-03T09:42:42.342Z</time></trkpt><trkpt lat="43.1896068" lon="12.513456"><ele>468.6</ele><time>2026-05-03T09:42:43.342Z</time></trkpt><trkpt lat="43.189583" lon="12.5133205"><ele>465.4</ele><time>2026-05-03T09:42:44.342Z</time></trkpt><trkpt lat="43.1895886" lon="12.513188"><ele>462.2</ele><time>2026-05-03T09:42:45.342Z</time></trkpt><trkpt lat="43.1896566" lon="12.5130428"><ele>459.0</ele><time>2026-05-03T09:42:46.343Z</time></trkpt><trkpt lat="43.1897349" lon="12.5129231"><ele>460.75</ele><time>2026-05-03T09:42:47.342Z</time></trkpt><trkpt lat="43.1898125" lon="12.5127852"><ele>462.5</ele><time>2026-05-03T09:42:48.343Z</time></trkpt><trkpt lat="43.1898913" lon="12.5126357"><ele>464.25</ele><time>2026-05-03T09:42:49.342Z</time></trkpt><trkpt lat="43.1899621" lon="12.5124853"><ele>466.0</ele><time>2026-05-03T09:42:50.342Z</time></trkpt><trkpt lat="43.1900308" lon="12.5123398"><ele>466.0</ele><time>2026-05-03T09:42:51.342Z</time></trkpt><trkpt lat="43.1900885" lon="12.5121928"><ele>466.0</ele><time>2026-05-03T09:42:52.342Z</time></trkpt><trkpt lat="43.1901158" lon="12.512032"><ele>466.0</ele><time>2026-05-03T09:42:53.342Z</time></trkpt><trkpt lat="43.1901242" lon="12.5118797"><ele>466.0</ele><time>2026-05-03T09:42:54.343Z</time></trkpt><trkpt lat="43.1900966" lon="12.5117222"><ele>464.75</ele><time>2026-05-03T09:42:55.343Z</time></trkpt><trkpt lat="43.1900574" lon="12.511573"><ele>463.5</ele><time>2026-05-03T09:42:56.342Z</time></trkpt><trkpt lat="43.1900003" lon="12.5114372"><ele>462.25</ele><time>2026-05-03T09:42:57.342Z</time></trkpt><trkpt lat="43.1899225" lon="12.5113307"><ele>461.0</ele><time>2026-05-03T09:42:58.342Z</time></trkpt><trkpt lat="43.1898209" lon="12.5112398"><ele>456.25</ele><time>2026-05-03T09:42:59.342Z</time></trkpt><trkpt lat="43.1897071" lon="12.5111848"><ele>451.5</ele><time>2026-05-03T09:43:00.342Z</time></trkpt><trkpt lat="43.1895878" lon="12.5111658"><ele>446.75</ele><time>2026-05-03T09:43:01.342Z</time></trkpt><trkpt lat="43.1894579" lon="12.5111818"><ele>442.0</ele><time>2026-05-03T09:43:02.343Z</time></trkpt><trkpt lat="43.1893283" lon="12.5112387"><ele>441.0</ele><time>2026-05-03T09:43:03.342Z</time></trkpt><trkpt lat="43.1892163" lon="12.5113196"><ele>440.0</ele><time>2026-05-03T09:43:04.343Z</time></trkpt><trkpt lat="43.1891144" lon="12.5114554"><ele>439.0</ele><time>2026-05-03T09:43:05.342Z</time></trkpt><trkpt lat="43.1890352" lon="12.511615"><ele>438.0</ele><time>2026-05-03T09:43:06.342Z</time></trkpt><trkpt lat="43.1889697" lon="12.5117773"><ele>438.0</ele><time>2026-05-03T09:43:07.342Z</time></trkpt><trkpt lat="43.1889169" lon="12.511957"><ele>438.0</ele><time>2026-05-03T09:43:08.342Z</time></trkpt><trkpt lat="43.1888608" lon="12.5121286"><ele>438.0</ele><time>2026-05-03T09:43:09.342Z</time></trkpt><trkpt lat="43.1887862" lon="12.512295"><ele>438.0</ele><time>2026-05-03T09:43:10.342Z</time></trkpt><trkpt lat="43.1887075" lon="12.5124579"><ele>438.66666666666663</ele><time>2026-05-03T09:43:11.342Z</time></trkpt><trkpt lat="43.1886176" lon="12.5126195"><ele>439.3333333333333</ele><time>2026-05-03T09:43:12.342Z</time></trkpt><trkpt lat="43.1885254" lon="12.5127934"><ele>440.0</ele><time>2026-05-03T09:43:13.342Z</time></trkpt><trkpt lat="43.1884326" lon="12.5129614"><ele>440.5</ele><time>2026-05-03T09:43:14.342Z</time></trkpt><trkpt lat="43.1883445" lon="12.5131251"><ele>441.0</ele><time>2026-05-03T09:43:15.342Z</time></trkpt><trkpt lat="43.1882683" lon="12.5132814"><ele>441.5</ele><time>2026-05-03T09:43:16.343Z</time></trkpt><trkpt lat="43.1881816" lon="12.5134459"><ele>442.0</ele><time>2026-05-03T09:43:17.343Z</time></trkpt><trkpt lat="43.188112" lon="12.513598"><ele>437.5</ele><time>2026-05-03T09:43:18.342Z</time></trkpt><trkpt lat="43.1880387" lon="12.5137359"><ele>433.0</ele><time>2026-05-03T09:43:19.342Z</time></trkpt><trkpt lat="43.187962" lon="12.5138644"><ele>428.5</ele><time>2026-05-03T09:43:20.343Z</time></trkpt><trkpt lat="43.1878727" lon="12.5139589"><ele>424.0</ele><time>2026-05-03T09:43:21.342Z</time></trkpt><trkpt lat="43.187775" lon="12.5140422"><ele>424.0</ele><time>2026-05-03T09:43:22.342Z</time></trkpt><trkpt lat="43.1876683" lon="12.5140743"><ele>424.0</ele><time>2026-05-03T09:43:23.342Z</time></trkpt><trkpt lat="43.1875641" lon="12.5140571"><ele>424.0</ele><time>2026-05-03T09:43:24.342Z</time></trkpt><trkpt lat="43.1874465" lon="12.5140394"><ele>424.0</ele><time>2026-05-03T09:43:25.342Z</time></trkpt><trkpt lat="43.1873308" lon="12.5139853"><ele>420.75</ele><time>2026-05-03T09:43:26.343Z</time></trkpt><trkpt lat="43.1872134" lon="12.5139189"><ele>417.5</ele><time>2026-05-03T09:43:27.342Z</time></trkpt><trkpt lat="43.1870936" lon="12.5138363"><ele>414.25</ele><time>2026-05-03T09:43:28.342Z</time></trkpt><trkpt lat="43.1869731" lon="12.5137512"><ele>411.0</ele><time>2026-05-03T09:43:29.342Z</time></trkpt><trkpt lat="43.186856" lon="12.5136423"><ele>411.0</ele><time>2026-05-03T09:43:30.342Z</time></trkpt><trkpt lat="43.1867619" lon="12.5135061"><ele>411.0</ele><time>2026-05-03T09:43:31.342Z</time></trkpt><trkpt lat="43.1866905" lon="12.5133397"><ele>411.0</ele><time>2026-05-03T09:43:32.342Z</time></trkpt><trkpt lat="43.1866368" lon="12.5131475"><ele>411.0</ele><time>2026-05-03T09:43:33.343Z</time></trkpt><trkpt lat="43.186607" lon="12.5129446"><ele>411.0</ele><time>2026-05-03T09:43:34.342Z</time></trkpt><trkpt lat="43.1866006" lon="12.5127237"><ele>411.0</ele><time>2026-05-03T09:43:35.342Z</time></trkpt><trkpt lat="43.1865866" lon="12.5124973"><ele>411.0</ele><time>2026-05-03T09:43:36.342Z</time></trkpt><trkpt lat="43.1865779" lon="12.512259"><ele>411.0</ele><time>2026-05-03T09:43:37.342Z</time></trkpt><trkpt lat="43.1865584" lon="12.5120231"><ele>411.0</ele><time>2026-05-03T09:43:38.342Z</time></trkpt><trkpt lat="43.1865446" lon="12.5117893"><ele>411.0</ele><time>2026-05-03T09:43:39.342Z</time></trkpt><trkpt lat="43.1865372" lon="12.5115567"><ele>411.0</ele><time>2026-05-03T09:43:40.342Z</time></trkpt><trkpt lat="43.186533" lon="12.5113338"><ele>411.0</ele><time>2026-05-03T09:43:41.342Z</time></trkpt><trkpt lat="43.1865376" lon="12.5111191"><ele>411.0</ele><time>2026-05-03T09:43:42.342Z</time></trkpt><trkpt lat="43.1865601" lon="12.5109202"><ele>409.0</ele><time>2026-05-03T09:43:43.342Z</time></trkpt><trkpt lat="43.1866056" lon="12.5107175"><ele>407.0</ele><time>2026-05-03T09:43:44.342Z</time></trkpt><trkpt lat="43.1866763" lon="12.5105304"><ele>405.0</ele><time>2026-05-03T09:43:45.342Z</time></trkpt><trkpt lat="43.1867585" lon="12.5103595"><ele>400.0</ele><time>2026-05-03T09:43:46.342Z</time></trkpt><trkpt lat="43.1868541" lon="12.5101955"><ele>395.0</ele><time>2026-05-03T09:43:47.342Z</time></trkpt><trkpt lat="43.1869567" lon="12.510036"><ele>390.0</ele><time>2026-05-03T09:43:48.343Z</time></trkpt><trkpt lat="43.1870567" lon="12.5098795"><ele>390.0</ele><time>2026-05-03T09:43:49.343Z</time></trkpt><trkpt lat="43.187152" lon="12.5097192"><ele>390.0</ele><time>2026-05-03T09:43:50.342Z</time></trkpt><trkpt lat="43.1872269" lon="12.5095386"><ele>390.0</ele><time>2026-05-03T09:43:51.342Z</time></trkpt><trkpt lat="43.1872625" lon="12.5093448"><ele>390.0</ele><time>2026-05-03T09:43:52.342Z</time></trkpt><trkpt lat="43.1872797" lon="12.5091561"><ele>387.25</ele><time>2026-05-03T09:43:53.342Z</time></trkpt><trkpt lat="43.1872836" lon="12.5089731"><ele>384.5</ele><time>2026-05-03T09:43:54.342Z</time></trkpt><trkpt lat="43.1872561" lon="12.5087653"><ele>381.75</ele><time>2026-05-03T09:43:55.342Z</time></trkpt><trkpt lat="43.187215" lon="12.5085507"><ele>379.0</ele><time>2026-05-03T09:43:56.342Z</time></trkpt><trkpt lat="43.1871598" lon="12.508331"><ele>378.66666666666663</ele><time>2026-05-03T09:43:57.342Z</time></trkpt><trkpt lat="43.1871045" lon="12.5081167"><ele>378.3333333333333</ele><time>2026-05-03T09:43:58.342Z</time></trkpt><trkpt lat="43.1870557" lon="12.5078886"><ele>378.0</ele><time>2026-05-03T09:43:59.343Z</time></trkpt><trkpt lat="43.1870029" lon="12.5076604"><ele>377.6666666666667</ele><time>2026-05-03T09:44:00.343Z</time></trkpt><trkpt lat="43.1869504" lon="12.5074184"><ele>377.33333333333337</ele><time>2026-05-03T09:44:01.342Z</time></trkpt><trkpt lat="43.1869024" lon="12.5071743"><ele>377.0</ele><time>2026-05-03T09:44:02.342Z</time></trkpt><trkpt lat="43.1868564" lon="12.506914"><ele>376.33333333333337</ele><time>2026-05-03T09:44:03.342Z</time></trkpt><trkpt lat="43.1868136" lon="12.5066528"><ele>375.6666666666667</ele><time>2026-05-03T09:44:04.342Z</time></trkpt><trkpt lat="43.1867753" lon="12.5063892"><ele>375.0</ele><time>2026-05-03T09:44:05.342Z</time></trkpt><trkpt lat="43.1867343" lon="12.506116"><ele>374.3333333333333</ele><time>2026-05-03T09:44:06.343Z</time></trkpt><trkpt lat="43.1867007" lon="12.5058331"><ele>373.66666666666663</ele><time>2026-05-03T09:44:07.342Z</time></trkpt><trkpt lat="43.1866669" lon="12.5055521"><ele>373.0</ele><time>2026-05-03T09:44:08.343Z</time></trkpt><trkpt lat="43.186628" lon="12.505274"><ele>371.3333333333333</ele><time>2026-05-03T09:44:09.342Z</time></trkpt><trkpt lat="43.1865902" lon="12.5050015"><ele>369.6666666666667</ele><time>2026-05-03T09:44:10.342Z</time></trkpt><trkpt lat="43.1865564" lon="12.5047363"><ele>368.0</ele><time>2026-05-03T09:44:11.342Z</time></trkpt><trkpt lat="43.1865324" lon="12.5044726"><ele>368.6666666666667</ele><time>2026-05-03T09:44:12.342Z</time></trkpt><trkpt lat="43.186502" lon="12.5042177"><ele>369.3333333333333</ele><time>2026-05-03T09:44:13.342Z</time></trkpt><trkpt lat="43.1864687" lon="12.503968"><ele>370.0</ele><time>2026-05-03T09:44:14.342Z</time></trkpt><trkpt lat="43.1864374" lon="12.5037216"><ele>367.66666666666663</ele><time>2026-05-03T09:44:15.342Z</time></trkpt><trkpt lat="43.1864009" lon="12.5034886"><ele>365.3333333333333</ele><time>2026-05-03T09:44:16.342Z</time></trkpt><trkpt lat="43.1863637" lon="12.5032633"><ele>363.0</ele><time>2026-05-03T09:44:17.342Z</time></trkpt><trkpt lat="43.1863134" lon="12.503057"><ele>361.25</ele><time>2026-05-03T09:44:18.342Z</time></trkpt><trkpt lat="43.1862284" lon="12.5028833"><ele>359.5</ele><time>2026-05-03T09:44:19.342Z</time></trkpt><trkpt lat="43.1861285" lon="12.5027556"><ele>357.75</ele><time>2026-05-03T09:44:20.342Z</time></trkpt><trkpt lat="43.1860143" lon="12.5026432"><ele>356.0</ele><time>2026-05-03T09:44:21.343Z</time></trkpt><trkpt lat="43.1858678" lon="12.5025764"><ele>356.0</ele><time>2026-05-03T09:44:22.343Z</time></trkpt><trkpt lat="43.1857211" lon="12.5025368"><ele>356.0</ele><time>2026-05-03T09:44:23.342Z</time></trkpt><trkpt lat="43.1855678" lon="12.5025166"><ele>356.0</ele><time>2026-05-03T09:44:24.342Z</time></trkpt><trkpt lat="43.185408" lon="12.5025036"><ele>354.0</ele><time>2026-05-03T09:44:25.343Z</time></trkpt><trkpt lat="43.1852448" lon="12.502484"><ele>352.0</ele><time>2026-05-03T09:44:26.342Z</time></trkpt><trkpt lat="43.1850728" lon="12.5024622"><ele>350.0</ele><time>2026-05-03T09:44:27.342Z</time></trkpt><trkpt lat="43.1848946" lon="12.5024433"><ele>348.6666666666667</ele><time>2026-05-03T09:44:28.342Z</time></trkpt><trkpt lat="43.1847137" lon="12.5024232"><ele>347.3333333333333</ele><time>2026-05-03T09:44:29.343Z</time></trkpt><trkpt lat="43.1845335" lon="12.5024106"><ele>346.0</ele><time>2026-05-03T09:44:30.343Z</time></trkpt><trkpt lat="43.1843475" lon="12.5023954"><ele>346.0</ele><time>2026-05-03T09:44:31.342Z</time></trkpt><trkpt lat="43.1841613" lon="12.5023819"><ele>346.0</ele><time>2026-05-03T09:44:32.342Z</time></trkpt><trkpt lat="43.1839809" lon="12.5023606"><ele>346.0</ele><time>2026-05-03T09:44:33.343Z</time></trkpt><trkpt lat="43.1838022" lon="12.5023377"><ele>342.3333333333333</ele><time>2026-05-03T09:44:34.343Z</time></trkpt><trkpt lat="43.1836246" lon="12.5023276"><ele>338.6666666666667</ele><time>2026-05-03T09:44:35.342Z</time></trkpt><trkpt lat="43.1834565" lon="12.5023056"><ele>335.0</ele><time>2026-05-03T09:44:36.343Z</time></trkpt><trkpt lat="43.1832881" lon="12.5022895"><ele>332.6666666666667</ele><time>2026-05-03T09:44:37.342Z</time></trkpt><trkpt lat="43.1831266" lon="12.5022719"><ele>330.3333333333333</ele><time>2026-05-03T09:44:38.343Z</time></trkpt><trkpt lat="43.1829603" lon="12.5022554"><ele>328.0</ele><time>2026-05-03T09:44:39.342Z</time></trkpt><trkpt lat="43.1828034" lon="12.5022424"><ele>328.0</ele><time>2026-05-03T09:44:40.342Z</time></trkpt><trkpt lat="43.1826407" lon="12.502227"><ele>328.0</ele><time>2026-05-03T09:44:41.342Z</time></trkpt><trkpt lat="43.1824802" lon="12.5022044"><ele>328.0</ele><time>2026-05-03T09:44:42.342Z</time></trkpt><trkpt lat="43.1823231" lon="12.5021936"><ele>325.3333333333333</ele><time>2026-05-03T09:44:43.343Z</time></trkpt><trkpt lat="43.1821633" lon="12.5021721"><ele>322.6666666666667</ele><time>2026-05-03T09:44:44.343Z</time></trkpt><trkpt lat="43.1819978" lon="12.5021808"><ele>320.0</ele><time>2026-05-03T09:44:45.342Z</time></trkpt><trkpt lat="43.181834" lon="12.5022084"><ele>320.0</ele><time>2026-05-03T09:44:46.342Z</time></trkpt><trkpt lat="43.1816677" lon="12.502267"><ele>320.0</ele><time>2026-05-03T09:44:47.342Z</time></trkpt><trkpt lat="43.1815078" lon="12.5023439"><ele>320.0</ele><time>2026-05-03T09:44:48.343Z</time></trkpt><trkpt lat="43.1813414" lon="12.5024266"><ele>318.0</ele><time>2026-05-03T09:44:49.342Z</time></trkpt><trkpt lat="43.1811735" lon="12.5025151"><ele>316.0</ele><time>2026-05-03T09:44:50.342Z</time></trkpt><trkpt lat="43.181001" lon="12.5025993"><ele>314.0</ele><time>2026-05-03T09:44:51.342Z</time></trkpt><trkpt lat="43.1808295" lon="12.5026829"><ele>311.0</ele><time>2026-05-03T09:44:52.342Z</time></trkpt><trkpt lat="43.1806598" lon="12.502767"><ele>308.0</ele><time>2026-05-03T09:44:53.342Z</time></trkpt><trkpt lat="43.180491" lon="12.5028516"><ele>305.0</ele><time>2026-05-03T09:44:54.342Z</time></trkpt><trkpt lat="43.1803314" lon="12.5029438"><ele>305.0</ele><time>2026-05-03T09:44:55.342Z</time></trkpt><trkpt lat="43.1801773" lon="12.5030447"><ele>305.0</ele><time>2026-05-03T09:44:56.342Z</time></trkpt><trkpt lat="43.180031" lon="12.5031729"><ele>305.0</ele><time>2026-05-03T09:44:57.342Z</time></trkpt><trkpt lat="43.1798954" lon="12.5033211"><ele>304.6666666666667</ele><time>2026-05-03T09:44:58.342Z</time></trkpt><trkpt lat="43.1797721" lon="12.5034845"><ele>304.3333333333333</ele><time>2026-05-03T09:44:59.342Z</time></trkpt><trkpt lat="43.1796586" lon="12.5036643"><ele>304.0</ele><time>2026-05-03T09:45:00.342Z</time></trkpt><trkpt lat="43.1795452" lon="12.5038614"><ele>303.3333333333333</ele><time>2026-05-03T09:45:01.342Z</time></trkpt><trkpt lat="43.179436" lon="12.5040492"><ele>302.6666666666667</ele><time>2026-05-03T09:45:02.342Z</time></trkpt><trkpt lat="43.1793352" lon="12.5042436"><ele>302.0</ele><time>2026-05-03T09:45:03.342Z</time></trkpt><trkpt lat="43.1792313" lon="12.5044224"><ele>301.6666666666667</ele><time>2026-05-03T09:45:04.342Z</time></trkpt><trkpt lat="43.1791313" lon="12.5045991"><ele>301.3333333333333</ele><time>2026-05-03T09:45:05.342Z</time></trkpt><trkpt lat="43.1790356" lon="12.5047718"><ele>301.0</ele><time>2026-05-03T09:45:06.342Z</time></trkpt><trkpt lat="43.1789489" lon="12.5049182"><ele>301.0</ele><time>2026-05-03T09:45:07.342Z</time></trkpt><trkpt lat="43.1788713" lon="12.5050658"><ele>301.0</ele><time>2026-05-03T09:45:08.342Z</time></trkpt><trkpt lat="43.1788016" lon="12.5051987"><ele>301.0</ele><time>2026-05-03T09:45:09.342Z</time></trkpt><trkpt lat="43.1787396" lon="12.5053405"><ele>301.0</ele><time>2026-05-03T09:45:10.342Z</time></trkpt><trkpt lat="43.1786905" lon="12.5054823"><ele>300.6</ele><time>2026-05-03T09:45:11.342Z</time></trkpt><trkpt lat="43.1786311" lon="12.5056054"><ele>300.20000000000005</ele><time>2026-05-03T09:45:12.342Z</time></trkpt><trkpt lat="43.1785721" lon="12.505722"><ele>299.79999999999995</ele><time>2026-05-03T09:45:13.342Z</time></trkpt><trkpt lat="43.1785054" lon="12.5058286"><ele>299.4</ele><time>2026-05-03T09:45:14.343Z</time></trkpt><trkpt lat="43.1784341" lon="12.5059408"><ele>299.0</ele><time>2026-05-03T09:45:15.342Z</time></trkpt><trkpt lat="43.1783647" lon="12.5060503"><ele>299.0</ele><time>2026-05-03T09:45:16.342Z</time></trkpt><trkpt lat="43.1782956" lon="12.5061537"><ele>299.0</ele><time>2026-05-03T09:45:17.342Z</time></trkpt><trkpt lat="43.1782299" lon="12.5062591"><ele>299.0</ele><time>2026-05-03T09:45:18.342Z</time></trkpt><trkpt lat="43.1781721" lon="12.5063634"><ele>299.0</ele><time>2026-05-03T09:45:19.342Z</time></trkpt><trkpt lat="43.1781148" lon="12.5064672"><ele>299.0</ele><time>2026-05-03T09:45:20.342Z</time></trkpt><trkpt lat="43.1780448" lon="12.5065794"><ele>297.8</ele><time>2026-05-03T09:45:21.342Z</time></trkpt><trkpt lat="43.1779777" lon="12.506684"><ele>296.59999999999997</ele><time>2026-05-03T09:45:22.342Z</time></trkpt><trkpt lat="43.1779126" lon="12.5067947"><ele>295.4</ele><time>2026-05-03T09:45:23.343Z</time></trkpt><trkpt lat="43.1778465" lon="12.5068892"><ele>294.2</ele><time>2026-05-03T09:45:24.342Z</time></trkpt><trkpt lat="43.1777984" lon="12.5069796"><ele>293.0</ele><time>2026-05-03T09:45:25.342Z</time></trkpt><trkpt lat="43.1777094" lon="12.5070674"><ele>292.83333333333337</ele><time>2026-05-03T09:45:27.343Z</time></trkpt><trkpt lat="43.1776176" lon="12.507126"><ele>292.6666666666667</ele><time>2026-05-03T09:45:29.342Z</time></trkpt><trkpt lat="43.1775664" lon="12.5072415"><ele>292.5</ele><time>2026-05-03T09:45:31.342Z</time></trkpt><trkpt lat="43.1775341" lon="12.5073273"><ele>292.3333333333333</ele><time>2026-05-03T09:45:32.342Z</time></trkpt><trkpt lat="43.1775326" lon="12.5074404"><ele>292.16666666666663</ele><time>2026-05-03T09:45:33.342Z</time></trkpt><trkpt lat="43.1774754" lon="12.5075431"><ele>292.0</ele><time>2026-05-03T09:45:34.342Z</time></trkpt><trkpt lat="43.177413" lon="12.5076568"><ele>292.0</ele><time>2026-05-03T09:45:35.342Z</time></trkpt><trkpt lat="43.1773543" lon="12.507768"><ele>292.0</ele><time>2026-05-03T09:45:36.342Z</time></trkpt><trkpt lat="43.177285" lon="12.5078987"><ele>292.0</ele><time>2026-05-03T09:45:37.342Z</time></trkpt><trkpt lat="43.1772086" lon="12.5080383"><ele>292.0</ele><time>2026-05-03T09:45:38.342Z</time></trkpt><trkpt lat="43.1771186" lon="12.5081836"><ele>291.5</ele><time>2026-05-03T09:45:39.342Z</time></trkpt><trkpt lat="43.1770301" lon="12.50834"><ele>291.0</ele><time>2026-05-03T09:45:40.343Z</time></trkpt><trkpt lat="43.1769341" lon="12.5084977"><ele>290.5</ele><time>2026-05-03T09:45:41.342Z</time></trkpt><trkpt lat="43.1768446" lon="12.5086566"><ele>290.0</ele><time>2026-05-03T09:45:42.342Z</time></trkpt><trkpt lat="43.1767576" lon="12.5088197"><ele>290.0</ele><time>2026-05-03T09:45:43.342Z</time></trkpt><trkpt lat="43.1766716" lon="12.5089772"><ele>290.0</ele><time>2026-05-03T09:45:44.342Z</time></trkpt><trkpt lat="43.1765856" lon="12.5091398"><ele>290.0</ele><time>2026-05-03T09:45:45.342Z</time></trkpt><trkpt lat="43.1764909" lon="12.5093031"><ele>290.0</ele><time>2026-05-03T09:45:46.342Z</time></trkpt><trkpt lat="43.1763966" lon="12.5094726"><ele>289.6666666666667</ele><time>2026-05-03T09:45:47.343Z</time></trkpt><trkpt lat="43.1762988" lon="12.5096486"><ele>289.3333333333333</ele><time>2026-05-03T09:45:48.342Z</time></trkpt><trkpt lat="43.1761941" lon="12.5098376"><ele>289.0</ele><time>2026-05-03T09:45:49.342Z</time></trkpt><trkpt lat="43.1760888" lon="12.5100276"><ele>289.0</ele><time>2026-05-03T09:45:50.342Z</time></trkpt><trkpt lat="43.1759829" lon="12.5102201"><ele>289.0</ele><time>2026-05-03T09:45:51.343Z</time></trkpt><trkpt lat="43.1758722" lon="12.5104116"><ele>289.0</ele><time>2026-05-03T09:45:52.343Z</time></trkpt><trkpt lat="43.1757646" lon="12.5105946"><ele>288.66666666666663</ele><time>2026-05-03T09:45:53.342Z</time></trkpt><trkpt lat="43.1756541" lon="12.5107873"><ele>288.3333333333333</ele><time>2026-05-03T09:45:54.342Z</time></trkpt><trkpt lat="43.1755498" lon="12.5109755"><ele>288.0</ele><time>2026-05-03T09:45:55.342Z</time></trkpt><trkpt lat="43.1754377" lon="12.5111714"><ele>288.0</ele><time>2026-05-03T09:45:56.342Z</time></trkpt><trkpt lat="43.1753272" lon="12.5113651"><ele>288.0</ele><time>2026-05-03T09:45:57.342Z</time></trkpt><trkpt lat="43.1752066" lon="12.511572"><ele>288.0</ele><time>2026-05-03T09:45:58.343Z</time></trkpt><trkpt lat="43.1750906" lon="12.5117716"><ele>288.0</ele><time>2026-05-03T09:45:59.343Z</time></trkpt><trkpt lat="43.1749845" lon="12.5119661"><ele>288.0</ele><time>2026-05-03T09:46:00.342Z</time></trkpt><trkpt lat="43.174874" lon="12.512168"><ele>288.0</ele><time>2026-05-03T09:46:01.342Z</time></trkpt><trkpt lat="43.1747598" lon="12.5123708"><ele>287.6666666666667</ele><time>2026-05-03T09:46:02.343Z</time></trkpt><trkpt lat="43.1746433" lon="12.5125821"><ele>287.33333333333337</ele><time>2026-05-03T09:46:03.342Z</time></trkpt><trkpt lat="43.1745261" lon="12.5127851"><ele>287.0</ele><time>2026-05-03T09:46:04.342Z</time></trkpt><trkpt lat="43.1744087" lon="12.5129887"><ele>288.0</ele><time>2026-05-03T09:46:05.342Z</time></trkpt><trkpt lat="43.1742951" lon="12.5131948"><ele>289.0</ele><time>2026-05-03T09:46:06.343Z</time></trkpt><trkpt lat="43.1741729" lon="12.5133888"><ele>290.0</ele><time>2026-05-03T09:46:07.343Z</time></trkpt><trkpt lat="43.1740474" lon="12.5135742"><ele>289.6666666666667</ele><time>2026-05-03T09:46:08.342Z</time></trkpt><trkpt lat="43.1739129" lon="12.5137524"><ele>289.3333333333333</ele><time>2026-05-03T09:46:09.342Z</time></trkpt><trkpt lat="43.1737779" lon="12.5139112"><ele>289.0</ele><time>2026-05-03T09:46:10.342Z</time></trkpt><trkpt lat="43.173643" lon="12.5140705"><ele>289.0</ele><time>2026-05-03T09:46:11.343Z</time></trkpt><trkpt lat="43.1735061" lon="12.5142017"><ele>289.0</ele><time>2026-05-03T09:46:12.342Z</time></trkpt><trkpt lat="43.1733435" lon="12.5143421"><ele>289.0</ele><time>2026-05-03T09:46:13.342Z</time></trkpt><trkpt lat="43.1731771" lon="12.5144756"><ele>289.3333333333333</ele><time>2026-05-03T09:46:14.342Z</time></trkpt><trkpt lat="43.1730095" lon="12.5146193"><ele>289.6666666666667</ele><time>2026-05-03T09:46:15.342Z</time></trkpt><trkpt lat="43.172836" lon="12.514764"><ele>290.0</ele><time>2026-05-03T09:46:16.342Z</time></trkpt><trkpt lat="43.1726637" lon="12.514911"><ele>290.0</ele><time>2026-05-03T09:46:17.342Z</time></trkpt><trkpt lat="43.1724889" lon="12.5150527"><ele>290.0</ele><time>2026-05-03T09:46:18.342Z</time></trkpt><trkpt lat="43.1723101" lon="12.5151852"><ele>290.0</ele><time>2026-05-03T09:46:19.343Z</time></trkpt><trkpt lat="43.1721253" lon="12.5153358"><ele>289.0</ele><time>2026-05-03T09:46:20.342Z</time></trkpt><trkpt lat="43.1719403" lon="12.5154925"><ele>288.0</ele><time>2026-05-03T09:46:21.342Z</time></trkpt><trkpt lat="43.1717477" lon="12.5156452"><ele>287.0</ele><time>2026-05-03T09:46:22.342Z</time></trkpt><trkpt lat="43.1715509" lon="12.5157928"><ele>286.5</ele><time>2026-05-03T09:46:23.342Z</time></trkpt><trkpt lat="43.1713589" lon="12.5159493"><ele>286.0</ele><time>2026-05-03T09:46:24.342Z</time></trkpt><trkpt lat="43.1711583" lon="12.5161093"><ele>285.5</ele><time>2026-05-03T09:46:25.342Z</time></trkpt><trkpt lat="43.1709588" lon="12.5162654"><ele>285.0</ele><time>2026-05-03T09:46:26.342Z</time></trkpt><trkpt lat="43.1707567" lon="12.5164254"><ele>285.0</ele><time>2026-05-03T09:46:27.342Z</time></trkpt><trkpt lat="43.1705562" lon="12.5165844"><ele>285.0</ele><time>2026-05-03T09:46:28.342Z</time></trkpt><trkpt lat="43.1703588" lon="12.5167402"><ele>285.0</ele><time>2026-05-03T09:46:29.342Z</time></trkpt><trkpt lat="43.1701622" lon="12.5169"><ele>285.0</ele><time>2026-05-03T09:46:30.342Z</time></trkpt><trkpt lat="43.1699698" lon="12.5170592"><ele>285.3333333333333</ele><time>2026-05-03T09:46:31.342Z</time></trkpt><trkpt lat="43.1697784" lon="12.517213"><ele>285.66666666666663</ele><time>2026-05-03T09:46:32.342Z</time></trkpt><trkpt lat="43.1695871" lon="12.5173664"><ele>286.0</ele><time>2026-05-03T09:46:33.342Z</time></trkpt><trkpt lat="43.1694058" lon="12.5175117"><ele>286.0</ele><time>2026-05-03T09:46:34.342Z</time></trkpt><trkpt lat="43.1692186" lon="12.5176472"><ele>286.0</ele><time>2026-05-03T09:46:35.343Z</time></trkpt><trkpt lat="43.1690322" lon="12.5177917"><ele>286.0</ele><time>2026-05-03T09:46:36.342Z</time></trkpt><trkpt lat="43.1688486" lon="12.5179434"><ele>287.3333333333333</ele><time>2026-05-03T09:46:37.342Z</time></trkpt><trkpt lat="43.1686631" lon="12.5180972"><ele>288.6666666666667</ele><time>2026-05-03T09:46:38.342Z</time></trkpt><trkpt lat="43.1684709" lon="12.5182454"><ele>290.0</ele><time>2026-05-03T09:46:39.343Z</time></trkpt><trkpt lat="43.1682799" lon="12.5184025"><ele>290.0</ele><time>2026-05-03T09:46:40.342Z</time></trkpt><trkpt lat="43.1681145" lon="12.5185375"><ele>290.0</ele><time>2026-05-03T09:46:41.342Z</time></trkpt><trkpt lat="43.1679352" lon="12.5186698"><ele>290.0</ele><time>2026-05-03T09:46:42.343Z</time></trkpt><trkpt lat="43.1677709" lon="12.5188017"><ele>292.0</ele><time>2026-05-03T09:46:43.342Z</time></trkpt><trkpt lat="43.1676101" lon="12.5189306"><ele>294.0</ele><time>2026-05-03T09:46:44.342Z</time></trkpt><trkpt lat="43.1674451" lon="12.5190505"><ele>296.0</ele><time>2026-05-03T09:46:45.342Z</time></trkpt><trkpt lat="43.167282" lon="12.5191348"><ele>297.33333333333337</ele><time>2026-05-03T09:46:46.343Z</time></trkpt><trkpt lat="43.1671139" lon="12.5191955"><ele>298.6666666666667</ele><time>2026-05-03T09:46:47.342Z</time></trkpt><trkpt lat="43.1669476" lon="12.5191466"><ele>300.0</ele><time>2026-05-03T09:46:48.342Z</time></trkpt><trkpt lat="43.166761" lon="12.5190949"><ele>300.0</ele><time>2026-05-03T09:46:49.342Z</time></trkpt><trkpt lat="43.1665874" lon="12.5190234"><ele>300.0</ele><time>2026-05-03T09:46:50.343Z</time></trkpt><trkpt lat="43.1664104" lon="12.5189552"><ele>300.0</ele><time>2026-05-03T09:46:51.342Z</time></trkpt><trkpt lat="43.1662191" lon="12.5188767"><ele>300.0</ele><time>2026-05-03T09:46:52.342Z</time></trkpt><trkpt lat="43.1660303" lon="12.5188071"><ele>300.0</ele><time>2026-05-03T09:46:53.342Z</time></trkpt><trkpt lat="43.1658512" lon="12.518735"><ele>300.0</ele><time>2026-05-03T09:46:54.342Z</time></trkpt><trkpt lat="43.1656892" lon="12.5186614"><ele>300.0</ele><time>2026-05-03T09:46:55.342Z</time></trkpt><trkpt lat="43.1655297" lon="12.5186075"><ele>300.0</ele><time>2026-05-03T09:46:56.342Z</time></trkpt><trkpt lat="43.1653631" lon="12.51857"><ele>300.0</ele><time>2026-05-03T09:46:57.342Z</time></trkpt><trkpt lat="43.1651897" lon="12.5185421"><ele>300.0</ele><time>2026-05-03T09:46:58.342Z</time></trkpt><trkpt lat="43.1650069" lon="12.5185097"><ele>300.0</ele><time>2026-05-03T09:46:59.342Z</time></trkpt><trkpt lat="43.1648136" lon="12.5184693"><ele>300.0</ele><time>2026-05-03T09:47:00.343Z</time></trkpt><trkpt lat="43.1646086" lon="12.5184321"><ele>299.3333333333333</ele><time>2026-05-03T09:47:01.342Z</time></trkpt><trkpt lat="43.164395" lon="12.5183915"><ele>298.66666666666663</ele><time>2026-05-03T09:47:02.342Z</time></trkpt><trkpt lat="43.1641761" lon="12.5183528"><ele>298.0</ele><time>2026-05-03T09:47:03.342Z</time></trkpt><trkpt lat="43.1639616" lon="12.5183127"><ele>297.0</ele><time>2026-05-03T09:47:04.342Z</time></trkpt><trkpt lat="43.1637577" lon="12.5182746"><ele>296.0</ele><time>2026-05-03T09:47:05.342Z</time></trkpt><trkpt lat="43.1635565" lon="12.518236"><ele>295.0</ele><time>2026-05-03T09:47:06.342Z</time></trkpt><trkpt lat="43.1633517" lon="12.5182008"><ele>294.66666666666663</ele><time>2026-05-03T09:47:07.342Z</time></trkpt><trkpt lat="43.1631465" lon="12.5181688"><ele>294.3333333333333</ele><time>2026-05-03T09:47:08.342Z</time></trkpt><trkpt lat="43.1629506" lon="12.5181294"><ele>294.0</ele><time>2026-05-03T09:47:09.342Z</time></trkpt><trkpt lat="43.1627685" lon="12.5180961"><ele>294.0</ele><time>2026-05-03T09:47:10.343Z</time></trkpt><trkpt lat="43.1625882" lon="12.5180653"><ele>294.0</ele><time>2026-05-03T09:47:11.342Z</time></trkpt><trkpt lat="43.1624055" lon="12.5180307"><ele>294.0</ele><time>2026-05-03T09:47:12.342Z</time></trkpt><trkpt lat="43.1622245" lon="12.517988"><ele>294.0</ele><time>2026-05-03T09:47:13.342Z</time></trkpt><trkpt lat="43.1620454" lon="12.5179393"><ele>294.0</ele><time>2026-05-03T09:47:14.342Z</time></trkpt><trkpt lat="43.1618696" lon="12.5178728"><ele>294.0</ele><time>2026-05-03T09:47:15.342Z</time></trkpt><trkpt lat="43.1616988" lon="12.5177836"><ele>294.0</ele><time>2026-05-03T09:47:16.343Z</time></trkpt><trkpt lat="43.1615338" lon="12.5176768"><ele>294.0</ele><time>2026-05-03T09:47:17.343Z</time></trkpt><trkpt lat="43.1613652" lon="12.5175507"><ele>294.0</ele><time>2026-05-03T09:47:18.342Z</time></trkpt><trkpt lat="43.1611938" lon="12.5174236"><ele>291.6666666666667</ele><time>2026-05-03T09:47:19.342Z</time></trkpt><trkpt lat="43.1610169" lon="12.5172792"><ele>289.33333333333337</ele><time>2026-05-03T09:47:20.342Z</time></trkpt><trkpt lat="43.1608367" lon="12.5171388"><ele>287.0</ele><time>2026-05-03T09:47:21.342Z</time></trkpt><trkpt lat="43.1606614" lon="12.5169933"><ele>286.0</ele><time>2026-05-03T09:47:22.342Z</time></trkpt><trkpt lat="43.1604847" lon="12.5168573"><ele>285.0</ele><time>2026-05-03T09:47:23.342Z</time></trkpt><trkpt lat="43.1603023" lon="12.5167132"><ele>284.0</ele><time>2026-05-03T09:47:24.343Z</time></trkpt><trkpt lat="43.1601235" lon="12.5165748"><ele>284.0</ele><time>2026-05-03T09:47:25.342Z</time></trkpt><trkpt lat="43.159937" lon="12.516425"><ele>284.0</ele><time>2026-05-03T09:47:26.342Z</time></trkpt><trkpt lat="43.1597514" lon="12.516277"><ele>284.0</ele><time>2026-05-03T09:47:27.342Z</time></trkpt><trkpt lat="43.1595677" lon="12.5161288"><ele>283.6666666666667</ele><time>2026-05-03T09:47:28.343Z</time></trkpt><trkpt lat="43.1593826" lon="12.5159864"><ele>283.3333333333333</ele><time>2026-05-03T09:47:29.343Z</time></trkpt><trkpt lat="43.1591987" lon="12.5158444"><ele>283.0</ele><time>2026-05-03T09:47:30.342Z</time></trkpt><trkpt lat="43.1590152" lon="12.5157005"><ele>282.3333333333333</ele><time>2026-05-03T09:47:31.342Z</time></trkpt><trkpt lat="43.1588385" lon="12.5155593"><ele>281.6666666666667</ele><time>2026-05-03T09:47:32.342Z</time></trkpt><trkpt lat="43.1586625" lon="12.5154199"><ele>281.0</ele><time>2026-05-03T09:47:33.342Z</time></trkpt><trkpt lat="43.1584952" lon="12.5152841"><ele>281.0</ele><time>2026-05-03T09:47:34.342Z</time></trkpt><trkpt lat="43.1583352" lon="12.515165"><ele>281.0</ele><time>2026-05-03T09:47:35.342Z</time></trkpt><trkpt lat="43.1581798" lon="12.5150421"><ele>281.0</ele><time>2026-05-03T09:47:36.342Z</time></trkpt><trkpt lat="43.1580307" lon="12.5149317"><ele>280.0</ele><time>2026-05-03T09:47:37.342Z</time></trkpt><trkpt lat="43.1578881" lon="12.5148212"><ele>279.0</ele><time>2026-05-03T09:47:38.342Z</time></trkpt><trkpt lat="43.1577497" lon="12.5147047"><ele>278.0</ele><time>2026-05-03T09:47:39.343Z</time></trkpt><trkpt lat="43.1576128" lon="12.5146045"><ele>278.5</ele><time>2026-05-03T09:47:40.342Z</time></trkpt><trkpt lat="43.1574868" lon="12.5145093"><ele>279.0</ele><time>2026-05-03T09:47:41.342Z</time></trkpt><trkpt lat="43.1573712" lon="12.5144094"><ele>279.5</ele><time>2026-05-03T09:47:42.343Z</time></trkpt><trkpt lat="43.1572546" lon="12.5143076"><ele>280.0</ele><time>2026-05-03T09:47:43.342Z</time></trkpt><trkpt lat="43.1571533" lon="12.514205"><ele>279.0</ele><time>2026-05-03T09:47:44.342Z</time></trkpt><trkpt lat="43.1570556" lon="12.5141117"><ele>278.0</ele><time>2026-05-03T09:47:45.342Z</time></trkpt><trkpt lat="43.1569578" lon="12.5140201"><ele>277.0</ele><time>2026-05-03T09:47:46.343Z</time></trkpt><trkpt lat="43.1568625" lon="12.5139344"><ele>276.0</ele><time>2026-05-03T09:47:47.343Z</time></trkpt><trkpt lat="43.1567607" lon="12.5138453"><ele>276.0</ele><time>2026-05-03T09:47:48.342Z</time></trkpt><trkpt lat="43.1566486" lon="12.5137713"><ele>276.0</ele><time>2026-05-03T09:47:49.342Z</time></trkpt><trkpt lat="43.156535" lon="12.5137225"><ele>276.0</ele><time>2026-05-03T09:47:50.343Z</time></trkpt><trkpt lat="43.15642" lon="12.513702"><ele>276.0</ele><time>2026-05-03T09:47:51.342Z</time></trkpt><trkpt lat="43.1563032" lon="12.5136958"><ele>276.25</ele><time>2026-05-03T09:47:52.342Z</time></trkpt><trkpt lat="43.1561812" lon="12.5136905"><ele>276.5</ele><time>2026-05-03T09:47:53.343Z</time></trkpt><trkpt lat="43.1560525" lon="12.5136954"><ele>276.75</ele><time>2026-05-03T09:47:54.342Z</time></trkpt><trkpt lat="43.1559317" lon="12.513701"><ele>277.0</ele><time>2026-05-03T09:47:55.342Z</time></trkpt><trkpt lat="43.155829" lon="12.5136441"><ele>277.0</ele><time>2026-05-03T09:47:56.342Z</time></trkpt><trkpt lat="43.1557267" lon="12.513606"><ele>277.0</ele><time>2026-05-03T09:47:57.342Z</time></trkpt><trkpt lat="43.1556461" lon="12.5134868"><ele>277.0</ele><time>2026-05-03T09:47:58.342Z</time></trkpt><trkpt lat="43.1555584" lon="12.513389"><ele>277.0</ele><time>2026-05-03T09:47:59.342Z</time></trkpt><trkpt lat="43.1554833" lon="12.5132556"><ele>276.25</ele><time>2026-05-03T09:48:00.342Z</time></trkpt><trkpt lat="43.1553964" lon="12.5131208"><ele>275.5</ele><time>2026-05-03T09:48:01.343Z</time></trkpt><trkpt lat="43.1553146" lon="12.5129682"><ele>274.75</ele><time>2026-05-03T09:48:02.342Z</time></trkpt><trkpt lat="43.1552207" lon="12.5128222"><ele>274.0</ele><time>2026-05-03T09:48:03.342Z</time></trkpt><trkpt lat="43.1551163" lon="12.5126884"><ele>273.75</ele><time>2026-05-03T09:48:04.342Z</time></trkpt><trkpt lat="43.1550059" lon="12.512561"><ele>273.5</ele><time>2026-05-03T09:48:05.342Z</time></trkpt><trkpt lat="43.1548835" lon="12.5124528"><ele>273.25</ele><time>2026-05-03T09:48:06.342Z</time></trkpt><trkpt lat="43.1547446" lon="12.5123665"><ele>273.0</ele><time>2026-05-03T09:48:07.343Z</time></trkpt><trkpt lat="43.1546049" lon="12.5123026"><ele>271.6666666666667</ele><time>2026-05-03T09:48:08.342Z</time></trkpt><trkpt lat="43.1544578" lon="12.512257"><ele>270.33333333333337</ele><time>2026-05-03T09:48:09.342Z</time></trkpt><trkpt lat="43.1543073" lon="12.5122227"><ele>269.0</ele><time>2026-05-03T09:48:10.342Z</time></trkpt><trkpt lat="43.1541508" lon="12.5121905"><ele>268.6666666666667</ele><time>2026-05-03T09:48:11.342Z</time></trkpt><trkpt lat="43.1539958" lon="12.5121526"><ele>268.3333333333333</ele><time>2026-05-03T09:48:12.342Z</time></trkpt><trkpt lat="43.15384" lon="12.5121143"><ele>268.0</ele><time>2026-05-03T09:48:13.342Z</time></trkpt><trkpt lat="43.1536845" lon="12.5120783"><ele>267.3333333333333</ele><time>2026-05-03T09:48:14.343Z</time></trkpt><trkpt lat="43.1535224" lon="12.5120377"><ele>266.6666666666667</ele><time>2026-05-03T09:48:15.342Z</time></trkpt><trkpt lat="43.1533577" lon="12.5120034"><ele>266.0</ele><time>2026-05-03T09:48:16.342Z</time></trkpt><trkpt lat="43.15319" lon="12.5119745"><ele>265.33333333333337</ele><time>2026-05-03T09:48:17.342Z</time></trkpt><trkpt lat="43.1530221" lon="12.5119462"><ele>264.6666666666667</ele><time>2026-05-03T09:48:18.342Z</time></trkpt><trkpt lat="43.1528546" lon="12.5119169"><ele>264.0</ele><time>2026-05-03T09:48:19.342Z</time></trkpt><trkpt lat="43.1526867" lon="12.5118799"><ele>264.0</ele><time>2026-05-03T09:48:20.342Z</time></trkpt><trkpt lat="43.152514" lon="12.5118515"><ele>264.0</ele><time>2026-05-03T09:48:21.342Z</time></trkpt><trkpt lat="43.1523372" lon="12.5118098"><ele>264.0</ele><time>2026-05-03T09:48:22.343Z</time></trkpt><trkpt lat="43.1521575" lon="12.511776"><ele>263.0</ele><time>2026-05-03T09:48:23.343Z</time></trkpt><trkpt lat="43.151978" lon="12.5117453"><ele>262.0</ele><time>2026-05-03T09:48:24.343Z</time></trkpt><trkpt lat="43.1517971" lon="12.5117035"><ele>261.0</ele><time>2026-05-03T09:48:25.342Z</time></trkpt><trkpt lat="43.1516261" lon="12.5116466"><ele>261.0</ele><time>2026-05-03T09:48:26.342Z</time></trkpt><trkpt lat="43.1514483" lon="12.5116084"><ele>261.0</ele><time>2026-05-03T09:48:27.342Z</time></trkpt><trkpt lat="43.1512616" lon="12.511559"><ele>261.0</ele><time>2026-05-03T09:48:28.342Z</time></trkpt><trkpt lat="43.1510762" lon="12.5115078"><ele>261.0</ele><time>2026-05-03T09:48:29.342Z</time></trkpt><trkpt lat="43.1508947" lon="12.5114523"><ele>261.0</ele><time>2026-05-03T09:48:30.343Z</time></trkpt><trkpt lat="43.1507076" lon="12.5113937"><ele>261.0</ele><time>2026-05-03T09:48:31.342Z</time></trkpt><trkpt lat="43.1505225" lon="12.5113365"><ele>261.6666666666667</ele><time>2026-05-03T09:48:32.342Z</time></trkpt><trkpt lat="43.1503467" lon="12.5112704"><ele>262.33333333333337</ele><time>2026-05-03T09:48:33.342Z</time></trkpt><trkpt lat="43.1501706" lon="12.5112098"><ele>263.0</ele><time>2026-05-03T09:48:34.342Z</time></trkpt><trkpt lat="43.1499963" lon="12.5111527"><ele>260.33333333333337</ele><time>2026-05-03T09:48:35.342Z</time></trkpt><trkpt lat="43.1498283" lon="12.5111011"><ele>257.6666666666667</ele><time>2026-05-03T09:48:36.342Z</time></trkpt><trkpt lat="43.1496665" lon="12.5110462"><ele>255.0</ele><time>2026-05-03T09:48:37.342Z</time></trkpt><trkpt lat="43.1495034" lon="12.5110192"><ele>255.0</ele><time>2026-05-03T09:48:38.342Z</time></trkpt><trkpt lat="43.1493378" lon="12.5110271"><ele>255.0</ele><time>2026-05-03T09:48:39.342Z</time></trkpt><trkpt lat="43.1491747" lon="12.5110437"><ele>255.0</ele><time>2026-05-03T09:48:40.342Z</time></trkpt><trkpt lat="43.1490129" lon="12.5110855"><ele>254.33333333333331</ele><time>2026-05-03T09:48:41.342Z</time></trkpt><trkpt lat="43.1488349" lon="12.5111106"><ele>253.66666666666666</ele><time>2026-05-03T09:48:42.342Z</time></trkpt><trkpt lat="43.148659" lon="12.5111445"><ele>253.0</ele><time>2026-05-03T09:48:43.342Z</time></trkpt><trkpt lat="43.1484885" lon="12.5111716"><ele>253.0</ele><time>2026-05-03T09:48:44.342Z</time></trkpt><trkpt lat="43.1483134" lon="12.5111797"><ele>253.0</ele><time>2026-05-03T09:48:45.343Z</time></trkpt><trkpt lat="43.1481347" lon="12.511175"><ele>253.0</ele><time>2026-05-03T09:48:46.342Z</time></trkpt><trkpt lat="43.1479579" lon="12.5111498"><ele>255.0</ele><time>2026-05-03T09:48:47.342Z</time></trkpt><trkpt lat="43.1477888" lon="12.5111139"><ele>257.0</ele><time>2026-05-03T09:48:48.342Z</time></trkpt><trkpt lat="43.1476169" lon="12.5110646"><ele>259.0</ele><time>2026-05-03T09:48:49.342Z</time></trkpt><trkpt lat="43.147451" lon="12.5110048"><ele>260.3333333333333</ele><time>2026-05-03T09:48:50.342Z</time></trkpt><trkpt lat="43.1472752" lon="12.5109458"><ele>261.6666666666667</ele><time>2026-05-03T09:48:51.342Z</time></trkpt><trkpt lat="43.1471076" lon="12.5108788"><ele>263.0</ele><time>2026-05-03T09:48:52.342Z</time></trkpt><trkpt lat="43.1469335" lon="12.5108198"><ele>263.0</ele><time>2026-05-03T09:48:53.342Z</time></trkpt><trkpt lat="43.1467618" lon="12.5107688"><ele>263.0</ele><time>2026-05-03T09:48:54.342Z</time></trkpt><trkpt lat="43.1465908" lon="12.5107062"><ele>263.0</ele><time>2026-05-03T09:48:55.343Z</time></trkpt><trkpt lat="43.1464265" lon="12.5106506"><ele>263.33333333333337</ele><time>2026-05-03T09:48:56.342Z</time></trkpt><trkpt lat="43.1462595" lon="12.510588"><ele>263.6666666666667</ele><time>2026-05-03T09:48:57.343Z</time></trkpt><trkpt lat="43.1460985" lon="12.5105312"><ele>264.0</ele><time>2026-05-03T09:48:58.342Z</time></trkpt><trkpt lat="43.1459423" lon="12.5104733"><ele>264.0</ele><time>2026-05-03T09:48:59.342Z</time></trkpt><trkpt lat="43.1457957" lon="12.5104202"><ele>264.0</ele><time>2026-05-03T09:49:00.342Z</time></trkpt><trkpt lat="43.1456481" lon="12.5103771"><ele>264.0</ele><time>2026-05-03T09:49:01.342Z</time></trkpt><trkpt lat="43.1455056" lon="12.5103326"><ele>264.0</ele><time>2026-05-03T09:49:02.342Z</time></trkpt><trkpt lat="43.1453527" lon="12.5102734"><ele>264.0</ele><time>2026-05-03T09:49:03.342Z</time></trkpt><trkpt lat="43.1451948" lon="12.5102151"><ele>264.0</ele><time>2026-05-03T09:49:04.343Z</time></trkpt><trkpt lat="43.1450341" lon="12.5101581"><ele>264.0</ele><time>2026-05-03T09:49:05.342Z</time></trkpt><trkpt lat="43.1448712" lon="12.5101049"><ele>261.3333333333333</ele><time>2026-05-03T09:49:06.342Z</time></trkpt><trkpt lat="43.1447027" lon="12.5100452"><ele>258.66666666666663</ele><time>2026-05-03T09:49:07.342Z</time></trkpt><trkpt lat="43.1445335" lon="12.5099908"><ele>256.0</ele><time>2026-05-03T09:49:08.342Z</time></trkpt><trkpt lat="43.1443658" lon="12.5099337"><ele>256.0</ele><time>2026-05-03T09:49:09.342Z</time></trkpt><trkpt lat="43.1442034" lon="12.5098809"><ele>256.0</ele><time>2026-05-03T09:49:10.342Z</time></trkpt><trkpt lat="43.1440409" lon="12.5098276"><ele>256.0</ele><time>2026-05-03T09:49:11.342Z</time></trkpt><trkpt lat="43.1438828" lon="12.5097817"><ele>254.33333333333331</ele><time>2026-05-03T09:49:12.342Z</time></trkpt><trkpt lat="43.1437314" lon="12.5097321"><ele>252.66666666666669</ele><time>2026-05-03T09:49:13.342Z</time></trkpt><trkpt lat="43.1435817" lon="12.5096784"><ele>251.0</ele><time>2026-05-03T09:49:14.343Z</time></trkpt><trkpt lat="43.1434289" lon="12.5096208"><ele>251.75</ele><time>2026-05-03T09:49:15.342Z</time></trkpt><trkpt lat="43.143286" lon="12.5095689"><ele>252.5</ele><time>2026-05-03T09:49:16.343Z</time></trkpt><trkpt lat="43.1431439" lon="12.5095229"><ele>253.25</ele><time>2026-05-03T09:49:17.342Z</time></trkpt><trkpt lat="43.1430135" lon="12.5094732"><ele>254.0</ele><time>2026-05-03T09:49:18.342Z</time></trkpt><trkpt lat="43.1428721" lon="12.5094301"><ele>252.5</ele><time>2026-05-03T09:49:19.342Z</time></trkpt><trkpt lat="43.1427325" lon="12.5093865"><ele>251.0</ele><time>2026-05-03T09:49:20.342Z</time></trkpt><trkpt lat="43.1425955" lon="12.5093378"><ele>249.5</ele><time>2026-05-03T09:49:21.342Z</time></trkpt><trkpt lat="43.1424642" lon="12.509291"><ele>248.0</ele><time>2026-05-03T09:49:22.342Z</time></trkpt><trkpt lat="43.1423336" lon="12.5092427"><ele>246.75</ele><time>2026-05-03T09:49:23.342Z</time></trkpt><trkpt lat="43.1422156" lon="12.5092039"><ele>245.5</ele><time>2026-05-03T09:49:24.342Z</time></trkpt><trkpt lat="43.1421024" lon="12.5091776"><ele>244.25</ele><time>2026-05-03T09:49:25.342Z</time></trkpt><trkpt lat="43.1419898" lon="12.509157"><ele>243.0</ele><time>2026-05-03T09:49:26.342Z</time></trkpt><trkpt lat="43.1418675" lon="12.5091739"><ele>243.0</ele><time>2026-05-03T09:49:27.342Z</time></trkpt><trkpt lat="43.1417666" lon="12.509237"><ele>243.0</ele><time>2026-05-03T09:49:28.342Z</time></trkpt><trkpt lat="43.1416729" lon="12.5093588"><ele>243.0</ele><time>2026-05-03T09:49:29.342Z</time></trkpt><trkpt lat="43.1415953" lon="12.5095138"><ele>243.0</ele><time>2026-05-03T09:49:30.342Z</time></trkpt><trkpt lat="43.1415158" lon="12.5096749"><ele>243.66666666666669</ele><time>2026-05-03T09:49:31.342Z</time></trkpt><trkpt lat="43.1414359" lon="12.5098536"><ele>244.33333333333334</ele><time>2026-05-03T09:49:32.342Z</time></trkpt><trkpt lat="43.1413487" lon="12.510045"><ele>245.0</ele><time>2026-05-03T09:49:33.342Z</time></trkpt><trkpt lat="43.1412588" lon="12.510245"><ele>245.66666666666669</ele><time>2026-05-03T09:49:34.342Z</time></trkpt><trkpt lat="43.1411696" lon="12.5104461"><ele>246.33333333333331</ele><time>2026-05-03T09:49:35.342Z</time></trkpt><trkpt lat="43.1410771" lon="12.5106336"><ele>247.0</ele><time>2026-05-03T09:49:36.342Z</time></trkpt><trkpt lat="43.1409783" lon="12.5108165"><ele>247.0</ele><time>2026-05-03T09:49:37.342Z</time></trkpt><trkpt lat="43.1408727" lon="12.5109807"><ele>247.0</ele><time>2026-05-03T09:49:38.342Z</time></trkpt><trkpt lat="43.1407649" lon="12.5111459"><ele>247.0</ele><time>2026-05-03T09:49:39.342Z</time></trkpt><trkpt lat="43.1406523" lon="12.5113058"><ele>247.66666666666666</ele><time>2026-05-03T09:49:40.342Z</time></trkpt><trkpt lat="43.1405392" lon="12.5114669"><ele>248.33333333333331</ele><time>2026-05-03T09:49:41.343Z</time></trkpt><trkpt lat="43.1404256" lon="12.5116277"><ele>249.0</ele><time>2026-05-03T09:49:42.342Z</time></trkpt><trkpt lat="43.1403095" lon="12.511792"><ele>249.0</ele><time>2026-05-03T09:49:43.343Z</time></trkpt><trkpt lat="43.1401927" lon="12.5119532"><ele>249.0</ele><time>2026-05-03T09:49:44.343Z</time></trkpt><trkpt lat="43.1400735" lon="12.5121231"><ele>249.0</ele><time>2026-05-03T09:49:45.342Z</time></trkpt><trkpt lat="43.1399487" lon="12.5122806"><ele>249.0</ele><time>2026-05-03T09:49:46.342Z</time></trkpt><trkpt lat="43.1398269" lon="12.5124407"><ele>249.0</ele><time>2026-05-03T09:49:47.342Z</time></trkpt><trkpt lat="43.1397021" lon="12.5125987"><ele>249.0</ele><time>2026-05-03T09:49:48.342Z</time></trkpt><trkpt lat="43.1395775" lon="12.5127504"><ele>249.66666666666669</ele><time>2026-05-03T09:49:49.343Z</time></trkpt><trkpt lat="43.1394524" lon="12.5129073"><ele>250.33333333333334</ele><time>2026-05-03T09:49:50.342Z</time></trkpt><trkpt lat="43.1393337" lon="12.513061"><ele>251.0</ele><time>2026-05-03T09:49:51.342Z</time></trkpt><trkpt lat="43.1392132" lon="12.5132081"><ele>251.0</ele><time>2026-05-03T09:49:52.342Z</time></trkpt><trkpt lat="43.1391034" lon="12.5133587"><ele>251.0</ele><time>2026-05-03T09:49:53.342Z</time></trkpt><trkpt lat="43.1389882" lon="12.5135023"><ele>251.0</ele><time>2026-05-03T09:49:54.342Z</time></trkpt><trkpt lat="43.1388714" lon="12.5136403"><ele>251.66666666666669</ele><time>2026-05-03T09:49:55.343Z</time></trkpt><trkpt lat="43.1387647" lon="12.5137888"><ele>252.33333333333331</ele><time>2026-05-03T09:49:56.342Z</time></trkpt><trkpt lat="43.1386584" lon="12.5139339"><ele>253.0</ele><time>2026-05-03T09:49:57.342Z</time></trkpt><trkpt lat="43.1385558" lon="12.5140863"><ele>253.0</ele><time>2026-05-03T09:49:58.342Z</time></trkpt><trkpt lat="43.1384557" lon="12.5142366"><ele>253.0</ele><time>2026-05-03T09:49:59.342Z</time></trkpt><trkpt lat="43.138363" lon="12.5143974"><ele>253.0</ele><time>2026-05-03T09:50:00.342Z</time></trkpt><trkpt lat="43.138266" lon="12.5145556"><ele>253.0</ele><time>2026-05-03T09:50:01.342Z</time></trkpt><trkpt lat="43.1381668" lon="12.5147109"><ele>254.66666666666666</ele><time>2026-05-03T09:50:02.342Z</time></trkpt><trkpt lat="43.1380638" lon="12.5148655"><ele>256.3333333333333</ele><time>2026-05-03T09:50:03.342Z</time></trkpt><trkpt lat="43.137956" lon="12.5150135"><ele>258.0</ele><time>2026-05-03T09:50:04.342Z</time></trkpt><trkpt lat="43.1378342" lon="12.5151451"><ele>258.0</ele><time>2026-05-03T09:50:05.342Z</time></trkpt><trkpt lat="43.137716" lon="12.515276"><ele>258.0</ele><time>2026-05-03T09:50:06.342Z</time></trkpt><trkpt lat="43.1375875" lon="12.5153934"><ele>258.0</ele><time>2026-05-03T09:50:07.342Z</time></trkpt><trkpt lat="43.1374552" lon="12.5155002"><ele>258.6666666666667</ele><time>2026-05-03T09:50:08.342Z</time></trkpt><trkpt lat="43.1373254" lon="12.515603"><ele>259.33333333333337</ele><time>2026-05-03T09:50:09.342Z</time></trkpt><trkpt lat="43.1371924" lon="12.5157126"><ele>260.0</ele><time>2026-05-03T09:50:10.343Z</time></trkpt><trkpt lat="43.1370645" lon="12.5158094"><ele>260.0</ele><time>2026-05-03T09:50:11.342Z</time></trkpt><trkpt lat="43.1369441" lon="12.5159069"><ele>260.0</ele><time>2026-05-03T09:50:12.342Z</time></trkpt><trkpt lat="43.1368371" lon="12.5159982"><ele>260.0</ele><time>2026-05-03T09:50:13.342Z</time></trkpt><trkpt lat="43.1367429" lon="12.516073"><ele>260.0</ele><time>2026-05-03T09:50:14.342Z</time></trkpt><trkpt lat="43.1366673" lon="12.5161218"><ele>260.0</ele><time>2026-05-03T09:50:15.342Z</time></trkpt><trkpt lat="43.1365963" lon="12.516159"><ele>260.0</ele><time>2026-05-03T09:50:16.342Z</time></trkpt><trkpt lat="43.1365314" lon="12.5161452"><ele>260.0</ele><time>2026-05-03T09:50:18.342Z</time></trkpt><trkpt lat="43.1364604" lon="12.5160776"><ele>260.0</ele><time>2026-05-03T09:50:20.342Z</time></trkpt><trkpt lat="43.1363697" lon="12.5159172"><ele>260.0</ele><time>2026-05-03T09:50:22.343Z</time></trkpt><trkpt lat="43.1363142" lon="12.5158219"><ele>260.75</ele><time>2026-05-03T09:50:23.342Z</time></trkpt><trkpt lat="43.1362455" lon="12.515722"><ele>261.5</ele><time>2026-05-03T09:50:24.342Z</time></trkpt><trkpt lat="43.1361796" lon="12.5155953"><ele>262.25</ele><time>2026-05-03T09:50:25.342Z</time></trkpt><trkpt lat="43.1360979" lon="12.5154631"><ele>263.0</ele><time>2026-05-03T09:50:26.342Z</time></trkpt><trkpt lat="43.1359951" lon="12.5153049"><ele>263.0</ele><time>2026-05-03T09:50:27.342Z</time></trkpt><trkpt lat="43.1359" lon="12.5151474"><ele>263.0</ele><time>2026-05-03T09:50:28.342Z</time></trkpt><trkpt lat="43.1358011" lon="12.5149971"><ele>263.0</ele><time>2026-05-03T09:50:29.343Z</time></trkpt><trkpt lat="43.1356903" lon="12.5148628"><ele>263.0</ele><time>2026-05-03T09:50:30.342Z</time></trkpt><trkpt lat="43.1355672" lon="12.5147621"><ele>264.25</ele><time>2026-05-03T09:50:31.342Z</time></trkpt><trkpt lat="43.1354321" lon="12.514691"><ele>265.5</ele><time>2026-05-03T09:50:32.342Z</time></trkpt><trkpt lat="43.1352967" lon="12.5146626"><ele>266.75</ele><time>2026-05-03T09:50:33.342Z</time></trkpt><trkpt lat="43.1351584" lon="12.5146842"><ele>268.0</ele><time>2026-05-03T09:50:34.342Z</time></trkpt><trkpt lat="43.13503" lon="12.5147429"><ele>268.0</ele><time>2026-05-03T09:50:35.342Z</time></trkpt><trkpt lat="43.1349159" lon="12.5148298"><ele>268.0</ele><time>2026-05-03T09:50:36.343Z</time></trkpt><trkpt lat="43.1348172" lon="12.5149518"><ele>268.0</ele><time>2026-05-03T09:50:37.342Z</time></trkpt><trkpt lat="43.1347258" lon="12.5150818"><ele>268.0</ele><time>2026-05-03T09:50:38.342Z</time></trkpt><trkpt lat="43.1346349" lon="12.5152283"><ele>269.66666666666663</ele><time>2026-05-03T09:50:39.342Z</time></trkpt><trkpt lat="43.1345322" lon="12.5153811"><ele>271.3333333333333</ele><time>2026-05-03T09:50:40.342Z</time></trkpt><trkpt lat="43.1344288" lon="12.5155407"><ele>273.0</ele><time>2026-05-03T09:50:41.343Z</time></trkpt><trkpt lat="43.1343311" lon="12.5156975"><ele>273.0</ele><time>2026-05-03T09:50:42.342Z</time></trkpt><trkpt lat="43.1342404" lon="12.5158518"><ele>273.0</ele><time>2026-05-03T09:50:43.342Z</time></trkpt><trkpt lat="43.1341474" lon="12.5160065"><ele>273.0</ele><time>2026-05-03T09:50:44.342Z</time></trkpt><trkpt lat="43.1340626" lon="12.5161464"><ele>273.0</ele><time>2026-05-03T09:50:45.342Z</time></trkpt><trkpt lat="43.1339716" lon="12.5162726"><ele>273.5</ele><time>2026-05-03T09:50:46.342Z</time></trkpt><trkpt lat="43.1338633" lon="12.5163752"><ele>274.0</ele><time>2026-05-03T09:50:47.342Z</time></trkpt><trkpt lat="43.1337414" lon="12.5164444"><ele>274.5</ele><time>2026-05-03T09:50:48.342Z</time></trkpt><trkpt lat="43.1336196" lon="12.5164849"><ele>275.0</ele><time>2026-05-03T09:50:49.342Z</time></trkpt><trkpt lat="43.1334844" lon="12.5165007"><ele>275.0</ele><time>2026-05-03T09:50:50.342Z</time></trkpt><trkpt lat="43.1333425" lon="12.5164989"><ele>275.0</ele><time>2026-05-03T09:50:51.342Z</time></trkpt><trkpt lat="43.1332085" lon="12.5164883"><ele>275.0</ele><time>2026-05-03T09:50:52.342Z</time></trkpt><trkpt lat="43.1330747" lon="12.5164608"><ele>275.0</ele><time>2026-05-03T09:50:53.342Z</time></trkpt><trkpt lat="43.1329344" lon="12.5164085"><ele>275.0</ele><time>2026-05-03T09:50:54.342Z</time></trkpt><trkpt lat="43.1328174" lon="12.5163241"><ele>275.0</ele><time>2026-05-03T09:50:55.342Z</time></trkpt><trkpt lat="43.1326941" lon="12.5162224"><ele>275.0</ele><time>2026-05-03T09:50:56.342Z</time></trkpt><trkpt lat="43.1325934" lon="12.516101"><ele>275.0</ele><time>2026-05-03T09:50:57.342Z</time></trkpt><trkpt lat="43.1324924" lon="12.5159737"><ele>276.5</ele><time>2026-05-03T09:50:58.342Z</time></trkpt><trkpt lat="43.1323918" lon="12.5158411"><ele>278.0</ele><time>2026-05-03T09:50:59.342Z</time></trkpt><trkpt lat="43.1322895" lon="12.5157063"><ele>279.5</ele><time>2026-05-03T09:51:00.342Z</time></trkpt><trkpt lat="43.1321817" lon="12.5155802"><ele>281.0</ele><time>2026-05-03T09:51:01.342Z</time></trkpt><trkpt lat="43.1320686" lon="12.5154632"><ele>285.33333333333337</ele><time>2026-05-03T09:51:02.343Z</time></trkpt><trkpt lat="43.1319397" lon="12.5153592"><ele>289.6666666666667</ele><time>2026-05-03T09:51:03.342Z</time></trkpt><trkpt lat="43.1318136" lon="12.5152539"><ele>294.0</ele><time>2026-05-03T09:51:04.342Z</time></trkpt><trkpt lat="43.131681" lon="12.5151445"><ele>292.75</ele><time>2026-05-03T09:51:05.342Z</time></trkpt><trkpt lat="43.1315447" lon="12.5150488"><ele>291.5</ele><time>2026-05-03T09:51:06.342Z</time></trkpt><trkpt lat="43.1314166" lon="12.5149577"><ele>290.25</ele><time>2026-05-03T09:51:07.343Z</time></trkpt><trkpt lat="43.1312862" lon="12.5148598"><ele>289.0</ele><time>2026-05-03T09:51:08.342Z</time></trkpt><trkpt lat="43.1311584" lon="12.5147752"><ele>289.0</ele><time>2026-05-03T09:51:09.342Z</time></trkpt><trkpt lat="43.1310288" lon="12.5146916"><ele>289.0</ele><time>2026-05-03T09:51:10.342Z</time></trkpt><trkpt lat="43.1308895" lon="12.5146231"><ele>289.0</ele><time>2026-05-03T09:51:11.342Z</time></trkpt><trkpt lat="43.1307414" lon="12.5145804"><ele>289.0</ele><time>2026-05-03T09:51:12.342Z</time></trkpt><trkpt lat="43.1305995" lon="12.5145623"><ele>291.0</ele><time>2026-05-03T09:51:13.342Z</time></trkpt><trkpt lat="43.1304708" lon="12.514546"><ele>293.0</ele><time>2026-05-03T09:51:14.342Z</time></trkpt><trkpt lat="43.1303541" lon="12.5145322"><ele>295.0</ele><time>2026-05-03T09:51:15.342Z</time></trkpt><trkpt lat="43.1302393" lon="12.5145039"><ele>297.0</ele><time>2026-05-03T09:51:16.342Z</time></trkpt><trkpt lat="43.130132" lon="12.514457"><ele>297.0</ele><time>2026-05-03T09:51:17.342Z</time></trkpt><trkpt lat="43.1300359" lon="12.5143621"><ele>297.0</ele><time>2026-05-03T09:51:18.343Z</time></trkpt><trkpt lat="43.1299573" lon="12.5142453"><ele>297.0</ele><time>2026-05-03T09:51:19.342Z</time></trkpt><trkpt lat="43.1298997" lon="12.5140924"><ele>297.0</ele><time>2026-05-03T09:51:20.342Z</time></trkpt><trkpt lat="43.1298612" lon="12.5139376"><ele>297.0</ele><time>2026-05-03T09:51:21.343Z</time></trkpt><trkpt lat="43.1298361" lon="12.5137621"><ele>297.0</ele><time>2026-05-03T09:51:22.342Z</time></trkpt><trkpt lat="43.1298153" lon="12.5135938"><ele>297.0</ele><time>2026-05-03T09:51:23.342Z</time></trkpt><trkpt lat="43.1297978" lon="12.5134165"><ele>297.0</ele><time>2026-05-03T09:51:24.342Z</time></trkpt><trkpt lat="43.1297842" lon="12.5132453"><ele>297.0</ele><time>2026-05-03T09:51:25.342Z</time></trkpt><trkpt lat="43.1297806" lon="12.513082"><ele>297.0</ele><time>2026-05-03T09:51:26.342Z</time></trkpt><trkpt lat="43.129796" lon="12.5129336"><ele>297.0</ele><time>2026-05-03T09:51:27.343Z</time></trkpt><trkpt lat="43.1298309" lon="12.5128269"><ele>297.0</ele><time>2026-05-03T09:51:28.342Z</time></trkpt><trkpt lat="43.1298964" lon="12.5127224"><ele>297.0</ele><time>2026-05-03T09:51:29.342Z</time></trkpt><trkpt lat="43.1299636" lon="12.5126073"><ele>297.25</ele><time>2026-05-03T09:51:30.342Z</time></trkpt><trkpt lat="43.1300389" lon="12.5124522"><ele>297.5</ele><time>2026-05-03T09:51:31.342Z</time></trkpt><trkpt lat="43.1301184" lon="12.5122965"><ele>297.75</ele><time>2026-05-03T09:51:32.342Z</time></trkpt><trkpt lat="43.1301909" lon="12.5121437"><ele>298.0</ele><time>2026-05-03T09:51:33.342Z</time></trkpt><trkpt lat="43.1302565" lon="12.5119926"><ele>298.0</ele><time>2026-05-03T09:51:34.342Z</time></trkpt><trkpt lat="43.1303145" lon="12.5118478"><ele>298.0</ele><time>2026-05-03T09:51:35.342Z</time></trkpt><trkpt lat="43.130373" lon="12.511703"><ele>298.0</ele><time>2026-05-03T09:51:36.342Z</time></trkpt><trkpt lat="43.1304345" lon="12.5115559"><ele>298.0</ele><time>2026-05-03T09:51:37.342Z</time></trkpt><trkpt lat="43.130487" lon="12.5114097"><ele>298.0</ele><time>2026-05-03T09:51:38.342Z</time></trkpt><trkpt lat="43.1305416" lon="12.5112532"><ele>298.0</ele><time>2026-05-03T09:51:39.342Z</time></trkpt><trkpt lat="43.1305848" lon="12.5110989"><ele>298.0</ele><time>2026-05-03T09:51:40.342Z</time></trkpt><trkpt lat="43.1306256" lon="12.5109405"><ele>298.0</ele><time>2026-05-03T09:51:41.342Z</time></trkpt><trkpt lat="43.1306743" lon="12.5107758"><ele>298.25</ele><time>2026-05-03T09:51:42.342Z</time></trkpt><trkpt lat="43.1307172" lon="12.5106162"><ele>298.5</ele><time>2026-05-03T09:51:43.343Z</time></trkpt><trkpt lat="43.1307571" lon="12.5104341"><ele>298.75</ele><time>2026-05-03T09:51:44.342Z</time></trkpt><trkpt lat="43.1307927" lon="12.5102618"><ele>299.0</ele><time>2026-05-03T09:51:45.342Z</time></trkpt><trkpt lat="43.1308335" lon="12.5100908"><ele>299.0</ele><time>2026-05-03T09:51:46.343Z</time></trkpt><trkpt lat="43.1308714" lon="12.509923"><ele>299.0</ele><time>2026-05-03T09:51:47.342Z</time></trkpt><trkpt lat="43.1309045" lon="12.5097472"><ele>299.0</ele><time>2026-05-03T09:51:48.342Z</time></trkpt><trkpt lat="43.1309319" lon="12.5095672"><ele>299.0</ele><time>2026-05-03T09:51:49.343Z</time></trkpt><trkpt lat="43.1309373" lon="12.5093823"><ele>298.75</ele><time>2026-05-03T09:51:50.342Z</time></trkpt><trkpt lat="43.1309481" lon="12.5091989"><ele>298.5</ele><time>2026-05-03T09:51:51.342Z</time></trkpt><trkpt lat="43.1309553" lon="12.509013"><ele>298.25</ele><time>2026-05-03T09:51:52.342Z</time></trkpt><trkpt lat="43.1309668" lon="12.508831"><ele>298.0</ele><time>2026-05-03T09:51:53.342Z</time></trkpt><trkpt lat="43.1309883" lon="12.5086506"><ele>297.0</ele><time>2026-05-03T09:51:54.343Z</time></trkpt><trkpt lat="43.131019" lon="12.5084694"><ele>296.0</ele><time>2026-05-03T09:51:55.342Z</time></trkpt><trkpt lat="43.1310654" lon="12.5082946"><ele>295.0</ele><time>2026-05-03T09:51:56.342Z</time></trkpt><trkpt lat="43.1311101" lon="12.5081164"><ele>294.0</ele><time>2026-05-03T09:51:57.342Z</time></trkpt><trkpt lat="43.1311534" lon="12.5079367"><ele>292.75</ele><time>2026-05-03T09:51:58.342Z</time></trkpt><trkpt lat="43.1312011" lon="12.5077588"><ele>291.5</ele><time>2026-05-03T09:51:59.343Z</time></trkpt><trkpt lat="43.1312554" lon="12.5075807"><ele>290.25</ele><time>2026-05-03T09:52:00.343Z</time></trkpt><trkpt lat="43.1313082" lon="12.5073932"><ele>289.0</ele><time>2026-05-03T09:52:01.342Z</time></trkpt><trkpt lat="43.1313588" lon="12.5072127"><ele>287.75</ele><time>2026-05-03T09:52:02.342Z</time></trkpt><trkpt lat="43.1314093" lon="12.5070282"><ele>286.5</ele><time>2026-05-03T09:52:03.342Z</time></trkpt><trkpt lat="43.1314726" lon="12.5068628"><ele>285.25</ele><time>2026-05-03T09:52:04.342Z</time></trkpt><trkpt lat="43.131524" lon="12.5066831"><ele>284.0</ele><time>2026-05-03T09:52:05.342Z</time></trkpt><trkpt lat="43.1315709" lon="12.5065015"><ele>287.75</ele><time>2026-05-03T09:52:06.342Z</time></trkpt><trkpt lat="43.1316224" lon="12.5063219"><ele>291.5</ele><time>2026-05-03T09:52:07.342Z</time></trkpt><trkpt lat="43.1316664" lon="12.5061454"><ele>295.25</ele><time>2026-05-03T09:52:08.342Z</time></trkpt><trkpt lat="43.1317205" lon="12.5059741"><ele>299.0</ele><time>2026-05-03T09:52:09.342Z</time></trkpt><trkpt lat="43.1317845" lon="12.5058189"><ele>299.0</ele><time>2026-05-03T09:52:10.343Z</time></trkpt><trkpt lat="43.1318544" lon="12.5056727"><ele>299.0</ele><time>2026-05-03T09:52:11.342Z</time></trkpt><trkpt lat="43.1319444" lon="12.5055503"><ele>299.0</ele><time>2026-05-03T09:52:12.343Z</time></trkpt><trkpt lat="43.1320453" lon="12.5054586"><ele>299.0</ele><time>2026-05-03T09:52:13.342Z</time></trkpt><trkpt lat="43.1321618" lon="12.5053867"><ele>299.0</ele><time>2026-05-03T09:52:14.342Z</time></trkpt><trkpt lat="43.1322847" lon="12.5053265"><ele>299.0</ele><time>2026-05-03T09:52:15.342Z</time></trkpt><trkpt lat="43.1324008" lon="12.5052597"><ele>299.0</ele><time>2026-05-03T09:52:16.342Z</time></trkpt><trkpt lat="43.1325278" lon="12.5051844"><ele>299.0</ele><time>2026-05-03T09:52:17.343Z</time></trkpt><trkpt lat="43.1326562" lon="12.5051153"><ele>299.0</ele><time>2026-05-03T09:52:18.343Z</time></trkpt><trkpt lat="43.1327848" lon="12.5050347"><ele>299.0</ele><time>2026-05-03T09:52:19.342Z</time></trkpt><trkpt lat="43.1329081" lon="12.5049527"><ele>299.0</ele><time>2026-05-03T09:52:20.342Z</time></trkpt><trkpt lat="43.133033" lon="12.504866"><ele>299.0</ele><time>2026-05-03T09:52:21.342Z</time></trkpt><trkpt lat="43.1331498" lon="12.5047727"><ele>299.0</ele><time>2026-05-03T09:52:22.342Z</time></trkpt><trkpt lat="43.133252" lon="12.5046669"><ele>299.0</ele><time>2026-05-03T09:52:23.342Z</time></trkpt><trkpt lat="43.1333343" lon="12.5045266"><ele>299.0</ele><time>2026-05-03T09:52:24.342Z</time></trkpt><trkpt lat="43.1334085" lon="12.5043841"><ele>299.0</ele><time>2026-05-03T09:52:25.342Z</time></trkpt><trkpt lat="43.1334642" lon="12.5042123"><ele>299.0</ele><time>2026-05-03T09:52:26.342Z</time></trkpt><trkpt lat="43.1335129" lon="12.5040417"><ele>299.0</ele><time>2026-05-03T09:52:27.342Z</time></trkpt><trkpt lat="43.1335461" lon="12.5038651"><ele>299.0</ele><time>2026-05-03T09:52:28.342Z</time></trkpt><trkpt lat="43.1335686" lon="12.5036793"><ele>299.0</ele><time>2026-05-03T09:52:29.342Z</time></trkpt><trkpt lat="43.1335887" lon="12.5034918"><ele>298.33333333333337</ele><time>2026-05-03T09:52:30.342Z</time></trkpt><trkpt lat="43.1335764" lon="12.5032744"><ele>297.6666666666667</ele><time>2026-05-03T09:52:31.342Z</time></trkpt><trkpt lat="43.1335706" lon="12.5030717"><ele>297.0</ele><time>2026-05-03T09:52:32.342Z</time></trkpt><trkpt lat="43.1335452" lon="12.5028768"><ele>296.0</ele><time>2026-05-03T09:52:33.342Z</time></trkpt><trkpt lat="43.1335174" lon="12.5026779"><ele>295.0</ele><time>2026-05-03T09:52:34.342Z</time></trkpt><trkpt lat="43.1334778" lon="12.5024752"><ele>294.0</ele><time>2026-05-03T09:52:35.342Z</time></trkpt><trkpt lat="43.1334309" lon="12.5022626"><ele>294.0</ele><time>2026-05-03T09:52:36.342Z</time></trkpt><trkpt lat="43.1333926" lon="12.5020551"><ele>294.0</ele><time>2026-05-03T09:52:37.342Z</time></trkpt><trkpt lat="43.1333421" lon="12.5018592"><ele>294.0</ele><time>2026-05-03T09:52:38.343Z</time></trkpt><trkpt lat="43.1332946" lon="12.5016659"><ele>294.0</ele><time>2026-05-03T09:52:39.343Z</time></trkpt><trkpt lat="43.1332566" lon="12.5014797"><ele>294.0</ele><time>2026-05-03T09:52:40.342Z</time></trkpt><trkpt lat="43.1332127" lon="12.5012904"><ele>294.0</ele><time>2026-05-03T09:52:41.342Z</time></trkpt><trkpt lat="43.1331644" lon="12.5010952"><ele>294.0</ele><time>2026-05-03T09:52:42.342Z</time></trkpt><trkpt lat="43.1331132" lon="12.5009011"><ele>293.25</ele><time>2026-05-03T09:52:43.342Z</time></trkpt><trkpt lat="43.1330786" lon="12.500722"><ele>292.5</ele><time>2026-05-03T09:52:44.342Z</time></trkpt><trkpt lat="43.1330265" lon="12.5005305"><ele>291.75</ele><time>2026-05-03T09:52:45.342Z</time></trkpt><trkpt lat="43.132975" lon="12.5003327"><ele>291.0</ele><time>2026-05-03T09:52:46.342Z</time></trkpt><trkpt lat="43.1329294" lon="12.5001471"><ele>291.0</ele><time>2026-05-03T09:52:47.342Z</time></trkpt><trkpt lat="43.1328756" lon="12.4999473"><ele>291.0</ele><time>2026-05-03T09:52:48.342Z</time></trkpt><trkpt lat="43.1328227" lon="12.4997557"><ele>291.0</ele><time>2026-05-03T09:52:49.342Z</time></trkpt><trkpt lat="43.1327682" lon="12.4995627"><ele>292.0</ele><time>2026-05-03T09:52:50.342Z</time></trkpt><trkpt lat="43.1327158" lon="12.4993699"><ele>293.0</ele><time>2026-05-03T09:52:51.342Z</time></trkpt><trkpt lat="43.1326602" lon="12.499182"><ele>294.0</ele><time>2026-05-03T09:52:52.342Z</time></trkpt><trkpt lat="43.1326171" lon="12.4989955"><ele>295.0</ele><time>2026-05-03T09:52:53.342Z</time></trkpt><trkpt lat="43.1325617" lon="12.4987974"><ele>294.25</ele><time>2026-05-03T09:52:54.342Z</time></trkpt><trkpt lat="43.1325056" lon="12.4985985"><ele>293.5</ele><time>2026-05-03T09:52:55.342Z</time></trkpt><trkpt lat="43.1324565" lon="12.4984074"><ele>292.75</ele><time>2026-05-03T09:52:56.342Z</time></trkpt><trkpt lat="43.1324047" lon="12.4982216"><ele>292.0</ele><time>2026-05-03T09:52:57.343Z</time></trkpt><trkpt lat="43.1323513" lon="12.498038"><ele>290.0</ele><time>2026-05-03T09:52:58.342Z</time></trkpt><trkpt lat="43.1322908" lon="12.4978501"><ele>288.0</ele><time>2026-05-03T09:52:59.342Z</time></trkpt><trkpt lat="43.1322398" lon="12.4976524"><ele>286.0</ele><time>2026-05-03T09:53:00.342Z</time></trkpt><trkpt lat="43.132189" lon="12.4974531"><ele>286.0</ele><time>2026-05-03T09:53:01.343Z</time></trkpt><trkpt lat="43.1321423" lon="12.4972549"><ele>286.0</ele><time>2026-05-03T09:53:02.342Z</time></trkpt><trkpt lat="43.1320962" lon="12.4970702"><ele>286.0</ele><time>2026-05-03T09:53:03.342Z</time></trkpt><trkpt lat="43.1320431" lon="12.4968777"><ele>286.0</ele><time>2026-05-03T09:53:04.342Z</time></trkpt><trkpt lat="43.1319903" lon="12.4966845"><ele>285.66666666666663</ele><time>2026-05-03T09:53:05.342Z</time></trkpt><trkpt lat="43.1319397" lon="12.4964787"><ele>285.3333333333333</ele><time>2026-05-03T09:53:06.342Z</time></trkpt><trkpt lat="43.1318907" lon="12.4962842"><ele>285.0</ele><time>2026-05-03T09:53:07.342Z</time></trkpt><trkpt lat="43.1318328" lon="12.4960816"><ele>284.25</ele><time>2026-05-03T09:53:08.343Z</time></trkpt><trkpt lat="43.1317826" lon="12.4958869"><ele>283.5</ele><time>2026-05-03T09:53:09.343Z</time></trkpt><trkpt lat="43.131728" lon="12.4956912"><ele>282.75</ele><time>2026-05-03T09:53:10.342Z</time></trkpt><trkpt lat="43.1316838" lon="12.4955132"><ele>282.0</ele><time>2026-05-03T09:53:11.342Z</time></trkpt><trkpt lat="43.1316332" lon="12.4953155"><ele>281.75</ele><time>2026-05-03T09:53:12.342Z</time></trkpt><trkpt lat="43.1315747" lon="12.495129"><ele>281.5</ele><time>2026-05-03T09:53:13.342Z</time></trkpt><trkpt lat="43.1315105" lon="12.4949504"><ele>281.25</ele><time>2026-05-03T09:53:14.342Z</time></trkpt><trkpt lat="43.131436" lon="12.4947729"><ele>281.0</ele><time>2026-05-03T09:53:15.343Z</time></trkpt><trkpt lat="43.1313532" lon="12.4946031"><ele>280.0</ele><time>2026-05-03T09:53:16.342Z</time></trkpt><trkpt lat="43.1312654" lon="12.4944412"><ele>279.0</ele><time>2026-05-03T09:53:17.342Z</time></trkpt><trkpt lat="43.1311744" lon="12.494279"><ele>278.0</ele><time>2026-05-03T09:53:18.342Z</time></trkpt><trkpt lat="43.1310766" lon="12.4941187"><ele>277.0</ele><time>2026-05-03T09:53:19.342Z</time></trkpt><trkpt lat="43.1309799" lon="12.4939654"><ele>277.0</ele><time>2026-05-03T09:53:20.342Z</time></trkpt><trkpt lat="43.1308774" lon="12.4938077"><ele>277.0</ele><time>2026-05-03T09:53:21.342Z</time></trkpt><trkpt lat="43.1307741" lon="12.4936512"><ele>277.0</ele><time>2026-05-03T09:53:22.342Z</time></trkpt><trkpt lat="43.1306633" lon="12.4935007"><ele>276.0</ele><time>2026-05-03T09:53:23.342Z</time></trkpt><trkpt lat="43.1305606" lon="12.4933532"><ele>275.0</ele><time>2026-05-03T09:53:24.342Z</time></trkpt><trkpt lat="43.1304558" lon="12.4931941"><ele>274.0</ele><time>2026-05-03T09:53:25.342Z</time></trkpt><trkpt lat="43.1303654" lon="12.4930326"><ele>276.25</ele><time>2026-05-03T09:53:26.342Z</time></trkpt><trkpt lat="43.1302662" lon="12.4928992"><ele>278.5</ele><time>2026-05-03T09:53:27.342Z</time></trkpt><trkpt lat="43.1301487" lon="12.492779"><ele>280.75</ele><time>2026-05-03T09:53:28.342Z</time></trkpt><trkpt lat="43.1300331" lon="12.4926687"><ele>283.0</ele><time>2026-05-03T09:53:29.342Z</time></trkpt><trkpt lat="43.1299174" lon="12.4925806"><ele>282.75</ele><time>2026-05-03T09:53:30.342Z</time></trkpt><trkpt lat="43.1297984" lon="12.4925108"><ele>282.5</ele><time>2026-05-03T09:53:31.343Z</time></trkpt><trkpt lat="43.1296953" lon="12.4924697"><ele>282.25</ele><time>2026-05-03T09:53:32.342Z</time></trkpt><trkpt lat="43.129589" lon="12.4924226"><ele>282.0</ele><time>2026-05-03T09:53:33.342Z</time></trkpt><trkpt lat="43.1294928" lon="12.4923697"><ele>282.0</ele><time>2026-05-03T09:53:34.342Z</time></trkpt><trkpt lat="43.1293852" lon="12.4923346"><ele>282.0</ele><time>2026-05-03T09:53:35.342Z</time></trkpt><trkpt lat="43.1292754" lon="12.4923037"><ele>282.0</ele><time>2026-05-03T09:53:36.342Z</time></trkpt><trkpt lat="43.1291614" lon="12.4922692"><ele>282.0</ele><time>2026-05-03T09:53:37.343Z</time></trkpt><trkpt lat="43.1290453" lon="12.4922336"><ele>281.75</ele><time>2026-05-03T09:53:38.342Z</time></trkpt><trkpt lat="43.12893" lon="12.4921956"><ele>281.5</ele><time>2026-05-03T09:53:39.342Z</time></trkpt><trkpt lat="43.1288097" lon="12.4921561"><ele>281.25</ele><time>2026-05-03T09:53:40.342Z</time></trkpt><trkpt lat="43.1287002" lon="12.4921218"><ele>281.0</ele><time>2026-05-03T09:53:41.343Z</time></trkpt><trkpt lat="43.1285834" lon="12.4920808"><ele>283.5</ele><time>2026-05-03T09:53:42.342Z</time></trkpt><trkpt lat="43.1284621" lon="12.4920312"><ele>286.0</ele><time>2026-05-03T09:53:43.342Z</time></trkpt><trkpt lat="43.1283414" lon="12.4919782"><ele>288.5</ele><time>2026-05-03T09:53:44.342Z</time></trkpt><trkpt lat="43.1282182" lon="12.4919133"><ele>291.0</ele><time>2026-05-03T09:53:45.342Z</time></trkpt><trkpt lat="43.1280973" lon="12.4918363"><ele>291.0</ele><time>2026-05-03T09:53:46.342Z</time></trkpt><trkpt lat="43.1279812" lon="12.4917512"><ele>291.0</ele><time>2026-05-03T09:53:47.342Z</time></trkpt><trkpt lat="43.1278684" lon="12.491676"><ele>291.0</ele><time>2026-05-03T09:53:48.343Z</time></trkpt><trkpt lat="43.1277493" lon="12.4916058"><ele>291.0</ele><time>2026-05-03T09:53:49.342Z</time></trkpt><trkpt lat="43.1276282" lon="12.4915344"><ele>291.0</ele><time>2026-05-03T09:53:50.342Z</time></trkpt><trkpt lat="43.1275133" lon="12.491456"><ele>291.0</ele><time>2026-05-03T09:53:51.342Z</time></trkpt><trkpt lat="43.1273949" lon="12.4913822"><ele>291.0</ele><time>2026-05-03T09:53:52.342Z</time></trkpt><trkpt lat="43.127277" lon="12.4913132"><ele>291.0</ele><time>2026-05-03T09:53:53.342Z</time></trkpt><trkpt lat="43.1271617" lon="12.4912346"><ele>292.75</ele><time>2026-05-03T09:53:54.342Z</time></trkpt><trkpt lat="43.1270472" lon="12.4911647"><ele>294.5</ele><time>2026-05-03T09:53:55.342Z</time></trkpt><trkpt lat="43.1269348" lon="12.4910904"><ele>296.25</ele><time>2026-05-03T09:53:56.342Z</time></trkpt><trkpt lat="43.1268304" lon="12.4910229"><ele>298.0</ele><time>2026-05-03T09:53:57.342Z</time></trkpt><trkpt lat="43.1267103" lon="12.4909425"><ele>298.0</ele><time>2026-05-03T09:53:58.342Z</time></trkpt><trkpt lat="43.1265998" lon="12.4908771"><ele>298.0</ele><time>2026-05-03T09:53:59.342Z</time></trkpt><trkpt lat="43.1264953" lon="12.4908208"><ele>298.0</ele><time>2026-05-03T09:54:00.343Z</time></trkpt><trkpt lat="43.126404" lon="12.4907585"><ele>298.0</ele><time>2026-05-03T09:54:01.343Z</time></trkpt><trkpt lat="43.12632" lon="12.4906852"><ele>298.0</ele><time>2026-05-03T09:54:02.343Z</time></trkpt><trkpt lat="43.1262477" lon="12.4906108"><ele>298.0</ele><time>2026-05-03T09:54:03.342Z</time></trkpt><trkpt lat="43.1261774" lon="12.4905303"><ele>298.0</ele><time>2026-05-03T09:54:04.342Z</time></trkpt><trkpt lat="43.1261273" lon="12.4904414"><ele>298.0</ele><time>2026-05-03T09:54:05.342Z</time></trkpt><trkpt lat="43.1260765" lon="12.4903613"><ele>298.0</ele><time>2026-05-03T09:54:06.342Z</time></trkpt><trkpt lat="43.1260403" lon="12.4902792"><ele>298.0</ele><time>2026-05-03T09:54:07.342Z</time></trkpt><trkpt lat="43.1259677" lon="12.4901575"><ele>298.0</ele><time>2026-05-03T09:54:09.342Z</time></trkpt><trkpt lat="43.1258998" lon="12.4901551"><ele>298.0</ele><time>2026-05-03T09:54:11.342Z</time></trkpt><trkpt lat="43.1257859" lon="12.4901973"><ele>298.0</ele><time>2026-05-03T09:54:13.342Z</time></trkpt><trkpt lat="43.1257142" lon="12.4902155"><ele>298.0</ele><time>2026-05-03T09:54:14.342Z</time></trkpt><trkpt lat="43.1256402" lon="12.4902223"><ele>298.0</ele><time>2026-05-03T09:54:15.342Z</time></trkpt><trkpt lat="43.1255714" lon="12.4902242"><ele>298.0</ele><time>2026-05-03T09:54:16.342Z</time></trkpt><trkpt lat="43.1254943" lon="12.49023"><ele>298.0</ele><time>2026-05-03T09:54:17.342Z</time></trkpt><trkpt lat="43.1254117" lon="12.4902281"><ele>297.2</ele><time>2026-05-03T09:54:18.342Z</time></trkpt><trkpt lat="43.1253269" lon="12.490233"><ele>296.4</ele><time>2026-05-03T09:54:19.342Z</time></trkpt><trkpt lat="43.1252278" lon="12.4902405"><ele>295.59999999999997</ele><time>2026-05-03T09:54:20.342Z</time></trkpt><trkpt lat="43.1251342" lon="12.4902458"><ele>294.8</ele><time>2026-05-03T09:54:21.342Z</time></trkpt><trkpt lat="43.1250426" lon="12.490249"><ele>294.0</ele><time>2026-05-03T09:54:22.342Z</time></trkpt><trkpt lat="43.1249526" lon="12.4902597"><ele>294.2</ele><time>2026-05-03T09:54:23.342Z</time></trkpt><trkpt lat="43.1248566" lon="12.4902531"><ele>294.4</ele><time>2026-05-03T09:54:24.342Z</time></trkpt><trkpt lat="43.1247609" lon="12.4902469"><ele>294.6</ele><time>2026-05-03T09:54:25.342Z</time></trkpt><trkpt lat="43.1246665" lon="12.4902608"><ele>294.8</ele><time>2026-05-03T09:54:26.342Z</time></trkpt><trkpt lat="43.1245741" lon="12.4902804"><ele>295.0</ele><time>2026-05-03T09:54:27.342Z</time></trkpt><trkpt lat="43.1244813" lon="12.4902797"><ele>295.0</ele><time>2026-05-03T09:54:28.342Z</time></trkpt><trkpt lat="43.1243827" lon="12.4902949"><ele>295.0</ele><time>2026-05-03T09:54:29.342Z</time></trkpt><trkpt lat="43.1242858" lon="12.4903056"><ele>295.0</ele><time>2026-05-03T09:54:30.343Z</time></trkpt><trkpt lat="43.1241828" lon="12.4903273"><ele>295.0</ele><time>2026-05-03T09:54:31.342Z</time></trkpt><trkpt lat="43.12408" lon="12.4903573"><ele>295.0</ele><time>2026-05-03T09:54:32.342Z</time></trkpt><trkpt lat="43.1239719" lon="12.4903998"><ele>294.25</ele><time>2026-05-03T09:54:33.342Z</time></trkpt><trkpt lat="43.1238647" lon="12.4904434"><ele>293.5</ele><time>2026-05-03T09:54:34.342Z</time></trkpt><trkpt lat="43.1237398" lon="12.4904981"><ele>292.75</ele><time>2026-05-03T09:54:35.342Z</time></trkpt><trkpt lat="43.1236185" lon="12.4905667"><ele>292.0</ele><time>2026-05-03T09:54:36.342Z</time></trkpt><trkpt lat="43.1234996" lon="12.4906403"><ele>292.0</ele><time>2026-05-03T09:54:37.342Z</time></trkpt><trkpt lat="43.1233857" lon="12.4907117"><ele>292.0</ele><time>2026-05-03T09:54:38.343Z</time></trkpt><trkpt lat="43.1232794" lon="12.4907973"><ele>292.0</ele><time>2026-05-03T09:54:39.342Z</time></trkpt><trkpt lat="43.1231682" lon="12.4908767"><ele>292.0</ele><time>2026-05-03T09:54:40.342Z</time></trkpt><trkpt lat="43.1230707" lon="12.4909588"><ele>292.0</ele><time>2026-05-03T09:54:41.342Z</time></trkpt><trkpt lat="43.1229543" lon="12.4910437"><ele>292.0</ele><time>2026-05-03T09:54:42.342Z</time></trkpt><trkpt lat="43.1228382" lon="12.4911392"><ele>292.0</ele><time>2026-05-03T09:54:43.342Z</time></trkpt><trkpt lat="43.1227212" lon="12.4912309"><ele>292.0</ele><time>2026-05-03T09:54:44.342Z</time></trkpt><trkpt lat="43.1226046" lon="12.4913163"><ele>290.5</ele><time>2026-05-03T09:54:45.342Z</time></trkpt><trkpt lat="43.1224895" lon="12.4914161"><ele>289.0</ele><time>2026-05-03T09:54:46.343Z</time></trkpt><trkpt lat="43.1223826" lon="12.4915272"><ele>287.5</ele><time>2026-05-03T09:54:47.342Z</time></trkpt><trkpt lat="43.1222747" lon="12.491643"><ele>286.0</ele><time>2026-05-03T09:54:48.342Z</time></trkpt><trkpt lat="43.1221661" lon="12.4917525"><ele>286.0</ele><time>2026-05-03T09:54:49.342Z</time></trkpt><trkpt lat="43.1220637" lon="12.4918722"><ele>286.0</ele><time>2026-05-03T09:54:50.342Z</time></trkpt><trkpt lat="43.1219546" lon="12.4919897"><ele>286.0</ele><time>2026-05-03T09:54:51.342Z</time></trkpt><trkpt lat="43.1218565" lon="12.4921073"><ele>286.0</ele><time>2026-05-03T09:54:52.342Z</time></trkpt><trkpt lat="43.1217525" lon="12.4922313"><ele>286.0</ele><time>2026-05-03T09:54:53.342Z</time></trkpt><trkpt lat="43.1216563" lon="12.4923508"><ele>286.0</ele><time>2026-05-03T09:54:54.342Z</time></trkpt><trkpt lat="43.1215515" lon="12.49247"><ele>286.0</ele><time>2026-05-03T09:54:55.342Z</time></trkpt><trkpt lat="43.1214458" lon="12.4925921"><ele>286.0</ele><time>2026-05-03T09:54:56.342Z</time></trkpt><trkpt lat="43.1213437" lon="12.4927029"><ele>285.0</ele><time>2026-05-03T09:54:57.342Z</time></trkpt><trkpt lat="43.1212512" lon="12.4928186"><ele>284.0</ele><time>2026-05-03T09:54:58.342Z</time></trkpt><trkpt lat="43.1211671" lon="12.4929329"><ele>283.0</ele><time>2026-05-03T09:54:59.343Z</time></trkpt><trkpt lat="43.1210924" lon="12.4930504"><ele>282.0</ele><time>2026-05-03T09:55:00.342Z</time></trkpt><trkpt lat="43.1210228" lon="12.4931784"><ele>282.0</ele><time>2026-05-03T09:55:01.342Z</time></trkpt><trkpt lat="43.1209569" lon="12.4933136"><ele>282.0</ele><time>2026-05-03T09:55:02.342Z</time></trkpt><trkpt lat="43.1208902" lon="12.4934563"><ele>282.0</ele><time>2026-05-03T09:55:03.342Z</time></trkpt><trkpt lat="43.1208232" lon="12.4936094"><ele>282.0</ele><time>2026-05-03T09:55:04.342Z</time></trkpt><trkpt lat="43.1207575" lon="12.4937776"><ele>279.75</ele><time>2026-05-03T09:55:05.342Z</time></trkpt><trkpt lat="43.1207015" lon="12.4939348"><ele>277.5</ele><time>2026-05-03T09:55:06.342Z</time></trkpt><trkpt lat="43.1206411" lon="12.494098"><ele>275.25</ele><time>2026-05-03T09:55:07.342Z</time></trkpt><trkpt lat="43.1205809" lon="12.4942555"><ele>273.0</ele><time>2026-05-03T09:55:08.342Z</time></trkpt><trkpt lat="43.1204881" lon="12.4943694"><ele>273.0</ele><time>2026-05-03T09:55:09.342Z</time></trkpt><trkpt lat="43.1203815" lon="12.4944852"><ele>273.0</ele><time>2026-05-03T09:55:10.342Z</time></trkpt><trkpt lat="43.1202694" lon="12.4945823"><ele>273.0</ele><time>2026-05-03T09:55:11.342Z</time></trkpt><trkpt lat="43.1201491" lon="12.4946655"><ele>273.0</ele><time>2026-05-03T09:55:12.342Z</time></trkpt><trkpt lat="43.1200292" lon="12.4947696"><ele>273.0</ele><time>2026-05-03T09:55:13.343Z</time></trkpt><trkpt lat="43.1199285" lon="12.494846"><ele>273.0</ele><time>2026-05-03T09:55:14.343Z</time></trkpt><trkpt lat="43.1198258" lon="12.494942"><ele>273.0</ele><time>2026-05-03T09:55:15.342Z</time></trkpt><trkpt lat="43.1197382" lon="12.4950538"><ele>273.0</ele><time>2026-05-03T09:55:16.342Z</time></trkpt><trkpt lat="43.1196607" lon="12.4951804"><ele>273.0</ele><time>2026-05-03T09:55:17.342Z</time></trkpt><trkpt lat="43.1196025" lon="12.4953001"><ele>273.0</ele><time>2026-05-03T09:55:18.343Z</time></trkpt><trkpt lat="43.1195538" lon="12.4954234"><ele>273.0</ele><time>2026-05-03T09:55:19.342Z</time></trkpt><trkpt lat="43.1195052" lon="12.4955436"><ele>273.0</ele><time>2026-05-03T09:55:20.343Z</time></trkpt><trkpt lat="43.1194579" lon="12.4956576"><ele>273.0</ele><time>2026-05-03T09:55:21.343Z</time></trkpt><trkpt lat="43.1194081" lon="12.4957733"><ele>274.0</ele><time>2026-05-03T09:55:22.342Z</time></trkpt><trkpt lat="43.1193656" lon="12.4958984"><ele>275.0</ele><time>2026-05-03T09:55:23.342Z</time></trkpt><trkpt lat="43.1193042" lon="12.4960223"><ele>276.0</ele><time>2026-05-03T09:55:24.342Z</time></trkpt><trkpt lat="43.1192317" lon="12.4961546"><ele>277.0</ele><time>2026-05-03T09:55:25.342Z</time></trkpt><trkpt lat="43.1191629" lon="12.4962939"><ele>277.0</ele><time>2026-05-03T09:55:26.342Z</time></trkpt><trkpt lat="43.1190994" lon="12.4964332"><ele>277.0</ele><time>2026-05-03T09:55:27.342Z</time></trkpt><trkpt lat="43.1190375" lon="12.4965727"><ele>277.0</ele><time>2026-05-03T09:55:28.342Z</time></trkpt><trkpt lat="43.1189695" lon="12.4967062"><ele>277.0</ele><time>2026-05-03T09:55:29.343Z</time></trkpt><trkpt lat="43.1189028" lon="12.4968586"><ele>274.75</ele><time>2026-05-03T09:55:30.342Z</time></trkpt><trkpt lat="43.11883" lon="12.4969988"><ele>272.5</ele><time>2026-05-03T09:55:31.342Z</time></trkpt><trkpt lat="43.1187608" lon="12.4971513"><ele>270.25</ele><time>2026-05-03T09:55:32.343Z</time></trkpt><trkpt lat="43.1186897" lon="12.4973051"><ele>268.0</ele><time>2026-05-03T09:55:33.342Z</time></trkpt><trkpt lat="43.1186133" lon="12.4974535"><ele>268.0</ele><time>2026-05-03T09:55:34.342Z</time></trkpt><trkpt lat="43.1185412" lon="12.4975989"><ele>268.0</ele><time>2026-05-03T09:55:35.342Z</time></trkpt><trkpt lat="43.1184684" lon="12.4977307"><ele>268.0</ele><time>2026-05-03T09:55:36.343Z</time></trkpt><trkpt lat="43.1183946" lon="12.4978637"><ele>268.0</ele><time>2026-05-03T09:55:37.343Z</time></trkpt><trkpt lat="43.1183267" lon="12.4980022"><ele>268.75</ele><time>2026-05-03T09:55:38.342Z</time></trkpt><trkpt lat="43.1182587" lon="12.498138"><ele>269.5</ele><time>2026-05-03T09:55:39.343Z</time></trkpt><trkpt lat="43.118171" lon="12.4982535"><ele>270.25</ele><time>2026-05-03T09:55:40.342Z</time></trkpt><trkpt lat="43.1180651" lon="12.4983603"><ele>271.0</ele><time>2026-05-03T09:55:41.342Z</time></trkpt><trkpt lat="43.1179317" lon="12.4984326"><ele>268.75</ele><time>2026-05-03T09:55:42.343Z</time></trkpt><trkpt lat="43.1177976" lon="12.4984845"><ele>266.5</ele><time>2026-05-03T09:55:43.342Z</time></trkpt><trkpt lat="43.1176475" lon="12.498529"><ele>264.25</ele><time>2026-05-03T09:55:44.343Z</time></trkpt><trkpt lat="43.1175026" lon="12.4985601"><ele>262.0</ele><time>2026-05-03T09:55:45.342Z</time></trkpt><trkpt lat="43.1173547" lon="12.4986052"><ele>260.66666666666663</ele><time>2026-05-03T09:55:46.342Z</time></trkpt><trkpt lat="43.1172139" lon="12.4986518"><ele>259.3333333333333</ele><time>2026-05-03T09:55:47.343Z</time></trkpt><trkpt lat="43.1170674" lon="12.4987028"><ele>258.0</ele><time>2026-05-03T09:55:48.342Z</time></trkpt><trkpt lat="43.1169132" lon="12.498742"><ele>258.25</ele><time>2026-05-03T09:55:49.342Z</time></trkpt><trkpt lat="43.1167668" lon="12.49879"><ele>258.5</ele><time>2026-05-03T09:55:50.342Z</time></trkpt><trkpt lat="43.1166244" lon="12.4988457"><ele>258.75</ele><time>2026-05-03T09:55:51.342Z</time></trkpt><trkpt lat="43.1164855" lon="12.4988947"><ele>259.0</ele><time>2026-05-03T09:55:52.342Z</time></trkpt><trkpt lat="43.1163452" lon="12.4989346"><ele>259.0</ele><time>2026-05-03T09:55:53.342Z</time></trkpt><trkpt lat="43.1162078" lon="12.4989839"><ele>259.0</ele><time>2026-05-03T09:55:54.342Z</time></trkpt><trkpt lat="43.1160824" lon="12.4990261"><ele>259.0</ele><time>2026-05-03T09:55:55.342Z</time></trkpt><trkpt lat="43.1159478" lon="12.4990534"><ele>259.0</ele><time>2026-05-03T09:55:56.343Z</time></trkpt><trkpt lat="43.1158173" lon="12.4990526"><ele>258.0</ele><time>2026-05-03T09:55:57.342Z</time></trkpt><trkpt lat="43.1156873" lon="12.4990231"><ele>257.0</ele><time>2026-05-03T09:55:58.342Z</time></trkpt><trkpt lat="43.1155571" lon="12.498986"><ele>256.0</ele><time>2026-05-03T09:55:59.342Z</time></trkpt><trkpt lat="43.1154186" lon="12.4989236"><ele>255.0</ele><time>2026-05-03T09:56:00.342Z</time></trkpt><trkpt lat="43.1152836" lon="12.4988628"><ele>255.0</ele><time>2026-05-03T09:56:01.342Z</time></trkpt><trkpt lat="43.1151466" lon="12.4987975"><ele>255.0</ele><time>2026-05-03T09:56:02.342Z</time></trkpt><trkpt lat="43.1150134" lon="12.4987254"><ele>255.0</ele><time>2026-05-03T09:56:03.342Z</time></trkpt><trkpt lat="43.1148686" lon="12.4986524"><ele>255.0</ele><time>2026-05-03T09:56:04.342Z</time></trkpt><trkpt lat="43.1147254" lon="12.4985817"><ele>254.5</ele><time>2026-05-03T09:56:05.342Z</time></trkpt><trkpt lat="43.1145889" lon="12.4985166"><ele>254.0</ele><time>2026-05-03T09:56:06.342Z</time></trkpt><trkpt lat="43.1144504" lon="12.4984468"><ele>253.5</ele><time>2026-05-03T09:56:07.342Z</time></trkpt><trkpt lat="43.1143044" lon="12.4983866"><ele>253.0</ele><time>2026-05-03T09:56:08.342Z</time></trkpt><trkpt lat="43.1141625" lon="12.4983225"><ele>253.5</ele><time>2026-05-03T09:56:09.343Z</time></trkpt><trkpt lat="43.1140189" lon="12.4982807"><ele>254.0</ele><time>2026-05-03T09:56:10.342Z</time></trkpt><trkpt lat="43.1138665" lon="12.4982532"><ele>254.5</ele><time>2026-05-03T09:56:11.342Z</time></trkpt><trkpt lat="43.1137242" lon="12.4982211"><ele>255.0</ele><time>2026-05-03T09:56:12.342Z</time></trkpt><trkpt lat="43.1135771" lon="12.4981998"><ele>255.0</ele><time>2026-05-03T09:56:13.342Z</time></trkpt><trkpt lat="43.113434" lon="12.4981852"><ele>255.0</ele><time>2026-05-03T09:56:14.342Z</time></trkpt><trkpt lat="43.1132892" lon="12.4981711"><ele>255.0</ele><time>2026-05-03T09:56:15.342Z</time></trkpt><trkpt lat="43.1131541" lon="12.498151"><ele>255.0</ele><time>2026-05-03T09:56:16.342Z</time></trkpt><trkpt lat="43.1130152" lon="12.4981245"><ele>256.0</ele><time>2026-05-03T09:56:17.342Z</time></trkpt><trkpt lat="43.1128768" lon="12.4981085"><ele>257.0</ele><time>2026-05-03T09:56:18.342Z</time></trkpt><trkpt lat="43.1127378" lon="12.4980906"><ele>258.0</ele><time>2026-05-03T09:56:19.342Z</time></trkpt><trkpt lat="43.112602" lon="12.4980717"><ele>259.0</ele><time>2026-05-03T09:56:20.342Z</time></trkpt><trkpt lat="43.1124659" lon="12.4980571"><ele>258.5</ele><time>2026-05-03T09:56:21.342Z</time></trkpt><trkpt lat="43.1123324" lon="12.4980492"><ele>258.0</ele><time>2026-05-03T09:56:22.342Z</time></trkpt><trkpt lat="43.1121931" lon="12.49803"><ele>257.5</ele><time>2026-05-03T09:56:23.342Z</time></trkpt><trkpt lat="43.1120529" lon="12.4980077"><ele>257.0</ele><time>2026-05-03T09:56:24.342Z</time></trkpt><trkpt lat="43.1119173" lon="12.4979792"><ele>257.0</ele><time>2026-05-03T09:56:25.342Z</time></trkpt><trkpt lat="43.1117824" lon="12.4979535"><ele>257.0</ele><time>2026-05-03T09:56:26.342Z</time></trkpt><trkpt lat="43.111645" lon="12.497924"><ele>257.0</ele><time>2026-05-03T09:56:27.342Z</time></trkpt><trkpt lat="43.1115123" lon="12.49788"><ele>257.0</ele><time>2026-05-03T09:56:28.342Z</time></trkpt><trkpt lat="43.1113699" lon="12.497834"><ele>256.75</ele><time>2026-05-03T09:56:29.343Z</time></trkpt><trkpt lat="43.1112362" lon="12.4978022"><ele>256.5</ele><time>2026-05-03T09:56:30.342Z</time></trkpt><trkpt lat="43.1111115" lon="12.4977631"><ele>256.25</ele><time>2026-05-03T09:56:31.342Z</time></trkpt><trkpt lat="43.1109876" lon="12.4977209"><ele>256.0</ele><time>2026-05-03T09:56:32.342Z</time></trkpt><trkpt lat="43.1108692" lon="12.4976737"><ele>256.0</ele><time>2026-05-03T09:56:33.342Z</time></trkpt><trkpt lat="43.1107679" lon="12.4976178"><ele>256.0</ele><time>2026-05-03T09:56:34.342Z</time></trkpt><trkpt lat="43.1106797" lon="12.4975537"><ele>256.0</ele><time>2026-05-03T09:56:35.342Z</time></trkpt><trkpt lat="43.1106017" lon="12.4975004"><ele>256.0</ele><time>2026-05-03T09:56:36.342Z</time></trkpt><trkpt lat="43.1105222" lon="12.497435"><ele>256.0</ele><time>2026-05-03T09:56:37.342Z</time></trkpt><trkpt lat="43.1104408" lon="12.4973549"><ele>256.0</ele><time>2026-05-03T09:56:38.342Z</time></trkpt><trkpt lat="43.110358" lon="12.497265"><ele>256.0</ele><time>2026-05-03T09:56:39.342Z</time></trkpt><trkpt lat="43.1102693" lon="12.4971943"><ele>256.0</ele><time>2026-05-03T09:56:40.342Z</time></trkpt><trkpt lat="43.1101826" lon="12.4971201"><ele>256.0</ele><time>2026-05-03T09:56:41.342Z</time></trkpt><trkpt lat="43.1100935" lon="12.4970378"><ele>256.0</ele><time>2026-05-03T09:56:42.342Z</time></trkpt><trkpt lat="43.1100027" lon="12.4969465"><ele>256.25</ele><time>2026-05-03T09:56:43.342Z</time></trkpt><trkpt lat="43.1099059" lon="12.4968654"><ele>256.5</ele><time>2026-05-03T09:56:44.342Z</time></trkpt><trkpt lat="43.1098138" lon="12.4967532"><ele>256.75</ele><time>2026-05-03T09:56:45.342Z</time></trkpt><trkpt lat="43.1097211" lon="12.4966443"><ele>257.0</ele><time>2026-05-03T09:56:46.342Z</time></trkpt><trkpt lat="43.10963" lon="12.4965235"><ele>257.0</ele><time>2026-05-03T09:56:47.342Z</time></trkpt><trkpt lat="43.1095498" lon="12.4963908"><ele>257.0</ele><time>2026-05-03T09:56:48.342Z</time></trkpt><trkpt lat="43.1094655" lon="12.4962667"><ele>257.0</ele><time>2026-05-03T09:56:49.342Z</time></trkpt><trkpt lat="43.1093886" lon="12.4961415"><ele>257.0</ele><time>2026-05-03T09:56:50.342Z</time></trkpt><trkpt lat="43.1093087" lon="12.4960062"><ele>256.75</ele><time>2026-05-03T09:56:51.342Z</time></trkpt><trkpt lat="43.1092255" lon="12.4958638"><ele>256.5</ele><time>2026-05-03T09:56:52.342Z</time></trkpt><trkpt lat="43.1091393" lon="12.4957162"><ele>256.25</ele><time>2026-05-03T09:56:53.342Z</time></trkpt><trkpt lat="43.1090499" lon="12.4955657"><ele>256.0</ele><time>2026-05-03T09:56:54.342Z</time></trkpt><trkpt lat="43.1089626" lon="12.4954236"><ele>255.75</ele><time>2026-05-03T09:56:55.342Z</time></trkpt><trkpt lat="43.1088737" lon="12.4952938"><ele>255.5</ele><time>2026-05-03T09:56:56.342Z</time></trkpt><trkpt lat="43.1087885" lon="12.4951521"><ele>255.25</ele><time>2026-05-03T09:56:57.342Z</time></trkpt><trkpt lat="43.1087056" lon="12.4950085"><ele>255.0</ele><time>2026-05-03T09:56:58.342Z</time></trkpt><trkpt lat="43.1086206" lon="12.4948745"><ele>255.0</ele><time>2026-05-03T09:56:59.342Z</time></trkpt><trkpt lat="43.1085209" lon="12.4947422"><ele>255.0</ele><time>2026-05-03T09:57:00.343Z</time></trkpt><trkpt lat="43.1084055" lon="12.4946124"><ele>255.0</ele><time>2026-05-03T09:57:01.342Z</time></trkpt><trkpt lat="43.1082903" lon="12.4944895"><ele>255.0</ele><time>2026-05-03T09:57:02.342Z</time></trkpt><trkpt lat="43.1081786" lon="12.494368"><ele>253.25</ele><time>2026-05-03T09:57:03.342Z</time></trkpt><trkpt lat="43.1080623" lon="12.4942632"><ele>251.5</ele><time>2026-05-03T09:57:04.342Z</time></trkpt><trkpt lat="43.1079507" lon="12.4941581"><ele>249.75</ele><time>2026-05-03T09:57:05.342Z</time></trkpt><trkpt lat="43.1078458" lon="12.4940681"><ele>248.0</ele><time>2026-05-03T09:57:06.342Z</time></trkpt><trkpt lat="43.1077479" lon="12.4939788"><ele>248.0</ele><time>2026-05-03T09:57:07.342Z</time></trkpt><trkpt lat="43.1076554" lon="12.4938834"><ele>248.0</ele><time>2026-05-03T09:57:08.342Z</time></trkpt><trkpt lat="43.1075607" lon="12.4937921"><ele>248.0</ele><time>2026-05-03T09:57:09.342Z</time></trkpt><trkpt lat="43.1074729" lon="12.4937073"><ele>248.0</ele><time>2026-05-03T09:57:10.342Z</time></trkpt><trkpt lat="43.107389" lon="12.4936041"><ele>248.5</ele><time>2026-05-03T09:57:11.342Z</time></trkpt><trkpt lat="43.1073048" lon="12.4934879"><ele>249.0</ele><time>2026-05-03T09:57:12.342Z</time></trkpt><trkpt lat="43.1072222" lon="12.4933797"><ele>249.5</ele><time>2026-05-03T09:57:13.342Z</time></trkpt><trkpt lat="43.1071445" lon="12.4932682"><ele>250.0</ele><time>2026-05-03T09:57:14.342Z</time></trkpt><trkpt lat="43.1070697" lon="12.4931656"><ele>250.0</ele><time>2026-05-03T09:57:15.342Z</time></trkpt><trkpt lat="43.1069899" lon="12.4930614"><ele>250.0</ele><time>2026-05-03T09:57:16.342Z</time></trkpt><trkpt lat="43.106923" lon="12.4929759"><ele>250.0</ele><time>2026-05-03T09:57:17.342Z</time></trkpt><trkpt lat="43.1068532" lon="12.4928808"><ele>250.0</ele><time>2026-05-03T09:57:18.342Z</time></trkpt><trkpt lat="43.1067838" lon="12.4927853"><ele>250.0</ele><time>2026-05-03T09:57:19.342Z</time></trkpt><trkpt lat="43.1067156" lon="12.4926905"><ele>249.8</ele><time>2026-05-03T09:57:20.342Z</time></trkpt><trkpt lat="43.1066474" lon="12.4925829"><ele>249.6</ele><time>2026-05-03T09:57:21.342Z</time></trkpt><trkpt lat="43.1065722" lon="12.4924852"><ele>249.39999999999998</ele><time>2026-05-03T09:57:22.342Z</time></trkpt><trkpt lat="43.1065027" lon="12.4923926"><ele>249.2</ele><time>2026-05-03T09:57:23.342Z</time></trkpt><trkpt lat="43.1064246" lon="12.4922937"><ele>249.0</ele><time>2026-05-03T09:57:24.342Z</time></trkpt><trkpt lat="43.1063408" lon="12.4921887"><ele>249.79999999999998</ele><time>2026-05-03T09:57:25.342Z</time></trkpt><trkpt lat="43.1062636" lon="12.4920813"><ele>250.59999999999997</ele><time>2026-05-03T09:57:26.342Z</time></trkpt><trkpt lat="43.1061836" lon="12.4919732"><ele>251.4</ele><time>2026-05-03T09:57:27.342Z</time></trkpt><trkpt lat="43.1061012" lon="12.4918693"><ele>252.2</ele><time>2026-05-03T09:57:28.342Z</time></trkpt><trkpt lat="43.1060196" lon="12.4917677"><ele>253.0</ele><time>2026-05-03T09:57:29.342Z</time></trkpt><trkpt lat="43.1059351" lon="12.4916722"><ele>253.0</ele><time>2026-05-03T09:57:30.342Z</time></trkpt><trkpt lat="43.1058447" lon="12.4916142"><ele>253.0</ele><time>2026-05-03T09:57:31.342Z</time></trkpt><trkpt lat="43.1057563" lon="12.4915665"><ele>253.0</ele><time>2026-05-03T09:57:32.342Z</time></trkpt><trkpt lat="43.10567" lon="12.4915331"><ele>253.0</ele><time>2026-05-03T09:57:33.342Z</time></trkpt><trkpt lat="43.1055863" lon="12.4915111"><ele>253.0</ele><time>2026-05-03T09:57:34.342Z</time></trkpt><trkpt lat="43.105505" lon="12.4914788"><ele>252.99999999999997</ele><time>2026-05-03T09:57:35.342Z</time></trkpt><trkpt lat="43.1054127" lon="12.49145"><ele>253.0</ele><time>2026-05-03T09:57:36.343Z</time></trkpt><trkpt lat="43.1053361" lon="12.4914388"><ele>253.0</ele><time>2026-05-03T09:57:37.342Z</time></trkpt><trkpt lat="43.1052627" lon="12.4914114"><ele>253.0</ele><time>2026-05-03T09:57:38.342Z</time></trkpt><trkpt lat="43.1051843" lon="12.4913806"><ele>252.99999999999997</ele><time>2026-05-03T09:57:39.343Z</time></trkpt><trkpt lat="43.1051116" lon="12.4913522"><ele>253.0</ele><time>2026-05-03T09:57:40.342Z</time></trkpt><trkpt lat="43.1050491" lon="12.4913299"><ele>253.0</ele><time>2026-05-03T09:57:41.342Z</time></trkpt><trkpt lat="43.1049368" lon="12.4913006"><ele>253.0</ele><time>2026-05-03T09:57:43.342Z</time></trkpt><trkpt lat="43.1048415" lon="12.4912717"><ele>253.0</ele><time>2026-05-03T09:57:45.342Z</time></trkpt><trkpt lat="43.1047528" lon="12.4912583"><ele>253.0</ele><time>2026-05-03T09:57:47.342Z</time></trkpt><trkpt lat="43.1046509" lon="12.4912222"><ele>253.0</ele><time>2026-05-03T09:57:49.342Z</time></trkpt><trkpt lat="43.1045387" lon="12.4911906"><ele>254.4</ele><time>2026-05-03T09:57:51.342Z</time></trkpt><trkpt lat="43.1044479" lon="12.4911435"><ele>255.8</ele><time>2026-05-03T09:57:53.342Z</time></trkpt><trkpt lat="43.1043622" lon="12.4910915"><ele>257.2</ele><time>2026-05-03T09:57:55.342Z</time></trkpt><trkpt lat="43.1042861" lon="12.4910314"><ele>258.6</ele><time>2026-05-03T09:57:57.342Z</time></trkpt><trkpt lat="43.1042159" lon="12.4909291"><ele>260.0</ele><time>2026-05-03T09:57:59.342Z</time></trkpt><trkpt lat="43.1041729" lon="12.4908011"><ele>260.0</ele><time>2026-05-03T09:58:01.342Z</time></trkpt><trkpt lat="43.1041658" lon="12.4906564"><ele>260.0</ele><time>2026-05-03T09:58:03.342Z</time></trkpt><trkpt lat="43.1041716" lon="12.4905341"><ele>260.0</ele><time>2026-05-03T09:58:05.342Z</time></trkpt><trkpt lat="43.1041633" lon="12.4904295"><ele>260.0</ele><time>2026-05-03T09:58:07.342Z</time></trkpt><trkpt lat="43.104153" lon="12.4903187"><ele>260.0</ele><time>2026-05-03T09:58:09.342Z</time></trkpt><trkpt lat="43.1041236" lon="12.4901876"><ele>258.1666666666667</ele><time>2026-05-03T09:58:11.343Z</time></trkpt><trkpt lat="43.1040527" lon="12.4900741"><ele>256.33333333333337</ele><time>2026-05-03T09:58:13.342Z</time></trkpt><trkpt lat="43.1039548" lon="12.489969"><ele>254.5</ele><time>2026-05-03T09:58:15.342Z</time></trkpt><trkpt lat="43.1038951" lon="12.4899215"><ele>252.66666666666669</ele><time>2026-05-03T09:58:16.343Z</time></trkpt><trkpt lat="43.1038382" lon="12.4898673"><ele>250.83333333333334</ele><time>2026-05-03T09:58:17.343Z</time></trkpt><trkpt lat="43.1037824" lon="12.4898175"><ele>249.0</ele><time>2026-05-03T09:58:18.342Z</time></trkpt><trkpt lat="43.1037336" lon="12.4897623"><ele>249.0</ele><time>2026-05-03T09:58:19.343Z</time></trkpt><trkpt lat="43.1036358" lon="12.4896796"><ele>248.99999999999997</ele><time>2026-05-03T09:58:21.342Z</time></trkpt><trkpt lat="43.1035325" lon="12.4896274"><ele>248.99999999999997</ele><time>2026-05-03T09:58:23.342Z</time></trkpt><trkpt lat="43.1034283" lon="12.4896053"><ele>249.0</ele><time>2026-05-03T09:58:25.342Z</time></trkpt><trkpt lat="43.1033469" lon="12.4895867"><ele>249.0</ele><time>2026-05-03T09:58:27.343Z</time></trkpt><trkpt lat="43.1032847" lon="12.4895619"><ele>248.0</ele><time>2026-05-03T09:58:29.343Z</time></trkpt><trkpt lat="43.103233" lon="12.4895123"><ele>246.99999999999997</ele><time>2026-05-03T09:58:31.342Z</time></trkpt><trkpt lat="43.1031929" lon="12.4894004"><ele>245.99999999999997</ele><time>2026-05-03T09:58:33.342Z</time></trkpt><trkpt lat="43.1031628" lon="12.4892509"><ele>245.0</ele><time>2026-05-03T09:58:35.342Z</time></trkpt><trkpt lat="43.1031296" lon="12.4891045"><ele>244.0</ele><time>2026-05-03T09:58:37.342Z</time></trkpt><trkpt lat="43.1030974" lon="12.4889539"><ele>243.99999999999997</ele><time>2026-05-03T09:58:39.342Z</time></trkpt><trkpt lat="43.1030661" lon="12.4888338"><ele>244.0</ele><time>2026-05-03T09:58:41.342Z</time></trkpt><trkpt lat="43.1030258" lon="12.4887272"><ele>244.0</ele><time>2026-05-03T09:58:43.342Z</time></trkpt><trkpt lat="43.1029903" lon="12.4886259"><ele>244.0</ele><time>2026-05-03T09:58:45.343Z</time></trkpt><trkpt lat="43.1029529" lon="12.4885322"><ele>243.99999999999997</ele><time>2026-05-03T09:58:47.342Z</time></trkpt><trkpt lat="43.102915" lon="12.4884493"><ele>244.0</ele><time>2026-05-03T09:58:49.342Z</time></trkpt><trkpt lat="43.1028851" lon="12.4883709"><ele>243.79999999999998</ele><time>2026-05-03T09:58:51.342Z</time></trkpt><trkpt lat="43.1028567" lon="12.4882598"><ele>243.59999999999997</ele><time>2026-05-03T09:58:54.342Z</time></trkpt><trkpt lat="43.1028415" lon="12.4881686"><ele>243.4</ele><time>2026-05-03T09:58:57.342Z</time></trkpt><trkpt lat="43.1027325" lon="12.4881898"><ele>243.2</ele><time>2026-05-03T09:59:00.342Z</time></trkpt><trkpt lat="43.1026087" lon="12.4882296"><ele>243.0</ele><time>2026-05-03T09:59:02.343Z</time></trkpt><trkpt lat="43.1024866" lon="12.4883002"><ele>243.0</ele><time>2026-05-03T09:59:04.342Z</time></trkpt><trkpt lat="43.1024176" lon="12.4883495"><ele>243.0</ele><time>2026-05-03T09:59:05.342Z</time></trkpt><trkpt lat="43.1023412" lon="12.4884025"><ele>243.0</ele><time>2026-05-03T09:59:06.342Z</time></trkpt><trkpt lat="43.1022715" lon="12.4884673"><ele>243.0</ele><time>2026-05-03T09:59:07.343Z</time></trkpt><trkpt lat="43.1021905" lon="12.4885313"><ele>243.0</ele><time>2026-05-03T09:59:08.342Z</time></trkpt><trkpt lat="43.1021278" lon="12.4886176"><ele>243.0</ele><time>2026-05-03T09:59:09.342Z</time></trkpt><trkpt lat="43.1020517" lon="12.4887043"><ele>241.60000000000002</ele><time>2026-05-03T09:59:10.342Z</time></trkpt><trkpt lat="43.1019727" lon="12.4888043"><ele>240.20000000000002</ele><time>2026-05-03T09:59:11.342Z</time></trkpt><trkpt lat="43.1018964" lon="12.488905"><ele>238.8</ele><time>2026-05-03T09:59:12.342Z</time></trkpt><trkpt lat="43.101802" lon="12.4890014"><ele>237.4</ele><time>2026-05-03T09:59:13.342Z</time></trkpt><trkpt lat="43.101709" lon="12.489095"><ele>236.0</ele><time>2026-05-03T09:59:14.343Z</time></trkpt><trkpt lat="43.1016141" lon="12.4891838"><ele>235.4</ele><time>2026-05-03T09:59:15.343Z</time></trkpt><trkpt lat="43.1015224" lon="12.4892792"><ele>234.8</ele><time>2026-05-03T09:59:16.342Z</time></trkpt><trkpt lat="43.1014258" lon="12.4893572"><ele>234.20000000000002</ele><time>2026-05-03T09:59:17.342Z</time></trkpt><trkpt lat="43.1013316" lon="12.4894167"><ele>233.60000000000002</ele><time>2026-05-03T09:59:18.342Z</time></trkpt><trkpt lat="43.1012319" lon="12.4894865"><ele>233.0</ele><time>2026-05-03T09:59:19.342Z</time></trkpt><trkpt lat="43.1011272" lon="12.4895483"><ele>231.25</ele><time>2026-05-03T09:59:20.342Z</time></trkpt><trkpt lat="43.1010176" lon="12.4896032"><ele>229.5</ele><time>2026-05-03T09:59:21.342Z</time></trkpt><trkpt lat="43.1008987" lon="12.4896678"><ele>227.75</ele><time>2026-05-03T09:59:22.342Z</time></trkpt><trkpt lat="43.1007809" lon="12.4897405"><ele>226.0</ele><time>2026-05-03T09:59:23.342Z</time></trkpt><trkpt lat="43.100658" lon="12.4898071"><ele>225.75</ele><time>2026-05-03T09:59:24.342Z</time></trkpt><trkpt lat="43.1005341" lon="12.4898714"><ele>225.5</ele><time>2026-05-03T09:59:25.342Z</time></trkpt><trkpt lat="43.1004094" lon="12.4899509"><ele>225.25</ele><time>2026-05-03T09:59:26.342Z</time></trkpt><trkpt lat="43.1002798" lon="12.4900126"><ele>225.0</ele><time>2026-05-03T09:59:27.342Z</time></trkpt><trkpt lat="43.1001573" lon="12.4900795"><ele>225.0</ele><time>2026-05-03T09:59:28.342Z</time></trkpt><trkpt lat="43.100034" lon="12.4901358"><ele>225.0</ele><time>2026-05-03T09:59:29.342Z</time></trkpt><trkpt lat="43.0999168" lon="12.4901926"><ele>225.0</ele><time>2026-05-03T09:59:30.343Z</time></trkpt><trkpt lat="43.0998" lon="12.4902601"><ele>225.0</ele><time>2026-05-03T09:59:31.342Z</time></trkpt><trkpt lat="43.0996716" lon="12.4903201"><ele>225.0</ele><time>2026-05-03T09:59:32.342Z</time></trkpt><trkpt lat="43.0995469" lon="12.4903839"><ele>225.0</ele><time>2026-05-03T09:59:33.342Z</time></trkpt><trkpt lat="43.0994192" lon="12.490439"><ele>225.0</ele><time>2026-05-03T09:59:34.342Z</time></trkpt><trkpt lat="43.0992896" lon="12.4904981"><ele>225.0</ele><time>2026-05-03T09:59:35.342Z</time></trkpt><trkpt lat="43.0991562" lon="12.4905624"><ele>223.5</ele><time>2026-05-03T09:59:36.342Z</time></trkpt><trkpt lat="43.0990234" lon="12.4906348"><ele>222.0</ele><time>2026-05-03T09:59:37.342Z</time></trkpt><trkpt lat="43.0988914" lon="12.4907048"><ele>220.5</ele><time>2026-05-03T09:59:38.342Z</time></trkpt><trkpt lat="43.0987567" lon="12.4907658"><ele>219.0</ele><time>2026-05-03T09:59:39.342Z</time></trkpt><trkpt lat="43.0986194" lon="12.4908269"><ele>219.0</ele><time>2026-05-03T09:59:40.342Z</time></trkpt><trkpt lat="43.098483" lon="12.4908905"><ele>219.0</ele><time>2026-05-03T09:59:41.342Z</time></trkpt><trkpt lat="43.0983448" lon="12.4909551"><ele>219.0</ele><time>2026-05-03T09:59:42.342Z</time></trkpt><trkpt lat="43.0982093" lon="12.4910185"><ele>219.0</ele><time>2026-05-03T09:59:43.343Z</time></trkpt><trkpt lat="43.0980708" lon="12.4910745"><ele>218.5</ele><time>2026-05-03T09:59:44.342Z</time></trkpt><trkpt lat="43.0979331" lon="12.4911333"><ele>218.0</ele><time>2026-05-03T09:59:45.342Z</time></trkpt><trkpt lat="43.0978004" lon="12.4912003"><ele>217.5</ele><time>2026-05-03T09:59:46.342Z</time></trkpt><trkpt lat="43.097666" lon="12.4912715"><ele>217.0</ele><time>2026-05-03T09:59:47.342Z</time></trkpt><trkpt lat="43.0975323" lon="12.4913585"><ele>215.0</ele><time>2026-05-03T09:59:48.342Z</time></trkpt><trkpt lat="43.0973951" lon="12.4914178"><ele>213.0</ele><time>2026-05-03T09:59:49.342Z</time></trkpt><trkpt lat="43.0972654" lon="12.4914917"><ele>211.0</ele><time>2026-05-03T09:59:50.342Z</time></trkpt><trkpt lat="43.0971318" lon="12.4915587"><ele>209.0</ele><time>2026-05-03T09:59:51.343Z</time></trkpt><trkpt lat="43.0969975" lon="12.4916258"><ele>209.0</ele><time>2026-05-03T09:59:52.342Z</time></trkpt><trkpt lat="43.0968722" lon="12.491687"><ele>209.0</ele><time>2026-05-03T09:59:53.342Z</time></trkpt><trkpt lat="43.0967448" lon="12.4917646"><ele>209.0</ele><time>2026-05-03T09:59:54.342Z</time></trkpt><trkpt lat="43.0966157" lon="12.4918308"><ele>209.0</ele><time>2026-05-03T09:59:55.342Z</time></trkpt><trkpt lat="43.0964982" lon="12.4918777"><ele>208.79999999999998</ele><time>2026-05-03T09:59:56.342Z</time></trkpt><trkpt lat="43.0963905" lon="12.4919478"><ele>208.6</ele><time>2026-05-03T09:59:57.343Z</time></trkpt><trkpt lat="43.096299" lon="12.4919964"><ele>208.4</ele><time>2026-05-03T09:59:58.342Z</time></trkpt><trkpt lat="43.0962175" lon="12.4920326"><ele>208.2</ele><time>2026-05-03T09:59:59.342Z</time></trkpt><trkpt lat="43.0961535" lon="12.4920674"><ele>208.0</ele><time>2026-05-03T10:00:00.342Z</time></trkpt><trkpt lat="43.0960576" lon="12.4921385"><ele>207.66666666666666</ele><time>2026-05-03T10:00:02.342Z</time></trkpt><trkpt lat="43.096014" lon="12.4922561"><ele>207.33333333333331</ele><time>2026-05-03T10:00:04.342Z</time></trkpt><trkpt lat="43.0960044" lon="12.4923459"><ele>207.0</ele><time>2026-05-03T10:00:05.342Z</time></trkpt><trkpt lat="43.0959914" lon="12.4924519"><ele>206.66666666666669</ele><time>2026-05-03T10:00:06.343Z</time></trkpt><trkpt lat="43.0959795" lon="12.4925699"><ele>206.33333333333334</ele><time>2026-05-03T10:00:07.342Z</time></trkpt><trkpt lat="43.0959576" lon="12.4927088"><ele>206.0</ele><time>2026-05-03T10:00:08.342Z</time></trkpt><trkpt lat="43.0959516" lon="12.4928632"><ele>205.4</ele><time>2026-05-03T10:00:09.342Z</time></trkpt><trkpt lat="43.0959332" lon="12.4930155"><ele>204.8</ele><time>2026-05-03T10:00:10.342Z</time></trkpt><trkpt lat="43.0959203" lon="12.4931679"><ele>204.20000000000002</ele><time>2026-05-03T10:00:11.342Z</time></trkpt><trkpt lat="43.0959107" lon="12.4933162"><ele>203.60000000000002</ele><time>2026-05-03T10:00:12.342Z</time></trkpt><trkpt lat="43.0958998" lon="12.4934618"><ele>203.0</ele><time>2026-05-03T10:00:13.342Z</time></trkpt><trkpt lat="43.0958816" lon="12.4936172"><ele>203.0</ele><time>2026-05-03T10:00:14.342Z</time></trkpt><trkpt lat="43.0958589" lon="12.4937773"><ele>203.0</ele><time>2026-05-03T10:00:15.342Z</time></trkpt><trkpt lat="43.0958219" lon="12.4939466"><ele>203.0</ele><time>2026-05-03T10:00:16.342Z</time></trkpt><trkpt lat="43.0957674" lon="12.4941148"><ele>203.0</ele><time>2026-05-03T10:00:17.342Z</time></trkpt><trkpt lat="43.0957099" lon="12.4942735"><ele>202.75</ele><time>2026-05-03T10:00:18.342Z</time></trkpt><trkpt lat="43.0956496" lon="12.4944226"><ele>202.5</ele><time>2026-05-03T10:00:19.342Z</time></trkpt><trkpt lat="43.0955847" lon="12.4945693"><ele>202.25</ele><time>2026-05-03T10:00:20.342Z</time></trkpt><trkpt lat="43.0955271" lon="12.4947188"><ele>202.0</ele><time>2026-05-03T10:00:21.343Z</time></trkpt><trkpt lat="43.0954702" lon="12.494862"><ele>202.0</ele><time>2026-05-03T10:00:22.342Z</time></trkpt><trkpt lat="43.0954129" lon="12.4950004"><ele>202.0</ele><time>2026-05-03T10:00:23.342Z</time></trkpt><trkpt lat="43.0953557" lon="12.4951523"><ele>202.0</ele><time>2026-05-03T10:00:24.342Z</time></trkpt><trkpt lat="43.0952951" lon="12.4953047"><ele>202.0</ele><time>2026-05-03T10:00:25.342Z</time></trkpt><trkpt lat="43.0952387" lon="12.4954571"><ele>201.5</ele><time>2026-05-03T10:00:26.342Z</time></trkpt><trkpt lat="43.0951776" lon="12.4956034"><ele>201.0</ele><time>2026-05-03T10:00:27.343Z</time></trkpt><trkpt lat="43.0951111" lon="12.4957646"><ele>200.5</ele><time>2026-05-03T10:00:28.343Z</time></trkpt><trkpt lat="43.0950454" lon="12.4959216"><ele>200.0</ele><time>2026-05-03T10:00:29.342Z</time></trkpt><trkpt lat="43.0949824" lon="12.4960816"><ele>200.5</ele><time>2026-05-03T10:00:30.342Z</time></trkpt><trkpt lat="43.0949187" lon="12.4962252"><ele>201.0</ele><time>2026-05-03T10:00:31.342Z</time></trkpt><trkpt lat="43.0948603" lon="12.4963588"><ele>201.5</ele><time>2026-05-03T10:00:32.342Z</time></trkpt><trkpt lat="43.0948074" lon="12.4964949"><ele>202.0</ele><time>2026-05-03T10:00:33.342Z</time></trkpt><trkpt lat="43.0947488" lon="12.4966296"><ele>202.0</ele><time>2026-05-03T10:00:34.342Z</time></trkpt><trkpt lat="43.0946959" lon="12.496743"><ele>202.0</ele><time>2026-05-03T10:00:35.342Z</time></trkpt><trkpt lat="43.0946561" lon="12.4968526"><ele>202.0</ele><time>2026-05-03T10:00:36.342Z</time></trkpt><trkpt lat="43.0946148" lon="12.4969634"><ele>202.0</ele><time>2026-05-03T10:00:37.342Z</time></trkpt><trkpt lat="43.0945713" lon="12.4970859"><ele>202.0</ele><time>2026-05-03T10:00:38.342Z</time></trkpt><trkpt lat="43.0945211" lon="12.4972046"><ele>202.0</ele><time>2026-05-03T10:00:39.342Z</time></trkpt><trkpt lat="43.0944766" lon="12.4973233"><ele>202.0</ele><time>2026-05-03T10:00:40.342Z</time></trkpt><trkpt lat="43.0944247" lon="12.4974443"><ele>202.0</ele><time>2026-05-03T10:00:41.342Z</time></trkpt><trkpt lat="43.0943702" lon="12.4975755"><ele>202.0</ele><time>2026-05-03T10:00:42.342Z</time></trkpt><trkpt lat="43.0943217" lon="12.4977011"><ele>202.0</ele><time>2026-05-03T10:00:43.342Z</time></trkpt><trkpt lat="43.0942767" lon="12.4978325"><ele>201.99999999999997</ele><time>2026-05-03T10:00:44.342Z</time></trkpt><trkpt lat="43.0942398" lon="12.4979425"><ele>202.0</ele><time>2026-05-03T10:00:45.342Z</time></trkpt><trkpt lat="43.094202" lon="12.4980484"><ele>202.0</ele><time>2026-05-03T10:00:46.342Z</time></trkpt><trkpt lat="43.0941642" lon="12.4981516"><ele>202.0</ele><time>2026-05-03T10:00:47.342Z</time></trkpt><trkpt lat="43.0941231" lon="12.4982453"><ele>201.99999999999997</ele><time>2026-05-03T10:00:48.342Z</time></trkpt><trkpt lat="43.0940887" lon="12.4983301"><ele>202.0</ele><time>2026-05-03T10:00:49.342Z</time></trkpt><trkpt lat="43.0940191" lon="12.4984564"><ele>202.0</ele><time>2026-05-03T10:00:51.343Z</time></trkpt><trkpt lat="43.093922" lon="12.4985154"><ele>202.0</ele><time>2026-05-03T10:00:53.342Z</time></trkpt><trkpt lat="43.0938031" lon="12.4985442"><ele>202.0</ele><time>2026-05-03T10:00:55.342Z</time></trkpt><trkpt lat="43.0937407" lon="12.498566"><ele>202.0</ele><time>2026-05-03T10:00:56.342Z</time></trkpt><trkpt lat="43.0936505" lon="12.4986581"><ele>202.0</ele><time>2026-05-03T10:00:58.342Z</time></trkpt><trkpt lat="43.093607" lon="12.4987315"><ele>201.99999999999997</ele><time>2026-05-03T10:00:59.342Z</time></trkpt><trkpt lat="43.093602" lon="12.4988273"><ele>202.0</ele><time>2026-05-03T10:01:00.342Z</time></trkpt><trkpt lat="43.0936004" lon="12.4989395"><ele>202.0</ele><time>2026-05-03T10:01:01.343Z</time></trkpt><trkpt lat="43.0935833" lon="12.4990623"><ele>202.0</ele><time>2026-05-03T10:01:02.342Z</time></trkpt><trkpt lat="43.0935757" lon="12.4991858"><ele>201.99999999999997</ele><time>2026-05-03T10:01:03.343Z</time></trkpt><trkpt lat="43.0935643" lon="12.4993134"><ele>202.0</ele><time>2026-05-03T10:01:04.342Z</time></trkpt><trkpt lat="43.0935479" lon="12.4994435"><ele>202.0</ele><time>2026-05-03T10:01:05.342Z</time></trkpt><trkpt lat="43.0935297" lon="12.4995726"><ele>202.0</ele><time>2026-05-03T10:01:06.342Z</time></trkpt><trkpt lat="43.0935097" lon="12.4997145"><ele>202.0</ele><time>2026-05-03T10:01:07.342Z</time></trkpt><trkpt lat="43.0934904" lon="12.4998535"><ele>202.0</ele><time>2026-05-03T10:01:08.342Z</time></trkpt><trkpt lat="43.0934664" lon="12.4999953"><ele>202.0</ele><time>2026-05-03T10:01:09.342Z</time></trkpt><trkpt lat="43.0934382" lon="12.5001489"><ele>202.0</ele><time>2026-05-03T10:01:10.342Z</time></trkpt><trkpt lat="43.0934115" lon="12.5002941"><ele>202.0</ele><time>2026-05-03T10:01:11.342Z</time></trkpt><trkpt lat="43.0933812" lon="12.5004426"><ele>202.0</ele><time>2026-05-03T10:01:12.342Z</time></trkpt><trkpt lat="43.0933518" lon="12.5005946"><ele>202.0</ele><time>2026-05-03T10:01:13.342Z</time></trkpt><trkpt lat="43.0933191" lon="12.5007366"><ele>202.0</ele><time>2026-05-03T10:01:14.342Z</time></trkpt><trkpt lat="43.093282" lon="12.5008842"><ele>202.0</ele><time>2026-05-03T10:01:15.342Z</time></trkpt><trkpt lat="43.0932545" lon="12.5010315"><ele>202.0</ele><time>2026-05-03T10:01:16.342Z</time></trkpt><trkpt lat="43.0932217" lon="12.5011772"><ele>202.0</ele><time>2026-05-03T10:01:17.342Z</time></trkpt><trkpt lat="43.0931755" lon="12.501313"><ele>202.0</ele><time>2026-05-03T10:01:18.343Z</time></trkpt><trkpt lat="43.0931388" lon="12.5014643"><ele>202.0</ele><time>2026-05-03T10:01:19.342Z</time></trkpt><trkpt lat="43.0931074" lon="12.5016188"><ele>202.0</ele><time>2026-05-03T10:01:20.342Z</time></trkpt><trkpt lat="43.0930763" lon="12.5017645"><ele>202.0</ele><time>2026-05-03T10:01:21.342Z</time></trkpt><trkpt lat="43.0930375" lon="12.5019256"><ele>202.0</ele><time>2026-05-03T10:01:22.342Z</time></trkpt><trkpt lat="43.0929799" lon="12.5020807"><ele>202.0</ele><time>2026-05-03T10:01:23.342Z</time></trkpt><trkpt lat="43.0929407" lon="12.5022393"><ele>202.0</ele><time>2026-05-03T10:01:24.342Z</time></trkpt><trkpt lat="43.0928943" lon="12.5024043"><ele>202.0</ele><time>2026-05-03T10:01:25.342Z</time></trkpt><trkpt lat="43.0928553" lon="12.5025563"><ele>202.0</ele><time>2026-05-03T10:01:26.342Z</time></trkpt><trkpt lat="43.0928143" lon="12.5026981"><ele>202.0</ele><time>2026-05-03T10:01:27.343Z</time></trkpt><trkpt lat="43.0927752" lon="12.502847"><ele>202.39999999999998</ele><time>2026-05-03T10:01:28.342Z</time></trkpt><trkpt lat="43.0927372" lon="12.5029832"><ele>202.79999999999998</ele><time>2026-05-03T10:01:29.342Z</time></trkpt><trkpt lat="43.0927029" lon="12.5031205"><ele>203.2</ele><time>2026-05-03T10:01:30.342Z</time></trkpt><trkpt lat="43.0926543" lon="12.5032385"><ele>203.6</ele><time>2026-05-03T10:01:31.342Z</time></trkpt><trkpt lat="43.0925801" lon="12.5033208"><ele>204.0</ele><time>2026-05-03T10:01:32.343Z</time></trkpt><trkpt lat="43.0925016" lon="12.5033619"><ele>203.79999999999998</ele><time>2026-05-03T10:01:33.342Z</time></trkpt><trkpt lat="43.0924074" lon="12.5033671"><ele>203.6</ele><time>2026-05-03T10:01:34.342Z</time></trkpt><trkpt lat="43.092311" lon="12.5033306"><ele>203.4</ele><time>2026-05-03T10:01:35.342Z</time></trkpt><trkpt lat="43.0922195" lon="12.5032842"><ele>203.2</ele><time>2026-05-03T10:01:36.343Z</time></trkpt><trkpt lat="43.0921144" lon="12.503231"><ele>203.0</ele><time>2026-05-03T10:01:37.342Z</time></trkpt><trkpt lat="43.0920061" lon="12.503172"><ele>203.0</ele><time>2026-05-03T10:01:38.342Z</time></trkpt><trkpt lat="43.0918956" lon="12.5031164"><ele>203.0</ele><time>2026-05-03T10:01:39.342Z</time></trkpt><trkpt lat="43.0917842" lon="12.5030722"><ele>203.0</ele><time>2026-05-03T10:01:40.342Z</time></trkpt><trkpt lat="43.0916652" lon="12.5030213"><ele>203.0</ele><time>2026-05-03T10:01:41.343Z</time></trkpt><trkpt lat="43.0915458" lon="12.5029605"><ele>202.25</ele><time>2026-05-03T10:01:42.342Z</time></trkpt><trkpt lat="43.0914242" lon="12.5029043"><ele>201.5</ele><time>2026-05-03T10:01:43.342Z</time></trkpt><trkpt lat="43.0913052" lon="12.5028508"><ele>200.75</ele><time>2026-05-03T10:01:44.343Z</time></trkpt><trkpt lat="43.0911864" lon="12.5027964"><ele>200.0</ele><time>2026-05-03T10:01:45.342Z</time></trkpt><trkpt lat="43.0910777" lon="12.5027497"><ele>200.0</ele><time>2026-05-03T10:01:46.342Z</time></trkpt><trkpt lat="43.0909599" lon="12.5027005"><ele>200.0</ele><time>2026-05-03T10:01:47.342Z</time></trkpt><trkpt lat="43.090845" lon="12.502641"><ele>200.0</ele><time>2026-05-03T10:01:48.342Z</time></trkpt><trkpt lat="43.0907337" lon="12.5025853"><ele>200.0</ele><time>2026-05-03T10:01:49.343Z</time></trkpt><trkpt lat="43.0906247" lon="12.5025579"><ele>199.75</ele><time>2026-05-03T10:01:50.342Z</time></trkpt><trkpt lat="43.0905046" lon="12.5025515"><ele>199.5</ele><time>2026-05-03T10:01:51.342Z</time></trkpt><trkpt lat="43.0903867" lon="12.5025677"><ele>199.25</ele><time>2026-05-03T10:01:52.342Z</time></trkpt><trkpt lat="43.0902774" lon="12.502635"><ele>199.0</ele><time>2026-05-03T10:01:53.342Z</time></trkpt><trkpt lat="43.0901766" lon="12.5027392"><ele>199.0</ele><time>2026-05-03T10:01:54.343Z</time></trkpt><trkpt lat="43.0900794" lon="12.5028465"><ele>199.0</ele><time>2026-05-03T10:01:55.342Z</time></trkpt><trkpt lat="43.0899806" lon="12.5029666"><ele>199.0</ele><time>2026-05-03T10:01:56.342Z</time></trkpt><trkpt lat="43.0898949" lon="12.503099"><ele>199.0</ele><time>2026-05-03T10:01:57.342Z</time></trkpt><trkpt lat="43.0898122" lon="12.5032222"><ele>199.0</ele><time>2026-05-03T10:01:58.342Z</time></trkpt><trkpt lat="43.0897285" lon="12.5033432"><ele>199.0</ele><time>2026-05-03T10:01:59.342Z</time></trkpt><trkpt lat="43.0896421" lon="12.5034764"><ele>199.0</ele><time>2026-05-03T10:02:00.342Z</time></trkpt><trkpt lat="43.0895584" lon="12.5036077"><ele>199.0</ele><time>2026-05-03T10:02:01.342Z</time></trkpt><trkpt lat="43.0894738" lon="12.5037402"><ele>199.25</ele><time>2026-05-03T10:02:02.342Z</time></trkpt><trkpt lat="43.0893929" lon="12.5038631"><ele>199.5</ele><time>2026-05-03T10:02:03.342Z</time></trkpt><trkpt lat="43.0892909" lon="12.503987"><ele>199.75</ele><time>2026-05-03T10:02:04.342Z</time></trkpt><trkpt lat="43.089196" lon="12.5041142"><ele>200.0</ele><time>2026-05-03T10:02:05.342Z</time></trkpt><trkpt lat="43.089104" lon="12.5042483"><ele>200.0</ele><time>2026-05-03T10:02:06.342Z</time></trkpt><trkpt lat="43.0890124" lon="12.5043845"><ele>200.0</ele><time>2026-05-03T10:02:07.342Z</time></trkpt><trkpt lat="43.0889188" lon="12.5045284"><ele>200.0</ele><time>2026-05-03T10:02:08.342Z</time></trkpt><trkpt lat="43.0888211" lon="12.5046637"><ele>200.0</ele><time>2026-05-03T10:02:09.342Z</time></trkpt><trkpt lat="43.0887255" lon="12.5048048"><ele>200.25</ele><time>2026-05-03T10:02:10.343Z</time></trkpt><trkpt lat="43.0886272" lon="12.5049482"><ele>200.5</ele><time>2026-05-03T10:02:11.343Z</time></trkpt><trkpt lat="43.088527" lon="12.5050876"><ele>200.75</ele><time>2026-05-03T10:02:12.342Z</time></trkpt><trkpt lat="43.088432" lon="12.5052353"><ele>201.0</ele><time>2026-05-03T10:02:13.342Z</time></trkpt><trkpt lat="43.0883359" lon="12.5053774"><ele>201.33333333333331</ele><time>2026-05-03T10:02:14.342Z</time></trkpt><trkpt lat="43.0882346" lon="12.5055339"><ele>201.66666666666666</ele><time>2026-05-03T10:02:15.342Z</time></trkpt><trkpt lat="43.0881295" lon="12.505681"><ele>202.0</ele><time>2026-05-03T10:02:16.342Z</time></trkpt><trkpt lat="43.0880267" lon="12.5058254"><ele>202.0</ele><time>2026-05-03T10:02:17.342Z</time></trkpt><trkpt lat="43.0879286" lon="12.5059655"><ele>202.0</ele><time>2026-05-03T10:02:18.342Z</time></trkpt><trkpt lat="43.0878232" lon="12.5061169"><ele>202.0</ele><time>2026-05-03T10:02:19.342Z</time></trkpt><trkpt lat="43.0877164" lon="12.5062675"><ele>202.0</ele><time>2026-05-03T10:02:20.342Z</time></trkpt><trkpt lat="43.0876148" lon="12.5064126"><ele>201.66666666666666</ele><time>2026-05-03T10:02:21.343Z</time></trkpt><trkpt lat="43.0875092" lon="12.5065675"><ele>201.33333333333331</ele><time>2026-05-03T10:02:22.342Z</time></trkpt><trkpt lat="43.0874029" lon="12.5067127"><ele>201.0</ele><time>2026-05-03T10:02:23.342Z</time></trkpt><trkpt lat="43.0873027" lon="12.5068563"><ele>200.5</ele><time>2026-05-03T10:02:24.342Z</time></trkpt><trkpt lat="43.0872067" lon="12.5069981"><ele>200.0</ele><time>2026-05-03T10:02:25.343Z</time></trkpt><trkpt lat="43.087119" lon="12.5071397"><ele>199.5</ele><time>2026-05-03T10:02:26.342Z</time></trkpt><trkpt lat="43.0870284" lon="12.5072584"><ele>199.0</ele><time>2026-05-03T10:02:27.342Z</time></trkpt><trkpt lat="43.086941" lon="12.5073708"><ele>199.0</ele><time>2026-05-03T10:02:28.342Z</time></trkpt><trkpt lat="43.086865" lon="12.5074844"><ele>199.0</ele><time>2026-05-03T10:02:29.342Z</time></trkpt><trkpt lat="43.0867942" lon="12.5075946"><ele>199.0</ele><time>2026-05-03T10:02:30.342Z</time></trkpt><trkpt lat="43.0867244" lon="12.5076941"><ele>199.0</ele><time>2026-05-03T10:02:31.342Z</time></trkpt><trkpt lat="43.0866602" lon="12.5077895"><ele>199.0</ele><time>2026-05-03T10:02:32.343Z</time></trkpt><trkpt lat="43.08661" lon="12.5078706"><ele>198.79999999999998</ele><time>2026-05-03T10:02:33.343Z</time></trkpt><trkpt lat="43.086555" lon="12.5079422"><ele>198.6</ele><time>2026-05-03T10:02:34.342Z</time></trkpt><trkpt lat="43.0864561" lon="12.5079697"><ele>198.4</ele><time>2026-05-03T10:02:36.343Z</time></trkpt><trkpt lat="43.0863408" lon="12.5079163"><ele>198.2</ele><time>2026-05-03T10:02:38.342Z</time></trkpt><trkpt lat="43.0862724" lon="12.5078796"><ele>198.0</ele><time>2026-05-03T10:02:39.342Z</time></trkpt><trkpt lat="43.0861919" lon="12.5078442"><ele>198.60000000000002</ele><time>2026-05-03T10:02:40.343Z</time></trkpt><trkpt lat="43.0861149" lon="12.5078076"><ele>199.20000000000002</ele><time>2026-05-03T10:02:41.342Z</time></trkpt><trkpt lat="43.0860346" lon="12.5077677"><ele>199.8</ele><time>2026-05-03T10:02:42.342Z</time></trkpt><trkpt lat="43.0859486" lon="12.5077136"><ele>200.4</ele><time>2026-05-03T10:02:43.342Z</time></trkpt><trkpt lat="43.0858604" lon="12.5076608"><ele>201.0</ele><time>2026-05-03T10:02:44.342Z</time></trkpt><trkpt lat="43.0857722" lon="12.507612"><ele>201.0</ele><time>2026-05-03T10:02:45.342Z</time></trkpt><trkpt lat="43.0856877" lon="12.5075659"><ele>201.0</ele><time>2026-05-03T10:02:46.342Z</time></trkpt><trkpt lat="43.0856017" lon="12.5075242"><ele>201.0</ele><time>2026-05-03T10:02:47.342Z</time></trkpt><trkpt lat="43.0855158" lon="12.507483"><ele>201.0</ele><time>2026-05-03T10:02:48.343Z</time></trkpt><trkpt lat="43.0854329" lon="12.5074456"><ele>201.0</ele><time>2026-05-03T10:02:49.342Z</time></trkpt><trkpt lat="43.0853472" lon="12.5074069"><ele>201.0</ele><time>2026-05-03T10:02:50.342Z</time></trkpt><trkpt lat="43.0852614" lon="12.5073731"><ele>201.0</ele><time>2026-05-03T10:02:51.342Z</time></trkpt><trkpt lat="43.0851598" lon="12.5073296"><ele>201.0</ele><time>2026-05-03T10:02:52.343Z</time></trkpt><trkpt lat="43.0850678" lon="12.5072869"><ele>201.0</ele><time>2026-05-03T10:02:53.342Z</time></trkpt><trkpt lat="43.0849716" lon="12.5072439"><ele>201.0</ele><time>2026-05-03T10:02:54.342Z</time></trkpt><trkpt lat="43.0848728" lon="12.5071983"><ele>201.0</ele><time>2026-05-03T10:02:55.342Z</time></trkpt><trkpt lat="43.0847708" lon="12.5071488"><ele>201.0</ele><time>2026-05-03T10:02:56.342Z</time></trkpt><trkpt lat="43.0846698" lon="12.5071076"><ele>201.0</ele><time>2026-05-03T10:02:57.342Z</time></trkpt><trkpt lat="43.0845674" lon="12.5070501"><ele>201.0</ele><time>2026-05-03T10:02:58.342Z</time></trkpt><trkpt lat="43.0844724" lon="12.5069995"><ele>201.0</ele><time>2026-05-03T10:02:59.342Z</time></trkpt><trkpt lat="43.0843778" lon="12.5069496"><ele>201.0</ele><time>2026-05-03T10:03:00.342Z</time></trkpt><trkpt lat="43.0842895" lon="12.5069117"><ele>201.0</ele><time>2026-05-03T10:03:01.343Z</time></trkpt><trkpt lat="43.0841975" lon="12.5068761"><ele>201.0</ele><time>2026-05-03T10:03:02.343Z</time></trkpt><trkpt lat="43.0841042" lon="12.5068298"><ele>201.0</ele><time>2026-05-03T10:03:03.342Z</time></trkpt><trkpt lat="43.0840111" lon="12.5067817"><ele>201.0</ele><time>2026-05-03T10:03:04.342Z</time></trkpt><trkpt lat="43.0839127" lon="12.5067297"><ele>201.0</ele><time>2026-05-03T10:03:05.343Z</time></trkpt><trkpt lat="43.083825" lon="12.5066772"><ele>201.0</ele><time>2026-05-03T10:03:06.342Z</time></trkpt><trkpt lat="43.0837306" lon="12.5066196"><ele>201.0</ele><time>2026-05-03T10:03:07.342Z</time></trkpt><trkpt lat="43.0836321" lon="12.5065617"><ele>201.0</ele><time>2026-05-03T10:03:08.342Z</time></trkpt><trkpt lat="43.0835285" lon="12.5065064"><ele>201.0</ele><time>2026-05-03T10:03:09.342Z</time></trkpt></trkseg></trk></gpx>